<?xml version='1.0' encoding='UTF-8'?><gpx version="1.1" creator="JPX - https://github.com/jenetics/jpx" xmlns="http://www.topografix.com/GPX/1/1"><trk><trkseg><trkpt lat="44.8378652" lon="11.9525829"><ele>42.2</ele><time>2026-04-24T10:01:50.267Z</time></trkpt></trkseg><trkseg><trkpt lat="44.8379481" lon="11.9530816"><ele>-1.9999999999999998</ele><time>2026-04-24T10:24:05.261Z</time></trkpt><trkpt lat="44.8380235" lon="11.95306"><ele>-2.0</ele><time>2026-04-24T10:25:10.262Z</time></trkpt><trkpt lat="44.8381027" lon="11.953079"><ele>-2.0</ele><time>2026-04-24T10:25:13.262Z</time></trkpt><trkpt lat="44.8381581" lon="11.9531949"><ele>-2.0</ele><time>2026-04-24T10:25:15.262Z</time></trkpt><trkpt lat="44.8382284" lon="11.9533275"><ele>-1.9999999999999998</ele><time>2026-04-24T10:25:17.263Z</time></trkpt><trkpt lat="44.8382744" lon="11.9534057"><ele>-2.0</ele><time>2026-04-24T10:25:18.263Z</time></trkpt><trkpt lat="44.8383142" lon="11.9534763"><ele>-2.0</ele><time>2026-04-24T10:25:19.262Z</time></trkpt><trkpt lat="44.8383901" lon="11.9535653"><ele>-2.0</ele><time>2026-04-24T10:25:21.263Z</time></trkpt><trkpt lat="44.8384736" lon="11.9535808"><ele>-2.0</ele><time>2026-04-24T10:25:23.263Z</time></trkpt><trkpt lat="44.8385482" lon="11.9535162"><ele>-2.0</ele><time>2026-04-24T10:25:25.262Z</time></trkpt><trkpt lat="44.8385802" lon="11.953367"><ele>-2.0</ele><time>2026-04-24T10:25:27.262Z</time></trkpt><trkpt lat="44.8385783" lon="11.9532643"><ele>-2.0</ele><time>2026-04-24T10:25:28.263Z</time></trkpt><trkpt lat="44.8385809" lon="11.9531382"><ele>-2.0</ele><time>2026-04-24T10:25:29.263Z</time></trkpt><trkpt lat="44.8385812" lon="11.9530073"><ele>-2.0</ele><time>2026-04-24T10:25:30.263Z</time></trkpt><trkpt lat="44.838575" lon="11.9528638"><ele>-2.0</ele><time>2026-04-24T10:25:31.262Z</time></trkpt><trkpt lat="44.8385716" lon="11.952705"><ele>-2.0</ele><time>2026-04-24T10:25:32.261Z</time></trkpt><trkpt lat="44.8385692" lon="11.952522"><ele>-2.0</ele><time>2026-04-24T10:25:33.262Z</time></trkpt><trkpt lat="44.8385672" lon="11.9523488"><ele>-2.0</ele><time>2026-04-24T10:25:34.263Z</time></trkpt><trkpt lat="44.8385687" lon="11.9522019"><ele>-2.0</ele><time>2026-04-24T10:25:35.263Z</time></trkpt><trkpt lat="44.8385706" lon="11.9520858"><ele>-2.0</ele><time>2026-04-24T10:25:36.262Z</time></trkpt><trkpt lat="44.8385748" lon="11.9519893"><ele>-2.0</ele><time>2026-04-24T10:25:37.262Z</time></trkpt><trkpt lat="44.8385884" lon="11.9518398"><ele>-2.2</ele><time>2026-04-24T10:25:39.263Z</time></trkpt><trkpt lat="44.8386332" lon="11.9516667"><ele>-2.4000000000000004</ele><time>2026-04-24T10:25:41.262Z</time></trkpt><trkpt lat="44.8386744" lon="11.951565"><ele>-2.5999999999999996</ele><time>2026-04-24T10:25:42.263Z</time></trkpt><trkpt lat="44.8387305" lon="11.9514536"><ele>-2.8</ele><time>2026-04-24T10:25:43.263Z</time></trkpt><trkpt lat="44.8387946" lon="11.9513457"><ele>-3.0</ele><time>2026-04-24T10:25:44.262Z</time></trkpt><trkpt lat="44.8388632" lon="11.951243"><ele>-3.0</ele><time>2026-04-24T10:25:45.262Z</time></trkpt><trkpt lat="44.838939" lon="11.9511553"><ele>-3.0</ele><time>2026-04-24T10:25:46.262Z</time></trkpt><trkpt lat="44.839016" lon="11.9510898"><ele>-3.0</ele><time>2026-04-24T10:25:47.263Z</time></trkpt><trkpt lat="44.8391008" lon="11.9510417"><ele>-3.0</ele><time>2026-04-24T10:25:48.262Z</time></trkpt><trkpt lat="44.8391961" lon="11.9510033"><ele>-3.0</ele><time>2026-04-24T10:25:49.262Z</time></trkpt><trkpt lat="44.8393027" lon="11.9509803"><ele>-2.75</ele><time>2026-04-24T10:25:50.262Z</time></trkpt><trkpt lat="44.8394321" lon="11.9509673"><ele>-2.5</ele><time>2026-04-24T10:25:51.262Z</time></trkpt><trkpt lat="44.8395804" lon="11.9509588"><ele>-2.25</ele><time>2026-04-24T10:25:52.262Z</time></trkpt><trkpt lat="44.8397337" lon="11.9509552"><ele>-2.0</ele><time>2026-04-24T10:25:53.262Z</time></trkpt><trkpt lat="44.8398842" lon="11.9509518"><ele>-2.0</ele><time>2026-04-24T10:25:54.263Z</time></trkpt><trkpt lat="44.8400133" lon="11.9509524"><ele>-2.0</ele><time>2026-04-24T10:25:55.263Z</time></trkpt><trkpt lat="44.8401418" lon="11.9509524"><ele>-2.0</ele><time>2026-04-24T10:25:56.262Z</time></trkpt><trkpt lat="44.8402747" lon="11.9509493"><ele>-2.0</ele><time>2026-04-24T10:25:57.262Z</time></trkpt><trkpt lat="44.8404092" lon="11.9509514"><ele>-2.0</ele><time>2026-04-24T10:25:58.263Z</time></trkpt><trkpt lat="44.8405461" lon="11.9509529"><ele>-2.0</ele><time>2026-04-24T10:25:59.263Z</time></trkpt><trkpt lat="44.8406833" lon="11.9509448"><ele>-2.0</ele><time>2026-04-24T10:26:00.262Z</time></trkpt><trkpt lat="44.8408242" lon="11.9509297"><ele>-2.0</ele><time>2026-04-24T10:26:01.262Z</time></trkpt><trkpt lat="44.8409708" lon="11.9509173"><ele>-2.0</ele><time>2026-04-24T10:26:02.263Z</time></trkpt><trkpt lat="44.8411192" lon="11.9509124"><ele>-2.0</ele><time>2026-04-24T10:26:03.262Z</time></trkpt><trkpt lat="44.8412775" lon="11.950908"><ele>-2.0</ele><time>2026-04-24T10:26:04.262Z</time></trkpt><trkpt lat="44.8414468" lon="11.9509047"><ele>-2.0</ele><time>2026-04-24T10:26:05.263Z</time></trkpt><trkpt lat="44.8416183" lon="11.9508999"><ele>-2.0</ele><time>2026-04-24T10:26:06.263Z</time></trkpt><trkpt lat="44.841782" lon="11.9508924"><ele>-2.0</ele><time>2026-04-24T10:26:07.262Z</time></trkpt><trkpt lat="44.8419422" lon="11.9508884"><ele>-2.6666666666666665</ele><time>2026-04-24T10:26:08.262Z</time></trkpt><trkpt lat="44.8421002" lon="11.9508861"><ele>-3.333333333333333</ele><time>2026-04-24T10:26:09.262Z</time></trkpt><trkpt lat="44.8422577" lon="11.9508832"><ele>-4.0</ele><time>2026-04-24T10:26:10.262Z</time></trkpt><trkpt lat="44.842413" lon="11.95088"><ele>-4.0</ele><time>2026-04-24T10:26:11.263Z</time></trkpt><trkpt lat="44.8425623" lon="11.9508751"><ele>-4.0</ele><time>2026-04-24T10:26:12.263Z</time></trkpt><trkpt lat="44.8427145" lon="11.9508747"><ele>-4.0</ele><time>2026-04-24T10:26:13.262Z</time></trkpt><trkpt lat="44.8428711" lon="11.9508746"><ele>-4.333333333333333</ele><time>2026-04-24T10:26:14.262Z</time></trkpt><trkpt lat="44.8430306" lon="11.9508704"><ele>-4.666666666666667</ele><time>2026-04-24T10:26:15.262Z</time></trkpt><trkpt lat="44.8431911" lon="11.9508642"><ele>-5.0</ele><time>2026-04-24T10:26:16.263Z</time></trkpt><trkpt lat="44.8433459" lon="11.9508585"><ele>-4.75</ele><time>2026-04-24T10:26:17.261Z</time></trkpt><trkpt lat="44.8434905" lon="11.9508547"><ele>-4.5</ele><time>2026-04-24T10:26:18.262Z</time></trkpt><trkpt lat="44.8436294" lon="11.950853"><ele>-4.25</ele><time>2026-04-24T10:26:19.263Z</time></trkpt><trkpt lat="44.8437719" lon="11.9508535"><ele>-4.0</ele><time>2026-04-24T10:26:20.263Z</time></trkpt><trkpt lat="44.8439216" lon="11.9508496"><ele>-4.0</ele><time>2026-04-24T10:26:21.263Z</time></trkpt><trkpt lat="44.8440744" lon="11.9508387"><ele>-4.0</ele><time>2026-04-24T10:26:22.262Z</time></trkpt><trkpt lat="44.8442317" lon="11.9508286"><ele>-4.0</ele><time>2026-04-24T10:26:23.263Z</time></trkpt><trkpt lat="44.8443869" lon="11.950827"><ele>-4.0</ele><time>2026-04-24T10:26:24.263Z</time></trkpt><trkpt lat="44.8445331" lon="11.9508254"><ele>-4.0</ele><time>2026-04-24T10:26:25.262Z</time></trkpt><trkpt lat="44.8446788" lon="11.9508176"><ele>-4.0</ele><time>2026-04-24T10:26:26.262Z</time></trkpt><trkpt lat="44.8448308" lon="11.9508061"><ele>-4.0</ele><time>2026-04-24T10:26:27.263Z</time></trkpt><trkpt lat="44.8449894" lon="11.9508013"><ele>-4.5</ele><time>2026-04-24T10:26:28.263Z</time></trkpt><trkpt lat="44.8451498" lon="11.9508022"><ele>-5.0</ele><time>2026-04-24T10:26:29.262Z</time></trkpt><trkpt lat="44.8452992" lon="11.9508021"><ele>-5.5</ele><time>2026-04-24T10:26:30.262Z</time></trkpt><trkpt lat="44.8454388" lon="11.9508039"><ele>-6.0</ele><time>2026-04-24T10:26:31.262Z</time></trkpt><trkpt lat="44.8455712" lon="11.9508062"><ele>-6.0</ele><time>2026-04-24T10:26:32.263Z</time></trkpt><trkpt lat="44.8456913" lon="11.9508071"><ele>-6.0</ele><time>2026-04-24T10:26:33.263Z</time></trkpt><trkpt lat="44.8458011" lon="11.9508085"><ele>-6.0</ele><time>2026-04-24T10:26:34.262Z</time></trkpt><trkpt lat="44.8458955" lon="11.9508101"><ele>-6.0</ele><time>2026-04-24T10:26:35.262Z</time></trkpt><trkpt lat="44.845979" lon="11.9508128"><ele>-6.0</ele><time>2026-04-24T10:26:36.263Z</time></trkpt><trkpt lat="44.8460586" lon="11.9508159"><ele>-5.833333333333333</ele><time>2026-04-24T10:26:37.263Z</time></trkpt><trkpt lat="44.8461272" lon="11.9508151"><ele>-5.666666666666667</ele><time>2026-04-24T10:26:38.263Z</time></trkpt><trkpt lat="44.846218" lon="11.9508089"><ele>-5.5</ele><time>2026-04-24T10:26:40.262Z</time></trkpt><trkpt lat="44.8462453" lon="11.9507269"><ele>-5.333333333333334</ele><time>2026-04-24T10:26:45.262Z</time></trkpt><trkpt lat="44.8461928" lon="11.9506307"><ele>-5.166666666666667</ele><time>2026-04-24T10:26:50.262Z</time></trkpt><trkpt lat="44.8461235" lon="11.9507373"><ele>-5.0</ele><time>2026-04-24T10:26:51.229Z</time></trkpt><trkpt lat="44.8460811" lon="11.9508043"><ele>-5.0</ele><time>2026-04-24T10:26:52.148Z</time></trkpt><trkpt lat="44.8460127" lon="11.9508026"><ele>-5.0</ele><time>2026-04-24T10:26:53.263Z</time></trkpt><trkpt lat="44.8459032" lon="11.950799"><ele>-5.0</ele><time>2026-04-24T10:26:55.262Z</time></trkpt><trkpt lat="44.8458337" lon="11.9508022"><ele>-5.0</ele><time>2026-04-24T10:26:56.262Z</time></trkpt><trkpt lat="44.8457593" lon="11.9508041"><ele>-5.0</ele><time>2026-04-24T10:26:57.262Z</time></trkpt><trkpt lat="44.8456762" lon="11.9508011"><ele>-5.0</ele><time>2026-04-24T10:26:58.262Z</time></trkpt><trkpt lat="44.8455743" lon="11.9507974"><ele>-5.25</ele><time>2026-04-24T10:26:59.261Z</time></trkpt><trkpt lat="44.8454614" lon="11.9507956"><ele>-5.5</ele><time>2026-04-24T10:27:00.262Z</time></trkpt><trkpt lat="44.8453159" lon="11.9507935"><ele>-5.75</ele><time>2026-04-24T10:27:01.262Z</time></trkpt><trkpt lat="44.8451463" lon="11.9507965"><ele>-6.0</ele><time>2026-04-24T10:27:02.263Z</time></trkpt><trkpt lat="44.8449643" lon="11.9507996"><ele>-5.333333333333333</ele><time>2026-04-24T10:27:03.263Z</time></trkpt><trkpt lat="44.8447946" lon="11.9508093"><ele>-4.666666666666666</ele><time>2026-04-24T10:27:04.262Z</time></trkpt><trkpt lat="44.8446382" lon="11.9508257"><ele>-4.0</ele><time>2026-04-24T10:27:05.262Z</time></trkpt><trkpt lat="44.8444766" lon="11.9508339"><ele>-4.0</ele><time>2026-04-24T10:27:06.261Z</time></trkpt><trkpt lat="44.8443186" lon="11.9508371"><ele>-4.0</ele><time>2026-04-24T10:27:07.262Z</time></trkpt><trkpt lat="44.8441677" lon="11.9508378"><ele>-4.0</ele><time>2026-04-24T10:27:08.262Z</time></trkpt><trkpt lat="44.8440293" lon="11.9508402"><ele>-4.0</ele><time>2026-04-24T10:27:09.263Z</time></trkpt><trkpt lat="44.8439026" lon="11.9508418"><ele>-4.0</ele><time>2026-04-24T10:27:10.263Z</time></trkpt><trkpt lat="44.8437763" lon="11.9508404"><ele>-4.0</ele><time>2026-04-24T10:27:11.263Z</time></trkpt><trkpt lat="44.8436526" lon="11.9508401"><ele>-4.0</ele><time>2026-04-24T10:27:12.263Z</time></trkpt><trkpt lat="44.8435421" lon="11.9508437"><ele>-4.0</ele><time>2026-04-24T10:27:13.263Z</time></trkpt><trkpt lat="44.843436" lon="11.9508471"><ele>-4.25</ele><time>2026-04-24T10:27:14.263Z</time></trkpt><trkpt lat="44.8433211" lon="11.9508508"><ele>-4.5</ele><time>2026-04-24T10:27:15.263Z</time></trkpt><trkpt lat="44.8431921" lon="11.9508588"><ele>-4.75</ele><time>2026-04-24T10:27:16.263Z</time></trkpt><trkpt lat="44.8430559" lon="11.9508623"><ele>-5.0</ele><time>2026-04-24T10:27:17.263Z</time></trkpt><trkpt lat="44.8429088" lon="11.9508657"><ele>-5.0</ele><time>2026-04-24T10:27:18.263Z</time></trkpt><trkpt lat="44.8427522" lon="11.9508687"><ele>-5.0</ele><time>2026-04-24T10:27:19.262Z</time></trkpt><trkpt lat="44.8425896" lon="11.9508722"><ele>-5.0</ele><time>2026-04-24T10:27:20.262Z</time></trkpt><trkpt lat="44.8424186" lon="11.9508749"><ele>-4.666666666666667</ele><time>2026-04-24T10:27:21.261Z</time></trkpt><trkpt lat="44.8422306" lon="11.950879"><ele>-4.333333333333333</ele><time>2026-04-24T10:27:22.262Z</time></trkpt><trkpt lat="44.8420194" lon="11.9508845"><ele>-4.0</ele><time>2026-04-24T10:27:23.262Z</time></trkpt><trkpt lat="44.8417957" lon="11.9508911"><ele>-3.333333333333333</ele><time>2026-04-24T10:27:24.262Z</time></trkpt><trkpt lat="44.8415836" lon="11.9508989"><ele>-2.6666666666666665</ele><time>2026-04-24T10:27:25.262Z</time></trkpt><trkpt lat="44.841392" lon="11.9509082"><ele>-2.0</ele><time>2026-04-24T10:27:26.262Z</time></trkpt><trkpt lat="44.8412197" lon="11.9509163"><ele>-2.0</ele><time>2026-04-24T10:27:27.262Z</time></trkpt><trkpt lat="44.8410629" lon="11.9509214"><ele>-2.0</ele><time>2026-04-24T10:27:28.263Z</time></trkpt><trkpt lat="44.8409059" lon="11.950927"><ele>-2.0</ele><time>2026-04-24T10:27:29.262Z</time></trkpt><trkpt lat="44.8407383" lon="11.950933"><ele>-2.333333333333333</ele><time>2026-04-24T10:27:30.262Z</time></trkpt><trkpt lat="44.8405668" lon="11.9509383"><ele>-2.6666666666666665</ele><time>2026-04-24T10:27:31.262Z</time></trkpt><trkpt lat="44.8403948" lon="11.9509391"><ele>-3.0</ele><time>2026-04-24T10:27:32.262Z</time></trkpt><trkpt lat="44.8402212" lon="11.9509375"><ele>-2.6666666666666665</ele><time>2026-04-24T10:27:33.262Z</time></trkpt><trkpt lat="44.8400467" lon="11.9509386"><ele>-2.333333333333333</ele><time>2026-04-24T10:27:34.262Z</time></trkpt><trkpt lat="44.8398818" lon="11.9509414"><ele>-2.0</ele><time>2026-04-24T10:27:35.262Z</time></trkpt><trkpt lat="44.8397288" lon="11.9509437"><ele>-2.0</ele><time>2026-04-24T10:27:36.262Z</time></trkpt><trkpt lat="44.839583" lon="11.9509443"><ele>-2.0</ele><time>2026-04-24T10:27:37.262Z</time></trkpt><trkpt lat="44.8394529" lon="11.9509512"><ele>-2.0</ele><time>2026-04-24T10:27:38.262Z</time></trkpt><trkpt lat="44.8393404" lon="11.9509685"><ele>-2.0</ele><time>2026-04-24T10:27:39.262Z</time></trkpt><trkpt lat="44.83923" lon="11.950996"><ele>-2.25</ele><time>2026-04-24T10:27:40.263Z</time></trkpt><trkpt lat="44.8391219" lon="11.9510411"><ele>-2.5</ele><time>2026-04-24T10:27:41.263Z</time></trkpt><trkpt lat="44.8390157" lon="11.9511043"><ele>-2.75</ele><time>2026-04-24T10:27:42.262Z</time></trkpt><trkpt lat="44.838919" lon="11.951185"><ele>-3.0</ele><time>2026-04-24T10:27:43.262Z</time></trkpt><trkpt lat="44.8388332" lon="11.9512842"><ele>-3.0</ele><time>2026-04-24T10:27:44.262Z</time></trkpt><trkpt lat="44.8387538" lon="11.9514054"><ele>-3.0</ele><time>2026-04-24T10:27:45.262Z</time></trkpt><trkpt lat="44.8386861" lon="11.951546"><ele>-3.0</ele><time>2026-04-24T10:27:46.262Z</time></trkpt><trkpt lat="44.8386344" lon="11.9516871"><ele>-3.0</ele><time>2026-04-24T10:27:47.262Z</time></trkpt><trkpt lat="44.8385994" lon="11.951825"><ele>-2.75</ele><time>2026-04-24T10:27:48.262Z</time></trkpt><trkpt lat="44.8385768" lon="11.95197"><ele>-2.5</ele><time>2026-04-24T10:27:49.263Z</time></trkpt><trkpt lat="44.8385645" lon="11.9521207"><ele>-2.25</ele><time>2026-04-24T10:27:50.263Z</time></trkpt><trkpt lat="44.8385604" lon="11.9522894"><ele>-2.0</ele><time>2026-04-24T10:27:51.263Z</time></trkpt><trkpt lat="44.8385638" lon="11.9524863"><ele>-2.0</ele><time>2026-04-24T10:27:52.263Z</time></trkpt><trkpt lat="44.8385717" lon="11.9526847"><ele>-2.0</ele><time>2026-04-24T10:27:53.262Z</time></trkpt><trkpt lat="44.8385769" lon="11.9528528"><ele>-2.0</ele><time>2026-04-24T10:27:54.261Z</time></trkpt><trkpt lat="44.8385793" lon="11.9529978"><ele>-2.0</ele><time>2026-04-24T10:27:55.261Z</time></trkpt><trkpt lat="44.8385825" lon="11.9531232"><ele>-1.9999999999999998</ele><time>2026-04-24T10:27:56.261Z</time></trkpt><trkpt lat="44.8385839" lon="11.9532339"><ele>-2.0</ele><time>2026-04-24T10:27:57.261Z</time></trkpt><trkpt lat="44.8385815" lon="11.9533357"><ele>-2.0</ele><time>2026-04-24T10:27:58.261Z</time></trkpt><trkpt lat="44.8385698" lon="11.9534289"><ele>-2.0</ele><time>2026-04-24T10:27:59.261Z</time></trkpt><trkpt lat="44.838516" lon="11.953543"><ele>-1.9999999999999998</ele><time>2026-04-24T10:28:01.261Z</time></trkpt><trkpt lat="44.8384493" lon="11.9535927"><ele>-2.0</ele><time>2026-04-24T10:28:03.262Z</time></trkpt><trkpt lat="44.8384339" lon="11.9536879"><ele>-2.2</ele><time>2026-04-24T10:28:05.261Z</time></trkpt><trkpt lat="44.8384868" lon="11.953849"><ele>-2.4000000000000004</ele><time>2026-04-24T10:28:07.262Z</time></trkpt><trkpt lat="44.8385218" lon="11.9539263"><ele>-2.5999999999999996</ele><time>2026-04-24T10:28:08.262Z</time></trkpt><trkpt lat="44.8385657" lon="11.9540957"><ele>-2.8</ele><time>2026-04-24T10:28:10.262Z</time></trkpt><trkpt lat="44.8385765" lon="11.9541885"><ele>-3.0</ele><time>2026-04-24T10:28:11.262Z</time></trkpt><trkpt lat="44.8385843" lon="11.9542935"><ele>-3.4</ele><time>2026-04-24T10:28:12.261Z</time></trkpt><trkpt lat="44.8385889" lon="11.9544182"><ele>-3.8</ele><time>2026-04-24T10:28:13.261Z</time></trkpt><trkpt lat="44.8385904" lon="11.9545562"><ele>-4.2</ele><time>2026-04-24T10:28:14.261Z</time></trkpt><trkpt lat="44.8385893" lon="11.9547014"><ele>-4.6</ele><time>2026-04-24T10:28:15.262Z</time></trkpt><trkpt lat="44.8385906" lon="11.9548516"><ele>-5.0</ele><time>2026-04-24T10:28:16.262Z</time></trkpt><trkpt lat="44.8385911" lon="11.9550129"><ele>-4.75</ele><time>2026-04-24T10:28:17.261Z</time></trkpt><trkpt lat="44.8385945" lon="11.9551878"><ele>-4.5</ele><time>2026-04-24T10:28:18.262Z</time></trkpt><trkpt lat="44.8385973" lon="11.9553713"><ele>-4.25</ele><time>2026-04-24T10:28:19.262Z</time></trkpt><trkpt lat="44.8385987" lon="11.9555501"><ele>-4.0</ele><time>2026-04-24T10:28:20.262Z</time></trkpt><trkpt lat="44.8386008" lon="11.9557338"><ele>-4.0</ele><time>2026-04-24T10:28:21.262Z</time></trkpt><trkpt lat="44.8386005" lon="11.9559248"><ele>-4.0</ele><time>2026-04-24T10:28:22.262Z</time></trkpt><trkpt lat="44.8385991" lon="11.9561259"><ele>-4.0</ele><time>2026-04-24T10:28:23.262Z</time></trkpt><trkpt lat="44.8385962" lon="11.9563316"><ele>-4.0</ele><time>2026-04-24T10:28:24.261Z</time></trkpt><trkpt lat="44.8385962" lon="11.9565373"><ele>-3.75</ele><time>2026-04-24T10:28:25.262Z</time></trkpt><trkpt lat="44.8385999" lon="11.9567449"><ele>-3.5</ele><time>2026-04-24T10:28:26.262Z</time></trkpt><trkpt lat="44.8386027" lon="11.9569453"><ele>-3.25</ele><time>2026-04-24T10:28:27.261Z</time></trkpt><trkpt lat="44.8386043" lon="11.9571319"><ele>-3.0</ele><time>2026-04-24T10:28:28.261Z</time></trkpt><trkpt lat="44.8386055" lon="11.9573092"><ele>-3.0</ele><time>2026-04-24T10:28:29.261Z</time></trkpt><trkpt lat="44.8386058" lon="11.9574919"><ele>-3.0</ele><time>2026-04-24T10:28:30.261Z</time></trkpt><trkpt lat="44.8386056" lon="11.9576867"><ele>-3.0</ele><time>2026-04-24T10:28:31.261Z</time></trkpt><trkpt lat="44.8386063" lon="11.957891"><ele>-3.0</ele><time>2026-04-24T10:28:32.262Z</time></trkpt><trkpt lat="44.8386102" lon="11.9581072"><ele>-3.333333333333333</ele><time>2026-04-24T10:28:33.261Z</time></trkpt><trkpt lat="44.8386124" lon="11.9583323"><ele>-3.6666666666666665</ele><time>2026-04-24T10:28:34.262Z</time></trkpt><trkpt lat="44.8386143" lon="11.9585641"><ele>-4.0</ele><time>2026-04-24T10:28:35.262Z</time></trkpt><trkpt lat="44.8386166" lon="11.9587977"><ele>-4.0</ele><time>2026-04-24T10:28:36.261Z</time></trkpt><trkpt lat="44.8386171" lon="11.9590381"><ele>-4.0</ele><time>2026-04-24T10:28:37.262Z</time></trkpt><trkpt lat="44.8386189" lon="11.9592888"><ele>-4.0</ele><time>2026-04-24T10:28:38.262Z</time></trkpt><trkpt lat="44.83862" lon="11.9595462"><ele>-3.6666666666666665</ele><time>2026-04-24T10:28:39.261Z</time></trkpt><trkpt lat="44.8386211" lon="11.959811"><ele>-3.333333333333333</ele><time>2026-04-24T10:28:40.261Z</time></trkpt><trkpt lat="44.8386198" lon="11.9600802"><ele>-3.0</ele><time>2026-04-24T10:28:41.262Z</time></trkpt><trkpt lat="44.83862" lon="11.9603518"><ele>-3.333333333333333</ele><time>2026-04-24T10:28:42.261Z</time></trkpt><trkpt lat="44.8386212" lon="11.9606248"><ele>-3.6666666666666665</ele><time>2026-04-24T10:28:43.262Z</time></trkpt><trkpt lat="44.8386235" lon="11.9608979"><ele>-4.0</ele><time>2026-04-24T10:28:44.261Z</time></trkpt><trkpt lat="44.8386283" lon="11.9611743"><ele>-4.0</ele><time>2026-04-24T10:28:45.261Z</time></trkpt><trkpt lat="44.8386337" lon="11.9614524"><ele>-4.0</ele><time>2026-04-24T10:28:46.262Z</time></trkpt><trkpt lat="44.8386377" lon="11.9617294"><ele>-4.0</ele><time>2026-04-24T10:28:47.261Z</time></trkpt><trkpt lat="44.8386401" lon="11.9620089"><ele>-4.0</ele><time>2026-04-24T10:28:48.262Z</time></trkpt><trkpt lat="44.8386423" lon="11.96229"><ele>-4.0</ele><time>2026-04-24T10:28:49.262Z</time></trkpt><trkpt lat="44.8386436" lon="11.962572"><ele>-4.0</ele><time>2026-04-24T10:28:50.261Z</time></trkpt><trkpt lat="44.8386437" lon="11.9628465"><ele>-4.0</ele><time>2026-04-24T10:28:51.261Z</time></trkpt><trkpt lat="44.8386453" lon="11.9631063"><ele>-4.0</ele><time>2026-04-24T10:28:52.261Z</time></trkpt><trkpt lat="44.8386478" lon="11.9633632"><ele>-4.0</ele><time>2026-04-24T10:28:53.261Z</time></trkpt><trkpt lat="44.8386513" lon="11.9636211"><ele>-4.333333333333333</ele><time>2026-04-24T10:28:54.262Z</time></trkpt><trkpt lat="44.8386539" lon="11.9638705"><ele>-4.666666666666667</ele><time>2026-04-24T10:28:55.262Z</time></trkpt><trkpt lat="44.8386562" lon="11.9640985"><ele>-5.0</ele><time>2026-04-24T10:28:56.261Z</time></trkpt><trkpt lat="44.8386579" lon="11.9642992"><ele>-5.0</ele><time>2026-04-24T10:28:57.261Z</time></trkpt><trkpt lat="44.8386589" lon="11.9644739"><ele>-5.0</ele><time>2026-04-24T10:28:58.262Z</time></trkpt><trkpt lat="44.8386591" lon="11.9646273"><ele>-5.0</ele><time>2026-04-24T10:28:59.262Z</time></trkpt><trkpt lat="44.8386581" lon="11.9647468"><ele>-5.0</ele><time>2026-04-24T10:29:00.262Z</time></trkpt><trkpt lat="44.838669" lon="11.9648965"><ele>-5.0</ele><time>2026-04-24T10:29:02.261Z</time></trkpt><trkpt lat="44.8387265" lon="11.9649858"><ele>-5.0</ele><time>2026-04-24T10:29:04.262Z</time></trkpt><trkpt lat="44.8388538" lon="11.965038"><ele>-5.0</ele><time>2026-04-24T10:29:06.262Z</time></trkpt><trkpt lat="44.8389505" lon="11.9650333"><ele>-5.0</ele><time>2026-04-24T10:29:07.261Z</time></trkpt><trkpt lat="44.839061" lon="11.9650239"><ele>-5.0</ele><time>2026-04-24T10:29:08.26Z</time></trkpt><trkpt lat="44.8391727" lon="11.9650209"><ele>-5.0</ele><time>2026-04-24T10:29:09.262Z</time></trkpt><trkpt lat="44.8392993" lon="11.9650207"><ele>-5.0</ele><time>2026-04-24T10:29:10.261Z</time></trkpt><trkpt lat="44.8394419" lon="11.965022"><ele>-5.0</ele><time>2026-04-24T10:29:11.262Z</time></trkpt><trkpt lat="44.8395911" lon="11.9650217"><ele>-5.0</ele><time>2026-04-24T10:29:12.262Z</time></trkpt><trkpt lat="44.8397475" lon="11.9650193"><ele>-4.666666666666667</ele><time>2026-04-24T10:29:13.261Z</time></trkpt><trkpt lat="44.8399093" lon="11.965015"><ele>-4.333333333333333</ele><time>2026-04-24T10:29:14.261Z</time></trkpt><trkpt lat="44.8400812" lon="11.9650133"><ele>-4.0</ele><time>2026-04-24T10:29:15.262Z</time></trkpt><trkpt lat="44.8402597" lon="11.9650065"><ele>-4.0</ele><time>2026-04-24T10:29:16.261Z</time></trkpt><trkpt lat="44.8404337" lon="11.9650001"><ele>-4.0</ele><time>2026-04-24T10:29:17.261Z</time></trkpt><trkpt lat="44.8406068" lon="11.9649991"><ele>-4.0</ele><time>2026-04-24T10:29:18.262Z</time></trkpt><trkpt lat="44.840786" lon="11.9649961"><ele>-4.333333333333333</ele><time>2026-04-24T10:29:19.261Z</time></trkpt><trkpt lat="44.8409684" lon="11.9649943"><ele>-4.666666666666667</ele><time>2026-04-24T10:29:20.261Z</time></trkpt><trkpt lat="44.8411555" lon="11.9649914"><ele>-5.0</ele><time>2026-04-24T10:29:21.261Z</time></trkpt><trkpt lat="44.8413446" lon="11.9649869"><ele>-5.0</ele><time>2026-04-24T10:29:22.262Z</time></trkpt><trkpt lat="44.8415344" lon="11.9649806"><ele>-5.0</ele><time>2026-04-24T10:29:23.261Z</time></trkpt><trkpt lat="44.8417249" lon="11.9649745"><ele>-5.0</ele><time>2026-04-24T10:29:24.261Z</time></trkpt><trkpt lat="44.8419163" lon="11.9649711"><ele>-5.333333333333334</ele><time>2026-04-24T10:29:25.262Z</time></trkpt><trkpt lat="44.8421101" lon="11.9649661"><ele>-5.666666666666667</ele><time>2026-04-24T10:29:26.261Z</time></trkpt><trkpt lat="44.8423074" lon="11.9649615"><ele>-6.0</ele><time>2026-04-24T10:29:27.262Z</time></trkpt><trkpt lat="44.8425054" lon="11.9649593"><ele>-6.0</ele><time>2026-04-24T10:29:28.261Z</time></trkpt><trkpt lat="44.8427037" lon="11.9649559"><ele>-6.0</ele><time>2026-04-24T10:29:29.261Z</time></trkpt><trkpt lat="44.8429028" lon="11.9649525"><ele>-6.0</ele><time>2026-04-24T10:29:30.262Z</time></trkpt><trkpt lat="44.843098" lon="11.964949"><ele>-6.0</ele><time>2026-04-24T10:29:31.261Z</time></trkpt><trkpt lat="44.8432918" lon="11.964946"><ele>-6.0</ele><time>2026-04-24T10:29:32.262Z</time></trkpt><trkpt lat="44.8434836" lon="11.9649377"><ele>-6.0</ele><time>2026-04-24T10:29:33.262Z</time></trkpt><trkpt lat="44.8436705" lon="11.9649336"><ele>-5.666666666666667</ele><time>2026-04-24T10:29:34.261Z</time></trkpt><trkpt lat="44.8438533" lon="11.9649362"><ele>-5.333333333333334</ele><time>2026-04-24T10:29:35.262Z</time></trkpt><trkpt lat="44.8440347" lon="11.9649335"><ele>-5.0</ele><time>2026-04-24T10:29:36.261Z</time></trkpt><trkpt lat="44.8442165" lon="11.9649281"><ele>-5.0</ele><time>2026-04-24T10:29:37.262Z</time></trkpt><trkpt lat="44.8443951" lon="11.9649245"><ele>-5.0</ele><time>2026-04-24T10:29:38.262Z</time></trkpt><trkpt lat="44.8445758" lon="11.9649252"><ele>-5.0</ele><time>2026-04-24T10:29:39.26Z</time></trkpt><trkpt lat="44.8447576" lon="11.9649226"><ele>-5.0</ele><time>2026-04-24T10:29:40.261Z</time></trkpt><trkpt lat="44.8449352" lon="11.9649204"><ele>-5.0</ele><time>2026-04-24T10:29:41.262Z</time></trkpt><trkpt lat="44.84511" lon="11.9649223"><ele>-5.0</ele><time>2026-04-24T10:29:42.261Z</time></trkpt><trkpt lat="44.8452866" lon="11.9649164"><ele>-5.333333333333334</ele><time>2026-04-24T10:29:43.261Z</time></trkpt><trkpt lat="44.8454637" lon="11.964911"><ele>-5.666666666666667</ele><time>2026-04-24T10:29:44.262Z</time></trkpt><trkpt lat="44.8456413" lon="11.9649069"><ele>-6.0</ele><time>2026-04-24T10:29:45.261Z</time></trkpt><trkpt lat="44.8458193" lon="11.9649005"><ele>-5.333333333333333</ele><time>2026-04-24T10:29:46.261Z</time></trkpt><trkpt lat="44.8459994" lon="11.9648992"><ele>-4.666666666666666</ele><time>2026-04-24T10:29:47.261Z</time></trkpt><trkpt lat="44.8461793" lon="11.9648952"><ele>-4.0</ele><time>2026-04-24T10:29:48.261Z</time></trkpt><trkpt lat="44.8463639" lon="11.9648952"><ele>-4.0</ele><time>2026-04-24T10:29:49.262Z</time></trkpt><trkpt lat="44.8465493" lon="11.9648935"><ele>-4.0</ele><time>2026-04-24T10:29:50.262Z</time></trkpt><trkpt lat="44.8467385" lon="11.9648923"><ele>-4.0</ele><time>2026-04-24T10:29:51.261Z</time></trkpt><trkpt lat="44.8469287" lon="11.9648853"><ele>-4.0</ele><time>2026-04-24T10:29:52.262Z</time></trkpt><trkpt lat="44.8471209" lon="11.964873"><ele>-4.0</ele><time>2026-04-24T10:29:53.262Z</time></trkpt><trkpt lat="44.847314" lon="11.9648625"><ele>-4.0</ele><time>2026-04-24T10:29:54.261Z</time></trkpt><trkpt lat="44.8475121" lon="11.964859"><ele>-4.333333333333333</ele><time>2026-04-24T10:29:55.262Z</time></trkpt><trkpt lat="44.8477061" lon="11.9648541"><ele>-4.666666666666667</ele><time>2026-04-24T10:29:56.262Z</time></trkpt><trkpt lat="44.8479066" lon="11.964849"><ele>-5.0</ele><time>2026-04-24T10:29:57.261Z</time></trkpt><trkpt lat="44.8481089" lon="11.9648471"><ele>-5.0</ele><time>2026-04-24T10:29:58.261Z</time></trkpt><trkpt lat="44.8483118" lon="11.9648474"><ele>-5.0</ele><time>2026-04-24T10:29:59.262Z</time></trkpt><trkpt lat="44.8485164" lon="11.9648552"><ele>-5.0</ele><time>2026-04-24T10:30:00.261Z</time></trkpt><trkpt lat="44.8487225" lon="11.9648553"><ele>-5.0</ele><time>2026-04-24T10:30:01.261Z</time></trkpt><trkpt lat="44.8489319" lon="11.9648517"><ele>-5.0</ele><time>2026-04-24T10:30:02.262Z</time></trkpt><trkpt lat="44.8491428" lon="11.964849"><ele>-5.0</ele><time>2026-04-24T10:30:03.261Z</time></trkpt><trkpt lat="44.8493554" lon="11.9648459"><ele>-5.0</ele><time>2026-04-24T10:30:04.262Z</time></trkpt><trkpt lat="44.8495678" lon="11.9648437"><ele>-5.0</ele><time>2026-04-24T10:30:05.262Z</time></trkpt><trkpt lat="44.8497802" lon="11.9648407"><ele>-5.0</ele><time>2026-04-24T10:30:06.262Z</time></trkpt><trkpt lat="44.8499892" lon="11.9648344"><ele>-5.0</ele><time>2026-04-24T10:30:07.262Z</time></trkpt><trkpt lat="44.8501899" lon="11.9648302"><ele>-5.0</ele><time>2026-04-24T10:30:08.261Z</time></trkpt><trkpt lat="44.8503779" lon="11.964825"><ele>-5.0</ele><time>2026-04-24T10:30:09.262Z</time></trkpt><trkpt lat="44.8505535" lon="11.9648185"><ele>-5.0</ele><time>2026-04-24T10:30:10.261Z</time></trkpt><trkpt lat="44.8507169" lon="11.9648153"><ele>-5.0</ele><time>2026-04-24T10:30:11.261Z</time></trkpt><trkpt lat="44.8508662" lon="11.9648149"><ele>-5.0</ele><time>2026-04-24T10:30:12.262Z</time></trkpt><trkpt lat="44.8509951" lon="11.9648145"><ele>-5.0</ele><time>2026-04-24T10:30:13.262Z</time></trkpt><trkpt lat="44.8510917" lon="11.9648196"><ele>-5.0</ele><time>2026-04-24T10:30:14.262Z</time></trkpt><trkpt lat="44.8511597" lon="11.9648407"><ele>-5.0</ele><time>2026-04-24T10:30:15.261Z</time></trkpt><trkpt lat="44.8512513" lon="11.9649525"><ele>-5.0</ele><time>2026-04-24T10:30:17.261Z</time></trkpt><trkpt lat="44.8512928" lon="11.9650329"><ele>-5.0</ele><time>2026-04-24T10:30:18.261Z</time></trkpt><trkpt lat="44.8513362" lon="11.9651176"><ele>-5.0</ele><time>2026-04-24T10:30:19.262Z</time></trkpt><trkpt lat="44.8513707" lon="11.9651926"><ele>-5.0</ele><time>2026-04-24T10:30:20.261Z</time></trkpt><trkpt lat="44.8513923" lon="11.9653419"><ele>-5.0</ele><time>2026-04-24T10:30:22.262Z</time></trkpt><trkpt lat="44.8513779" lon="11.965448"><ele>-5.0</ele><time>2026-04-24T10:30:23.261Z</time></trkpt><trkpt lat="44.8513454" lon="11.9655764"><ele>-5.0</ele><time>2026-04-24T10:30:24.262Z</time></trkpt><trkpt lat="44.8513092" lon="11.9657076"><ele>-5.0</ele><time>2026-04-24T10:30:25.261Z</time></trkpt><trkpt lat="44.8512742" lon="11.9658372"><ele>-5.0</ele><time>2026-04-24T10:30:26.262Z</time></trkpt><trkpt lat="44.8512429" lon="11.9659842"><ele>-5.0</ele><time>2026-04-24T10:30:27.261Z</time></trkpt><trkpt lat="44.8512123" lon="11.9661513"><ele>-5.0</ele><time>2026-04-24T10:30:28.261Z</time></trkpt><trkpt lat="44.8511755" lon="11.9663395"><ele>-5.0</ele><time>2026-04-24T10:30:29.26Z</time></trkpt><trkpt lat="44.8511386" lon="11.966528"><ele>-5.0</ele><time>2026-04-24T10:30:30.262Z</time></trkpt><trkpt lat="44.8511022" lon="11.9667106"><ele>-5.0</ele><time>2026-04-24T10:30:31.261Z</time></trkpt><trkpt lat="44.8510622" lon="11.966908"><ele>-5.0</ele><time>2026-04-24T10:30:32.261Z</time></trkpt><trkpt lat="44.8510179" lon="11.9671194"><ele>-5.0</ele><time>2026-04-24T10:30:33.262Z</time></trkpt><trkpt lat="44.8509708" lon="11.967343"><ele>-5.0</ele><time>2026-04-24T10:30:34.262Z</time></trkpt><trkpt lat="44.850926" lon="11.9675684"><ele>-5.0</ele><time>2026-04-24T10:30:35.261Z</time></trkpt><trkpt lat="44.8508832" lon="11.9677861"><ele>-5.0</ele><time>2026-04-24T10:30:36.261Z</time></trkpt><trkpt lat="44.8508501" lon="11.9679895"><ele>-5.0</ele><time>2026-04-24T10:30:37.26Z</time></trkpt><trkpt lat="44.8508299" lon="11.9681786"><ele>-5.0</ele><time>2026-04-24T10:30:38.262Z</time></trkpt><trkpt lat="44.8508192" lon="11.9683738"><ele>-5.0</ele><time>2026-04-24T10:30:39.262Z</time></trkpt><trkpt lat="44.8508172" lon="11.9685843"><ele>-5.0</ele><time>2026-04-24T10:30:40.261Z</time></trkpt><trkpt lat="44.8508189" lon="11.9688027"><ele>-5.0</ele><time>2026-04-24T10:30:41.262Z</time></trkpt><trkpt lat="44.8508291" lon="11.9690362"><ele>-5.0</ele><time>2026-04-24T10:30:42.261Z</time></trkpt><trkpt lat="44.8508468" lon="11.9692753"><ele>-5.0</ele><time>2026-04-24T10:30:43.261Z</time></trkpt><trkpt lat="44.8508726" lon="11.9695167"><ele>-5.333333333333334</ele><time>2026-04-24T10:30:44.262Z</time></trkpt><trkpt lat="44.8509013" lon="11.9697595"><ele>-5.666666666666667</ele><time>2026-04-24T10:30:45.261Z</time></trkpt><trkpt lat="44.8509384" lon="11.9700096"><ele>-6.0</ele><time>2026-04-24T10:30:46.261Z</time></trkpt><trkpt lat="44.8509777" lon="11.9702616"><ele>-6.0</ele><time>2026-04-24T10:30:47.262Z</time></trkpt><trkpt lat="44.8510285" lon="11.9705163"><ele>-6.0</ele><time>2026-04-24T10:30:48.261Z</time></trkpt><trkpt lat="44.8510899" lon="11.9707689"><ele>-6.0</ele><time>2026-04-24T10:30:49.261Z</time></trkpt><trkpt lat="44.8511552" lon="11.9710228"><ele>-6.0</ele><time>2026-04-24T10:30:50.261Z</time></trkpt><trkpt lat="44.8512202" lon="11.9712843"><ele>-6.0</ele><time>2026-04-24T10:30:51.261Z</time></trkpt><trkpt lat="44.8512877" lon="11.9715397"><ele>-6.0</ele><time>2026-04-24T10:30:52.262Z</time></trkpt><trkpt lat="44.8513604" lon="11.9717939"><ele>-6.0</ele><time>2026-04-24T10:30:53.262Z</time></trkpt><trkpt lat="44.8514356" lon="11.9720536"><ele>-6.0</ele><time>2026-04-24T10:30:54.261Z</time></trkpt><trkpt lat="44.8515119" lon="11.9723168"><ele>-6.0</ele><time>2026-04-24T10:30:55.262Z</time></trkpt><trkpt lat="44.8515896" lon="11.9725817"><ele>-5.666666666666667</ele><time>2026-04-24T10:30:56.262Z</time></trkpt><trkpt lat="44.8516691" lon="11.9728502"><ele>-5.333333333333334</ele><time>2026-04-24T10:30:57.261Z</time></trkpt><trkpt lat="44.8517468" lon="11.9731216"><ele>-5.0</ele><time>2026-04-24T10:30:58.261Z</time></trkpt><trkpt lat="44.8518255" lon="11.9733935"><ele>-5.0</ele><time>2026-04-24T10:30:59.262Z</time></trkpt><trkpt lat="44.8519075" lon="11.9736677"><ele>-5.0</ele><time>2026-04-24T10:31:00.261Z</time></trkpt><trkpt lat="44.85199" lon="11.9739405"><ele>-5.0</ele><time>2026-04-24T10:31:01.261Z</time></trkpt><trkpt lat="44.8520733" lon="11.9742213"><ele>-5.333333333333334</ele><time>2026-04-24T10:31:02.261Z</time></trkpt><trkpt lat="44.8521556" lon="11.9744991"><ele>-5.666666666666667</ele><time>2026-04-24T10:31:03.261Z</time></trkpt><trkpt lat="44.8522369" lon="11.9747809"><ele>-6.0</ele><time>2026-04-24T10:31:04.261Z</time></trkpt><trkpt lat="44.852321" lon="11.9750592"><ele>-6.0</ele><time>2026-04-24T10:31:05.261Z</time></trkpt><trkpt lat="44.852401" lon="11.9753424"><ele>-6.0</ele><time>2026-04-24T10:31:06.262Z</time></trkpt><trkpt lat="44.8524819" lon="11.9756208"><ele>-6.0</ele><time>2026-04-24T10:31:07.262Z</time></trkpt><trkpt lat="44.8525627" lon="11.9758982"><ele>-6.0</ele><time>2026-04-24T10:31:08.261Z</time></trkpt><trkpt lat="44.8526424" lon="11.9761768"><ele>-6.0</ele><time>2026-04-24T10:31:09.262Z</time></trkpt><trkpt lat="44.8527201" lon="11.9764507"><ele>-6.0</ele><time>2026-04-24T10:31:10.261Z</time></trkpt><trkpt lat="44.8527975" lon="11.9767244"><ele>-6.0</ele><time>2026-04-24T10:31:11.26Z</time></trkpt><trkpt lat="44.8528764" lon="11.9769835"><ele>-6.0</ele><time>2026-04-24T10:31:12.262Z</time></trkpt><trkpt lat="44.8529563" lon="11.9772371"><ele>-6.0</ele><time>2026-04-24T10:31:13.261Z</time></trkpt><trkpt lat="44.8530279" lon="11.9774801"><ele>-6.0</ele><time>2026-04-24T10:31:14.261Z</time></trkpt><trkpt lat="44.8530967" lon="11.9777193"><ele>-6.0</ele><time>2026-04-24T10:31:15.262Z</time></trkpt><trkpt lat="44.8531616" lon="11.9779486"><ele>-6.0</ele><time>2026-04-24T10:31:16.261Z</time></trkpt><trkpt lat="44.8532297" lon="11.9781789"><ele>-6.333333333333334</ele><time>2026-04-24T10:31:17.261Z</time></trkpt><trkpt lat="44.8533019" lon="11.9784128"><ele>-6.666666666666667</ele><time>2026-04-24T10:31:18.262Z</time></trkpt><trkpt lat="44.8533706" lon="11.9786534"><ele>-7.0</ele><time>2026-04-24T10:31:19.261Z</time></trkpt><trkpt lat="44.853438" lon="11.9789"><ele>-6.666666666666667</ele><time>2026-04-24T10:31:20.261Z</time></trkpt><trkpt lat="44.8535078" lon="11.9791492"><ele>-6.333333333333334</ele><time>2026-04-24T10:31:21.262Z</time></trkpt><trkpt lat="44.8535801" lon="11.9793977"><ele>-6.0</ele><time>2026-04-24T10:31:22.261Z</time></trkpt><trkpt lat="44.8536543" lon="11.9796494"><ele>-6.0</ele><time>2026-04-24T10:31:23.262Z</time></trkpt><trkpt lat="44.8537274" lon="11.9799049"><ele>-6.0</ele><time>2026-04-24T10:31:24.261Z</time></trkpt><trkpt lat="44.8538004" lon="11.9801632"><ele>-6.0</ele><time>2026-04-24T10:31:25.262Z</time></trkpt><trkpt lat="44.8538757" lon="11.980423"><ele>-6.0</ele><time>2026-04-24T10:31:26.261Z</time></trkpt><trkpt lat="44.8539515" lon="11.9806742"><ele>-6.0</ele><time>2026-04-24T10:31:27.261Z</time></trkpt><trkpt lat="44.8540201" lon="11.9809166"><ele>-6.0</ele><time>2026-04-24T10:31:28.262Z</time></trkpt><trkpt lat="44.8540885" lon="11.9811552"><ele>-6.0</ele><time>2026-04-24T10:31:29.26Z</time></trkpt><trkpt lat="44.8541561" lon="11.9813943"><ele>-6.0</ele><time>2026-04-24T10:31:30.261Z</time></trkpt><trkpt lat="44.8542209" lon="11.9816196"><ele>-6.0</ele><time>2026-04-24T10:31:31.262Z</time></trkpt><trkpt lat="44.8542849" lon="11.9818327"><ele>-6.0</ele><time>2026-04-24T10:31:32.261Z</time></trkpt><trkpt lat="44.8543454" lon="11.9820357"><ele>-6.0</ele><time>2026-04-24T10:31:33.261Z</time></trkpt><trkpt lat="44.8544028" lon="11.9822269"><ele>-6.0</ele><time>2026-04-24T10:31:34.262Z</time></trkpt><trkpt lat="44.8544594" lon="11.9824084"><ele>-6.0</ele><time>2026-04-24T10:31:35.261Z</time></trkpt><trkpt lat="44.8545078" lon="11.9825844"><ele>-5.5</ele><time>2026-04-24T10:31:36.262Z</time></trkpt><trkpt lat="44.854554" lon="11.982754"><ele>-5.0</ele><time>2026-04-24T10:31:37.261Z</time></trkpt><trkpt lat="44.8546038" lon="11.9829307"><ele>-4.5</ele><time>2026-04-24T10:31:38.262Z</time></trkpt><trkpt lat="44.8546581" lon="11.9831188"><ele>-4.0</ele><time>2026-04-24T10:31:39.262Z</time></trkpt><trkpt lat="44.85472" lon="11.983317"><ele>-4.0</ele><time>2026-04-24T10:31:40.261Z</time></trkpt><trkpt lat="44.8547842" lon="11.9835271"><ele>-4.0</ele><time>2026-04-24T10:31:41.262Z</time></trkpt><trkpt lat="44.8548515" lon="11.9837501"><ele>-4.0</ele><time>2026-04-24T10:31:42.261Z</time></trkpt><trkpt lat="44.854921" lon="11.9839837"><ele>-4.666666666666666</ele><time>2026-04-24T10:31:43.261Z</time></trkpt><trkpt lat="44.854992" lon="11.9842282"><ele>-5.333333333333333</ele><time>2026-04-24T10:31:44.261Z</time></trkpt><trkpt lat="44.8550659" lon="11.984477"><ele>-6.0</ele><time>2026-04-24T10:31:45.261Z</time></trkpt><trkpt lat="44.8551399" lon="11.9847328"><ele>-6.0</ele><time>2026-04-24T10:31:46.262Z</time></trkpt><trkpt lat="44.8552124" lon="11.9849977"><ele>-6.0</ele><time>2026-04-24T10:31:47.261Z</time></trkpt><trkpt lat="44.8552847" lon="11.9852702"><ele>-6.0</ele><time>2026-04-24T10:31:48.262Z</time></trkpt><trkpt lat="44.8553628" lon="11.9855453"><ele>-6.0</ele><time>2026-04-24T10:31:49.262Z</time></trkpt><trkpt lat="44.8554425" lon="11.9858198"><ele>-6.0</ele><time>2026-04-24T10:31:50.261Z</time></trkpt><trkpt lat="44.855526" lon="11.9860953"><ele>-6.0</ele><time>2026-04-24T10:31:51.261Z</time></trkpt><trkpt lat="44.8556158" lon="11.9863683"><ele>-6.333333333333334</ele><time>2026-04-24T10:31:52.262Z</time></trkpt><trkpt lat="44.8557121" lon="11.9866394"><ele>-6.666666666666667</ele><time>2026-04-24T10:31:53.26Z</time></trkpt><trkpt lat="44.8558154" lon="11.98691"><ele>-7.0</ele><time>2026-04-24T10:31:54.261Z</time></trkpt><trkpt lat="44.8559209" lon="11.9871754"><ele>-7.0</ele><time>2026-04-24T10:31:55.262Z</time></trkpt><trkpt lat="44.856034" lon="11.9874383"><ele>-7.0</ele><time>2026-04-24T10:31:56.261Z</time></trkpt><trkpt lat="44.856154" lon="11.9876961"><ele>-7.0</ele><time>2026-04-24T10:31:57.261Z</time></trkpt><trkpt lat="44.8562804" lon="11.9879479"><ele>-7.0</ele><time>2026-04-24T10:31:58.262Z</time></trkpt><trkpt lat="44.8564125" lon="11.9881991"><ele>-7.0</ele><time>2026-04-24T10:31:59.262Z</time></trkpt><trkpt lat="44.8565482" lon="11.988445"><ele>-7.0</ele><time>2026-04-24T10:32:00.261Z</time></trkpt><trkpt lat="44.8566881" lon="11.9886866"><ele>-6.666666666666667</ele><time>2026-04-24T10:32:01.262Z</time></trkpt><trkpt lat="44.8568259" lon="11.9889232"><ele>-6.333333333333334</ele><time>2026-04-24T10:32:02.261Z</time></trkpt><trkpt lat="44.8569589" lon="11.9891445"><ele>-6.0</ele><time>2026-04-24T10:32:03.26Z</time></trkpt><trkpt lat="44.8570838" lon="11.9893483"><ele>-5.333333333333333</ele><time>2026-04-24T10:32:04.262Z</time></trkpt><trkpt lat="44.8571999" lon="11.9895315"><ele>-4.666666666666666</ele><time>2026-04-24T10:32:05.261Z</time></trkpt><trkpt lat="44.8572982" lon="11.9896985"><ele>-4.0</ele><time>2026-04-24T10:32:06.262Z</time></trkpt><trkpt lat="44.8573838" lon="11.9898554"><ele>-4.0</ele><time>2026-04-24T10:32:07.262Z</time></trkpt><trkpt lat="44.8574478" lon="11.9900045"><ele>-4.0</ele><time>2026-04-24T10:32:08.261Z</time></trkpt><trkpt lat="44.857495" lon="11.9901562"><ele>-4.0</ele><time>2026-04-24T10:32:09.262Z</time></trkpt><trkpt lat="44.8575258" lon="11.9903183"><ele>-4.0</ele><time>2026-04-24T10:32:10.261Z</time></trkpt><trkpt lat="44.8575358" lon="11.990492"><ele>-4.25</ele><time>2026-04-24T10:32:11.262Z</time></trkpt><trkpt lat="44.8575147" lon="11.9906633"><ele>-4.5</ele><time>2026-04-24T10:32:12.261Z</time></trkpt><trkpt lat="44.8574666" lon="11.9908343"><ele>-4.75</ele><time>2026-04-24T10:32:13.261Z</time></trkpt><trkpt lat="44.857397" lon="11.9910065"><ele>-5.0</ele><time>2026-04-24T10:32:14.262Z</time></trkpt><trkpt lat="44.8573117" lon="11.991188"><ele>-5.0</ele><time>2026-04-24T10:32:15.261Z</time></trkpt><trkpt lat="44.8572169" lon="11.9913809"><ele>-5.0</ele><time>2026-04-24T10:32:16.262Z</time></trkpt><trkpt lat="44.8571167" lon="11.9915839"><ele>-5.0</ele><time>2026-04-24T10:32:17.261Z</time></trkpt><trkpt lat="44.8570167" lon="11.9917807"><ele>-5.0</ele><time>2026-04-24T10:32:18.262Z</time></trkpt><trkpt lat="44.8569182" lon="11.991974"><ele>-5.0</ele><time>2026-04-24T10:32:19.261Z</time></trkpt><trkpt lat="44.8568236" lon="11.992163"><ele>-5.0</ele><time>2026-04-24T10:32:20.261Z</time></trkpt><trkpt lat="44.856729" lon="11.9923494"><ele>-5.333333333333334</ele><time>2026-04-24T10:32:21.262Z</time></trkpt><trkpt lat="44.8566306" lon="11.992551"><ele>-5.666666666666667</ele><time>2026-04-24T10:32:22.261Z</time></trkpt><trkpt lat="44.8565338" lon="11.9927598"><ele>-6.0</ele><time>2026-04-24T10:32:23.261Z</time></trkpt><trkpt lat="44.8564328" lon="11.9929694"><ele>-6.0</ele><time>2026-04-24T10:32:24.262Z</time></trkpt><trkpt lat="44.8563291" lon="11.993179"><ele>-6.0</ele><time>2026-04-24T10:32:25.262Z</time></trkpt><trkpt lat="44.8562258" lon="11.9933932"><ele>-6.0</ele><time>2026-04-24T10:32:26.261Z</time></trkpt><trkpt lat="44.8561213" lon="11.9936097"><ele>-6.0</ele><time>2026-04-24T10:32:27.262Z</time></trkpt><trkpt lat="44.8560184" lon="11.9938236"><ele>-6.0</ele><time>2026-04-24T10:32:28.261Z</time></trkpt><trkpt lat="44.8559173" lon="11.99403"><ele>-6.0</ele><time>2026-04-24T10:32:29.262Z</time></trkpt><trkpt lat="44.8558155" lon="11.9942372"><ele>-5.666666666666667</ele><time>2026-04-24T10:32:30.261Z</time></trkpt><trkpt lat="44.8557118" lon="11.9944439"><ele>-5.333333333333334</ele><time>2026-04-24T10:32:31.261Z</time></trkpt><trkpt lat="44.8556088" lon="11.9946469"><ele>-5.0</ele><time>2026-04-24T10:32:32.262Z</time></trkpt><trkpt lat="44.8555027" lon="11.9948605"><ele>-5.333333333333334</ele><time>2026-04-24T10:32:33.261Z</time></trkpt><trkpt lat="44.8553988" lon="11.9950788"><ele>-5.666666666666667</ele><time>2026-04-24T10:32:34.261Z</time></trkpt><trkpt lat="44.8552937" lon="11.9952986"><ele>-6.0</ele><time>2026-04-24T10:32:35.262Z</time></trkpt><trkpt lat="44.8551838" lon="11.9955222"><ele>-6.333333333333334</ele><time>2026-04-24T10:32:36.261Z</time></trkpt><trkpt lat="44.8550766" lon="11.9957432"><ele>-6.666666666666667</ele><time>2026-04-24T10:32:37.262Z</time></trkpt><trkpt lat="44.8549702" lon="11.9959619"><ele>-7.0</ele><time>2026-04-24T10:32:38.261Z</time></trkpt><trkpt lat="44.8548617" lon="11.9961817"><ele>-7.0</ele><time>2026-04-24T10:32:39.261Z</time></trkpt><trkpt lat="44.8547531" lon="11.9964026"><ele>-7.0</ele><time>2026-04-24T10:32:40.261Z</time></trkpt><trkpt lat="44.8546452" lon="11.9966246"><ele>-7.0</ele><time>2026-04-24T10:32:41.262Z</time></trkpt><trkpt lat="44.8545411" lon="11.9968331"><ele>-7.0</ele><time>2026-04-24T10:32:42.262Z</time></trkpt><trkpt lat="44.8544467" lon="11.9970274"><ele>-7.0</ele><time>2026-04-24T10:32:43.261Z</time></trkpt><trkpt lat="44.8543493" lon="11.9972205"><ele>-7.0</ele><time>2026-04-24T10:32:44.261Z</time></trkpt><trkpt lat="44.8542485" lon="11.9974181"><ele>-6.333333333333334</ele><time>2026-04-24T10:32:45.262Z</time></trkpt><trkpt lat="44.854152" lon="11.9976102"><ele>-5.666666666666667</ele><time>2026-04-24T10:32:46.262Z</time></trkpt><trkpt lat="44.8540656" lon="11.9977998"><ele>-5.0</ele><time>2026-04-24T10:32:47.261Z</time></trkpt><trkpt lat="44.8539899" lon="11.9979913"><ele>-5.0</ele><time>2026-04-24T10:32:48.262Z</time></trkpt><trkpt lat="44.8539248" lon="11.9981957"><ele>-5.0</ele><time>2026-04-24T10:32:49.261Z</time></trkpt><trkpt lat="44.8538752" lon="11.9984169"><ele>-5.0</ele><time>2026-04-24T10:32:50.261Z</time></trkpt><trkpt lat="44.8538352" lon="11.9986424"><ele>-5.333333333333334</ele><time>2026-04-24T10:32:51.262Z</time></trkpt><trkpt lat="44.8538111" lon="11.9988764"><ele>-5.666666666666667</ele><time>2026-04-24T10:32:52.262Z</time></trkpt><trkpt lat="44.8537994" lon="11.9991173"><ele>-6.0</ele><time>2026-04-24T10:32:53.261Z</time></trkpt><trkpt lat="44.8537984" lon="11.9993644"><ele>-5.333333333333333</ele><time>2026-04-24T10:32:54.262Z</time></trkpt><trkpt lat="44.8538045" lon="11.9996195"><ele>-4.666666666666666</ele><time>2026-04-24T10:32:55.262Z</time></trkpt><trkpt lat="44.853808" lon="11.9998767"><ele>-4.0</ele><time>2026-04-24T10:32:56.261Z</time></trkpt><trkpt lat="44.853811" lon="12.0001383"><ele>-4.0</ele><time>2026-04-24T10:32:57.261Z</time></trkpt><trkpt lat="44.8538133" lon="12.0004019"><ele>-4.0</ele><time>2026-04-24T10:32:58.262Z</time></trkpt><trkpt lat="44.8538148" lon="12.0006663"><ele>-4.0</ele><time>2026-04-24T10:32:59.261Z</time></trkpt><trkpt lat="44.8538136" lon="12.0009254"><ele>-4.666666666666666</ele><time>2026-04-24T10:33:00.262Z</time></trkpt><trkpt lat="44.8538147" lon="12.0011696"><ele>-5.333333333333333</ele><time>2026-04-24T10:33:01.261Z</time></trkpt><trkpt lat="44.8538173" lon="12.0014045"><ele>-6.0</ele><time>2026-04-24T10:33:02.262Z</time></trkpt><trkpt lat="44.8538188" lon="12.0016114"><ele>-6.199999999999999</ele><time>2026-04-24T10:33:03.261Z</time></trkpt><trkpt lat="44.8538203" lon="12.0017922"><ele>-6.3999999999999995</ele><time>2026-04-24T10:33:04.261Z</time></trkpt><trkpt lat="44.8538182" lon="12.0019462"><ele>-6.6</ele><time>2026-04-24T10:33:05.262Z</time></trkpt><trkpt lat="44.8538183" lon="12.0020764"><ele>-6.8</ele><time>2026-04-24T10:33:06.261Z</time></trkpt><trkpt lat="44.853814" lon="12.0021802"><ele>-7.0</ele><time>2026-04-24T10:33:07.262Z</time></trkpt><trkpt lat="44.8538103" lon="12.0023247"><ele>-7.0</ele><time>2026-04-24T10:33:09.262Z</time></trkpt><trkpt lat="44.853816" lon="12.0024806"><ele>-6.999999999999999</ele><time>2026-04-24T10:33:11.262Z</time></trkpt><trkpt lat="44.85382" lon="12.0025841"><ele>-6.999999999999999</ele><time>2026-04-24T10:33:12.261Z</time></trkpt><trkpt lat="44.8538217" lon="12.0027064"><ele>-7.0</ele><time>2026-04-24T10:33:13.262Z</time></trkpt><trkpt lat="44.8538221" lon="12.0028492"><ele>-7.0</ele><time>2026-04-24T10:33:14.261Z</time></trkpt><trkpt lat="44.8538232" lon="12.0030202"><ele>-6.5</ele><time>2026-04-24T10:33:15.262Z</time></trkpt><trkpt lat="44.8538254" lon="12.0032112"><ele>-6.0</ele><time>2026-04-24T10:33:16.262Z</time></trkpt><trkpt lat="44.853828" lon="12.0034216"><ele>-5.5</ele><time>2026-04-24T10:33:17.262Z</time></trkpt><trkpt lat="44.8538298" lon="12.0036382"><ele>-5.0</ele><time>2026-04-24T10:33:18.261Z</time></trkpt><trkpt lat="44.8538312" lon="12.0038671"><ele>-5.0</ele><time>2026-04-24T10:33:19.262Z</time></trkpt><trkpt lat="44.8538341" lon="12.0041026"><ele>-5.0</ele><time>2026-04-24T10:33:20.261Z</time></trkpt><trkpt lat="44.8538393" lon="12.0043279"><ele>-5.0</ele><time>2026-04-24T10:33:21.262Z</time></trkpt><trkpt lat="44.8538438" lon="12.0045523"><ele>-4.666666666666667</ele><time>2026-04-24T10:33:22.261Z</time></trkpt><trkpt lat="44.8538469" lon="12.0047699"><ele>-4.333333333333333</ele><time>2026-04-24T10:33:23.261Z</time></trkpt><trkpt lat="44.8538498" lon="12.0049885"><ele>-4.0</ele><time>2026-04-24T10:33:24.262Z</time></trkpt><trkpt lat="44.853852" lon="12.0052032"><ele>-4.0</ele><time>2026-04-24T10:33:25.261Z</time></trkpt><trkpt lat="44.8538523" lon="12.0054043"><ele>-4.0</ele><time>2026-04-24T10:33:26.262Z</time></trkpt><trkpt lat="44.8538542" lon="12.0056088"><ele>-4.0</ele><time>2026-04-24T10:33:27.262Z</time></trkpt><trkpt lat="44.8538543" lon="12.0058168"><ele>-4.0</ele><time>2026-04-24T10:33:28.261Z</time></trkpt><trkpt lat="44.8538547" lon="12.0060233"><ele>-4.25</ele><time>2026-04-24T10:33:29.262Z</time></trkpt><trkpt lat="44.853856" lon="12.0062268"><ele>-4.5</ele><time>2026-04-24T10:33:30.261Z</time></trkpt><trkpt lat="44.853858" lon="12.0064311"><ele>-4.75</ele><time>2026-04-24T10:33:31.261Z</time></trkpt><trkpt lat="44.8538584" lon="12.0066384"><ele>-5.0</ele><time>2026-04-24T10:33:32.262Z</time></trkpt><trkpt lat="44.85386" lon="12.0068498"><ele>-5.666666666666667</ele><time>2026-04-24T10:33:33.261Z</time></trkpt><trkpt lat="44.853861" lon="12.0070618"><ele>-6.333333333333334</ele><time>2026-04-24T10:33:34.261Z</time></trkpt><trkpt lat="44.8538613" lon="12.0072751"><ele>-7.0</ele><time>2026-04-24T10:33:35.262Z</time></trkpt><trkpt lat="44.8538644" lon="12.0074937"><ele>-6.666666666666667</ele><time>2026-04-24T10:33:36.261Z</time></trkpt><trkpt lat="44.8538664" lon="12.0077121"><ele>-6.333333333333334</ele><time>2026-04-24T10:33:37.261Z</time></trkpt><trkpt lat="44.8538681" lon="12.0079294"><ele>-6.0</ele><time>2026-04-24T10:33:38.262Z</time></trkpt><trkpt lat="44.8538708" lon="12.0081455"><ele>-6.0</ele><time>2026-04-24T10:33:39.261Z</time></trkpt><trkpt lat="44.8538726" lon="12.0083613"><ele>-6.0</ele><time>2026-04-24T10:33:40.262Z</time></trkpt><trkpt lat="44.8538754" lon="12.0085768"><ele>-6.0</ele><time>2026-04-24T10:33:41.261Z</time></trkpt><trkpt lat="44.8538795" lon="12.0087954"><ele>-6.0</ele><time>2026-04-24T10:33:42.262Z</time></trkpt><trkpt lat="44.8538821" lon="12.0090165"><ele>-6.0</ele><time>2026-04-24T10:33:43.261Z</time></trkpt><trkpt lat="44.8538815" lon="12.0092388"><ele>-6.0</ele><time>2026-04-24T10:33:44.261Z</time></trkpt><trkpt lat="44.8538818" lon="12.0094602"><ele>-5.666666666666667</ele><time>2026-04-24T10:33:45.262Z</time></trkpt><trkpt lat="44.8538835" lon="12.0096813"><ele>-5.333333333333334</ele><time>2026-04-24T10:33:46.261Z</time></trkpt><trkpt lat="44.8538854" lon="12.0099024"><ele>-5.0</ele><time>2026-04-24T10:33:47.262Z</time></trkpt><trkpt lat="44.8538869" lon="12.0101191"><ele>-4.666666666666667</ele><time>2026-04-24T10:33:48.261Z</time></trkpt><trkpt lat="44.8538926" lon="12.0103347"><ele>-4.333333333333333</ele><time>2026-04-24T10:33:49.261Z</time></trkpt><trkpt lat="44.8538958" lon="12.01055"><ele>-4.0</ele><time>2026-04-24T10:33:50.261Z</time></trkpt><trkpt lat="44.8538975" lon="12.0107651"><ele>-4.333333333333333</ele><time>2026-04-24T10:33:51.26Z</time></trkpt><trkpt lat="44.8538985" lon="12.0109795"><ele>-4.666666666666667</ele><time>2026-04-24T10:33:52.261Z</time></trkpt><trkpt lat="44.8538996" lon="12.011193"><ele>-5.0</ele><time>2026-04-24T10:33:53.261Z</time></trkpt><trkpt lat="44.8539002" lon="12.0114056"><ele>-5.0</ele><time>2026-04-24T10:33:54.26Z</time></trkpt><trkpt lat="44.8539005" lon="12.0116138"><ele>-5.0</ele><time>2026-04-24T10:33:55.261Z</time></trkpt><trkpt lat="44.8539016" lon="12.0118264"><ele>-5.0</ele><time>2026-04-24T10:33:56.26Z</time></trkpt><trkpt lat="44.8539029" lon="12.0120434"><ele>-5.333333333333334</ele><time>2026-04-24T10:33:57.26Z</time></trkpt><trkpt lat="44.8539046" lon="12.0122635"><ele>-5.666666666666667</ele><time>2026-04-24T10:33:58.26Z</time></trkpt><trkpt lat="44.8539072" lon="12.0124798"><ele>-6.0</ele><time>2026-04-24T10:33:59.261Z</time></trkpt><trkpt lat="44.8539129" lon="12.0126934"><ele>-6.0</ele><time>2026-04-24T10:34:00.261Z</time></trkpt><trkpt lat="44.8539166" lon="12.0129054"><ele>-6.0</ele><time>2026-04-24T10:34:01.26Z</time></trkpt><trkpt lat="44.8539192" lon="12.0131165"><ele>-6.0</ele><time>2026-04-24T10:34:02.261Z</time></trkpt><trkpt lat="44.8539199" lon="12.0133303"><ele>-6.0</ele><time>2026-04-24T10:34:03.261Z</time></trkpt><trkpt lat="44.8539205" lon="12.0135427"><ele>-6.0</ele><time>2026-04-24T10:34:04.26Z</time></trkpt><trkpt lat="44.8539198" lon="12.0137502"><ele>-6.0</ele><time>2026-04-24T10:34:05.26Z</time></trkpt><trkpt lat="44.8539193" lon="12.0139429"><ele>-6.0</ele><time>2026-04-24T10:34:06.261Z</time></trkpt><trkpt lat="44.8539188" lon="12.0141338"><ele>-5.75</ele><time>2026-04-24T10:34:07.26Z</time></trkpt><trkpt lat="44.8539202" lon="12.0143318"><ele>-5.5</ele><time>2026-04-24T10:34:08.26Z</time></trkpt><trkpt lat="44.8539214" lon="12.0145144"><ele>-5.25</ele><time>2026-04-24T10:34:09.26Z</time></trkpt><trkpt lat="44.8539226" lon="12.0146812"><ele>-5.0</ele><time>2026-04-24T10:34:10.26Z</time></trkpt><trkpt lat="44.8539248" lon="12.0148331"><ele>-5.0</ele><time>2026-04-24T10:34:11.261Z</time></trkpt><trkpt lat="44.8539268" lon="12.0149652"><ele>-5.0</ele><time>2026-04-24T10:34:12.261Z</time></trkpt><trkpt lat="44.8539291" lon="12.0150801"><ele>-5.0</ele><time>2026-04-24T10:34:13.26Z</time></trkpt><trkpt lat="44.8539326" lon="12.0151757"><ele>-5.0</ele><time>2026-04-24T10:34:14.26Z</time></trkpt><trkpt lat="44.8539392" lon="12.0153261"><ele>-5.0</ele><time>2026-04-24T10:34:16.261Z</time></trkpt><trkpt lat="44.8539809" lon="12.015431"><ele>-5.0</ele><time>2026-04-24T10:34:18.261Z</time></trkpt><trkpt lat="44.8540677" lon="12.0154768"><ele>-5.2</ele><time>2026-04-24T10:34:20.261Z</time></trkpt><trkpt lat="44.8541994" lon="12.0154747"><ele>-5.4</ele><time>2026-04-24T10:34:22.261Z</time></trkpt><trkpt lat="44.8542876" lon="12.0154666"><ele>-5.6</ele><time>2026-04-24T10:34:23.26Z</time></trkpt><trkpt lat="44.8543942" lon="12.015459"><ele>-5.8</ele><time>2026-04-24T10:34:24.261Z</time></trkpt><trkpt lat="44.8545075" lon="12.0154554"><ele>-6.0</ele><time>2026-04-24T10:34:25.26Z</time></trkpt><trkpt lat="44.8546318" lon="12.0154542"><ele>-6.0</ele><time>2026-04-24T10:34:26.26Z</time></trkpt><trkpt lat="44.8547729" lon="12.0154508"><ele>-6.0</ele><time>2026-04-24T10:34:27.261Z</time></trkpt><trkpt lat="44.8549274" lon="12.015442"><ele>-6.0</ele><time>2026-04-24T10:34:28.26Z</time></trkpt><trkpt lat="44.8550864" lon="12.0154341"><ele>-6.333333333333334</ele><time>2026-04-24T10:34:29.261Z</time></trkpt><trkpt lat="44.8552467" lon="12.015428"><ele>-6.666666666666667</ele><time>2026-04-24T10:34:30.26Z</time></trkpt><trkpt lat="44.8554075" lon="12.0154205"><ele>-7.0</ele><time>2026-04-24T10:34:31.26Z</time></trkpt><trkpt lat="44.8555671" lon="12.0154124"><ele>-7.0</ele><time>2026-04-24T10:34:32.261Z</time></trkpt><trkpt lat="44.8557235" lon="12.0154043"><ele>-7.0</ele><time>2026-04-24T10:34:33.26Z</time></trkpt><trkpt lat="44.8558723" lon="12.0154003"><ele>-7.0</ele><time>2026-04-24T10:34:34.26Z</time></trkpt><trkpt lat="44.8560182" lon="12.0153954"><ele>-7.0</ele><time>2026-04-24T10:34:35.261Z</time></trkpt><trkpt lat="44.8561596" lon="12.0153893"><ele>-7.0</ele><time>2026-04-24T10:34:36.261Z</time></trkpt><trkpt lat="44.8562902" lon="12.0153827"><ele>-7.0</ele><time>2026-04-24T10:34:37.26Z</time></trkpt><trkpt lat="44.8564209" lon="12.0153746"><ele>-7.0</ele><time>2026-04-24T10:34:38.26Z</time></trkpt><trkpt lat="44.8565593" lon="12.0153677"><ele>-7.0</ele><time>2026-04-24T10:34:39.261Z</time></trkpt><trkpt lat="44.8567009" lon="12.0153614"><ele>-7.0</ele><time>2026-04-24T10:34:40.261Z</time></trkpt><trkpt lat="44.8568427" lon="12.0153546"><ele>-7.0</ele><time>2026-04-24T10:34:41.26Z</time></trkpt><trkpt lat="44.8569812" lon="12.015349"><ele>-7.0</ele><time>2026-04-24T10:34:42.26Z</time></trkpt><trkpt lat="44.8571163" lon="12.0153408"><ele>-6.75</ele><time>2026-04-24T10:34:43.26Z</time></trkpt><trkpt lat="44.8572553" lon="12.0153306"><ele>-6.5</ele><time>2026-04-24T10:34:44.261Z</time></trkpt><trkpt lat="44.8574046" lon="12.0153224"><ele>-6.25</ele><time>2026-04-24T10:34:45.261Z</time></trkpt><trkpt lat="44.8575563" lon="12.0153186"><ele>-6.0</ele><time>2026-04-24T10:34:46.26Z</time></trkpt><trkpt lat="44.8577112" lon="12.0153149"><ele>-5.666666666666667</ele><time>2026-04-24T10:34:47.26Z</time></trkpt><trkpt lat="44.857868" lon="12.0153104"><ele>-5.333333333333334</ele><time>2026-04-24T10:34:48.261Z</time></trkpt><trkpt lat="44.8580301" lon="12.0153023"><ele>-5.0</ele><time>2026-04-24T10:34:49.261Z</time></trkpt><trkpt lat="44.8581919" lon="12.015291"><ele>-5.0</ele><time>2026-04-24T10:34:50.26Z</time></trkpt><trkpt lat="44.8583507" lon="12.0152817"><ele>-5.0</ele><time>2026-04-24T10:34:51.26Z</time></trkpt><trkpt lat="44.8585069" lon="12.0152725"><ele>-5.0</ele><time>2026-04-24T10:34:52.261Z</time></trkpt><trkpt lat="44.8586582" lon="12.0152623"><ele>-5.25</ele><time>2026-04-24T10:34:53.261Z</time></trkpt><trkpt lat="44.8588078" lon="12.0152522"><ele>-5.5</ele><time>2026-04-24T10:34:54.26Z</time></trkpt><trkpt lat="44.8589552" lon="12.0152445"><ele>-5.75</ele><time>2026-04-24T10:34:55.261Z</time></trkpt><trkpt lat="44.8591019" lon="12.0152387"><ele>-6.0</ele><time>2026-04-24T10:34:56.26Z</time></trkpt><trkpt lat="44.8592478" lon="12.0152313"><ele>-6.25</ele><time>2026-04-24T10:34:57.26Z</time></trkpt><trkpt lat="44.859396" lon="12.015223"><ele>-6.5</ele><time>2026-04-24T10:34:58.26Z</time></trkpt><trkpt lat="44.8595454" lon="12.0152121"><ele>-6.75</ele><time>2026-04-24T10:34:59.261Z</time></trkpt><trkpt lat="44.8596963" lon="12.0152037"><ele>-7.0</ele><time>2026-04-24T10:35:00.26Z</time></trkpt><trkpt lat="44.8598501" lon="12.0151965"><ele>-7.0</ele><time>2026-04-24T10:35:01.261Z</time></trkpt><trkpt lat="44.8600178" lon="12.0151875"><ele>-7.0</ele><time>2026-04-24T10:35:02.261Z</time></trkpt><trkpt lat="44.860194" lon="12.015181"><ele>-7.0</ele><time>2026-04-24T10:35:03.26Z</time></trkpt><trkpt lat="44.8603555" lon="12.0151738"><ele>-7.0</ele><time>2026-04-24T10:35:04.26Z</time></trkpt><trkpt lat="44.8605108" lon="12.0151657"><ele>-7.0</ele><time>2026-04-24T10:35:05.261Z</time></trkpt><trkpt lat="44.8606681" lon="12.0151595"><ele>-7.0</ele><time>2026-04-24T10:35:06.26Z</time></trkpt><trkpt lat="44.8608226" lon="12.0151575"><ele>-6.666666666666667</ele><time>2026-04-24T10:35:07.261Z</time></trkpt><trkpt lat="44.8609743" lon="12.0151544"><ele>-6.333333333333334</ele><time>2026-04-24T10:35:08.26Z</time></trkpt><trkpt lat="44.8611289" lon="12.0151462"><ele>-6.0</ele><time>2026-04-24T10:35:09.259Z</time></trkpt><trkpt lat="44.8612901" lon="12.0151369"><ele>-6.0</ele><time>2026-04-24T10:35:10.261Z</time></trkpt><trkpt lat="44.8614543" lon="12.0151291"><ele>-6.0</ele><time>2026-04-24T10:35:11.261Z</time></trkpt><trkpt lat="44.8616209" lon="12.0151202"><ele>-6.0</ele><time>2026-04-24T10:35:12.261Z</time></trkpt><trkpt lat="44.8617816" lon="12.0151089"><ele>-5.666666666666667</ele><time>2026-04-24T10:35:13.261Z</time></trkpt><trkpt lat="44.8619377" lon="12.0150994"><ele>-5.333333333333334</ele><time>2026-04-24T10:35:14.26Z</time></trkpt><trkpt lat="44.8620924" lon="12.0150906"><ele>-5.0</ele><time>2026-04-24T10:35:15.26Z</time></trkpt><trkpt lat="44.8622471" lon="12.0150824"><ele>-5.0</ele><time>2026-04-24T10:35:16.26Z</time></trkpt><trkpt lat="44.8624019" lon="12.0150762"><ele>-5.0</ele><time>2026-04-24T10:35:17.26Z</time></trkpt><trkpt lat="44.862559" lon="12.0150666"><ele>-5.0</ele><time>2026-04-24T10:35:18.26Z</time></trkpt><trkpt lat="44.8627234" lon="12.0150539"><ele>-5.666666666666667</ele><time>2026-04-24T10:35:19.261Z</time></trkpt><trkpt lat="44.8628893" lon="12.0150445"><ele>-6.333333333333334</ele><time>2026-04-24T10:35:20.26Z</time></trkpt><trkpt lat="44.8630548" lon="12.0150363"><ele>-7.0</ele><time>2026-04-24T10:35:21.261Z</time></trkpt><trkpt lat="44.8632167" lon="12.0150304"><ele>-7.0</ele><time>2026-04-24T10:35:22.26Z</time></trkpt><trkpt lat="44.863379" lon="12.0150237"><ele>-7.0</ele><time>2026-04-24T10:35:23.261Z</time></trkpt><trkpt lat="44.8635392" lon="12.0150118"><ele>-7.0</ele><time>2026-04-24T10:35:24.261Z</time></trkpt><trkpt lat="44.8636987" lon="12.0150011"><ele>-7.0</ele><time>2026-04-24T10:35:25.26Z</time></trkpt><trkpt lat="44.8638571" lon="12.014993"><ele>-7.0</ele><time>2026-04-24T10:35:26.261Z</time></trkpt><trkpt lat="44.8640135" lon="12.0149812"><ele>-7.0</ele><time>2026-04-24T10:35:27.26Z</time></trkpt><trkpt lat="44.8641618" lon="12.014971"><ele>-6.5</ele><time>2026-04-24T10:35:28.261Z</time></trkpt><trkpt lat="44.8643038" lon="12.0149636"><ele>-6.0</ele><time>2026-04-24T10:35:29.26Z</time></trkpt><trkpt lat="44.8644459" lon="12.0149578"><ele>-5.5</ele><time>2026-04-24T10:35:30.26Z</time></trkpt><trkpt lat="44.8645848" lon="12.0149503"><ele>-5.0</ele><time>2026-04-24T10:35:31.26Z</time></trkpt><trkpt lat="44.8647105" lon="12.0149437"><ele>-5.0</ele><time>2026-04-24T10:35:32.26Z</time></trkpt><trkpt lat="44.8648268" lon="12.0149416"><ele>-5.0</ele><time>2026-04-24T10:35:33.261Z</time></trkpt><trkpt lat="44.8649413" lon="12.0149473"><ele>-5.0</ele><time>2026-04-24T10:35:34.26Z</time></trkpt><trkpt lat="44.8650616" lon="12.0149626"><ele>-5.0</ele><time>2026-04-24T10:35:35.26Z</time></trkpt><trkpt lat="44.865187" lon="12.0149881"><ele>-5.25</ele><time>2026-04-24T10:35:36.26Z</time></trkpt><trkpt lat="44.8653037" lon="12.0150234"><ele>-5.5</ele><time>2026-04-24T10:35:37.261Z</time></trkpt><trkpt lat="44.8654189" lon="12.0150715"><ele>-5.75</ele><time>2026-04-24T10:35:38.26Z</time></trkpt><trkpt lat="44.8655418" lon="12.0151351"><ele>-6.0</ele><time>2026-04-24T10:35:39.26Z</time></trkpt><trkpt lat="44.8656727" lon="12.0152143"><ele>-6.0</ele><time>2026-04-24T10:35:40.26Z</time></trkpt><trkpt lat="44.8658045" lon="12.0153099"><ele>-6.0</ele><time>2026-04-24T10:35:41.26Z</time></trkpt><trkpt lat="44.8659306" lon="12.0154205"><ele>-6.0</ele><time>2026-04-24T10:35:42.261Z</time></trkpt><trkpt lat="44.8660469" lon="12.0155315"><ele>-6.0</ele><time>2026-04-24T10:35:43.26Z</time></trkpt><trkpt lat="44.8661542" lon="12.015626"><ele>-6.199999999999999</ele><time>2026-04-24T10:35:44.261Z</time></trkpt><trkpt lat="44.8662552" lon="12.0157063"><ele>-6.3999999999999995</ele><time>2026-04-24T10:35:45.261Z</time></trkpt><trkpt lat="44.8663479" lon="12.015775"><ele>-6.6</ele><time>2026-04-24T10:35:46.26Z</time></trkpt><trkpt lat="44.8664443" lon="12.0158365"><ele>-6.8</ele><time>2026-04-24T10:35:47.261Z</time></trkpt><trkpt lat="44.8665472" lon="12.0158899"><ele>-7.0</ele><time>2026-04-24T10:35:48.26Z</time></trkpt><trkpt lat="44.8666534" lon="12.0159349"><ele>-7.0</ele><time>2026-04-24T10:35:49.26Z</time></trkpt><trkpt lat="44.8667608" lon="12.0159701"><ele>-6.999999999999999</ele><time>2026-04-24T10:35:50.261Z</time></trkpt><trkpt lat="44.8668597" lon="12.0159942"><ele>-6.999999999999999</ele><time>2026-04-24T10:35:51.26Z</time></trkpt><trkpt lat="44.866952" lon="12.0160096"><ele>-7.0</ele><time>2026-04-24T10:35:52.261Z</time></trkpt><trkpt lat="44.8670463" lon="12.0160198"><ele>-7.0</ele><time>2026-04-24T10:35:53.259Z</time></trkpt><trkpt lat="44.8671331" lon="12.0160237"><ele>-7.000000000000001</ele><time>2026-04-24T10:35:54.26Z</time></trkpt><trkpt lat="44.8672079" lon="12.0160203"><ele>-7.0</ele><time>2026-04-24T10:35:55.261Z</time></trkpt><trkpt lat="44.8672732" lon="12.0160153"><ele>-7.0</ele><time>2026-04-24T10:35:56.26Z</time></trkpt><trkpt lat="44.8673904" lon="12.0160185"><ele>-7.0</ele><time>2026-04-24T10:35:58.26Z</time></trkpt><trkpt lat="44.867509" lon="12.016014"><ele>-7.000000000000001</ele><time>2026-04-24T10:36:00.261Z</time></trkpt><trkpt lat="44.8675747" lon="12.0160117"><ele>-7.0</ele><time>2026-04-24T10:36:01.26Z</time></trkpt><trkpt lat="44.867649" lon="12.0160096"><ele>-6.8</ele><time>2026-04-24T10:36:02.261Z</time></trkpt><trkpt lat="44.8677373" lon="12.0160064"><ele>-6.6</ele><time>2026-04-24T10:36:03.261Z</time></trkpt><trkpt lat="44.8678381" lon="12.0160054"><ele>-6.3999999999999995</ele><time>2026-04-24T10:36:04.26Z</time></trkpt><trkpt lat="44.8679421" lon="12.0160063"><ele>-6.199999999999999</ele><time>2026-04-24T10:36:05.261Z</time></trkpt><trkpt lat="44.8680476" lon="12.0160101"><ele>-6.0</ele><time>2026-04-24T10:36:06.26Z</time></trkpt><trkpt lat="44.8681625" lon="12.0160135"><ele>-6.0</ele><time>2026-04-24T10:36:07.26Z</time></trkpt><trkpt lat="44.8682857" lon="12.0160124"><ele>-6.0</ele><time>2026-04-24T10:36:08.261Z</time></trkpt><trkpt lat="44.8684142" lon="12.0160097"><ele>-6.0</ele><time>2026-04-24T10:36:09.26Z</time></trkpt><trkpt lat="44.8685472" lon="12.0160084"><ele>-6.0</ele><time>2026-04-24T10:36:10.261Z</time></trkpt><trkpt lat="44.8686808" lon="12.016009"><ele>-5.75</ele><time>2026-04-24T10:36:11.261Z</time></trkpt><trkpt lat="44.8688168" lon="12.0160087"><ele>-5.5</ele><time>2026-04-24T10:36:12.26Z</time></trkpt><trkpt lat="44.8689536" lon="12.016006"><ele>-5.25</ele><time>2026-04-24T10:36:13.261Z</time></trkpt><trkpt lat="44.8690921" lon="12.0160042"><ele>-5.0</ele><time>2026-04-24T10:36:14.26Z</time></trkpt><trkpt lat="44.8692337" lon="12.0160029"><ele>-5.25</ele><time>2026-04-24T10:36:15.261Z</time></trkpt><trkpt lat="44.8693763" lon="12.0159997"><ele>-5.5</ele><time>2026-04-24T10:36:16.261Z</time></trkpt><trkpt lat="44.8695182" lon="12.015995"><ele>-5.75</ele><time>2026-04-24T10:36:17.261Z</time></trkpt><trkpt lat="44.8696576" lon="12.0159924"><ele>-6.0</ele><time>2026-04-24T10:36:18.26Z</time></trkpt><trkpt lat="44.8697914" lon="12.0159929"><ele>-6.0</ele><time>2026-04-24T10:36:19.261Z</time></trkpt><trkpt lat="44.8699245" lon="12.0159954"><ele>-6.0</ele><time>2026-04-24T10:36:20.26Z</time></trkpt><trkpt lat="44.8700625" lon="12.015999"><ele>-6.0</ele><time>2026-04-24T10:36:21.26Z</time></trkpt><trkpt lat="44.8702058" lon="12.0159933"><ele>-6.0</ele><time>2026-04-24T10:36:22.26Z</time></trkpt><trkpt lat="44.8703523" lon="12.015988"><ele>-5.333333333333333</ele><time>2026-04-24T10:36:23.261Z</time></trkpt><trkpt lat="44.8705018" lon="12.0159879"><ele>-4.666666666666666</ele><time>2026-04-24T10:36:24.26Z</time></trkpt><trkpt lat="44.8706522" lon="12.0159896"><ele>-4.0</ele><time>2026-04-24T10:36:25.261Z</time></trkpt><trkpt lat="44.8708036" lon="12.0159905"><ele>-4.666666666666666</ele><time>2026-04-24T10:36:26.26Z</time></trkpt><trkpt lat="44.8709591" lon="12.0159903"><ele>-5.333333333333333</ele><time>2026-04-24T10:36:27.261Z</time></trkpt><trkpt lat="44.8711143" lon="12.0159925"><ele>-6.0</ele><time>2026-04-24T10:36:28.261Z</time></trkpt><trkpt lat="44.8712688" lon="12.0159889"><ele>-6.0</ele><time>2026-04-24T10:36:29.261Z</time></trkpt><trkpt lat="44.8714233" lon="12.0159843"><ele>-6.0</ele><time>2026-04-24T10:36:30.26Z</time></trkpt><trkpt lat="44.8715777" lon="12.0159823"><ele>-6.0</ele><time>2026-04-24T10:36:31.26Z</time></trkpt><trkpt lat="44.8717288" lon="12.0159806"><ele>-6.0</ele><time>2026-04-24T10:36:32.26Z</time></trkpt><trkpt lat="44.8718804" lon="12.0159773"><ele>-6.0</ele><time>2026-04-24T10:36:33.26Z</time></trkpt><trkpt lat="44.8720337" lon="12.0159758"><ele>-6.0</ele><time>2026-04-24T10:36:34.26Z</time></trkpt><trkpt lat="44.8721851" lon="12.0159756"><ele>-6.0</ele><time>2026-04-24T10:36:35.26Z</time></trkpt><trkpt lat="44.8723315" lon="12.0159787"><ele>-6.0</ele><time>2026-04-24T10:36:36.261Z</time></trkpt><trkpt lat="44.8724741" lon="12.0159752"><ele>-6.0</ele><time>2026-04-24T10:36:37.26Z</time></trkpt><trkpt lat="44.8726206" lon="12.0159703"><ele>-6.0</ele><time>2026-04-24T10:36:38.261Z</time></trkpt><trkpt lat="44.8727702" lon="12.0159662"><ele>-5.666666666666667</ele><time>2026-04-24T10:36:39.26Z</time></trkpt><trkpt lat="44.8729195" lon="12.0159688"><ele>-5.333333333333334</ele><time>2026-04-24T10:36:40.26Z</time></trkpt><trkpt lat="44.873071" lon="12.0159708"><ele>-5.0</ele><time>2026-04-24T10:36:41.26Z</time></trkpt><trkpt lat="44.8732227" lon="12.0159712"><ele>-5.0</ele><time>2026-04-24T10:36:42.261Z</time></trkpt><trkpt lat="44.8733754" lon="12.0159706"><ele>-5.0</ele><time>2026-04-24T10:36:43.26Z</time></trkpt><trkpt lat="44.8735261" lon="12.0159667"><ele>-5.0</ele><time>2026-04-24T10:36:44.261Z</time></trkpt><trkpt lat="44.8736728" lon="12.0159651"><ele>-5.25</ele><time>2026-04-24T10:36:45.261Z</time></trkpt><trkpt lat="44.8738099" lon="12.0159637"><ele>-5.5</ele><time>2026-04-24T10:36:46.26Z</time></trkpt><trkpt lat="44.8739468" lon="12.0159638"><ele>-5.75</ele><time>2026-04-24T10:36:47.26Z</time></trkpt><trkpt lat="44.8740906" lon="12.0159628"><ele>-6.0</ele><time>2026-04-24T10:36:48.26Z</time></trkpt><trkpt lat="44.8742348" lon="12.0159587"><ele>-6.0</ele><time>2026-04-24T10:36:49.261Z</time></trkpt><trkpt lat="44.8743754" lon="12.0159569"><ele>-6.0</ele><time>2026-04-24T10:36:50.261Z</time></trkpt><trkpt lat="44.8745152" lon="12.0159556"><ele>-6.0</ele><time>2026-04-24T10:36:51.261Z</time></trkpt><trkpt lat="44.8746615" lon="12.0159557"><ele>-6.0</ele><time>2026-04-24T10:36:52.261Z</time></trkpt><trkpt lat="44.8748112" lon="12.0159549"><ele>-6.0</ele><time>2026-04-24T10:36:53.26Z</time></trkpt><trkpt lat="44.8749555" lon="12.0159543"><ele>-6.0</ele><time>2026-04-24T10:36:54.261Z</time></trkpt><trkpt lat="44.8750958" lon="12.0159518"><ele>-6.0</ele><time>2026-04-24T10:36:55.259Z</time></trkpt><trkpt lat="44.8752362" lon="12.0159496"><ele>-6.0</ele><time>2026-04-24T10:36:56.26Z</time></trkpt><trkpt lat="44.8753795" lon="12.0159472"><ele>-5.75</ele><time>2026-04-24T10:36:57.261Z</time></trkpt><trkpt lat="44.8755194" lon="12.0159449"><ele>-5.5</ele><time>2026-04-24T10:36:58.26Z</time></trkpt><trkpt lat="44.8756561" lon="12.0159437"><ele>-5.25</ele><time>2026-04-24T10:36:59.261Z</time></trkpt><trkpt lat="44.8757924" lon="12.0159423"><ele>-5.0</ele><time>2026-04-24T10:37:00.261Z</time></trkpt><trkpt lat="44.8759251" lon="12.0159436"><ele>-5.0</ele><time>2026-04-24T10:37:01.26Z</time></trkpt><trkpt lat="44.8760619" lon="12.0159451"><ele>-5.0</ele><time>2026-04-24T10:37:02.26Z</time></trkpt><trkpt lat="44.8762054" lon="12.0159436"><ele>-5.0</ele><time>2026-04-24T10:37:03.26Z</time></trkpt><trkpt lat="44.8763523" lon="12.0159393"><ele>-5.0</ele><time>2026-04-24T10:37:04.261Z</time></trkpt><trkpt lat="44.8764959" lon="12.0159377"><ele>-5.0</ele><time>2026-04-24T10:37:05.26Z</time></trkpt><trkpt lat="44.8766373" lon="12.0159377"><ele>-5.0</ele><time>2026-04-24T10:37:06.261Z</time></trkpt><trkpt lat="44.876783" lon="12.0159364"><ele>-5.0</ele><time>2026-04-24T10:37:07.261Z</time></trkpt><trkpt lat="44.8769382" lon="12.0159355"><ele>-5.0</ele><time>2026-04-24T10:37:08.261Z</time></trkpt><trkpt lat="44.877091" lon="12.0159341"><ele>-4.75</ele><time>2026-04-24T10:37:09.26Z</time></trkpt><trkpt lat="44.8772339" lon="12.0159312"><ele>-4.5</ele><time>2026-04-24T10:37:10.26Z</time></trkpt><trkpt lat="44.8773706" lon="12.0159308"><ele>-4.25</ele><time>2026-04-24T10:37:11.261Z</time></trkpt><trkpt lat="44.8774929" lon="12.0159332"><ele>-4.0</ele><time>2026-04-24T10:37:12.261Z</time></trkpt><trkpt lat="44.8776068" lon="12.0159342"><ele>-3.8000000000000003</ele><time>2026-04-24T10:37:13.26Z</time></trkpt><trkpt lat="44.8777137" lon="12.0159317"><ele>-3.6000000000000005</ele><time>2026-04-24T10:37:14.259Z</time></trkpt><trkpt lat="44.877819" lon="12.0159292"><ele>-3.4</ele><time>2026-04-24T10:37:15.261Z</time></trkpt><trkpt lat="44.877916" lon="12.0159282"><ele>-3.2</ele><time>2026-04-24T10:37:16.261Z</time></trkpt><trkpt lat="44.877999" lon="12.015928"><ele>-3.0</ele><time>2026-04-24T10:37:17.261Z</time></trkpt><trkpt lat="44.8780721" lon="12.0159299"><ele>-3.0</ele><time>2026-04-24T10:37:18.26Z</time></trkpt><trkpt lat="44.8781412" lon="12.0159332"><ele>-3.0</ele><time>2026-04-24T10:37:19.26Z</time></trkpt><trkpt lat="44.8782298" lon="12.0159456"><ele>-3.0</ele><time>2026-04-24T10:37:21.261Z</time></trkpt><trkpt lat="44.878284" lon="12.0160514"><ele>-3.0</ele><time>2026-04-24T10:37:24.261Z</time></trkpt><trkpt lat="44.8782667" lon="12.0162018"><ele>-3.0</ele><time>2026-04-24T10:37:26.261Z</time></trkpt><trkpt lat="44.8782388" lon="12.0162919"><ele>-3.0</ele><time>2026-04-24T10:37:27.26Z</time></trkpt><trkpt lat="44.8782076" lon="12.0163869"><ele>-3.0</ele><time>2026-04-24T10:37:28.261Z</time></trkpt><trkpt lat="44.878176" lon="12.016503"><ele>-3.0</ele><time>2026-04-24T10:37:29.26Z</time></trkpt><trkpt lat="44.8781399" lon="12.0166387"><ele>-3.0</ele><time>2026-04-24T10:37:30.261Z</time></trkpt><trkpt lat="44.8781005" lon="12.0167869"><ele>-3.0</ele><time>2026-04-24T10:37:31.26Z</time></trkpt><trkpt lat="44.8780569" lon="12.0169478"><ele>-3.0</ele><time>2026-04-24T10:37:32.26Z</time></trkpt><trkpt lat="44.8780106" lon="12.0171252"><ele>-2.75</ele><time>2026-04-24T10:37:33.261Z</time></trkpt><trkpt lat="44.8779648" lon="12.0173115"><ele>-2.5</ele><time>2026-04-24T10:37:34.261Z</time></trkpt><trkpt lat="44.877914" lon="12.0175024"><ele>-2.25</ele><time>2026-04-24T10:37:35.26Z</time></trkpt><trkpt lat="44.8778625" lon="12.017704"><ele>-2.0</ele><time>2026-04-24T10:37:36.261Z</time></trkpt><trkpt lat="44.8778112" lon="12.0179096"><ele>-2.0</ele><time>2026-04-24T10:37:37.26Z</time></trkpt><trkpt lat="44.8777564" lon="12.0181165"><ele>-2.0</ele><time>2026-04-24T10:37:38.26Z</time></trkpt><trkpt lat="44.877694" lon="12.018318"><ele>-2.0</ele><time>2026-04-24T10:37:39.261Z</time></trkpt><trkpt lat="44.8776142" lon="12.0185068"><ele>-2.333333333333333</ele><time>2026-04-24T10:37:40.26Z</time></trkpt><trkpt lat="44.8775176" lon="12.0186805"><ele>-2.6666666666666665</ele><time>2026-04-24T10:37:41.26Z</time></trkpt><trkpt lat="44.8774085" lon="12.018848"><ele>-3.0</ele><time>2026-04-24T10:37:42.261Z</time></trkpt><trkpt lat="44.8772888" lon="12.0190063"><ele>-3.0</ele><time>2026-04-24T10:37:43.261Z</time></trkpt><trkpt lat="44.8771613" lon="12.019147"><ele>-3.0</ele><time>2026-04-24T10:37:44.26Z</time></trkpt><trkpt lat="44.8770235" lon="12.0192832"><ele>-3.0</ele><time>2026-04-24T10:37:45.26Z</time></trkpt><trkpt lat="44.8768794" lon="12.0194238"><ele>-3.0</ele><time>2026-04-24T10:37:46.261Z</time></trkpt><trkpt lat="44.8767333" lon="12.0195695"><ele>-3.0</ele><time>2026-04-24T10:37:47.26Z</time></trkpt><trkpt lat="44.876587" lon="12.0197221"><ele>-3.0</ele><time>2026-04-24T10:37:48.26Z</time></trkpt><trkpt lat="44.8764367" lon="12.0198746"><ele>-3.333333333333333</ele><time>2026-04-24T10:37:49.261Z</time></trkpt><trkpt lat="44.8762836" lon="12.0200318"><ele>-3.6666666666666665</ele><time>2026-04-24T10:37:50.261Z</time></trkpt><trkpt lat="44.8761285" lon="12.0201891"><ele>-4.0</ele><time>2026-04-24T10:37:51.26Z</time></trkpt><trkpt lat="44.8759751" lon="12.0203427"><ele>-4.666666666666666</ele><time>2026-04-24T10:37:52.261Z</time></trkpt><trkpt lat="44.8758341" lon="12.0204888"><ele>-5.333333333333333</ele><time>2026-04-24T10:37:53.26Z</time></trkpt><trkpt lat="44.8757058" lon="12.0206208"><ele>-6.0</ele><time>2026-04-24T10:37:54.261Z</time></trkpt><trkpt lat="44.8755897" lon="12.020749"><ele>-5.25</ele><time>2026-04-24T10:37:55.26Z</time></trkpt><trkpt lat="44.8754927" lon="12.0208913"><ele>-4.5</ele><time>2026-04-24T10:37:56.26Z</time></trkpt><trkpt lat="44.8754047" lon="12.0210532"><ele>-3.75</ele><time>2026-04-24T10:37:57.261Z</time></trkpt><trkpt lat="44.8753347" lon="12.0212389"><ele>-3.0</ele><time>2026-04-24T10:37:58.261Z</time></trkpt><trkpt lat="44.8752825" lon="12.0214416"><ele>-3.0</ele><time>2026-04-24T10:37:59.26Z</time></trkpt><trkpt lat="44.8752524" lon="12.0216615"><ele>-3.0</ele><time>2026-04-24T10:38:00.261Z</time></trkpt><trkpt lat="44.8752374" lon="12.0218905"><ele>-3.0</ele><time>2026-04-24T10:38:01.26Z</time></trkpt><trkpt lat="44.8752261" lon="12.0221308"><ele>-3.0</ele><time>2026-04-24T10:38:02.261Z</time></trkpt><trkpt lat="44.8752134" lon="12.0223821"><ele>-3.0</ele><time>2026-04-24T10:38:03.26Z</time></trkpt><trkpt lat="44.8751972" lon="12.0226413"><ele>-3.0</ele><time>2026-04-24T10:38:04.26Z</time></trkpt><trkpt lat="44.8751805" lon="12.0229054"><ele>-3.333333333333333</ele><time>2026-04-24T10:38:05.26Z</time></trkpt><trkpt lat="44.8751651" lon="12.0231719"><ele>-3.6666666666666665</ele><time>2026-04-24T10:38:06.261Z</time></trkpt><trkpt lat="44.8751494" lon="12.023444"><ele>-4.0</ele><time>2026-04-24T10:38:07.26Z</time></trkpt><trkpt lat="44.8751326" lon="12.0237138"><ele>-4.333333333333333</ele><time>2026-04-24T10:38:08.26Z</time></trkpt><trkpt lat="44.8751163" lon="12.0239743"><ele>-4.666666666666667</ele><time>2026-04-24T10:38:09.261Z</time></trkpt><trkpt lat="44.8751013" lon="12.0242206"><ele>-5.0</ele><time>2026-04-24T10:38:10.261Z</time></trkpt><trkpt lat="44.8750866" lon="12.0244645"><ele>-4.333333333333334</ele><time>2026-04-24T10:38:11.26Z</time></trkpt><trkpt lat="44.8750758" lon="12.0247123"><ele>-3.666666666666667</ele><time>2026-04-24T10:38:12.26Z</time></trkpt><trkpt lat="44.8750644" lon="12.0249457"><ele>-3.0</ele><time>2026-04-24T10:38:13.261Z</time></trkpt><trkpt lat="44.8750529" lon="12.0251635"><ele>-3.0</ele><time>2026-04-24T10:38:14.26Z</time></trkpt><trkpt lat="44.8750402" lon="12.0253711"><ele>-3.0</ele><time>2026-04-24T10:38:15.26Z</time></trkpt><trkpt lat="44.8750205" lon="12.0255708"><ele>-3.0</ele><time>2026-04-24T10:38:16.261Z</time></trkpt><trkpt lat="44.8749888" lon="12.0257625"><ele>-3.0</ele><time>2026-04-24T10:38:17.26Z</time></trkpt><trkpt lat="44.8749472" lon="12.0259507"><ele>-3.0</ele><time>2026-04-24T10:38:18.26Z</time></trkpt><trkpt lat="44.8748878" lon="12.0261319"><ele>-3.0</ele><time>2026-04-24T10:38:19.26Z</time></trkpt><trkpt lat="44.8748106" lon="12.0263116"><ele>-3.0</ele><time>2026-04-24T10:38:20.26Z</time></trkpt><trkpt lat="44.8747175" lon="12.0264927"><ele>-3.0</ele><time>2026-04-24T10:38:21.261Z</time></trkpt><trkpt lat="44.8746122" lon="12.02667"><ele>-3.666666666666667</ele><time>2026-04-24T10:38:22.26Z</time></trkpt><trkpt lat="44.8744935" lon="12.0268466"><ele>-4.333333333333334</ele><time>2026-04-24T10:38:23.26Z</time></trkpt><trkpt lat="44.8743684" lon="12.0270202"><ele>-5.0</ele><time>2026-04-24T10:38:24.261Z</time></trkpt><trkpt lat="44.8742385" lon="12.0272012"><ele>-5.0</ele><time>2026-04-24T10:38:25.26Z</time></trkpt><trkpt lat="44.8741054" lon="12.027388"><ele>-5.0</ele><time>2026-04-24T10:38:26.26Z</time></trkpt><trkpt lat="44.873969" lon="12.0275789"><ele>-5.0</ele><time>2026-04-24T10:38:27.261Z</time></trkpt><trkpt lat="44.8738358" lon="12.0277696"><ele>-5.0</ele><time>2026-04-24T10:38:28.26Z</time></trkpt><trkpt lat="44.8737026" lon="12.0279594"><ele>-5.0</ele><time>2026-04-24T10:38:29.261Z</time></trkpt><trkpt lat="44.8735674" lon="12.0281563"><ele>-5.0</ele><time>2026-04-24T10:38:30.261Z</time></trkpt><trkpt lat="44.8734292" lon="12.0283549"><ele>-4.666666666666667</ele><time>2026-04-24T10:38:31.261Z</time></trkpt><trkpt lat="44.8732871" lon="12.0285579"><ele>-4.333333333333333</ele><time>2026-04-24T10:38:32.26Z</time></trkpt><trkpt lat="44.8731448" lon="12.0287663"><ele>-4.0</ele><time>2026-04-24T10:38:33.26Z</time></trkpt><trkpt lat="44.8730006" lon="12.0289783"><ele>-4.0</ele><time>2026-04-24T10:38:34.261Z</time></trkpt><trkpt lat="44.8728544" lon="12.0291939"><ele>-4.0</ele><time>2026-04-24T10:38:35.26Z</time></trkpt><trkpt lat="44.8727071" lon="12.0294128"><ele>-4.0</ele><time>2026-04-24T10:38:36.26Z</time></trkpt><trkpt lat="44.872557" lon="12.0296353"><ele>-4.0</ele><time>2026-04-24T10:38:37.261Z</time></trkpt><trkpt lat="44.8724078" lon="12.0298559"><ele>-4.0</ele><time>2026-04-24T10:38:38.26Z</time></trkpt><trkpt lat="44.8722572" lon="12.0300753"><ele>-4.0</ele><time>2026-04-24T10:38:39.261Z</time></trkpt><trkpt lat="44.8721076" lon="12.0302921"><ele>-4.0</ele><time>2026-04-24T10:38:40.26Z</time></trkpt><trkpt lat="44.8719627" lon="12.0305018"><ele>-4.0</ele><time>2026-04-24T10:38:41.261Z</time></trkpt><trkpt lat="44.871828" lon="12.0307021"><ele>-4.0</ele><time>2026-04-24T10:38:42.26Z</time></trkpt><trkpt lat="44.8716993" lon="12.0308923"><ele>-3.333333333333333</ele><time>2026-04-24T10:38:43.26Z</time></trkpt><trkpt lat="44.871574" lon="12.0310785"><ele>-2.6666666666666665</ele><time>2026-04-24T10:38:44.261Z</time></trkpt><trkpt lat="44.8714449" lon="12.0312678"><ele>-2.0</ele><time>2026-04-24T10:38:45.26Z</time></trkpt><trkpt lat="44.8713139" lon="12.0314583"><ele>-2.6666666666666665</ele><time>2026-04-24T10:38:46.261Z</time></trkpt><trkpt lat="44.8711823" lon="12.0316499"><ele>-3.333333333333333</ele><time>2026-04-24T10:38:47.26Z</time></trkpt><trkpt lat="44.871049" lon="12.0318444"><ele>-4.0</ele><time>2026-04-24T10:38:48.26Z</time></trkpt><trkpt lat="44.8709148" lon="12.0320396"><ele>-4.0</ele><time>2026-04-24T10:38:49.261Z</time></trkpt><trkpt lat="44.8707785" lon="12.0322387"><ele>-4.0</ele><time>2026-04-24T10:38:50.26Z</time></trkpt><trkpt lat="44.870641" lon="12.0324392"><ele>-4.0</ele><time>2026-04-24T10:38:51.26Z</time></trkpt><trkpt lat="44.8705028" lon="12.03264"><ele>-4.0</ele><time>2026-04-24T10:38:52.26Z</time></trkpt><trkpt lat="44.8703628" lon="12.0328408"><ele>-4.0</ele><time>2026-04-24T10:38:53.261Z</time></trkpt><trkpt lat="44.8702232" lon="12.0330463"><ele>-4.0</ele><time>2026-04-24T10:38:54.261Z</time></trkpt><trkpt lat="44.8700831" lon="12.0332554"><ele>-3.6666666666666665</ele><time>2026-04-24T10:38:55.261Z</time></trkpt><trkpt lat="44.8699442" lon="12.0334675"><ele>-3.333333333333333</ele><time>2026-04-24T10:38:56.26Z</time></trkpt><trkpt lat="44.8698029" lon="12.0336777"><ele>-3.0</ele><time>2026-04-24T10:38:57.261Z</time></trkpt><trkpt lat="44.8696573" lon="12.0338838"><ele>-3.0</ele><time>2026-04-24T10:38:58.261Z</time></trkpt><trkpt lat="44.8695097" lon="12.034088"><ele>-3.0</ele><time>2026-04-24T10:38:59.26Z</time></trkpt><trkpt lat="44.8693633" lon="12.0342948"><ele>-3.0</ele><time>2026-04-24T10:39:00.261Z</time></trkpt><trkpt lat="44.8692176" lon="12.0345083"><ele>-3.333333333333333</ele><time>2026-04-24T10:39:01.26Z</time></trkpt><trkpt lat="44.8690684" lon="12.0347224"><ele>-3.6666666666666665</ele><time>2026-04-24T10:39:02.26Z</time></trkpt><trkpt lat="44.86892" lon="12.034937"><ele>-4.0</ele><time>2026-04-24T10:39:03.261Z</time></trkpt><trkpt lat="44.8687752" lon="12.0351492"><ele>-4.0</ele><time>2026-04-24T10:39:04.261Z</time></trkpt><trkpt lat="44.8686377" lon="12.0353525"><ele>-4.0</ele><time>2026-04-24T10:39:05.261Z</time></trkpt><trkpt lat="44.8685061" lon="12.0355401"><ele>-4.0</ele><time>2026-04-24T10:39:06.26Z</time></trkpt><trkpt lat="44.8683799" lon="12.0357192"><ele>-4.666666666666666</ele><time>2026-04-24T10:39:07.26Z</time></trkpt><trkpt lat="44.8682633" lon="12.0358853"><ele>-5.333333333333333</ele><time>2026-04-24T10:39:08.261Z</time></trkpt><trkpt lat="44.8681606" lon="12.0360439"><ele>-6.0</ele><time>2026-04-24T10:39:09.261Z</time></trkpt><trkpt lat="44.868073" lon="12.0362057"><ele>-6.0</ele><time>2026-04-24T10:39:10.261Z</time></trkpt><trkpt lat="44.8679983" lon="12.036383"><ele>-6.0</ele><time>2026-04-24T10:39:11.261Z</time></trkpt><trkpt lat="44.8679433" lon="12.036583"><ele>-6.0</ele><time>2026-04-24T10:39:12.261Z</time></trkpt><trkpt lat="44.8679081" lon="12.0367975"><ele>-6.333333333333334</ele><time>2026-04-24T10:39:13.26Z</time></trkpt><trkpt lat="44.8678936" lon="12.0370272"><ele>-6.666666666666667</ele><time>2026-04-24T10:39:14.261Z</time></trkpt><trkpt lat="44.8678944" lon="12.0372707"><ele>-7.0</ele><time>2026-04-24T10:39:15.261Z</time></trkpt><trkpt lat="44.867904" lon="12.037522"><ele>-6.333333333333334</ele><time>2026-04-24T10:39:16.26Z</time></trkpt><trkpt lat="44.8679106" lon="12.0377814"><ele>-5.666666666666667</ele><time>2026-04-24T10:39:17.261Z</time></trkpt><trkpt lat="44.8679149" lon="12.0380535"><ele>-5.0</ele><time>2026-04-24T10:39:18.261Z</time></trkpt><trkpt lat="44.8679155" lon="12.0383297"><ele>-5.0</ele><time>2026-04-24T10:39:19.26Z</time></trkpt><trkpt lat="44.8679176" lon="12.0386064"><ele>-5.0</ele><time>2026-04-24T10:39:20.261Z</time></trkpt><trkpt lat="44.8679233" lon="12.0388836"><ele>-5.0</ele><time>2026-04-24T10:39:21.26Z</time></trkpt><trkpt lat="44.8679288" lon="12.0391566"><ele>-5.333333333333334</ele><time>2026-04-24T10:39:22.261Z</time></trkpt><trkpt lat="44.8679328" lon="12.039421"><ele>-5.666666666666667</ele><time>2026-04-24T10:39:23.261Z</time></trkpt><trkpt lat="44.8679355" lon="12.0396792"><ele>-6.0</ele><time>2026-04-24T10:39:24.26Z</time></trkpt><trkpt lat="44.8679356" lon="12.0399303"><ele>-5.666666666666667</ele><time>2026-04-24T10:39:25.261Z</time></trkpt><trkpt lat="44.8679371" lon="12.0401745"><ele>-5.333333333333334</ele><time>2026-04-24T10:39:26.26Z</time></trkpt><trkpt lat="44.8679417" lon="12.0404186"><ele>-5.0</ele><time>2026-04-24T10:39:27.261Z</time></trkpt><trkpt lat="44.8679461" lon="12.0406669"><ele>-4.333333333333334</ele><time>2026-04-24T10:39:28.261Z</time></trkpt><trkpt lat="44.8679442" lon="12.0409216"><ele>-3.666666666666667</ele><time>2026-04-24T10:39:29.26Z</time></trkpt><trkpt lat="44.8679409" lon="12.0411824"><ele>-3.0</ele><time>2026-04-24T10:39:30.261Z</time></trkpt><trkpt lat="44.8679405" lon="12.0414483"><ele>-3.333333333333333</ele><time>2026-04-24T10:39:31.26Z</time></trkpt><trkpt lat="44.8679426" lon="12.0417198"><ele>-3.6666666666666665</ele><time>2026-04-24T10:39:32.26Z</time></trkpt><trkpt lat="44.867944" lon="12.0419994"><ele>-4.0</ele><time>2026-04-24T10:39:33.261Z</time></trkpt><trkpt lat="44.8679461" lon="12.0422802"><ele>-4.333333333333333</ele><time>2026-04-24T10:39:34.26Z</time></trkpt><trkpt lat="44.8679491" lon="12.042553"><ele>-4.666666666666667</ele><time>2026-04-24T10:39:35.26Z</time></trkpt><trkpt lat="44.8679529" lon="12.042811"><ele>-5.0</ele><time>2026-04-24T10:39:36.261Z</time></trkpt><trkpt lat="44.8679569" lon="12.0430487"><ele>-5.0</ele><time>2026-04-24T10:39:37.26Z</time></trkpt><trkpt lat="44.8679587" lon="12.0432752"><ele>-5.0</ele><time>2026-04-24T10:39:38.26Z</time></trkpt><trkpt lat="44.86796" lon="12.043484"><ele>-5.0</ele><time>2026-04-24T10:39:39.261Z</time></trkpt><trkpt lat="44.8679597" lon="12.0436686"><ele>-5.0</ele><time>2026-04-24T10:39:40.261Z</time></trkpt><trkpt lat="44.8679548" lon="12.0438181"><ele>-5.0</ele><time>2026-04-24T10:39:41.26Z</time></trkpt><trkpt lat="44.8679404" lon="12.0439451"><ele>-5.0</ele><time>2026-04-24T10:39:42.26Z</time></trkpt><trkpt lat="44.8679164" lon="12.0440602"><ele>-5.0</ele><time>2026-04-24T10:39:43.261Z</time></trkpt><trkpt lat="44.8678836" lon="12.044172"><ele>-5.0</ele><time>2026-04-24T10:39:44.26Z</time></trkpt><trkpt lat="44.8678441" lon="12.0442819"><ele>-5.0</ele><time>2026-04-24T10:39:45.26Z</time></trkpt><trkpt lat="44.8678018" lon="12.0443871"><ele>-5.0</ele><time>2026-04-24T10:39:46.26Z</time></trkpt><trkpt lat="44.8677544" lon="12.0444771"><ele>-5.0</ele><time>2026-04-24T10:39:47.26Z</time></trkpt><trkpt lat="44.8677043" lon="12.0445561"><ele>-5.0</ele><time>2026-04-24T10:39:48.261Z</time></trkpt><trkpt lat="44.8676517" lon="12.0446277"><ele>-5.0</ele><time>2026-04-24T10:39:49.26Z</time></trkpt><trkpt lat="44.867603" lon="12.044692"><ele>-5.0</ele><time>2026-04-24T10:39:50.26Z</time></trkpt><trkpt lat="44.8675516" lon="12.044745"><ele>-5.0</ele><time>2026-04-24T10:39:51.261Z</time></trkpt><trkpt lat="44.8674618" lon="12.0448106"><ele>-5.0</ele><time>2026-04-24T10:39:53.261Z</time></trkpt><trkpt lat="44.8674007" lon="12.0448448"><ele>-5.0</ele><time>2026-04-24T10:41:45.26Z</time></trkpt><trkpt lat="44.8673406" lon="12.0449099"><ele>-4.6</ele><time>2026-04-24T10:41:49.26Z</time></trkpt><trkpt lat="44.8672781" lon="12.0449644"><ele>-4.2</ele><time>2026-04-24T10:41:51.26Z</time></trkpt><trkpt lat="44.8671773" lon="12.0450383"><ele>-3.8</ele><time>2026-04-24T10:41:53.26Z</time></trkpt><trkpt lat="44.867059" lon="12.0451217"><ele>-3.4</ele><time>2026-04-24T10:41:55.26Z</time></trkpt><trkpt lat="44.8669798" lon="12.0451738"><ele>-3.0</ele><time>2026-04-24T10:41:56.259Z</time></trkpt><trkpt lat="44.8669002" lon="12.0452279"><ele>-3.0</ele><time>2026-04-24T10:41:57.259Z</time></trkpt><trkpt lat="44.8668111" lon="12.0452916"><ele>-3.0</ele><time>2026-04-24T10:41:58.259Z</time></trkpt><trkpt lat="44.8667152" lon="12.0453619"><ele>-3.0</ele><time>2026-04-24T10:41:59.26Z</time></trkpt><trkpt lat="44.8666079" lon="12.0454382"><ele>-3.0</ele><time>2026-04-24T10:42:00.26Z</time></trkpt><trkpt lat="44.8664987" lon="12.0455113"><ele>-3.0</ele><time>2026-04-24T10:42:01.258Z</time></trkpt><trkpt lat="44.8663826" lon="12.04559"><ele>-3.25</ele><time>2026-04-24T10:42:02.259Z</time></trkpt><trkpt lat="44.8662581" lon="12.0456723"><ele>-3.5</ele><time>2026-04-24T10:42:03.259Z</time></trkpt><trkpt lat="44.8661242" lon="12.0457597"><ele>-3.75</ele><time>2026-04-24T10:42:04.259Z</time></trkpt><trkpt lat="44.8659897" lon="12.0458531"><ele>-4.0</ele><time>2026-04-24T10:42:05.259Z</time></trkpt><trkpt lat="44.8658537" lon="12.045951"><ele>-4.0</ele><time>2026-04-24T10:42:06.259Z</time></trkpt><trkpt lat="44.8657187" lon="12.0460529"><ele>-4.0</ele><time>2026-04-24T10:42:07.259Z</time></trkpt><trkpt lat="44.8655821" lon="12.0461601"><ele>-4.0</ele><time>2026-04-24T10:42:08.259Z</time></trkpt><trkpt lat="44.8654407" lon="12.0462729"><ele>-4.0</ele><time>2026-04-24T10:42:09.259Z</time></trkpt><trkpt lat="44.8653055" lon="12.0463771"><ele>-4.0</ele><time>2026-04-24T10:42:10.259Z</time></trkpt><trkpt lat="44.8651689" lon="12.0464801"><ele>-4.0</ele><time>2026-04-24T10:42:11.259Z</time></trkpt><trkpt lat="44.8650273" lon="12.0465834"><ele>-4.666666666666666</ele><time>2026-04-24T10:42:12.26Z</time></trkpt><trkpt lat="44.8648913" lon="12.0466798"><ele>-5.333333333333333</ele><time>2026-04-24T10:42:13.259Z</time></trkpt><trkpt lat="44.8647587" lon="12.0467742"><ele>-6.0</ele><time>2026-04-24T10:42:14.26Z</time></trkpt><trkpt lat="44.8646207" lon="12.0468732"><ele>-6.0</ele><time>2026-04-24T10:42:15.26Z</time></trkpt><trkpt lat="44.8644754" lon="12.0469763"><ele>-6.0</ele><time>2026-04-24T10:42:16.26Z</time></trkpt><trkpt lat="44.8643273" lon="12.0470799"><ele>-6.0</ele><time>2026-04-24T10:42:17.26Z</time></trkpt><trkpt lat="44.8641814" lon="12.0471802"><ele>-6.666666666666666</ele><time>2026-04-24T10:42:18.26Z</time></trkpt><trkpt lat="44.864026" lon="12.0472754"><ele>-7.333333333333333</ele><time>2026-04-24T10:42:19.26Z</time></trkpt><trkpt lat="44.8638619" lon="12.0473996"><ele>-8.0</ele><time>2026-04-24T10:42:20.259Z</time></trkpt><trkpt lat="44.8637039" lon="12.0475134"><ele>-8.0</ele><time>2026-04-24T10:42:21.259Z</time></trkpt><trkpt lat="44.8635455" lon="12.0476278"><ele>-8.0</ele><time>2026-04-24T10:42:22.259Z</time></trkpt><trkpt lat="44.8633796" lon="12.0477451"><ele>-8.0</ele><time>2026-04-24T10:42:23.259Z</time></trkpt><trkpt lat="44.8632102" lon="12.0478634"><ele>-7.333333333333333</ele><time>2026-04-24T10:42:24.259Z</time></trkpt><trkpt lat="44.8630331" lon="12.0479874"><ele>-6.666666666666666</ele><time>2026-04-24T10:42:25.259Z</time></trkpt><trkpt lat="44.862868" lon="12.0481045"><ele>-6.0</ele><time>2026-04-24T10:42:26.259Z</time></trkpt><trkpt lat="44.8626956" lon="12.0482282"><ele>-6.0</ele><time>2026-04-24T10:42:27.259Z</time></trkpt><trkpt lat="44.8625198" lon="12.0483547"><ele>-6.0</ele><time>2026-04-24T10:42:28.26Z</time></trkpt><trkpt lat="44.8623472" lon="12.0484776"><ele>-6.0</ele><time>2026-04-24T10:42:29.26Z</time></trkpt><trkpt lat="44.8621811" lon="12.0485977"><ele>-6.0</ele><time>2026-04-24T10:42:30.259Z</time></trkpt><trkpt lat="44.8620095" lon="12.0487228"><ele>-6.0</ele><time>2026-04-24T10:42:31.259Z</time></trkpt><trkpt lat="44.8618386" lon="12.0488471"><ele>-6.0</ele><time>2026-04-24T10:42:32.259Z</time></trkpt><trkpt lat="44.861662" lon="12.0489761"><ele>-5.666666666666667</ele><time>2026-04-24T10:42:33.26Z</time></trkpt><trkpt lat="44.8614928" lon="12.0490998"><ele>-5.333333333333334</ele><time>2026-04-24T10:42:34.259Z</time></trkpt><trkpt lat="44.8613298" lon="12.0492181"><ele>-5.0</ele><time>2026-04-24T10:42:35.258Z</time></trkpt><trkpt lat="44.8611691" lon="12.0493325"><ele>-4.666666666666667</ele><time>2026-04-24T10:42:36.259Z</time></trkpt><trkpt lat="44.8610171" lon="12.0494416"><ele>-4.333333333333333</ele><time>2026-04-24T10:42:37.26Z</time></trkpt><trkpt lat="44.8608697" lon="12.0495485"><ele>-4.0</ele><time>2026-04-24T10:42:38.26Z</time></trkpt><trkpt lat="44.8607188" lon="12.049656"><ele>-5.0</ele><time>2026-04-24T10:42:39.26Z</time></trkpt><trkpt lat="44.8605664" lon="12.0497495"><ele>-6.0</ele><time>2026-04-24T10:42:40.259Z</time></trkpt><trkpt lat="44.8604123" lon="12.0498279"><ele>-7.0</ele><time>2026-04-24T10:42:41.259Z</time></trkpt><trkpt lat="44.8602659" lon="12.049954"><ele>-7.0</ele><time>2026-04-24T10:42:42.259Z</time></trkpt><trkpt lat="44.8601197" lon="12.0500627"><ele>-7.0</ele><time>2026-04-24T10:42:43.259Z</time></trkpt><trkpt lat="44.8599738" lon="12.0501702"><ele>-7.0</ele><time>2026-04-24T10:42:44.259Z</time></trkpt><trkpt lat="44.85983" lon="12.0502787"><ele>-7.0</ele><time>2026-04-24T10:42:45.26Z</time></trkpt><trkpt lat="44.8596848" lon="12.050397"><ele>-7.0</ele><time>2026-04-24T10:42:46.26Z</time></trkpt><trkpt lat="44.8595346" lon="12.0505112"><ele>-7.0</ele><time>2026-04-24T10:42:47.26Z</time></trkpt><trkpt lat="44.8593807" lon="12.0506247"><ele>-6.666666666666667</ele><time>2026-04-24T10:42:48.26Z</time></trkpt><trkpt lat="44.8592252" lon="12.0507354"><ele>-6.333333333333334</ele><time>2026-04-24T10:42:49.26Z</time></trkpt><trkpt lat="44.8590751" lon="12.0508408"><ele>-6.0</ele><time>2026-04-24T10:42:50.26Z</time></trkpt><trkpt lat="44.8589369" lon="12.0509391"><ele>-6.0</ele><time>2026-04-24T10:42:51.26Z</time></trkpt><trkpt lat="44.8588124" lon="12.0510332"><ele>-6.0</ele><time>2026-04-24T10:42:52.26Z</time></trkpt><trkpt lat="44.8587019" lon="12.0511298"><ele>-6.0</ele><time>2026-04-24T10:42:53.259Z</time></trkpt><trkpt lat="44.8586073" lon="12.0512421"><ele>-6.0</ele><time>2026-04-24T10:42:54.26Z</time></trkpt><trkpt lat="44.8585278" lon="12.0513744"><ele>-6.0</ele><time>2026-04-24T10:42:55.259Z</time></trkpt><trkpt lat="44.8584607" lon="12.0515121"><ele>-6.0</ele><time>2026-04-24T10:42:56.26Z</time></trkpt><trkpt lat="44.8584067" lon="12.0516594"><ele>-6.0</ele><time>2026-04-24T10:42:57.259Z</time></trkpt><trkpt lat="44.8583663" lon="12.0518134"><ele>-6.0</ele><time>2026-04-24T10:42:58.26Z</time></trkpt><trkpt lat="44.8583393" lon="12.0519859"><ele>-6.0</ele><time>2026-04-24T10:42:59.26Z</time></trkpt><trkpt lat="44.858327" lon="12.0521795"><ele>-6.0</ele><time>2026-04-24T10:43:00.26Z</time></trkpt><trkpt lat="44.858326" lon="12.0523888"><ele>-6.0</ele><time>2026-04-24T10:43:01.259Z</time></trkpt><trkpt lat="44.8583319" lon="12.0526069"><ele>-6.0</ele><time>2026-04-24T10:43:02.259Z</time></trkpt><trkpt lat="44.8583363" lon="12.0528415"><ele>-6.0</ele><time>2026-04-24T10:43:03.26Z</time></trkpt><trkpt lat="44.8583297" lon="12.0530902"><ele>-6.0</ele><time>2026-04-24T10:43:04.26Z</time></trkpt><trkpt lat="44.8583279" lon="12.0533456"><ele>-6.0</ele><time>2026-04-24T10:43:05.26Z</time></trkpt><trkpt lat="44.8583294" lon="12.0536008"><ele>-6.0</ele><time>2026-04-24T10:43:06.26Z</time></trkpt><trkpt lat="44.8583325" lon="12.0538664"><ele>-6.0</ele><time>2026-04-24T10:43:07.259Z</time></trkpt><trkpt lat="44.8583334" lon="12.0541389"><ele>-6.0</ele><time>2026-04-24T10:43:08.259Z</time></trkpt><trkpt lat="44.8583349" lon="12.0544141"><ele>-6.0</ele><time>2026-04-24T10:43:09.259Z</time></trkpt><trkpt lat="44.8583354" lon="12.0546923"><ele>-6.0</ele><time>2026-04-24T10:43:10.26Z</time></trkpt><trkpt lat="44.8583369" lon="12.0549717"><ele>-6.0</ele><time>2026-04-24T10:43:11.26Z</time></trkpt><trkpt lat="44.8583361" lon="12.0552533"><ele>-6.0</ele><time>2026-04-24T10:43:12.259Z</time></trkpt><trkpt lat="44.8583379" lon="12.0555366"><ele>-6.0</ele><time>2026-04-24T10:43:13.26Z</time></trkpt><trkpt lat="44.8583422" lon="12.0558212"><ele>-6.0</ele><time>2026-04-24T10:43:14.259Z</time></trkpt><trkpt lat="44.8583484" lon="12.0561072"><ele>-6.0</ele><time>2026-04-24T10:43:15.259Z</time></trkpt><trkpt lat="44.8583505" lon="12.0563943"><ele>-6.0</ele><time>2026-04-24T10:43:16.26Z</time></trkpt><trkpt lat="44.8583481" lon="12.0566814"><ele>-6.0</ele><time>2026-04-24T10:43:17.26Z</time></trkpt><trkpt lat="44.8583468" lon="12.0569696"><ele>-6.0</ele><time>2026-04-24T10:43:18.26Z</time></trkpt><trkpt lat="44.8583494" lon="12.0572592"><ele>-6.0</ele><time>2026-04-24T10:43:19.259Z</time></trkpt><trkpt lat="44.8583498" lon="12.057549"><ele>-6.0</ele><time>2026-04-24T10:43:20.259Z</time></trkpt><trkpt lat="44.8583504" lon="12.0578387"><ele>-5.666666666666667</ele><time>2026-04-24T10:43:21.26Z</time></trkpt><trkpt lat="44.8583519" lon="12.0581199"><ele>-5.333333333333334</ele><time>2026-04-24T10:43:22.259Z</time></trkpt><trkpt lat="44.8583534" lon="12.0583841"><ele>-5.0</ele><time>2026-04-24T10:43:23.26Z</time></trkpt><trkpt lat="44.8583552" lon="12.0586394"><ele>-5.0</ele><time>2026-04-24T10:43:24.259Z</time></trkpt><trkpt lat="44.858356" lon="12.0588999"><ele>-5.0</ele><time>2026-04-24T10:43:25.259Z</time></trkpt><trkpt lat="44.8583586" lon="12.0591666"><ele>-5.0</ele><time>2026-04-24T10:43:26.259Z</time></trkpt><trkpt lat="44.8583587" lon="12.0594379"><ele>-5.0</ele><time>2026-04-24T10:43:27.26Z</time></trkpt><trkpt lat="44.8583595" lon="12.0597189"><ele>-5.0</ele><time>2026-04-24T10:43:28.26Z</time></trkpt><trkpt lat="44.8583623" lon="12.0600063"><ele>-5.0</ele><time>2026-04-24T10:43:29.259Z</time></trkpt><trkpt lat="44.8583646" lon="12.0603006"><ele>-4.666666666666667</ele><time>2026-04-24T10:43:30.26Z</time></trkpt><trkpt lat="44.8583633" lon="12.0605978"><ele>-4.333333333333333</ele><time>2026-04-24T10:43:31.259Z</time></trkpt><trkpt lat="44.8583612" lon="12.0609018"><ele>-4.0</ele><time>2026-04-24T10:43:32.259Z</time></trkpt><trkpt lat="44.85836" lon="12.0612094"><ele>-4.0</ele><time>2026-04-24T10:43:33.26Z</time></trkpt><trkpt lat="44.8583624" lon="12.0615201"><ele>-4.0</ele><time>2026-04-24T10:43:34.259Z</time></trkpt><trkpt lat="44.8583681" lon="12.0618345"><ele>-4.0</ele><time>2026-04-24T10:43:35.259Z</time></trkpt><trkpt lat="44.8583755" lon="12.0621541"><ele>-4.0</ele><time>2026-04-24T10:43:36.26Z</time></trkpt><trkpt lat="44.8583776" lon="12.0624786"><ele>-4.0</ele><time>2026-04-24T10:43:37.26Z</time></trkpt><trkpt lat="44.8583766" lon="12.0628083"><ele>-4.0</ele><time>2026-04-24T10:43:38.259Z</time></trkpt><trkpt lat="44.8583746" lon="12.0631427"><ele>-4.0</ele><time>2026-04-24T10:43:39.259Z</time></trkpt><trkpt lat="44.8583727" lon="12.0634819"><ele>-5.0</ele><time>2026-04-24T10:43:40.259Z</time></trkpt><trkpt lat="44.8583734" lon="12.0638306"><ele>-6.0</ele><time>2026-04-24T10:43:41.26Z</time></trkpt><trkpt lat="44.858377" lon="12.0641813"><ele>-6.5</ele><time>2026-04-24T10:43:42.258Z</time></trkpt><trkpt lat="44.8583776" lon="12.064539"><ele>-7.0</ele><time>2026-04-24T10:43:43.26Z</time></trkpt><trkpt lat="44.8583787" lon="12.0649037"><ele>-6.0</ele><time>2026-04-24T10:43:44.26Z</time></trkpt><trkpt lat="44.8583804" lon="12.0652659"><ele>-5.0</ele><time>2026-04-24T10:43:45.259Z</time></trkpt><trkpt lat="44.858381" lon="12.0656238"><ele>-6.5</ele><time>2026-04-24T10:43:46.259Z</time></trkpt><trkpt lat="44.8583851" lon="12.0659837"><ele>-8.0</ele><time>2026-04-24T10:43:47.26Z</time></trkpt><trkpt lat="44.8583881" lon="12.0663417"><ele>-7.0</ele><time>2026-04-24T10:43:48.26Z</time></trkpt><trkpt lat="44.8583921" lon="12.0666959"><ele>-6.0</ele><time>2026-04-24T10:43:49.259Z</time></trkpt><trkpt lat="44.8583964" lon="12.0670403"><ele>-6.0</ele><time>2026-04-24T10:43:50.259Z</time></trkpt><trkpt lat="44.8583979" lon="12.0673731"><ele>-6.0</ele><time>2026-04-24T10:43:51.26Z</time></trkpt><trkpt lat="44.8583975" lon="12.0676992"><ele>-5.0</ele><time>2026-04-24T10:43:52.259Z</time></trkpt><trkpt lat="44.8584" lon="12.0680207"><ele>-4.0</ele><time>2026-04-24T10:43:53.259Z</time></trkpt><trkpt lat="44.8584015" lon="12.0683378"><ele>-4.0</ele><time>2026-04-24T10:43:54.259Z</time></trkpt><trkpt lat="44.8584032" lon="12.068659"><ele>-4.0</ele><time>2026-04-24T10:43:55.26Z</time></trkpt><trkpt lat="44.8584037" lon="12.0689804"><ele>-4.5</ele><time>2026-04-24T10:43:56.26Z</time></trkpt><trkpt lat="44.8584029" lon="12.0693023"><ele>-5.0</ele><time>2026-04-24T10:43:57.259Z</time></trkpt><trkpt lat="44.8584052" lon="12.0696329"><ele>-4.5</ele><time>2026-04-24T10:43:58.259Z</time></trkpt><trkpt lat="44.8584098" lon="12.0699675"><ele>-4.0</ele><time>2026-04-24T10:43:59.259Z</time></trkpt><trkpt lat="44.8584093" lon="12.0703001"><ele>-4.0</ele><time>2026-04-24T10:44:00.26Z</time></trkpt><trkpt lat="44.8584097" lon="12.0706336"><ele>-4.0</ele><time>2026-04-24T10:44:01.259Z</time></trkpt><trkpt lat="44.8584098" lon="12.0709711"><ele>-4.0</ele><time>2026-04-24T10:44:02.259Z</time></trkpt><trkpt lat="44.8584116" lon="12.0713148"><ele>-4.0</ele><time>2026-04-24T10:44:03.26Z</time></trkpt><trkpt lat="44.8584135" lon="12.0716585"><ele>-4.0</ele><time>2026-04-24T10:44:04.26Z</time></trkpt><trkpt lat="44.8584167" lon="12.0720017"><ele>-4.0</ele><time>2026-04-24T10:44:05.259Z</time></trkpt><trkpt lat="44.858422" lon="12.0723455"><ele>-4.5</ele><time>2026-04-24T10:44:06.26Z</time></trkpt><trkpt lat="44.8584246" lon="12.0726894"><ele>-5.0</ele><time>2026-04-24T10:44:07.259Z</time></trkpt><trkpt lat="44.8584249" lon="12.0730304"><ele>-4.5</ele><time>2026-04-24T10:44:08.259Z</time></trkpt><trkpt lat="44.8584266" lon="12.073369"><ele>-4.0</ele><time>2026-04-24T10:44:09.26Z</time></trkpt><trkpt lat="44.8584274" lon="12.0736959"><ele>-4.0</ele><time>2026-04-24T10:44:10.259Z</time></trkpt><trkpt lat="44.85843" lon="12.0740033"><ele>-4.0</ele><time>2026-04-24T10:44:11.259Z</time></trkpt><trkpt lat="44.8584315" lon="12.0742867"><ele>-4.0</ele><time>2026-04-24T10:44:12.26Z</time></trkpt><trkpt lat="44.8584311" lon="12.0745564"><ele>-3.6666666666666665</ele><time>2026-04-24T10:44:13.259Z</time></trkpt><trkpt lat="44.8584302" lon="12.074828"><ele>-3.333333333333333</ele><time>2026-04-24T10:44:14.259Z</time></trkpt><trkpt lat="44.8584316" lon="12.0751027"><ele>-3.0</ele><time>2026-04-24T10:44:15.259Z</time></trkpt><trkpt lat="44.858436" lon="12.0753856"><ele>-3.333333333333333</ele><time>2026-04-24T10:44:16.26Z</time></trkpt><trkpt lat="44.858439" lon="12.0756769"><ele>-3.6666666666666665</ele><time>2026-04-24T10:44:17.26Z</time></trkpt><trkpt lat="44.8584399" lon="12.075969"><ele>-4.0</ele><time>2026-04-24T10:44:18.259Z</time></trkpt><trkpt lat="44.8584418" lon="12.0762711"><ele>-4.0</ele><time>2026-04-24T10:44:19.259Z</time></trkpt><trkpt lat="44.8584419" lon="12.076574"><ele>-4.0</ele><time>2026-04-24T10:44:20.259Z</time></trkpt><trkpt lat="44.8584415" lon="12.0768763"><ele>-4.0</ele><time>2026-04-24T10:44:21.26Z</time></trkpt><trkpt lat="44.8584406" lon="12.0771795"><ele>-4.0</ele><time>2026-04-24T10:44:22.259Z</time></trkpt><trkpt lat="44.8584445" lon="12.0774833"><ele>-4.0</ele><time>2026-04-24T10:44:23.259Z</time></trkpt><trkpt lat="44.8584478" lon="12.0777839"><ele>-4.0</ele><time>2026-04-24T10:44:24.26Z</time></trkpt><trkpt lat="44.8584462" lon="12.0780875"><ele>-4.0</ele><time>2026-04-24T10:44:25.259Z</time></trkpt><trkpt lat="44.8584498" lon="12.0783962"><ele>-4.0</ele><time>2026-04-24T10:44:26.259Z</time></trkpt><trkpt lat="44.8584472" lon="12.0787079"><ele>-4.0</ele><time>2026-04-24T10:44:27.26Z</time></trkpt><trkpt lat="44.8584467" lon="12.0790198"><ele>-4.5</ele><time>2026-04-24T10:44:28.259Z</time></trkpt><trkpt lat="44.8584494" lon="12.0793381"><ele>-5.0</ele><time>2026-04-24T10:44:29.259Z</time></trkpt><trkpt lat="44.8584532" lon="12.0796594"><ele>-5.0</ele><time>2026-04-24T10:44:30.26Z</time></trkpt><trkpt lat="44.8584529" lon="12.0799834"><ele>-5.0</ele><time>2026-04-24T10:44:31.26Z</time></trkpt><trkpt lat="44.8584532" lon="12.0803125"><ele>-5.0</ele><time>2026-04-24T10:44:32.259Z</time></trkpt><trkpt lat="44.8584536" lon="12.0806434"><ele>-5.0</ele><time>2026-04-24T10:44:33.26Z</time></trkpt><trkpt lat="44.8584563" lon="12.0809768"><ele>-5.0</ele><time>2026-04-24T10:44:34.259Z</time></trkpt><trkpt lat="44.8584595" lon="12.0813079"><ele>-5.0</ele><time>2026-04-24T10:44:35.26Z</time></trkpt><trkpt lat="44.8584644" lon="12.0816399"><ele>-4.5</ele><time>2026-04-24T10:44:36.259Z</time></trkpt><trkpt lat="44.8584647" lon="12.0819695"><ele>-4.0</ele><time>2026-04-24T10:44:37.26Z</time></trkpt><trkpt lat="44.8584669" lon="12.0823026"><ele>-4.0</ele><time>2026-04-24T10:44:38.26Z</time></trkpt><trkpt lat="44.8584665" lon="12.082632"><ele>-4.0</ele><time>2026-04-24T10:44:39.259Z</time></trkpt><trkpt lat="44.8584709" lon="12.0829454"><ele>-4.0</ele><time>2026-04-24T10:44:40.259Z</time></trkpt><trkpt lat="44.858471" lon="12.0832429"><ele>-4.0</ele><time>2026-04-24T10:44:41.259Z</time></trkpt><trkpt lat="44.858473" lon="12.0835242"><ele>-4.0</ele><time>2026-04-24T10:44:42.259Z</time></trkpt><trkpt lat="44.8584736" lon="12.0837897"><ele>-4.0</ele><time>2026-04-24T10:44:43.26Z</time></trkpt><trkpt lat="44.8584748" lon="12.0840382"><ele>-4.0</ele><time>2026-04-24T10:44:44.259Z</time></trkpt><trkpt lat="44.8584765" lon="12.0842708"><ele>-4.0</ele><time>2026-04-24T10:44:45.26Z</time></trkpt><trkpt lat="44.8584769" lon="12.0844833"><ele>-3.6</ele><time>2026-04-24T10:44:46.259Z</time></trkpt><trkpt lat="44.858479" lon="12.0846724"><ele>-3.2</ele><time>2026-04-24T10:44:47.259Z</time></trkpt><trkpt lat="44.8584827" lon="12.0848349"><ele>-2.8000000000000003</ele><time>2026-04-24T10:44:48.259Z</time></trkpt><trkpt lat="44.8584858" lon="12.0849835"><ele>-2.4000000000000004</ele><time>2026-04-24T10:44:49.26Z</time></trkpt><trkpt lat="44.8584862" lon="12.0851121"><ele>-2.0</ele><time>2026-04-24T10:44:50.259Z</time></trkpt><trkpt lat="44.8584852" lon="12.085219"><ele>-1.9999999999999998</ele><time>2026-04-24T10:44:51.259Z</time></trkpt><trkpt lat="44.8584799" lon="12.0853562"><ele>-2.0</ele><time>2026-04-24T10:44:53.26Z</time></trkpt><trkpt lat="44.8584988" lon="12.0854641"><ele>-2.0</ele><time>2026-04-24T10:45:07.259Z</time></trkpt><trkpt lat="44.8586167" lon="12.0854762"><ele>-2.0</ele><time>2026-04-24T10:45:09.259Z</time></trkpt><trkpt lat="44.8586822" lon="12.0854585"><ele>-1.9999999999999998</ele><time>2026-04-24T10:45:10.26Z</time></trkpt><trkpt lat="44.858764" lon="12.0854235"><ele>-2.0</ele><time>2026-04-24T10:45:11.26Z</time></trkpt><trkpt lat="44.8588659" lon="12.0853905"><ele>-2.0</ele><time>2026-04-24T10:45:12.26Z</time></trkpt><trkpt lat="44.858967" lon="12.0853569"><ele>-2.0</ele><time>2026-04-24T10:45:13.26Z</time></trkpt><trkpt lat="44.8590845" lon="12.0853268"><ele>-2.0</ele><time>2026-04-24T10:45:14.26Z</time></trkpt><trkpt lat="44.8592166" lon="12.0852904"><ele>-2.0</ele><time>2026-04-24T10:45:15.259Z</time></trkpt><trkpt lat="44.8593515" lon="12.0852571"><ele>-1.6666666666666665</ele><time>2026-04-24T10:45:16.26Z</time></trkpt><trkpt lat="44.8594988" lon="12.0852183"><ele>-1.3333333333333333</ele><time>2026-04-24T10:45:17.259Z</time></trkpt><trkpt lat="44.859653" lon="12.0851761"><ele>-1.0</ele><time>2026-04-24T10:45:18.26Z</time></trkpt><trkpt lat="44.8598193" lon="12.0851288"><ele>-1.0</ele><time>2026-04-24T10:45:19.26Z</time></trkpt><trkpt lat="44.8599816" lon="12.0850801"><ele>-1.0</ele><time>2026-04-24T10:45:20.26Z</time></trkpt><trkpt lat="44.8601607" lon="12.0850308"><ele>-1.0</ele><time>2026-04-24T10:45:21.26Z</time></trkpt><trkpt lat="44.8603327" lon="12.0849756"><ele>-1.3333333333333333</ele><time>2026-04-24T10:45:22.259Z</time></trkpt><trkpt lat="44.860516" lon="12.0849114"><ele>-1.6666666666666665</ele><time>2026-04-24T10:45:23.259Z</time></trkpt><trkpt lat="44.8607073" lon="12.0848333"><ele>-2.0</ele><time>2026-04-24T10:45:24.259Z</time></trkpt><trkpt lat="44.8608979" lon="12.0847475"><ele>-1.3333333333333333</ele><time>2026-04-24T10:45:25.259Z</time></trkpt><trkpt lat="44.8610897" lon="12.0846528"><ele>-0.6666666666666666</ele><time>2026-04-24T10:45:26.26Z</time></trkpt><trkpt lat="44.8612765" lon="12.0845526"><ele>0.0</ele><time>2026-04-24T10:45:27.259Z</time></trkpt><trkpt lat="44.861467" lon="12.08445"><ele>0.0</ele><time>2026-04-24T10:45:28.259Z</time></trkpt><trkpt lat="44.8616667" lon="12.0843436"><ele>0.0</ele><time>2026-04-24T10:45:29.259Z</time></trkpt><trkpt lat="44.8618551" lon="12.0842441"><ele>0.0</ele><time>2026-04-24T10:45:30.259Z</time></trkpt><trkpt lat="44.8620497" lon="12.0841419"><ele>0.0</ele><time>2026-04-24T10:45:31.26Z</time></trkpt><trkpt lat="44.8622507" lon="12.0840363"><ele>0.0</ele><time>2026-04-24T10:45:32.26Z</time></trkpt><trkpt lat="44.8624434" lon="12.0839329"><ele>0.0</ele><time>2026-04-24T10:45:33.26Z</time></trkpt><trkpt lat="44.8626263" lon="12.0838357"><ele>-0.3333333333333333</ele><time>2026-04-24T10:45:34.259Z</time></trkpt><trkpt lat="44.8628124" lon="12.0837336"><ele>-0.6666666666666666</ele><time>2026-04-24T10:45:35.26Z</time></trkpt><trkpt lat="44.8629959" lon="12.0836342"><ele>-1.0</ele><time>2026-04-24T10:45:36.26Z</time></trkpt><trkpt lat="44.8631804" lon="12.0835374"><ele>-1.0</ele><time>2026-04-24T10:45:37.259Z</time></trkpt><trkpt lat="44.8633538" lon="12.0834451"><ele>-1.0</ele><time>2026-04-24T10:45:38.259Z</time></trkpt><trkpt lat="44.8635294" lon="12.0833493"><ele>-1.0</ele><time>2026-04-24T10:45:39.259Z</time></trkpt><trkpt lat="44.8637082" lon="12.0832528"><ele>-1.3333333333333333</ele><time>2026-04-24T10:45:40.259Z</time></trkpt><trkpt lat="44.8638773" lon="12.0831743"><ele>-1.6666666666666665</ele><time>2026-04-24T10:45:41.259Z</time></trkpt><trkpt lat="44.8640535" lon="12.0831133"><ele>-2.0</ele><time>2026-04-24T10:45:42.26Z</time></trkpt><trkpt lat="44.8642386" lon="12.0830731"><ele>-1.3333333333333333</ele><time>2026-04-24T10:45:43.26Z</time></trkpt><trkpt lat="44.8644253" lon="12.0830537"><ele>-0.6666666666666666</ele><time>2026-04-24T10:45:44.26Z</time></trkpt><trkpt lat="44.8646236" lon="12.0830531"><ele>0.0</ele><time>2026-04-24T10:45:45.26Z</time></trkpt><trkpt lat="44.8648093" lon="12.0830716"><ele>0.0</ele><time>2026-04-24T10:45:46.259Z</time></trkpt><trkpt lat="44.8650036" lon="12.0831025"><ele>0.0</ele><time>2026-04-24T10:45:47.259Z</time></trkpt><trkpt lat="44.8652055" lon="12.0831421"><ele>0.0</ele><time>2026-04-24T10:45:48.259Z</time></trkpt><trkpt lat="44.8654054" lon="12.0831806"><ele>-0.3333333333333333</ele><time>2026-04-24T10:45:49.259Z</time></trkpt><trkpt lat="44.8656068" lon="12.0832171"><ele>-0.6666666666666666</ele><time>2026-04-24T10:45:50.26Z</time></trkpt><trkpt lat="44.865806" lon="12.0832523"><ele>-1.0</ele><time>2026-04-24T10:45:51.26Z</time></trkpt><trkpt lat="44.8660077" lon="12.0832887"><ele>-1.0</ele><time>2026-04-24T10:45:52.26Z</time></trkpt><trkpt lat="44.866207" lon="12.0833185"><ele>-1.0</ele><time>2026-04-24T10:45:53.26Z</time></trkpt><trkpt lat="44.866385" lon="12.0833506"><ele>-1.0</ele><time>2026-04-24T10:45:54.26Z</time></trkpt><trkpt lat="44.8665573" lon="12.0833855"><ele>-1.0</ele><time>2026-04-24T10:45:55.26Z</time></trkpt><trkpt lat="44.8667262" lon="12.0834167"><ele>-1.0</ele><time>2026-04-24T10:45:56.26Z</time></trkpt><trkpt lat="44.8668754" lon="12.0834491"><ele>-1.0</ele><time>2026-04-24T10:45:57.259Z</time></trkpt><trkpt lat="44.8670084" lon="12.0834854"><ele>-1.5</ele><time>2026-04-24T10:45:58.259Z</time></trkpt><trkpt lat="44.8671338" lon="12.0835265"><ele>-2.0</ele><time>2026-04-24T10:45:59.258Z</time></trkpt><trkpt lat="44.8672513" lon="12.083575"><ele>-2.5</ele><time>2026-04-24T10:46:00.259Z</time></trkpt><trkpt lat="44.8673675" lon="12.0836315"><ele>-3.0</ele><time>2026-04-24T10:46:01.26Z</time></trkpt><trkpt lat="44.8674826" lon="12.0836932"><ele>-3.0</ele><time>2026-04-24T10:46:02.26Z</time></trkpt><trkpt lat="44.8675992" lon="12.0837587"><ele>-3.0</ele><time>2026-04-24T10:46:03.26Z</time></trkpt><trkpt lat="44.8677148" lon="12.0838238"><ele>-3.0</ele><time>2026-04-24T10:46:04.26Z</time></trkpt><trkpt lat="44.8678231" lon="12.083884"><ele>-3.0</ele><time>2026-04-24T10:46:05.26Z</time></trkpt><trkpt lat="44.8679323" lon="12.0839449"><ele>-3.25</ele><time>2026-04-24T10:46:06.26Z</time></trkpt><trkpt lat="44.8680445" lon="12.084009"><ele>-3.5</ele><time>2026-04-24T10:46:07.26Z</time></trkpt><trkpt lat="44.8681557" lon="12.0840731"><ele>-3.75</ele><time>2026-04-24T10:46:08.26Z</time></trkpt><trkpt lat="44.8682646" lon="12.0841335"><ele>-4.0</ele><time>2026-04-24T10:46:09.26Z</time></trkpt><trkpt lat="44.8683576" lon="12.084184"><ele>-3.4000000000000004</ele><time>2026-04-24T10:46:10.258Z</time></trkpt><trkpt lat="44.8684321" lon="12.0842279"><ele>-2.8000000000000003</ele><time>2026-04-24T10:46:11.259Z</time></trkpt><trkpt lat="44.8684968" lon="12.0843019"><ele>-2.2</ele><time>2026-04-24T10:46:13.259Z</time></trkpt><trkpt lat="44.8684781" lon="12.0844064"><ele>-1.6</ele><time>2026-04-24T10:46:16.26Z</time></trkpt><trkpt lat="44.8684499" lon="12.0845613"><ele>-1.0</ele><time>2026-04-24T10:46:49.26Z</time></trkpt><trkpt lat="44.8684239" lon="12.0847455"><ele>-1.0</ele><time>2026-04-24T10:46:51.259Z</time></trkpt><trkpt lat="44.8684087" lon="12.0848723"><ele>-1.0</ele><time>2026-04-24T10:46:52.259Z</time></trkpt><trkpt lat="44.8683926" lon="12.0849956"><ele>-1.0</ele><time>2026-04-24T10:46:53.259Z</time></trkpt><trkpt lat="44.8683759" lon="12.0851354"><ele>-1.0</ele><time>2026-04-24T10:46:54.26Z</time></trkpt><trkpt lat="44.8683565" lon="12.0852909"><ele>-1.0</ele><time>2026-04-24T10:46:55.26Z</time></trkpt><trkpt lat="44.8683358" lon="12.0854609"><ele>-0.75</ele><time>2026-04-24T10:46:56.26Z</time></trkpt><trkpt lat="44.8683109" lon="12.0856317"><ele>-0.5</ele><time>2026-04-24T10:46:57.26Z</time></trkpt><trkpt lat="44.8682876" lon="12.0857905"><ele>-0.25</ele><time>2026-04-24T10:46:58.259Z</time></trkpt><trkpt lat="44.8682652" lon="12.0859474"><ele>0.0</ele><time>2026-04-24T10:46:59.26Z</time></trkpt><trkpt lat="44.8682456" lon="12.0861123"><ele>-0.75</ele><time>2026-04-24T10:47:00.259Z</time></trkpt><trkpt lat="44.8682275" lon="12.0862762"><ele>-1.5</ele><time>2026-04-24T10:47:01.26Z</time></trkpt><trkpt lat="44.8682087" lon="12.0864398"><ele>-2.25</ele><time>2026-04-24T10:47:02.259Z</time></trkpt><trkpt lat="44.8681987" lon="12.0866187"><ele>-3.0</ele><time>2026-04-24T10:47:03.259Z</time></trkpt><trkpt lat="44.8681806" lon="12.0867851"><ele>-3.0</ele><time>2026-04-24T10:47:04.259Z</time></trkpt><trkpt lat="44.868165" lon="12.0869542"><ele>-3.0</ele><time>2026-04-24T10:47:05.259Z</time></trkpt><trkpt lat="44.8681471" lon="12.0871311"><ele>-3.0</ele><time>2026-04-24T10:47:06.259Z</time></trkpt><trkpt lat="44.8681262" lon="12.0873114"><ele>-3.0</ele><time>2026-04-24T10:47:07.26Z</time></trkpt><trkpt lat="44.8681035" lon="12.0874949"><ele>-3.0</ele><time>2026-04-24T10:47:08.259Z</time></trkpt><trkpt lat="44.8680808" lon="12.0876883"><ele>-3.0</ele><time>2026-04-24T10:47:09.259Z</time></trkpt><trkpt lat="44.8680616" lon="12.0878862"><ele>-3.0</ele><time>2026-04-24T10:47:10.26Z</time></trkpt><trkpt lat="44.8680425" lon="12.0880854"><ele>-3.0</ele><time>2026-04-24T10:47:11.26Z</time></trkpt><trkpt lat="44.8680248" lon="12.0882824"><ele>-3.5</ele><time>2026-04-24T10:47:12.26Z</time></trkpt><trkpt lat="44.8680019" lon="12.0884824"><ele>-4.0</ele><time>2026-04-24T10:47:13.259Z</time></trkpt><trkpt lat="44.8679805" lon="12.088684"><ele>-4.5</ele><time>2026-04-24T10:47:14.259Z</time></trkpt><trkpt lat="44.8679601" lon="12.0888864"><ele>-5.0</ele><time>2026-04-24T10:47:15.26Z</time></trkpt><trkpt lat="44.8679377" lon="12.0890937"><ele>-5.333333333333334</ele><time>2026-04-24T10:47:16.259Z</time></trkpt><trkpt lat="44.8679146" lon="12.0893251"><ele>-5.666666666666667</ele><time>2026-04-24T10:47:17.26Z</time></trkpt><trkpt lat="44.8678899" lon="12.0895533"><ele>-6.0</ele><time>2026-04-24T10:47:18.259Z</time></trkpt><trkpt lat="44.8678693" lon="12.0897752"><ele>-5.666666666666667</ele><time>2026-04-24T10:47:19.26Z</time></trkpt><trkpt lat="44.8678466" lon="12.0899975"><ele>-5.333333333333334</ele><time>2026-04-24T10:47:20.26Z</time></trkpt><trkpt lat="44.8678234" lon="12.0902176"><ele>-5.0</ele><time>2026-04-24T10:47:21.26Z</time></trkpt><trkpt lat="44.8678011" lon="12.0904347"><ele>-5.0</ele><time>2026-04-24T10:47:22.259Z</time></trkpt><trkpt lat="44.8677828" lon="12.0906486"><ele>-5.0</ele><time>2026-04-24T10:47:23.26Z</time></trkpt><trkpt lat="44.8677633" lon="12.0908592"><ele>-5.0</ele><time>2026-04-24T10:47:24.259Z</time></trkpt><trkpt lat="44.8677422" lon="12.0910649"><ele>-5.0</ele><time>2026-04-24T10:47:25.26Z</time></trkpt><trkpt lat="44.8677216" lon="12.0912692"><ele>-5.0</ele><time>2026-04-24T10:47:26.259Z</time></trkpt><trkpt lat="44.8677005" lon="12.0914725"><ele>-5.0</ele><time>2026-04-24T10:47:27.26Z</time></trkpt><trkpt lat="44.8676796" lon="12.0916698"><ele>-5.0</ele><time>2026-04-24T10:47:28.259Z</time></trkpt><trkpt lat="44.8676578" lon="12.0918754"><ele>-5.0</ele><time>2026-04-24T10:47:29.26Z</time></trkpt><trkpt lat="44.8676346" lon="12.092088"><ele>-5.0</ele><time>2026-04-24T10:47:30.26Z</time></trkpt><trkpt lat="44.8676117" lon="12.0923048"><ele>-5.0</ele><time>2026-04-24T10:47:31.259Z</time></trkpt><trkpt lat="44.8675893" lon="12.0925252"><ele>-4.666666666666667</ele><time>2026-04-24T10:47:32.259Z</time></trkpt><trkpt lat="44.8675662" lon="12.0927484"><ele>-4.333333333333333</ele><time>2026-04-24T10:47:33.26Z</time></trkpt><trkpt lat="44.8675435" lon="12.0929684"><ele>-4.0</ele><time>2026-04-24T10:47:34.26Z</time></trkpt><trkpt lat="44.8675236" lon="12.0931797"><ele>-5.0</ele><time>2026-04-24T10:47:35.26Z</time></trkpt><trkpt lat="44.8675032" lon="12.0933919"><ele>-6.0</ele><time>2026-04-24T10:47:36.259Z</time></trkpt><trkpt lat="44.8674827" lon="12.0936071"><ele>-7.0</ele><time>2026-04-24T10:47:37.259Z</time></trkpt><trkpt lat="44.8674604" lon="12.0938251"><ele>-7.0</ele><time>2026-04-24T10:47:38.26Z</time></trkpt><trkpt lat="44.8674363" lon="12.0940437"><ele>-7.0</ele><time>2026-04-24T10:47:39.26Z</time></trkpt><trkpt lat="44.8674116" lon="12.0942629"><ele>-7.0</ele><time>2026-04-24T10:47:40.259Z</time></trkpt><trkpt lat="44.8673865" lon="12.0944839"><ele>-6.666666666666667</ele><time>2026-04-24T10:47:41.259Z</time></trkpt><trkpt lat="44.8673622" lon="12.0947053"><ele>-6.333333333333334</ele><time>2026-04-24T10:47:42.259Z</time></trkpt><trkpt lat="44.8673403" lon="12.0949256"><ele>-6.0</ele><time>2026-04-24T10:47:43.26Z</time></trkpt><trkpt lat="44.8673202" lon="12.0951407"><ele>-6.0</ele><time>2026-04-24T10:47:44.259Z</time></trkpt><trkpt lat="44.8672986" lon="12.0953419"><ele>-6.0</ele><time>2026-04-24T10:47:45.259Z</time></trkpt><trkpt lat="44.8672785" lon="12.0955322"><ele>-6.0</ele><time>2026-04-24T10:47:46.26Z</time></trkpt><trkpt lat="44.8672577" lon="12.0957307"><ele>-6.0</ele><time>2026-04-24T10:47:47.259Z</time></trkpt><trkpt lat="44.8672371" lon="12.0959334"><ele>-6.0</ele><time>2026-04-24T10:47:48.26Z</time></trkpt><trkpt lat="44.8672171" lon="12.0961395"><ele>-6.0</ele><time>2026-04-24T10:47:49.26Z</time></trkpt><trkpt lat="44.867196" lon="12.0963494"><ele>-6.0</ele><time>2026-04-24T10:47:50.26Z</time></trkpt><trkpt lat="44.8671727" lon="12.0965617"><ele>-6.0</ele><time>2026-04-24T10:47:51.259Z</time></trkpt><trkpt lat="44.8671513" lon="12.0967762"><ele>-6.0</ele><time>2026-04-24T10:47:52.26Z</time></trkpt><trkpt lat="44.8671311" lon="12.09699"><ele>-6.0</ele><time>2026-04-24T10:47:53.26Z</time></trkpt><trkpt lat="44.8671099" lon="12.0972048"><ele>-6.0</ele><time>2026-04-24T10:47:54.259Z</time></trkpt><trkpt lat="44.8670878" lon="12.0974241"><ele>-6.0</ele><time>2026-04-24T10:47:55.259Z</time></trkpt><trkpt lat="44.8670655" lon="12.0976421"><ele>-6.0</ele><time>2026-04-24T10:47:56.259Z</time></trkpt><trkpt lat="44.8670435" lon="12.0978624"><ele>-6.0</ele><time>2026-04-24T10:47:57.259Z</time></trkpt><trkpt lat="44.8670231" lon="12.0980718"><ele>-6.0</ele><time>2026-04-24T10:47:58.26Z</time></trkpt><trkpt lat="44.8670031" lon="12.0982646"><ele>-6.0</ele><time>2026-04-24T10:47:59.259Z</time></trkpt><trkpt lat="44.8669843" lon="12.0984443"><ele>-6.0</ele><time>2026-04-24T10:48:00.259Z</time></trkpt><trkpt lat="44.8669671" lon="12.098618"><ele>-6.0</ele><time>2026-04-24T10:48:01.259Z</time></trkpt><trkpt lat="44.8669499" lon="12.0987923"><ele>-6.0</ele><time>2026-04-24T10:48:02.26Z</time></trkpt><trkpt lat="44.8669317" lon="12.0989686"><ele>-6.0</ele><time>2026-04-24T10:48:03.259Z</time></trkpt><trkpt lat="44.8669113" lon="12.0991512"><ele>-6.0</ele><time>2026-04-24T10:48:04.259Z</time></trkpt><trkpt lat="44.866891" lon="12.0993407"><ele>-6.0</ele><time>2026-04-24T10:48:05.259Z</time></trkpt><trkpt lat="44.8668707" lon="12.099539"><ele>-6.0</ele><time>2026-04-24T10:48:06.259Z</time></trkpt><trkpt lat="44.8668496" lon="12.0997442"><ele>-6.0</ele><time>2026-04-24T10:48:07.259Z</time></trkpt><trkpt lat="44.8668278" lon="12.0999561"><ele>-6.0</ele><time>2026-04-24T10:48:08.26Z</time></trkpt><trkpt lat="44.866807" lon="12.1001685"><ele>-6.0</ele><time>2026-04-24T10:48:09.26Z</time></trkpt><trkpt lat="44.8667868" lon="12.1003823"><ele>-6.0</ele><time>2026-04-24T10:48:10.259Z</time></trkpt><trkpt lat="44.8667658" lon="12.1005979"><ele>-6.0</ele><time>2026-04-24T10:48:11.259Z</time></trkpt><trkpt lat="44.8667439" lon="12.1008161"><ele>-6.0</ele><time>2026-04-24T10:48:12.26Z</time></trkpt><trkpt lat="44.8667222" lon="12.1010369"><ele>-6.0</ele><time>2026-04-24T10:48:13.26Z</time></trkpt><trkpt lat="44.8666984" lon="12.1012593"><ele>-6.0</ele><time>2026-04-24T10:48:14.26Z</time></trkpt><trkpt lat="44.8666752" lon="12.1014821"><ele>-6.333333333333334</ele><time>2026-04-24T10:48:15.259Z</time></trkpt><trkpt lat="44.8666523" lon="12.1017028"><ele>-6.666666666666667</ele><time>2026-04-24T10:48:16.259Z</time></trkpt><trkpt lat="44.8666292" lon="12.1019191"><ele>-7.0</ele><time>2026-04-24T10:48:17.26Z</time></trkpt><trkpt lat="44.8666072" lon="12.1021268"><ele>-7.0</ele><time>2026-04-24T10:48:18.259Z</time></trkpt><trkpt lat="44.8665869" lon="12.1023206"><ele>-7.0</ele><time>2026-04-24T10:48:19.259Z</time></trkpt><trkpt lat="44.866568" lon="12.1025013"><ele>-7.0</ele><time>2026-04-24T10:48:20.26Z</time></trkpt><trkpt lat="44.8665507" lon="12.1026792"><ele>-7.0</ele><time>2026-04-24T10:48:21.26Z</time></trkpt><trkpt lat="44.8665349" lon="12.1028563"><ele>-6.75</ele><time>2026-04-24T10:48:22.26Z</time></trkpt><trkpt lat="44.8665176" lon="12.1030373"><ele>-6.5</ele><time>2026-04-24T10:48:23.259Z</time></trkpt><trkpt lat="44.8664998" lon="12.1032168"><ele>-6.25</ele><time>2026-04-24T10:48:24.26Z</time></trkpt><trkpt lat="44.8664844" lon="12.1033881"><ele>-6.0</ele><time>2026-04-24T10:48:25.258Z</time></trkpt><trkpt lat="44.8664703" lon="12.1035505"><ele>-5.75</ele><time>2026-04-24T10:48:26.259Z</time></trkpt><trkpt lat="44.8664588" lon="12.1037035"><ele>-5.5</ele><time>2026-04-24T10:48:27.26Z</time></trkpt><trkpt lat="44.8664481" lon="12.1038605"><ele>-5.25</ele><time>2026-04-24T10:48:28.26Z</time></trkpt><trkpt lat="44.8664374" lon="12.1040231"><ele>-5.0</ele><time>2026-04-24T10:48:29.259Z</time></trkpt><trkpt lat="44.8664265" lon="12.1041882"><ele>-4.75</ele><time>2026-04-24T10:48:30.259Z</time></trkpt><trkpt lat="44.8664161" lon="12.1043593"><ele>-4.5</ele><time>2026-04-24T10:48:31.259Z</time></trkpt><trkpt lat="44.8664082" lon="12.1045378"><ele>-4.25</ele><time>2026-04-24T10:48:32.26Z</time></trkpt><trkpt lat="44.8663983" lon="12.1047205"><ele>-4.0</ele><time>2026-04-24T10:48:33.259Z</time></trkpt><trkpt lat="44.8663817" lon="12.1049061"><ele>-4.0</ele><time>2026-04-24T10:48:34.26Z</time></trkpt><trkpt lat="44.8663635" lon="12.1050959"><ele>-4.0</ele><time>2026-04-24T10:48:35.259Z</time></trkpt><trkpt lat="44.866344" lon="12.1052893"><ele>-4.0</ele><time>2026-04-24T10:48:36.259Z</time></trkpt><trkpt lat="44.8663249" lon="12.1054829"><ele>-4.0</ele><time>2026-04-24T10:48:37.26Z</time></trkpt><trkpt lat="44.8663066" lon="12.1056693"><ele>-4.25</ele><time>2026-04-24T10:48:38.259Z</time></trkpt><trkpt lat="44.8662902" lon="12.1058451"><ele>-4.5</ele><time>2026-04-24T10:48:39.26Z</time></trkpt><trkpt lat="44.8662729" lon="12.1060136"><ele>-4.75</ele><time>2026-04-24T10:48:40.26Z</time></trkpt><trkpt lat="44.8662565" lon="12.1061821"><ele>-5.0</ele><time>2026-04-24T10:48:41.259Z</time></trkpt><trkpt lat="44.8662401" lon="12.1063467"><ele>-5.0</ele><time>2026-04-24T10:48:42.259Z</time></trkpt><trkpt lat="44.8662225" lon="12.1065048"><ele>-5.0</ele><time>2026-04-24T10:48:43.26Z</time></trkpt><trkpt lat="44.8662045" lon="12.1066468"><ele>-5.0</ele><time>2026-04-24T10:48:44.26Z</time></trkpt><trkpt lat="44.8661917" lon="12.1067593"><ele>-5.0</ele><time>2026-04-24T10:48:45.259Z</time></trkpt><trkpt lat="44.8661763" lon="12.106909"><ele>-5.0</ele><time>2026-04-24T10:48:47.259Z</time></trkpt><trkpt lat="44.8661675" lon="12.1070185"><ele>-5.0</ele><time>2026-04-24T10:48:50.26Z</time></trkpt><trkpt lat="44.8661592" lon="12.1071484"><ele>-5.0</ele><time>2026-04-24T10:49:31.259Z</time></trkpt><trkpt lat="44.8661502" lon="12.1072542"><ele>-5.0</ele><time>2026-04-24T10:49:33.259Z</time></trkpt><trkpt lat="44.8661343" lon="12.1073906"><ele>-5.0</ele><time>2026-04-24T10:49:35.259Z</time></trkpt><trkpt lat="44.8661124" lon="12.1075674"><ele>-5.0</ele><time>2026-04-24T10:49:37.259Z</time></trkpt><trkpt lat="44.8661006" lon="12.1076639"><ele>-4.857142857142857</ele><time>2026-04-24T10:49:38.259Z</time></trkpt><trkpt lat="44.8660914" lon="12.1077618"><ele>-4.714285714285714</ele><time>2026-04-24T10:49:39.26Z</time></trkpt><trkpt lat="44.8660803" lon="12.1078597"><ele>-4.571428571428571</ele><time>2026-04-24T10:49:40.26Z</time></trkpt><trkpt lat="44.8660707" lon="12.107956"><ele>-4.428571428571429</ele><time>2026-04-24T10:49:41.259Z</time></trkpt><trkpt lat="44.8660594" lon="12.108049"><ele>-4.285714285714286</ele><time>2026-04-24T10:49:42.26Z</time></trkpt><trkpt lat="44.8660524" lon="12.1081517"><ele>-4.142857142857142</ele><time>2026-04-24T10:49:43.259Z</time></trkpt><trkpt lat="44.866045" lon="12.1082511"><ele>-4.0</ele><time>2026-04-24T10:49:44.259Z</time></trkpt><trkpt lat="44.8660359" lon="12.1083611"><ele>-3.9999999999999996</ele><time>2026-04-24T10:49:45.259Z</time></trkpt><trkpt lat="44.8660225" lon="12.1084718"><ele>-4.0</ele><time>2026-04-24T10:49:46.259Z</time></trkpt><trkpt lat="44.8660134" lon="12.1085905"><ele>-4.0</ele><time>2026-04-24T10:49:47.259Z</time></trkpt><trkpt lat="44.8660003" lon="12.1087093"><ele>-4.0</ele><time>2026-04-24T10:49:48.259Z</time></trkpt><trkpt lat="44.865988" lon="12.1088291"><ele>-3.9999999999999996</ele><time>2026-04-24T10:49:49.26Z</time></trkpt><trkpt lat="44.8659767" lon="12.1089521"><ele>-4.0</ele><time>2026-04-24T10:49:50.258Z</time></trkpt><trkpt lat="44.8659628" lon="12.1090771"><ele>-3.9999999999999996</ele><time>2026-04-24T10:49:51.26Z</time></trkpt><trkpt lat="44.8659477" lon="12.1092013"><ele>-4.0</ele><time>2026-04-24T10:49:52.259Z</time></trkpt><trkpt lat="44.8659342" lon="12.109321"><ele>-4.0</ele><time>2026-04-24T10:49:53.258Z</time></trkpt><trkpt lat="44.865924" lon="12.1094318"><ele>-4.0</ele><time>2026-04-24T10:49:54.259Z</time></trkpt><trkpt lat="44.8659178" lon="12.1095255"><ele>-3.9999999999999996</ele><time>2026-04-24T10:49:55.259Z</time></trkpt><trkpt lat="44.8659008" lon="12.1096762"><ele>-4.0</ele><time>2026-04-24T10:49:57.259Z</time></trkpt><trkpt lat="44.8658869" lon="12.1098323"><ele>-3.8000000000000003</ele><time>2026-04-24T10:49:59.26Z</time></trkpt><trkpt lat="44.8658768" lon="12.109933"><ele>-3.6000000000000005</ele><time>2026-04-24T10:50:00.26Z</time></trkpt><trkpt lat="44.8658651" lon="12.1100568"><ele>-3.4</ele><time>2026-04-24T10:50:01.259Z</time></trkpt><trkpt lat="44.8658522" lon="12.1101833"><ele>-3.2</ele><time>2026-04-24T10:50:02.26Z</time></trkpt><trkpt lat="44.8658374" lon="12.1103318"><ele>-3.0</ele><time>2026-04-24T10:50:03.26Z</time></trkpt><trkpt lat="44.8658177" lon="12.1105031"><ele>-3.0</ele><time>2026-04-24T10:50:04.26Z</time></trkpt><trkpt lat="44.8658031" lon="12.110675"><ele>-3.0</ele><time>2026-04-24T10:50:05.26Z</time></trkpt><trkpt lat="44.8657903" lon="12.1108423"><ele>-3.0</ele><time>2026-04-24T10:50:06.259Z</time></trkpt><trkpt lat="44.8657752" lon="12.1110019"><ele>-3.0</ele><time>2026-04-24T10:50:07.26Z</time></trkpt><trkpt lat="44.8657556" lon="12.1111581"><ele>-3.0</ele><time>2026-04-24T10:50:08.26Z</time></trkpt><trkpt lat="44.8657386" lon="12.1113217"><ele>-3.0</ele><time>2026-04-24T10:50:09.26Z</time></trkpt><trkpt lat="44.8657188" lon="12.1114934"><ele>-3.0</ele><time>2026-04-24T10:50:10.26Z</time></trkpt><trkpt lat="44.8656994" lon="12.1116761"><ele>-3.0</ele><time>2026-04-24T10:50:11.26Z</time></trkpt><trkpt lat="44.8656799" lon="12.1118744"><ele>-3.333333333333333</ele><time>2026-04-24T10:50:12.26Z</time></trkpt><trkpt lat="44.8656529" lon="12.1120883"><ele>-3.6666666666666665</ele><time>2026-04-24T10:50:13.26Z</time></trkpt><trkpt lat="44.865632" lon="12.1122917"><ele>-4.0</ele><time>2026-04-24T10:50:14.259Z</time></trkpt><trkpt lat="44.8656084" lon="12.112505"><ele>-5.0</ele><time>2026-04-24T10:50:15.26Z</time></trkpt><trkpt lat="44.8655854" lon="12.1127213"><ele>-6.0</ele><time>2026-04-24T10:50:16.26Z</time></trkpt><trkpt lat="44.8655654" lon="12.1129418"><ele>-7.0</ele><time>2026-04-24T10:50:17.26Z</time></trkpt><trkpt lat="44.865542" lon="12.1131687"><ele>-7.0</ele><time>2026-04-24T10:50:18.26Z</time></trkpt><trkpt lat="44.8655149" lon="12.1134005"><ele>-7.0</ele><time>2026-04-24T10:50:19.259Z</time></trkpt><trkpt lat="44.8654887" lon="12.1136342"><ele>-7.0</ele><time>2026-04-24T10:50:20.259Z</time></trkpt><trkpt lat="44.8654644" lon="12.1138751"><ele>-7.0</ele><time>2026-04-24T10:50:21.26Z</time></trkpt><trkpt lat="44.8654368" lon="12.1141185"><ele>-7.0</ele><time>2026-04-24T10:50:22.259Z</time></trkpt><trkpt lat="44.8654108" lon="12.1143641"><ele>-7.0</ele><time>2026-04-24T10:50:23.259Z</time></trkpt><trkpt lat="44.8653833" lon="12.1146105"><ele>-7.0</ele><time>2026-04-24T10:50:24.26Z</time></trkpt><trkpt lat="44.8653609" lon="12.1148659"><ele>-7.0</ele><time>2026-04-24T10:50:25.26Z</time></trkpt><trkpt lat="44.8653361" lon="12.1151094"><ele>-7.0</ele><time>2026-04-24T10:50:26.26Z</time></trkpt><trkpt lat="44.8653106" lon="12.1153539"><ele>-7.0</ele><time>2026-04-24T10:50:27.26Z</time></trkpt><trkpt lat="44.865286" lon="12.1156005"><ele>-7.0</ele><time>2026-04-24T10:50:28.26Z</time></trkpt><trkpt lat="44.865259" lon="12.1158392"><ele>-7.0</ele><time>2026-04-24T10:50:29.26Z</time></trkpt><trkpt lat="44.8652363" lon="12.1160685"><ele>-7.0</ele><time>2026-04-24T10:50:30.26Z</time></trkpt><trkpt lat="44.8652126" lon="12.1162975"><ele>-7.0</ele><time>2026-04-24T10:50:31.26Z</time></trkpt><trkpt lat="44.865189" lon="12.1165153"><ele>-7.0</ele><time>2026-04-24T10:50:32.26Z</time></trkpt><trkpt lat="44.8651639" lon="12.1167309"><ele>-7.0</ele><time>2026-04-24T10:50:33.26Z</time></trkpt><trkpt lat="44.8651392" lon="12.1169462"><ele>-7.0</ele><time>2026-04-24T10:50:34.26Z</time></trkpt><trkpt lat="44.8651161" lon="12.1171698"><ele>-7.0</ele><time>2026-04-24T10:50:35.259Z</time></trkpt><trkpt lat="44.8650931" lon="12.1174049"><ele>-6.666666666666667</ele><time>2026-04-24T10:50:36.259Z</time></trkpt><trkpt lat="44.8650674" lon="12.1176423"><ele>-6.333333333333334</ele><time>2026-04-24T10:50:37.258Z</time></trkpt><trkpt lat="44.8650421" lon="12.1178789"><ele>-6.0</ele><time>2026-04-24T10:50:38.259Z</time></trkpt><trkpt lat="44.865017" lon="12.1181186"><ele>-6.666666666666666</ele><time>2026-04-24T10:50:39.259Z</time></trkpt><trkpt lat="44.8649912" lon="12.1183642"><ele>-7.333333333333333</ele><time>2026-04-24T10:50:40.258Z</time></trkpt><trkpt lat="44.8649637" lon="12.1186164"><ele>-8.0</ele><time>2026-04-24T10:50:41.258Z</time></trkpt><trkpt lat="44.8649373" lon="12.1188631"><ele>-7.666666666666666</ele><time>2026-04-24T10:50:42.258Z</time></trkpt><trkpt lat="44.864912" lon="12.1191135"><ele>-7.333333333333334</ele><time>2026-04-24T10:50:43.258Z</time></trkpt><trkpt lat="44.8648851" lon="12.1193721"><ele>-7.0</ele><time>2026-04-24T10:50:44.258Z</time></trkpt><trkpt lat="44.8648593" lon="12.1196197"><ele>-7.0</ele><time>2026-04-24T10:50:45.258Z</time></trkpt><trkpt lat="44.8648319" lon="12.1198605"><ele>-7.0</ele><time>2026-04-24T10:50:46.258Z</time></trkpt><trkpt lat="44.8648034" lon="12.1200935"><ele>-7.0</ele><time>2026-04-24T10:50:47.258Z</time></trkpt><trkpt lat="44.8647765" lon="12.1203306"><ele>-6.333333333333334</ele><time>2026-04-24T10:50:48.258Z</time></trkpt><trkpt lat="44.8647494" lon="12.1205763"><ele>-5.666666666666667</ele><time>2026-04-24T10:50:49.258Z</time></trkpt><trkpt lat="44.8647218" lon="12.1208241"><ele>-5.0</ele><time>2026-04-24T10:50:50.258Z</time></trkpt><trkpt lat="44.8646973" lon="12.1210722"><ele>-5.0</ele><time>2026-04-24T10:50:51.258Z</time></trkpt><trkpt lat="44.8646704" lon="12.1213156"><ele>-5.0</ele><time>2026-04-24T10:50:52.258Z</time></trkpt><trkpt lat="44.8646479" lon="12.1215441"><ele>-5.0</ele><time>2026-04-24T10:50:53.257Z</time></trkpt><trkpt lat="44.8646255" lon="12.1217645"><ele>-4.75</ele><time>2026-04-24T10:50:54.259Z</time></trkpt><trkpt lat="44.864604" lon="12.1219783"><ele>-4.5</ele><time>2026-04-24T10:50:55.259Z</time></trkpt><trkpt lat="44.864583" lon="12.1221827"><ele>-4.25</ele><time>2026-04-24T10:50:56.259Z</time></trkpt><trkpt lat="44.8645646" lon="12.1223713"><ele>-4.0</ele><time>2026-04-24T10:50:57.258Z</time></trkpt><trkpt lat="44.8645467" lon="12.1225427"><ele>-4.0</ele><time>2026-04-24T10:50:58.258Z</time></trkpt><trkpt lat="44.8645274" lon="12.1227268"><ele>-4.0</ele><time>2026-04-24T10:50:59.258Z</time></trkpt><trkpt lat="44.8645038" lon="12.1229267"><ele>-4.0</ele><time>2026-04-24T10:51:00.258Z</time></trkpt><trkpt lat="44.8644837" lon="12.1231212"><ele>-4.0</ele><time>2026-04-24T10:51:01.258Z</time></trkpt><trkpt lat="44.8644757" lon="12.1233122"><ele>-4.5</ele><time>2026-04-24T10:51:02.258Z</time></trkpt><trkpt lat="44.8644764" lon="12.1235103"><ele>-5.0</ele><time>2026-04-24T10:51:03.258Z</time></trkpt><trkpt lat="44.8644791" lon="12.1237168"><ele>-5.5</ele><time>2026-04-24T10:51:04.258Z</time></trkpt><trkpt lat="44.8644391" lon="12.1239253"><ele>-6.0</ele><time>2026-04-24T10:51:05.258Z</time></trkpt><trkpt lat="44.8644015" lon="12.1241346"><ele>-6.0</ele><time>2026-04-24T10:51:06.258Z</time></trkpt><trkpt lat="44.864375" lon="12.1243482"><ele>-6.0</ele><time>2026-04-24T10:51:07.258Z</time></trkpt><trkpt lat="44.8643538" lon="12.1245673"><ele>-6.0</ele><time>2026-04-24T10:51:08.259Z</time></trkpt><trkpt lat="44.8643338" lon="12.1247878"><ele>-6.0</ele><time>2026-04-24T10:51:09.258Z</time></trkpt><trkpt lat="44.8643108" lon="12.125008"><ele>-6.0</ele><time>2026-04-24T10:51:10.258Z</time></trkpt><trkpt lat="44.8642898" lon="12.1252219"><ele>-6.0</ele><time>2026-04-24T10:51:11.259Z</time></trkpt><trkpt lat="44.8642677" lon="12.125432"><ele>-6.0</ele><time>2026-04-24T10:51:12.259Z</time></trkpt><trkpt lat="44.8642436" lon="12.1256446"><ele>-6.0</ele><time>2026-04-24T10:51:13.259Z</time></trkpt><trkpt lat="44.8642213" lon="12.1258547"><ele>-6.0</ele><time>2026-04-24T10:51:14.259Z</time></trkpt><trkpt lat="44.8642001" lon="12.1260638"><ele>-6.0</ele><time>2026-04-24T10:51:15.258Z</time></trkpt><trkpt lat="44.864179" lon="12.1262746"><ele>-6.0</ele><time>2026-04-24T10:51:16.259Z</time></trkpt><trkpt lat="44.8641591" lon="12.1264726"><ele>-6.0</ele><time>2026-04-24T10:51:17.259Z</time></trkpt><trkpt lat="44.8641421" lon="12.1266557"><ele>-6.0</ele><time>2026-04-24T10:51:18.258Z</time></trkpt><trkpt lat="44.8641197" lon="12.1268569"><ele>-6.25</ele><time>2026-04-24T10:51:19.258Z</time></trkpt><trkpt lat="44.8640942" lon="12.1270607"><ele>-6.5</ele><time>2026-04-24T10:51:20.258Z</time></trkpt><trkpt lat="44.8640695" lon="12.127263"><ele>-6.75</ele><time>2026-04-24T10:51:21.259Z</time></trkpt><trkpt lat="44.8640448" lon="12.1274537"><ele>-7.0</ele><time>2026-04-24T10:51:22.259Z</time></trkpt><trkpt lat="44.8640252" lon="12.1276283"><ele>-7.0</ele><time>2026-04-24T10:51:23.258Z</time></trkpt><trkpt lat="44.8640106" lon="12.1277969"><ele>-7.0</ele><time>2026-04-24T10:51:24.258Z</time></trkpt><trkpt lat="44.8639961" lon="12.1279682"><ele>-7.0</ele><time>2026-04-24T10:51:25.258Z</time></trkpt><trkpt lat="44.8639817" lon="12.1281358"><ele>-7.0</ele><time>2026-04-24T10:51:26.259Z</time></trkpt><trkpt lat="44.8639664" lon="12.1282971"><ele>-6.3999999999999995</ele><time>2026-04-24T10:51:27.259Z</time></trkpt><trkpt lat="44.8639528" lon="12.1284489"><ele>-5.799999999999999</ele><time>2026-04-24T10:51:28.259Z</time></trkpt><trkpt lat="44.8639402" lon="12.1285972"><ele>-5.2</ele><time>2026-04-24T10:51:29.258Z</time></trkpt><trkpt lat="44.86392" lon="12.1287381"><ele>-4.6</ele><time>2026-04-24T10:51:30.259Z</time></trkpt><trkpt lat="44.8639027" lon="12.128869"><ele>-4.0</ele><time>2026-04-24T10:51:31.259Z</time></trkpt><trkpt lat="44.8638882" lon="12.1289976"><ele>-3.833333333333333</ele><time>2026-04-24T10:51:32.259Z</time></trkpt><trkpt lat="44.8638773" lon="12.1291169"><ele>-3.6666666666666665</ele><time>2026-04-24T10:51:33.258Z</time></trkpt><trkpt lat="44.863868" lon="12.1292338"><ele>-3.5</ele><time>2026-04-24T10:51:34.258Z</time></trkpt><trkpt lat="44.8638615" lon="12.1293502"><ele>-3.333333333333333</ele><time>2026-04-24T10:51:35.258Z</time></trkpt><trkpt lat="44.8638589" lon="12.1294667"><ele>-3.1666666666666665</ele><time>2026-04-24T10:51:36.258Z</time></trkpt><trkpt lat="44.8638653" lon="12.1295827"><ele>-3.0</ele><time>2026-04-24T10:51:37.258Z</time></trkpt><trkpt lat="44.863884" lon="12.1296923"><ele>-3.0</ele><time>2026-04-24T10:51:38.258Z</time></trkpt><trkpt lat="44.8639135" lon="12.1297985"><ele>-3.0</ele><time>2026-04-24T10:51:39.259Z</time></trkpt><trkpt lat="44.8639555" lon="12.1299027"><ele>-3.0</ele><time>2026-04-24T10:51:40.259Z</time></trkpt><trkpt lat="44.863999" lon="12.1299847"><ele>-3.0</ele><time>2026-04-24T10:51:41.259Z</time></trkpt><trkpt lat="44.8640729" lon="12.1300956"><ele>-3.0</ele><time>2026-04-24T10:51:43.259Z</time></trkpt><trkpt lat="44.864102" lon="12.1302015"><ele>-3.0</ele><time>2026-04-24T10:51:45.258Z</time></trkpt><trkpt lat="44.8640732" lon="12.1303159"><ele>-3.4</ele><time>2026-04-24T10:51:47.259Z</time></trkpt><trkpt lat="44.8639841" lon="12.1304547"><ele>-3.8</ele><time>2026-04-24T10:51:49.259Z</time></trkpt><trkpt lat="44.8639344" lon="12.1305307"><ele>-4.2</ele><time>2026-04-24T10:51:50.259Z</time></trkpt><trkpt lat="44.8638761" lon="12.1306219"><ele>-4.6</ele><time>2026-04-24T10:51:51.259Z</time></trkpt><trkpt lat="44.8638167" lon="12.1307198"><ele>-5.0</ele><time>2026-04-24T10:51:52.258Z</time></trkpt><trkpt lat="44.8637564" lon="12.1308186"><ele>-5.25</ele><time>2026-04-24T10:51:53.258Z</time></trkpt><trkpt lat="44.8637002" lon="12.1309287"><ele>-5.5</ele><time>2026-04-24T10:51:54.258Z</time></trkpt><trkpt lat="44.863649" lon="12.1310608"><ele>-5.75</ele><time>2026-04-24T10:51:55.259Z</time></trkpt><trkpt lat="44.8636038" lon="12.131219"><ele>-6.0</ele><time>2026-04-24T10:51:56.259Z</time></trkpt><trkpt lat="44.863572" lon="12.1313959"><ele>-5.5</ele><time>2026-04-24T10:51:57.258Z</time></trkpt><trkpt lat="44.8635493" lon="12.1315856"><ele>-5.0</ele><time>2026-04-24T10:51:58.259Z</time></trkpt><trkpt lat="44.8635312" lon="12.1317812"><ele>-4.5</ele><time>2026-04-24T10:51:59.259Z</time></trkpt><trkpt lat="44.8635113" lon="12.1319867"><ele>-4.0</ele><time>2026-04-24T10:52:00.259Z</time></trkpt><trkpt lat="44.863488" lon="12.1322048"><ele>-4.0</ele><time>2026-04-24T10:52:01.258Z</time></trkpt><trkpt lat="44.8634632" lon="12.132432"><ele>-4.0</ele><time>2026-04-24T10:52:02.258Z</time></trkpt><trkpt lat="44.8634375" lon="12.1326613"><ele>-4.0</ele><time>2026-04-24T10:52:03.258Z</time></trkpt><trkpt lat="44.86341" lon="12.1328984"><ele>-5.0</ele><time>2026-04-24T10:52:04.258Z</time></trkpt><trkpt lat="44.8633772" lon="12.1331323"><ele>-6.0</ele><time>2026-04-24T10:52:05.258Z</time></trkpt><trkpt lat="44.8633525" lon="12.1333784"><ele>-7.0</ele><time>2026-04-24T10:52:06.258Z</time></trkpt><trkpt lat="44.8633254" lon="12.1336343"><ele>-7.333333333333334</ele><time>2026-04-24T10:52:07.259Z</time></trkpt><trkpt lat="44.8632973" lon="12.1338961"><ele>-7.666666666666666</ele><time>2026-04-24T10:52:08.259Z</time></trkpt><trkpt lat="44.8632683" lon="12.1341669"><ele>-8.0</ele><time>2026-04-24T10:52:09.258Z</time></trkpt><trkpt lat="44.8632401" lon="12.1344332"><ele>-7.333333333333333</ele><time>2026-04-24T10:52:10.258Z</time></trkpt><trkpt lat="44.8632102" lon="12.1347054"><ele>-6.666666666666666</ele><time>2026-04-24T10:52:11.259Z</time></trkpt><trkpt lat="44.8631786" lon="12.1349906"><ele>-6.0</ele><time>2026-04-24T10:52:12.258Z</time></trkpt><trkpt lat="44.863147" lon="12.1352732"><ele>-6.0</ele><time>2026-04-24T10:52:13.258Z</time></trkpt><trkpt lat="44.8631168" lon="12.1355449"><ele>-6.0</ele><time>2026-04-24T10:52:14.258Z</time></trkpt><trkpt lat="44.8630883" lon="12.1358148"><ele>-6.0</ele><time>2026-04-24T10:52:15.259Z</time></trkpt><trkpt lat="44.8630533" lon="12.1360895"><ele>-5.666666666666667</ele><time>2026-04-24T10:52:16.258Z</time></trkpt><trkpt lat="44.863023" lon="12.1363789"><ele>-5.333333333333334</ele><time>2026-04-24T10:52:17.257Z</time></trkpt><trkpt lat="44.8629915" lon="12.1366642"><ele>-5.0</ele><time>2026-04-24T10:52:18.259Z</time></trkpt><trkpt lat="44.8629577" lon="12.1369528"><ele>-5.333333333333334</ele><time>2026-04-24T10:52:19.259Z</time></trkpt><trkpt lat="44.862925" lon="12.1372564"><ele>-5.666666666666667</ele><time>2026-04-24T10:52:20.259Z</time></trkpt><trkpt lat="44.8628941" lon="12.1375414"><ele>-6.0</ele><time>2026-04-24T10:52:21.259Z</time></trkpt><trkpt lat="44.8628628" lon="12.1378333"><ele>-6.0</ele><time>2026-04-24T10:52:22.257Z</time></trkpt><trkpt lat="44.8628306" lon="12.1381277"><ele>-6.0</ele><time>2026-04-24T10:52:23.258Z</time></trkpt><trkpt lat="44.8627987" lon="12.1384174"><ele>-6.0</ele><time>2026-04-24T10:52:24.258Z</time></trkpt><trkpt lat="44.8627662" lon="12.1387114"><ele>-6.0</ele><time>2026-04-24T10:52:25.259Z</time></trkpt><trkpt lat="44.8627349" lon="12.1390047"><ele>-6.0</ele><time>2026-04-24T10:52:26.259Z</time></trkpt><trkpt lat="44.8627047" lon="12.1393007"><ele>-6.0</ele><time>2026-04-24T10:52:27.259Z</time></trkpt><trkpt lat="44.8626735" lon="12.1396054"><ele>-5.333333333333333</ele><time>2026-04-24T10:52:28.258Z</time></trkpt><trkpt lat="44.8626424" lon="12.1398937"><ele>-4.666666666666666</ele><time>2026-04-24T10:52:29.259Z</time></trkpt><trkpt lat="44.8626107" lon="12.1401905"><ele>-4.0</ele><time>2026-04-24T10:52:30.258Z</time></trkpt><trkpt lat="44.8625778" lon="12.1404885"><ele>-4.666666666666666</ele><time>2026-04-24T10:52:31.258Z</time></trkpt><trkpt lat="44.8625445" lon="12.1407889"><ele>-5.333333333333333</ele><time>2026-04-24T10:52:32.258Z</time></trkpt><trkpt lat="44.8625101" lon="12.1410974"><ele>-6.0</ele><time>2026-04-24T10:52:33.258Z</time></trkpt><trkpt lat="44.8624782" lon="12.141391"><ele>-6.0</ele><time>2026-04-24T10:52:34.259Z</time></trkpt><trkpt lat="44.8624452" lon="12.1416907"><ele>-6.0</ele><time>2026-04-24T10:52:35.259Z</time></trkpt><trkpt lat="44.8624125" lon="12.1420022"><ele>-6.0</ele><time>2026-04-24T10:52:36.259Z</time></trkpt><trkpt lat="44.8623811" lon="12.1423034"><ele>-6.333333333333334</ele><time>2026-04-24T10:52:37.259Z</time></trkpt><trkpt lat="44.8623503" lon="12.1425973"><ele>-6.666666666666667</ele><time>2026-04-24T10:52:38.259Z</time></trkpt><trkpt lat="44.8623178" lon="12.1428959"><ele>-7.0</ele><time>2026-04-24T10:52:39.259Z</time></trkpt><trkpt lat="44.8622843" lon="12.1431991"><ele>-6.666666666666667</ele><time>2026-04-24T10:52:40.257Z</time></trkpt><trkpt lat="44.8622504" lon="12.1434949"><ele>-6.333333333333334</ele><time>2026-04-24T10:52:41.259Z</time></trkpt><trkpt lat="44.8622204" lon="12.1437549"><ele>-6.0</ele><time>2026-04-24T10:52:42.259Z</time></trkpt><trkpt lat="44.8621911" lon="12.1440098"><ele>-5.666666666666667</ele><time>2026-04-24T10:52:43.259Z</time></trkpt><trkpt lat="44.8621613" lon="12.1442704"><ele>-5.333333333333334</ele><time>2026-04-24T10:52:44.259Z</time></trkpt><trkpt lat="44.8621338" lon="12.1445103"><ele>-5.0</ele><time>2026-04-24T10:52:45.258Z</time></trkpt><trkpt lat="44.8621021" lon="12.1447534"><ele>-4.0</ele><time>2026-04-24T10:52:46.259Z</time></trkpt><trkpt lat="44.8620764" lon="12.1449873"><ele>-3.0</ele><time>2026-04-24T10:52:47.258Z</time></trkpt><trkpt lat="44.8620505" lon="12.145209"><ele>-2.0</ele><time>2026-04-24T10:52:48.258Z</time></trkpt><trkpt lat="44.8620279" lon="12.1454318"><ele>-2.0</ele><time>2026-04-24T10:52:49.258Z</time></trkpt><trkpt lat="44.8620046" lon="12.1456626"><ele>-2.0</ele><time>2026-04-24T10:52:50.258Z</time></trkpt><trkpt lat="44.8619806" lon="12.1459071"><ele>-2.0</ele><time>2026-04-24T10:52:51.259Z</time></trkpt><trkpt lat="44.8619565" lon="12.1461574"><ele>-2.0</ele><time>2026-04-24T10:52:52.259Z</time></trkpt><trkpt lat="44.8619353" lon="12.146382"><ele>-2.0</ele><time>2026-04-24T10:52:53.259Z</time></trkpt><trkpt lat="44.8619154" lon="12.1466071"><ele>-2.0</ele><time>2026-04-24T10:52:54.259Z</time></trkpt><trkpt lat="44.8618968" lon="12.1468362"><ele>-2.0</ele><time>2026-04-24T10:52:55.259Z</time></trkpt><trkpt lat="44.8618782" lon="12.1470633"><ele>-2.0</ele><time>2026-04-24T10:52:56.259Z</time></trkpt><trkpt lat="44.8618565" lon="12.1472999"><ele>-2.0</ele><time>2026-04-24T10:52:57.258Z</time></trkpt><trkpt lat="44.8618353" lon="12.1475104"><ele>-2.0</ele><time>2026-04-24T10:52:58.258Z</time></trkpt><trkpt lat="44.8618122" lon="12.1477143"><ele>-2.0</ele><time>2026-04-24T10:52:59.257Z</time></trkpt><trkpt lat="44.8617914" lon="12.1479136"><ele>-2.0</ele><time>2026-04-24T10:53:00.258Z</time></trkpt><trkpt lat="44.8617733" lon="12.1480886"><ele>-2.0</ele><time>2026-04-24T10:53:01.258Z</time></trkpt><trkpt lat="44.8617555" lon="12.1482397"><ele>-1.9999999999999998</ele><time>2026-04-24T10:53:02.258Z</time></trkpt><trkpt lat="44.86174" lon="12.1483786"><ele>-2.0</ele><time>2026-04-24T10:53:03.258Z</time></trkpt><trkpt lat="44.8617267" lon="12.1484991"><ele>-2.0</ele><time>2026-04-24T10:53:04.258Z</time></trkpt><trkpt lat="44.8617155" lon="12.1485982"><ele>-2.0</ele><time>2026-04-24T10:53:05.259Z</time></trkpt><trkpt lat="44.8616814" lon="12.1487029"><ele>-1.9999999999999998</ele><time>2026-04-24T10:53:07.259Z</time></trkpt><trkpt lat="44.8616036" lon="12.1487583"><ele>-2.0</ele><time>2026-04-24T10:53:09.258Z</time></trkpt><trkpt lat="44.8615342" lon="12.1488059"><ele>-1.9999999999999998</ele><time>2026-04-24T10:53:11.259Z</time></trkpt><trkpt lat="44.8614883" lon="12.1489175"><ele>-2.0</ele><time>2026-04-24T10:53:13.258Z</time></trkpt><trkpt lat="44.8614676" lon="12.1490242"><ele>-2.0</ele><time>2026-04-24T10:53:15.259Z</time></trkpt><trkpt lat="44.8614605" lon="12.1491301"><ele>-2.0</ele><time>2026-04-24T10:53:24.258Z</time></trkpt><trkpt lat="44.8614423" lon="12.1492227"><ele>-1.9999999999999998</ele><time>2026-04-24T10:53:26.259Z</time></trkpt><trkpt lat="44.8614308" lon="12.1493425"><ele>-2.0</ele><time>2026-04-24T10:53:28.259Z</time></trkpt><trkpt lat="44.8614145" lon="12.1494948"><ele>-1.6666666666666665</ele><time>2026-04-24T10:53:30.259Z</time></trkpt><trkpt lat="44.8614034" lon="12.1496148"><ele>-1.3333333333333333</ele><time>2026-04-24T10:53:32.258Z</time></trkpt><trkpt lat="44.861459" lon="12.1497076"><ele>-1.0</ele><time>2026-04-24T10:53:35.258Z</time></trkpt><trkpt lat="44.8615229" lon="12.1497327"><ele>-0.6666666666666666</ele><time>2026-04-24T10:53:37.258Z</time></trkpt><trkpt lat="44.8615021" lon="12.1498442"><ele>-0.3333333333333333</ele><time>2026-04-24T10:53:43.259Z</time></trkpt><trkpt lat="44.8614741" lon="12.1499415"><ele>0.0</ele><time>2026-04-24T10:53:45.258Z</time></trkpt><trkpt lat="44.8614633" lon="12.1500502"><ele>0.0</ele><time>2026-04-24T10:53:47.259Z</time></trkpt><trkpt lat="44.861443" lon="12.1501562"><ele>0.0</ele><time>2026-04-24T10:53:49.258Z</time></trkpt><trkpt lat="44.8613713" lon="12.1502013"><ele>0.0</ele><time>2026-04-24T10:53:52.259Z</time></trkpt><trkpt lat="44.8613335" lon="12.1502799"><ele>0.0</ele><time>2026-04-24T10:53:54.259Z</time></trkpt><trkpt lat="44.8613114" lon="12.1503985"><ele>0.0</ele><time>2026-04-24T10:53:56.259Z</time></trkpt><trkpt lat="44.8612924" lon="12.1505635"><ele>0.0</ele><time>2026-04-24T10:53:58.258Z</time></trkpt><trkpt lat="44.861275" lon="12.1507315"><ele>0.0</ele><time>2026-04-24T10:54:00.259Z</time></trkpt><trkpt lat="44.8612678" lon="12.1508205"><ele>0.0</ele><time>2026-04-24T10:54:01.259Z</time></trkpt><trkpt lat="44.8612559" lon="12.1509242"><ele>0.0</ele><time>2026-04-24T10:54:02.259Z</time></trkpt><trkpt lat="44.8612409" lon="12.1510482"><ele>0.0</ele><time>2026-04-24T10:54:03.258Z</time></trkpt><trkpt lat="44.8612246" lon="12.1511812"><ele>0.0</ele><time>2026-04-24T10:54:04.259Z</time></trkpt><trkpt lat="44.8612082" lon="12.1513177"><ele>0.0</ele><time>2026-04-24T10:54:05.258Z</time></trkpt><trkpt lat="44.8611903" lon="12.1514755"><ele>0.0</ele><time>2026-04-24T10:54:06.258Z</time></trkpt><trkpt lat="44.8611713" lon="12.1516543"><ele>0.0</ele><time>2026-04-24T10:54:07.258Z</time></trkpt><trkpt lat="44.8611516" lon="12.1518346"><ele>0.0</ele><time>2026-04-24T10:54:08.258Z</time></trkpt><trkpt lat="44.8611287" lon="12.1520303"><ele>0.0</ele><time>2026-04-24T10:54:09.258Z</time></trkpt><trkpt lat="44.8611067" lon="12.1522324"><ele>0.0</ele><time>2026-04-24T10:54:10.259Z</time></trkpt><trkpt lat="44.8610826" lon="12.1524533"><ele>0.0</ele><time>2026-04-24T10:54:11.259Z</time></trkpt><trkpt lat="44.8610545" lon="12.1526855"><ele>0.0</ele><time>2026-04-24T10:54:12.258Z</time></trkpt><trkpt lat="44.861027" lon="12.152922"><ele>0.0</ele><time>2026-04-24T10:54:13.258Z</time></trkpt><trkpt lat="44.8609971" lon="12.1531589"><ele>0.0</ele><time>2026-04-24T10:54:14.258Z</time></trkpt><trkpt lat="44.8609686" lon="12.1534171"><ele>0.0</ele><time>2026-04-24T10:54:15.258Z</time></trkpt><trkpt lat="44.860939" lon="12.1536843"><ele>0.0</ele><time>2026-04-24T10:54:16.259Z</time></trkpt><trkpt lat="44.8609096" lon="12.1539564"><ele>0.0</ele><time>2026-04-24T10:54:17.259Z</time></trkpt><trkpt lat="44.860882" lon="12.1542219"><ele>0.0</ele><time>2026-04-24T10:54:18.259Z</time></trkpt><trkpt lat="44.8608431" lon="12.1544804"><ele>0.0</ele><time>2026-04-24T10:54:19.258Z</time></trkpt><trkpt lat="44.8608187" lon="12.154781"><ele>0.0</ele><time>2026-04-24T10:54:20.258Z</time></trkpt><trkpt lat="44.8607896" lon="12.1550535"><ele>0.0</ele><time>2026-04-24T10:54:21.259Z</time></trkpt><trkpt lat="44.8607567" lon="12.1553317"><ele>-0.3333333333333333</ele><time>2026-04-24T10:54:22.259Z</time></trkpt><trkpt lat="44.8607249" lon="12.1556124"><ele>-0.6666666666666666</ele><time>2026-04-24T10:54:23.258Z</time></trkpt><trkpt lat="44.860701" lon="12.1558902"><ele>-1.0</ele><time>2026-04-24T10:54:24.258Z</time></trkpt><trkpt lat="44.8606651" lon="12.1561515"><ele>-1.0</ele><time>2026-04-24T10:54:25.258Z</time></trkpt><trkpt lat="44.8606383" lon="12.1564038"><ele>-1.0</ele><time>2026-04-24T10:54:26.259Z</time></trkpt><trkpt lat="44.8606125" lon="12.1566523"><ele>-1.0</ele><time>2026-04-24T10:54:27.258Z</time></trkpt><trkpt lat="44.8605856" lon="12.1569029"><ele>-1.0</ele><time>2026-04-24T10:54:28.259Z</time></trkpt><trkpt lat="44.8605579" lon="12.1571375"><ele>-1.0</ele><time>2026-04-24T10:54:29.258Z</time></trkpt><trkpt lat="44.8605302" lon="12.1573746"><ele>-1.0</ele><time>2026-04-24T10:54:30.259Z</time></trkpt><trkpt lat="44.860503" lon="12.1576096"><ele>-1.0</ele><time>2026-04-24T10:54:31.259Z</time></trkpt><trkpt lat="44.8604763" lon="12.157843"><ele>-1.0</ele><time>2026-04-24T10:54:32.258Z</time></trkpt><trkpt lat="44.8604484" lon="12.1580846"><ele>-1.0</ele><time>2026-04-24T10:54:33.257Z</time></trkpt><trkpt lat="44.8604208" lon="12.1583324"><ele>-1.3333333333333333</ele><time>2026-04-24T10:54:34.258Z</time></trkpt><trkpt lat="44.8603933" lon="12.1585839"><ele>-1.6666666666666665</ele><time>2026-04-24T10:54:35.258Z</time></trkpt><trkpt lat="44.860361" lon="12.1588512"><ele>-2.0</ele><time>2026-04-24T10:54:36.259Z</time></trkpt><trkpt lat="44.860328" lon="12.15911"><ele>-1.3333333333333333</ele><time>2026-04-24T10:54:37.259Z</time></trkpt><trkpt lat="44.8602945" lon="12.1593654"><ele>-0.6666666666666666</ele><time>2026-04-24T10:54:38.259Z</time></trkpt><trkpt lat="44.8602607" lon="12.1596269"><ele>0.0</ele><time>2026-04-24T10:54:39.259Z</time></trkpt><trkpt lat="44.8602266" lon="12.1598882"><ele>0.0</ele><time>2026-04-24T10:54:40.258Z</time></trkpt><trkpt lat="44.8601927" lon="12.1601519"><ele>0.0</ele><time>2026-04-24T10:54:41.258Z</time></trkpt><trkpt lat="44.8601584" lon="12.1603963"><ele>0.0</ele><time>2026-04-24T10:54:42.258Z</time></trkpt><trkpt lat="44.8601197" lon="12.1606467"><ele>-0.3333333333333333</ele><time>2026-04-24T10:54:43.259Z</time></trkpt><trkpt lat="44.8600757" lon="12.1609014"><ele>-0.6666666666666666</ele><time>2026-04-24T10:54:44.259Z</time></trkpt><trkpt lat="44.8600336" lon="12.161135"><ele>-1.0</ele><time>2026-04-24T10:54:45.259Z</time></trkpt><trkpt lat="44.8599888" lon="12.1613676"><ele>-1.0</ele><time>2026-04-24T10:54:46.259Z</time></trkpt><trkpt lat="44.8599467" lon="12.1615872"><ele>-1.0</ele><time>2026-04-24T10:54:47.259Z</time></trkpt><trkpt lat="44.8599077" lon="12.1618151"><ele>-1.0</ele><time>2026-04-24T10:54:48.258Z</time></trkpt><trkpt lat="44.8598735" lon="12.1620506"><ele>-1.0</ele><time>2026-04-24T10:54:49.258Z</time></trkpt><trkpt lat="44.8598497" lon="12.1622895"><ele>-1.0</ele><time>2026-04-24T10:54:50.257Z</time></trkpt><trkpt lat="44.8598365" lon="12.1625331"><ele>-1.0</ele><time>2026-04-24T10:54:51.258Z</time></trkpt><trkpt lat="44.8598264" lon="12.1627724"><ele>-1.0</ele><time>2026-04-24T10:54:52.258Z</time></trkpt><trkpt lat="44.8598235" lon="12.1629845"><ele>-1.0</ele><time>2026-04-24T10:54:53.259Z</time></trkpt><trkpt lat="44.8598192" lon="12.1631843"><ele>-1.0</ele><time>2026-04-24T10:54:54.259Z</time></trkpt><trkpt lat="44.8598111" lon="12.1633728"><ele>-1.0</ele><time>2026-04-24T10:54:55.258Z</time></trkpt><trkpt lat="44.8597925" lon="12.1635509"><ele>-1.0</ele><time>2026-04-24T10:54:56.258Z</time></trkpt><trkpt lat="44.85976" lon="12.1637218"><ele>-1.0</ele><time>2026-04-24T10:54:57.258Z</time></trkpt><trkpt lat="44.8597139" lon="12.16388"><ele>-1.0</ele><time>2026-04-24T10:54:58.258Z</time></trkpt><trkpt lat="44.8596582" lon="12.1640274"><ele>-1.0</ele><time>2026-04-24T10:54:59.259Z</time></trkpt><trkpt lat="44.8595927" lon="12.164176"><ele>-1.0</ele><time>2026-04-24T10:55:00.259Z</time></trkpt><trkpt lat="44.8595277" lon="12.1643119"><ele>-1.0</ele><time>2026-04-24T10:55:01.258Z</time></trkpt><trkpt lat="44.8594541" lon="12.1644577"><ele>-1.0</ele><time>2026-04-24T10:55:02.259Z</time></trkpt><trkpt lat="44.8593787" lon="12.1646061"><ele>-1.0</ele><time>2026-04-24T10:55:03.258Z</time></trkpt><trkpt lat="44.8593042" lon="12.1647555"><ele>-1.0</ele><time>2026-04-24T10:55:04.259Z</time></trkpt><trkpt lat="44.8592311" lon="12.1649019"><ele>-1.0</ele><time>2026-04-24T10:55:05.258Z</time></trkpt><trkpt lat="44.8591651" lon="12.1650311"><ele>-1.0</ele><time>2026-04-24T10:55:06.258Z</time></trkpt><trkpt lat="44.8591023" lon="12.1651541"><ele>-1.0</ele><time>2026-04-24T10:55:07.258Z</time></trkpt><trkpt lat="44.8590417" lon="12.1652734"><ele>-0.9999999999999999</ele><time>2026-04-24T10:55:08.258Z</time></trkpt><trkpt lat="44.8589906" lon="12.1653818"><ele>-1.0</ele><time>2026-04-24T10:55:09.258Z</time></trkpt><trkpt lat="44.8589475" lon="12.1654801"><ele>-1.0</ele><time>2026-04-24T10:55:10.258Z</time></trkpt><trkpt lat="44.8589058" lon="12.1655802"><ele>-1.0</ele><time>2026-04-24T10:55:11.258Z</time></trkpt><trkpt lat="44.8588691" lon="12.1656755"><ele>-0.9999999999999999</ele><time>2026-04-24T10:55:12.259Z</time></trkpt><trkpt lat="44.8588365" lon="12.1657693"><ele>-1.0</ele><time>2026-04-24T10:55:13.258Z</time></trkpt><trkpt lat="44.8588129" lon="12.1658555"><ele>-1.0</ele><time>2026-04-24T10:55:14.258Z</time></trkpt><trkpt lat="44.85882" lon="12.1660024"><ele>-1.0</ele><time>2026-04-24T10:55:16.259Z</time></trkpt><trkpt lat="44.8588937" lon="12.1660764"><ele>-1.0</ele><time>2026-04-24T10:55:18.258Z</time></trkpt><trkpt lat="44.8589854" lon="12.1660425"><ele>-1.0</ele><time>2026-04-24T10:55:20.258Z</time></trkpt><trkpt lat="44.8590549" lon="12.1659062"><ele>-1.0</ele><time>2026-04-24T10:55:22.259Z</time></trkpt><trkpt lat="44.8590807" lon="12.1658126"><ele>-0.9999999999999999</ele><time>2026-04-24T10:55:23.258Z</time></trkpt><trkpt lat="44.8591087" lon="12.1657121"><ele>-1.0</ele><time>2026-04-24T10:55:24.258Z</time></trkpt><trkpt lat="44.8591419" lon="12.1656212"><ele>-1.0</ele><time>2026-04-24T10:55:25.259Z</time></trkpt><trkpt lat="44.8591845" lon="12.1655227"><ele>-1.0</ele><time>2026-04-24T10:55:26.259Z</time></trkpt><trkpt lat="44.8592293" lon="12.1654268"><ele>-0.9999999999999999</ele><time>2026-04-24T10:55:27.259Z</time></trkpt><trkpt lat="44.8592753" lon="12.1653315"><ele>-1.0</ele><time>2026-04-24T10:55:28.259Z</time></trkpt><trkpt lat="44.8593257" lon="12.1652327"><ele>-1.0</ele><time>2026-04-24T10:55:29.258Z</time></trkpt><trkpt lat="44.8593827" lon="12.1651315"><ele>-1.0</ele><time>2026-04-24T10:55:30.258Z</time></trkpt><trkpt lat="44.8594408" lon="12.1650223"><ele>-1.0</ele><time>2026-04-24T10:55:31.258Z</time></trkpt><trkpt lat="44.859506" lon="12.1648942"><ele>-1.0</ele><time>2026-04-24T10:55:32.259Z</time></trkpt><trkpt lat="44.8595675" lon="12.164774"><ele>-1.0</ele><time>2026-04-24T10:55:33.259Z</time></trkpt><trkpt lat="44.8596289" lon="12.1646573"><ele>-1.0</ele><time>2026-04-24T10:55:34.259Z</time></trkpt><trkpt lat="44.8596932" lon="12.1645357"><ele>-1.0</ele><time>2026-04-24T10:55:35.259Z</time></trkpt><trkpt lat="44.8597593" lon="12.1644131"><ele>-1.0</ele><time>2026-04-24T10:55:36.259Z</time></trkpt><trkpt lat="44.859824" lon="12.1642911"><ele>-1.0</ele><time>2026-04-24T10:55:37.259Z</time></trkpt><trkpt lat="44.8598889" lon="12.1641639"><ele>-1.0</ele><time>2026-04-24T10:55:38.259Z</time></trkpt><trkpt lat="44.8599481" lon="12.1640341"><ele>-0.8</ele><time>2026-04-24T10:55:39.259Z</time></trkpt><trkpt lat="44.8599944" lon="12.1638998"><ele>-0.6000000000000001</ele><time>2026-04-24T10:55:40.258Z</time></trkpt><trkpt lat="44.8600268" lon="12.1637574"><ele>-0.4</ele><time>2026-04-24T10:55:41.258Z</time></trkpt><trkpt lat="44.8600517" lon="12.163606"><ele>-0.2</ele><time>2026-04-24T10:55:42.257Z</time></trkpt><trkpt lat="44.8600702" lon="12.1634502"><ele>0.0</ele><time>2026-04-24T10:55:43.258Z</time></trkpt><trkpt lat="44.8600833" lon="12.1633063"><ele>-0.16666666666666666</ele><time>2026-04-24T10:55:44.258Z</time></trkpt><trkpt lat="44.8600932" lon="12.1631658"><ele>-0.3333333333333333</ele><time>2026-04-24T10:55:45.258Z</time></trkpt><trkpt lat="44.860101" lon="12.1630411"><ele>-0.5</ele><time>2026-04-24T10:55:46.258Z</time></trkpt><trkpt lat="44.8601085" lon="12.1629273"><ele>-0.6666666666666666</ele><time>2026-04-24T10:55:47.259Z</time></trkpt><trkpt lat="44.8601142" lon="12.1628344"><ele>-0.8333333333333333</ele><time>2026-04-24T10:55:48.259Z</time></trkpt><trkpt lat="44.8601325" lon="12.1627042"><ele>-1.0</ele><time>2026-04-24T10:55:50.259Z</time></trkpt><trkpt lat="44.8601922" lon="12.1626393"><ele>-1.1666666666666665</ele><time>2026-04-24T10:55:53.258Z</time></trkpt><trkpt lat="44.8602617" lon="12.1626428"><ele>-1.3333333333333333</ele><time>2026-04-24T10:55:55.259Z</time></trkpt><trkpt lat="44.8603557" lon="12.1626798"><ele>-1.5</ele><time>2026-04-24T10:55:57.258Z</time></trkpt><trkpt lat="44.8604641" lon="12.1627273"><ele>-1.6666666666666665</ele><time>2026-04-24T10:55:59.258Z</time></trkpt><trkpt lat="44.8605304" lon="12.1627556"><ele>-1.8333333333333333</ele><time>2026-04-24T10:56:00.259Z</time></trkpt><trkpt lat="44.8606031" lon="12.1627894"><ele>-2.0</ele><time>2026-04-24T10:56:01.258Z</time></trkpt><trkpt lat="44.8606768" lon="12.1628281"><ele>-1.9999999999999998</ele><time>2026-04-24T10:56:02.259Z</time></trkpt><trkpt lat="44.8607502" lon="12.1628648"><ele>-2.0</ele><time>2026-04-24T10:56:03.259Z</time></trkpt><trkpt lat="44.8608281" lon="12.162905"><ele>-2.0</ele><time>2026-04-24T10:56:04.259Z</time></trkpt><trkpt lat="44.8609029" lon="12.1629406"><ele>-2.0</ele><time>2026-04-24T10:56:05.259Z</time></trkpt><trkpt lat="44.8609826" lon="12.1629731"><ele>-1.9999999999999998</ele><time>2026-04-24T10:56:06.259Z</time></trkpt><trkpt lat="44.8610647" lon="12.163008"><ele>-2.0</ele><time>2026-04-24T10:56:07.258Z</time></trkpt><trkpt lat="44.8611473" lon="12.1630443"><ele>-2.2</ele><time>2026-04-24T10:56:08.258Z</time></trkpt><trkpt lat="44.8612322" lon="12.1630828"><ele>-2.4000000000000004</ele><time>2026-04-24T10:56:09.258Z</time></trkpt><trkpt lat="44.8613199" lon="12.1631235"><ele>-2.5999999999999996</ele><time>2026-04-24T10:56:10.258Z</time></trkpt><trkpt lat="44.8614066" lon="12.1631742"><ele>-2.8</ele><time>2026-04-24T10:56:11.258Z</time></trkpt><trkpt lat="44.861493" lon="12.1632159"><ele>-3.0</ele><time>2026-04-24T10:56:12.259Z</time></trkpt><trkpt lat="44.8615739" lon="12.1632531"><ele>-2.8333333333333335</ele><time>2026-04-24T10:56:13.258Z</time></trkpt><trkpt lat="44.8616543" lon="12.1632789"><ele>-2.6666666666666665</ele><time>2026-04-24T10:56:14.259Z</time></trkpt><trkpt lat="44.8617293" lon="12.1632922"><ele>-2.5</ele><time>2026-04-24T10:56:15.259Z</time></trkpt><trkpt lat="44.8618089" lon="12.1633015"><ele>-2.333333333333333</ele><time>2026-04-24T10:56:16.258Z</time></trkpt><trkpt lat="44.8618908" lon="12.1633032"><ele>-2.1666666666666665</ele><time>2026-04-24T10:56:17.259Z</time></trkpt><trkpt lat="44.8619725" lon="12.1633148"><ele>-2.0</ele><time>2026-04-24T10:56:18.259Z</time></trkpt><trkpt lat="44.8620425" lon="12.1633436"><ele>-1.9999999999999998</ele><time>2026-04-24T10:56:19.258Z</time></trkpt><trkpt lat="44.8621067" lon="12.1633871"><ele>-2.0</ele><time>2026-04-24T10:56:20.258Z</time></trkpt><trkpt lat="44.8621604" lon="12.163447"><ele>-2.0</ele><time>2026-04-24T10:56:21.259Z</time></trkpt><trkpt lat="44.8622032" lon="12.1635218"><ele>-2.0</ele><time>2026-04-24T10:56:22.258Z</time></trkpt><trkpt lat="44.8622326" lon="12.1636055"><ele>-1.9999999999999998</ele><time>2026-04-24T10:56:23.258Z</time></trkpt><trkpt lat="44.8622705" lon="12.1637481"><ele>-2.0</ele><time>2026-04-24T10:56:25.258Z</time></trkpt><trkpt lat="44.8623372" lon="12.1638361"><ele>-1.9999999999999998</ele><time>2026-04-24T10:56:27.258Z</time></trkpt><trkpt lat="44.8624416" lon="12.1638883"><ele>-2.0</ele><time>2026-04-24T10:56:29.258Z</time></trkpt><trkpt lat="44.8625586" lon="12.1639387"><ele>-2.0</ele><time>2026-04-24T10:56:31.259Z</time></trkpt><trkpt lat="44.8626207" lon="12.1639621"><ele>-2.0</ele><time>2026-04-24T10:56:32.258Z</time></trkpt><trkpt lat="44.8626807" lon="12.1639899"><ele>-1.9999999999999998</ele><time>2026-04-24T10:56:33.258Z</time></trkpt><trkpt lat="44.8627454" lon="12.1640151"><ele>-2.0</ele><time>2026-04-24T10:56:34.259Z</time></trkpt><trkpt lat="44.8628409" lon="12.1640475"><ele>-1.9999999999999998</ele><time>2026-04-24T10:56:36.258Z</time></trkpt><trkpt lat="44.862925" lon="12.1639795"><ele>-2.0</ele><time>2026-04-24T10:56:39.258Z</time></trkpt><trkpt lat="44.8629871" lon="12.163872"><ele>-2.0</ele><time>2026-04-24T10:56:41.259Z</time></trkpt><trkpt lat="44.8630496" lon="12.1638859"><ele>-2.0</ele><time>2026-04-24T10:56:43.221Z</time></trkpt><trkpt lat="44.8631556" lon="12.1638999"><ele>-1.9999999999999998</ele><time>2026-04-24T10:56:45.258Z</time></trkpt><trkpt lat="44.8632176" lon="12.163935"><ele>-2.0</ele><time>2026-04-24T10:56:46.259Z</time></trkpt><trkpt lat="44.8632848" lon="12.1639685"><ele>-1.9999999999999998</ele><time>2026-04-24T10:56:47.259Z</time></trkpt><trkpt lat="44.863356" lon="12.163996"><ele>-2.0</ele><time>2026-04-24T10:56:48.257Z</time></trkpt><trkpt lat="44.8634293" lon="12.164024"><ele>-2.0</ele><time>2026-04-24T10:56:49.259Z</time></trkpt><trkpt lat="44.8635041" lon="12.164051"><ele>-2.0</ele><time>2026-04-24T10:56:50.259Z</time></trkpt><trkpt lat="44.8635817" lon="12.164081"><ele>-1.9999999999999998</ele><time>2026-04-24T10:56:51.258Z</time></trkpt><trkpt lat="44.8636597" lon="12.1641149"><ele>-2.0</ele><time>2026-04-24T10:56:52.257Z</time></trkpt><trkpt lat="44.8637316" lon="12.1641499"><ele>-2.2857142857142856</ele><time>2026-04-24T10:56:53.259Z</time></trkpt><trkpt lat="44.8637962" lon="12.1641812"><ele>-2.571428571428571</ele><time>2026-04-24T10:56:54.258Z</time></trkpt><trkpt lat="44.8638568" lon="12.1642133"><ele>-2.8571428571428568</ele><time>2026-04-24T10:56:55.258Z</time></trkpt><trkpt lat="44.8639186" lon="12.1642498"><ele>-3.142857142857143</ele><time>2026-04-24T10:56:56.259Z</time></trkpt><trkpt lat="44.8639914" lon="12.1642831"><ele>-3.428571428571428</ele><time>2026-04-24T10:56:57.258Z</time></trkpt><trkpt lat="44.8640688" lon="12.1643117"><ele>-3.714285714285714</ele><time>2026-04-24T10:56:58.258Z</time></trkpt><trkpt lat="44.864147" lon="12.1643459"><ele>-4.0</ele><time>2026-04-24T10:56:59.258Z</time></trkpt><trkpt lat="44.864229" lon="12.1643847"><ele>-3.6666666666666665</ele><time>2026-04-24T10:57:00.259Z</time></trkpt><trkpt lat="44.8643149" lon="12.1644249"><ele>-3.333333333333333</ele><time>2026-04-24T10:57:01.258Z</time></trkpt><trkpt lat="44.8643996" lon="12.164464"><ele>-3.0</ele><time>2026-04-24T10:57:02.258Z</time></trkpt><trkpt lat="44.8644776" lon="12.1645006"><ele>-2.6666666666666665</ele><time>2026-04-24T10:57:03.258Z</time></trkpt><trkpt lat="44.8645499" lon="12.1645295"><ele>-2.333333333333333</ele><time>2026-04-24T10:57:04.259Z</time></trkpt><trkpt lat="44.8646134" lon="12.1645532"><ele>-2.0</ele><time>2026-04-24T10:57:05.259Z</time></trkpt><trkpt lat="44.8647125" lon="12.1646162"><ele>-1.9999999999999998</ele><time>2026-04-24T10:57:07.258Z</time></trkpt><trkpt lat="44.8647555" lon="12.1647196"><ele>-2.0</ele><time>2026-04-24T10:57:09.259Z</time></trkpt><trkpt lat="44.8647557" lon="12.1648559"><ele>-2.0</ele><time>2026-04-24T10:57:11.258Z</time></trkpt><trkpt lat="44.864744" lon="12.1649443"><ele>-2.0</ele><time>2026-04-24T10:57:12.258Z</time></trkpt><trkpt lat="44.8647311" lon="12.1650498"><ele>-1.9999999999999998</ele><time>2026-04-24T10:57:13.259Z</time></trkpt><trkpt lat="44.8647168" lon="12.165164"><ele>-2.0</ele><time>2026-04-24T10:57:14.259Z</time></trkpt><trkpt lat="44.8647062" lon="12.1652756"><ele>-2.1666666666666665</ele><time>2026-04-24T10:57:15.259Z</time></trkpt><trkpt lat="44.8646913" lon="12.1653904"><ele>-2.333333333333333</ele><time>2026-04-24T10:57:16.257Z</time></trkpt><trkpt lat="44.8646757" lon="12.1655039"><ele>-2.5</ele><time>2026-04-24T10:57:17.258Z</time></trkpt><trkpt lat="44.8646595" lon="12.1656209"><ele>-2.6666666666666665</ele><time>2026-04-24T10:57:18.259Z</time></trkpt><trkpt lat="44.8646409" lon="12.1657358"><ele>-2.8333333333333335</ele><time>2026-04-24T10:57:19.258Z</time></trkpt><trkpt lat="44.8646238" lon="12.1658466"><ele>-3.0</ele><time>2026-04-24T10:57:20.258Z</time></trkpt><trkpt lat="44.8646088" lon="12.1659678"><ele>-2.6</ele><time>2026-04-24T10:57:21.258Z</time></trkpt><trkpt lat="44.8645936" lon="12.1660907"><ele>-2.1999999999999997</ele><time>2026-04-24T10:57:22.259Z</time></trkpt><trkpt lat="44.8645744" lon="12.1662123"><ele>-1.8</ele><time>2026-04-24T10:57:23.258Z</time></trkpt><trkpt lat="44.8645506" lon="12.1663467"><ele>-1.4</ele><time>2026-04-24T10:57:24.258Z</time></trkpt><trkpt lat="44.8645262" lon="12.1664869"><ele>-1.0</ele><time>2026-04-24T10:57:25.259Z</time></trkpt><trkpt lat="44.8645037" lon="12.1666259"><ele>-0.9999999999999999</ele><time>2026-04-24T10:57:26.259Z</time></trkpt><trkpt lat="44.8644814" lon="12.1667592"><ele>-1.0</ele><time>2026-04-24T10:57:27.259Z</time></trkpt><trkpt lat="44.8644615" lon="12.1668869"><ele>-1.0</ele><time>2026-04-24T10:57:28.258Z</time></trkpt><trkpt lat="44.8644451" lon="12.167009"><ele>-1.0</ele><time>2026-04-24T10:57:29.259Z</time></trkpt><trkpt lat="44.8644268" lon="12.1671266"><ele>-0.9999999999999999</ele><time>2026-04-24T10:57:30.258Z</time></trkpt><trkpt lat="44.8644088" lon="12.1672302"><ele>-1.0</ele><time>2026-04-24T10:57:31.258Z</time></trkpt><trkpt lat="44.8643889" lon="12.1673191"><ele>-0.9999999999999999</ele><time>2026-04-24T10:57:32.259Z</time></trkpt><trkpt lat="44.8643693" lon="12.1674111"><ele>-1.0</ele><time>2026-04-24T10:57:33.259Z</time></trkpt><trkpt lat="44.8643524" lon="12.1675303"><ele>-1.0</ele><time>2026-04-24T10:57:35.258Z</time></trkpt><trkpt lat="44.8643689" lon="12.1676537"><ele>-1.0</ele><time>2026-04-24T10:57:42.258Z</time></trkpt><trkpt lat="44.8644822" lon="12.1677083"><ele>-0.9999999999999999</ele><time>2026-04-24T10:57:44.258Z</time></trkpt><trkpt lat="44.8645472" lon="12.1677317"><ele>-1.0</ele><time>2026-04-24T10:57:45.257Z</time></trkpt><trkpt lat="44.8646175" lon="12.1677572"><ele>-1.0</ele><time>2026-04-24T10:57:46.259Z</time></trkpt><trkpt lat="44.864708" lon="12.1677898"><ele>-1.0</ele><time>2026-04-24T10:57:47.258Z</time></trkpt><trkpt lat="44.8647987" lon="12.1678217"><ele>-1.0</ele><time>2026-04-24T10:57:48.259Z</time></trkpt><trkpt lat="44.8649" lon="12.1678487"><ele>-1.0</ele><time>2026-04-24T10:57:49.258Z</time></trkpt><trkpt lat="44.8650088" lon="12.1678772"><ele>-1.0</ele><time>2026-04-24T10:57:50.259Z</time></trkpt><trkpt lat="44.8651272" lon="12.1679043"><ele>-0.75</ele><time>2026-04-24T10:57:51.258Z</time></trkpt><trkpt lat="44.86524" lon="12.1679336"><ele>-0.5</ele><time>2026-04-24T10:57:52.258Z</time></trkpt><trkpt lat="44.8653569" lon="12.1679646"><ele>-0.25</ele><time>2026-04-24T10:57:53.259Z</time></trkpt><trkpt lat="44.8654836" lon="12.1679988"><ele>0.0</ele><time>2026-04-24T10:57:54.258Z</time></trkpt><trkpt lat="44.865622" lon="12.1680321"><ele>0.0</ele><time>2026-04-24T10:57:55.259Z</time></trkpt><trkpt lat="44.8657653" lon="12.1680698"><ele>0.0</ele><time>2026-04-24T10:57:56.258Z</time></trkpt><trkpt lat="44.8659122" lon="12.1681084"><ele>0.0</ele><time>2026-04-24T10:57:57.259Z</time></trkpt><trkpt lat="44.8660542" lon="12.168147"><ele>0.0</ele><time>2026-04-24T10:57:58.258Z</time></trkpt><trkpt lat="44.8661962" lon="12.16818"><ele>-0.25</ele><time>2026-04-24T10:57:59.259Z</time></trkpt><trkpt lat="44.8663384" lon="12.168214"><ele>-0.5</ele><time>2026-04-24T10:58:00.258Z</time></trkpt><trkpt lat="44.8664784" lon="12.1682438"><ele>-0.75</ele><time>2026-04-24T10:58:01.259Z</time></trkpt><trkpt lat="44.8666181" lon="12.1682769"><ele>-1.0</ele><time>2026-04-24T10:58:02.258Z</time></trkpt><trkpt lat="44.866762" lon="12.1683096"><ele>-0.6666666666666666</ele><time>2026-04-24T10:58:03.258Z</time></trkpt><trkpt lat="44.8669097" lon="12.1683395"><ele>-0.3333333333333333</ele><time>2026-04-24T10:58:04.259Z</time></trkpt><trkpt lat="44.8670595" lon="12.1683715"><ele>0.0</ele><time>2026-04-24T10:58:05.258Z</time></trkpt><trkpt lat="44.8672106" lon="12.1684085"><ele>0.0</ele><time>2026-04-24T10:58:06.258Z</time></trkpt><trkpt lat="44.8673631" lon="12.1684445"><ele>0.0</ele><time>2026-04-24T10:58:07.259Z</time></trkpt><trkpt lat="44.8675072" lon="12.1684784"><ele>0.0</ele><time>2026-04-24T10:58:08.259Z</time></trkpt><trkpt lat="44.8676436" lon="12.1685086"><ele>0.0</ele><time>2026-04-24T10:58:09.258Z</time></trkpt><trkpt lat="44.8677747" lon="12.1685399"><ele>0.25</ele><time>2026-04-24T10:58:10.258Z</time></trkpt><trkpt lat="44.8679044" lon="12.1685709"><ele>0.5</ele><time>2026-04-24T10:58:11.259Z</time></trkpt><trkpt lat="44.8680376" lon="12.1686044"><ele>0.75</ele><time>2026-04-24T10:58:12.258Z</time></trkpt><trkpt lat="44.8681693" lon="12.1686309"><ele>1.0</ele><time>2026-04-24T10:58:13.258Z</time></trkpt><trkpt lat="44.868305" lon="12.1686514"><ele>0.75</ele><time>2026-04-24T10:58:14.259Z</time></trkpt><trkpt lat="44.8684439" lon="12.1686699"><ele>0.5</ele><time>2026-04-24T10:58:15.258Z</time></trkpt><trkpt lat="44.8685801" lon="12.1686849"><ele>0.25</ele><time>2026-04-24T10:58:16.259Z</time></trkpt><trkpt lat="44.8687223" lon="12.1686964"><ele>0.0</ele><time>2026-04-24T10:58:17.258Z</time></trkpt><trkpt lat="44.8688629" lon="12.1687117"><ele>0.0</ele><time>2026-04-24T10:58:18.259Z</time></trkpt><trkpt lat="44.8690053" lon="12.1687204"><ele>0.0</ele><time>2026-04-24T10:58:19.259Z</time></trkpt><trkpt lat="44.8691513" lon="12.1687315"><ele>0.0</ele><time>2026-04-24T10:58:20.258Z</time></trkpt><trkpt lat="44.8692997" lon="12.1687462"><ele>0.0</ele><time>2026-04-24T10:58:21.259Z</time></trkpt><trkpt lat="44.8694498" lon="12.1687665"><ele>-0.5</ele><time>2026-04-24T10:58:22.259Z</time></trkpt><trkpt lat="44.8695936" lon="12.1687942"><ele>-1.0</ele><time>2026-04-24T10:58:23.258Z</time></trkpt><trkpt lat="44.8697336" lon="12.1688284"><ele>-1.5</ele><time>2026-04-24T10:58:24.259Z</time></trkpt><trkpt lat="44.8698753" lon="12.1688647"><ele>-2.0</ele><time>2026-04-24T10:58:25.258Z</time></trkpt><trkpt lat="44.8700128" lon="12.168901"><ele>-2.0</ele><time>2026-04-24T10:58:26.259Z</time></trkpt><trkpt lat="44.8701491" lon="12.1689354"><ele>-2.0</ele><time>2026-04-24T10:58:27.258Z</time></trkpt><trkpt lat="44.8702849" lon="12.1689678"><ele>-2.0</ele><time>2026-04-24T10:58:28.258Z</time></trkpt><trkpt lat="44.8704221" lon="12.1690045"><ele>-2.0</ele><time>2026-04-24T10:58:29.259Z</time></trkpt><trkpt lat="44.8705612" lon="12.1690417"><ele>-1.75</ele><time>2026-04-24T10:58:30.258Z</time></trkpt><trkpt lat="44.8707004" lon="12.1690759"><ele>-1.5</ele><time>2026-04-24T10:58:31.259Z</time></trkpt><trkpt lat="44.870839" lon="12.1691102"><ele>-1.25</ele><time>2026-04-24T10:58:32.255Z</time></trkpt><trkpt lat="44.8709773" lon="12.1691469"><ele>-1.0</ele><time>2026-04-24T10:58:33.258Z</time></trkpt><trkpt lat="44.8711166" lon="12.1691838"><ele>-1.0</ele><time>2026-04-24T10:58:34.258Z</time></trkpt><trkpt lat="44.8712572" lon="12.1692233"><ele>-1.0</ele><time>2026-04-24T10:58:35.258Z</time></trkpt><trkpt lat="44.8713998" lon="12.169263"><ele>-1.0</ele><time>2026-04-24T10:58:36.259Z</time></trkpt><trkpt lat="44.8715392" lon="12.1693032"><ele>-1.0</ele><time>2026-04-24T10:58:37.258Z</time></trkpt><trkpt lat="44.8716817" lon="12.1693399"><ele>-1.0</ele><time>2026-04-24T10:58:38.259Z</time></trkpt><trkpt lat="44.8718267" lon="12.1693783"><ele>-1.0</ele><time>2026-04-24T10:58:39.258Z</time></trkpt><trkpt lat="44.8719766" lon="12.169419"><ele>-1.0</ele><time>2026-04-24T10:58:40.259Z</time></trkpt><trkpt lat="44.8721275" lon="12.1694575"><ele>-1.0</ele><time>2026-04-24T10:58:41.259Z</time></trkpt><trkpt lat="44.8722821" lon="12.1694984"><ele>-1.0</ele><time>2026-04-24T10:58:42.259Z</time></trkpt><trkpt lat="44.8724371" lon="12.1695442"><ele>-1.0</ele><time>2026-04-24T10:58:43.257Z</time></trkpt><trkpt lat="44.8725938" lon="12.169588"><ele>-0.6666666666666666</ele><time>2026-04-24T10:58:44.258Z</time></trkpt><trkpt lat="44.8727464" lon="12.1696311"><ele>-0.3333333333333333</ele><time>2026-04-24T10:58:45.258Z</time></trkpt><trkpt lat="44.8729003" lon="12.1696758"><ele>0.0</ele><time>2026-04-24T10:58:46.258Z</time></trkpt><trkpt lat="44.8730564" lon="12.1697195"><ele>0.0</ele><time>2026-04-24T10:58:47.259Z</time></trkpt><trkpt lat="44.87321" lon="12.1697713"><ele>0.0</ele><time>2026-04-24T10:58:48.258Z</time></trkpt><trkpt lat="44.873365" lon="12.1698268"><ele>0.0</ele><time>2026-04-24T10:58:49.258Z</time></trkpt><trkpt lat="44.8735176" lon="12.1698804"><ele>0.25</ele><time>2026-04-24T10:58:50.259Z</time></trkpt><trkpt lat="44.8736615" lon="12.1699367"><ele>0.5</ele><time>2026-04-24T10:58:51.258Z</time></trkpt><trkpt lat="44.8737966" lon="12.1699926"><ele>0.75</ele><time>2026-04-24T10:58:52.257Z</time></trkpt><trkpt lat="44.8739191" lon="12.17004"><ele>1.0</ele><time>2026-04-24T10:58:53.256Z</time></trkpt><trkpt lat="44.8740185" lon="12.1700781"><ele>0.9999999999999999</ele><time>2026-04-24T10:58:54.258Z</time></trkpt><trkpt lat="44.8741001" lon="12.1701051"><ele>1.0</ele><time>2026-04-24T10:58:55.258Z</time></trkpt><trkpt lat="44.874186" lon="12.1701786"><ele>1.0</ele><time>2026-04-24T10:58:57.257Z</time></trkpt><trkpt lat="44.8742033" lon="12.1702769"><ele>1.0</ele><time>2026-04-24T10:58:59.258Z</time></trkpt><trkpt lat="44.8741687" lon="12.1703902"><ele>0.9999999999999999</ele><time>2026-04-24T10:59:02.258Z</time></trkpt><trkpt lat="44.8741323" lon="12.1704726"><ele>1.0</ele><time>2026-04-24T10:59:04.258Z</time></trkpt><trkpt lat="44.8741098" lon="12.1706174"><ele>0.9999999999999999</ele><time>2026-04-24T10:59:06.258Z</time></trkpt><trkpt lat="44.874108" lon="12.1707926"><ele>1.0</ele><time>2026-04-24T10:59:08.258Z</time></trkpt><trkpt lat="44.8741101" lon="12.170895"><ele>1.0</ele><time>2026-04-24T10:59:09.257Z</time></trkpt><trkpt lat="44.8741115" lon="12.1709959"><ele>1.0</ele><time>2026-04-24T10:59:10.258Z</time></trkpt><trkpt lat="44.8741093" lon="12.1710917"><ele>0.9999999999999999</ele><time>2026-04-24T10:59:11.258Z</time></trkpt><trkpt lat="44.8741091" lon="12.1711851"><ele>1.0</ele><time>2026-04-24T10:59:12.257Z</time></trkpt><trkpt lat="44.8741003" lon="12.1713427"><ele>0.9999999999999999</ele><time>2026-04-24T10:59:14.258Z</time></trkpt><trkpt lat="44.874082" lon="12.1714644"><ele>1.0</ele><time>2026-04-24T10:59:16.257Z</time></trkpt><trkpt lat="44.8740513" lon="12.1715745"><ele>1.0</ele><time>2026-04-24T10:59:18.257Z</time></trkpt><trkpt lat="44.8740037" lon="12.1716862"><ele>1.0</ele><time>2026-04-24T10:59:20.258Z</time></trkpt><trkpt lat="44.8739613" lon="12.1717979"><ele>0.9999999999999999</ele><time>2026-04-24T10:59:22.258Z</time></trkpt><trkpt lat="44.8739354" lon="12.1719062"><ele>1.0</ele><time>2026-04-24T10:59:24.257Z</time></trkpt><trkpt lat="44.873914" lon="12.1720409"><ele>0.8333333333333333</ele><time>2026-04-24T10:59:26.257Z</time></trkpt><trkpt lat="44.8738949" lon="12.1721904"><ele>0.6666666666666666</ele><time>2026-04-24T10:59:28.258Z</time></trkpt><trkpt lat="44.8738736" lon="12.172362"><ele>0.5</ele><time>2026-04-24T10:59:30.257Z</time></trkpt><trkpt lat="44.8738618" lon="12.1724543"><ele>0.3333333333333333</ele><time>2026-04-24T10:59:31.257Z</time></trkpt><trkpt lat="44.8738498" lon="12.1725474"><ele>0.16666666666666666</ele><time>2026-04-24T10:59:32.258Z</time></trkpt><trkpt lat="44.8738361" lon="12.172645"><ele>0.0</ele><time>2026-04-24T10:59:33.258Z</time></trkpt><trkpt lat="44.8738217" lon="12.1727488"><ele>-0.3333333333333333</ele><time>2026-04-24T10:59:34.257Z</time></trkpt><trkpt lat="44.8738086" lon="12.1728504"><ele>-0.6666666666666666</ele><time>2026-04-24T10:59:35.257Z</time></trkpt><trkpt lat="44.8737835" lon="12.1730142"><ele>-1.0</ele><time>2026-04-24T10:59:37.257Z</time></trkpt><trkpt lat="44.8737537" lon="12.173178"><ele>-1.3333333333333333</ele><time>2026-04-24T10:59:39.257Z</time></trkpt><trkpt lat="44.8737382" lon="12.1732718"><ele>-1.6666666666666665</ele><time>2026-04-24T10:59:40.257Z</time></trkpt><trkpt lat="44.8737247" lon="12.1733632"><ele>-2.0</ele><time>2026-04-24T10:59:41.257Z</time></trkpt><trkpt lat="44.8737104" lon="12.1734515"><ele>-1.9999999999999998</ele><time>2026-04-24T10:59:42.256Z</time></trkpt><trkpt lat="44.8736904" lon="12.1736042"><ele>-2.0</ele><time>2026-04-24T10:59:44.258Z</time></trkpt><trkpt lat="44.8736729" lon="12.1737199"><ele>-2.0</ele><time>2026-04-24T10:59:46.257Z</time></trkpt><trkpt lat="44.8736621" lon="12.1738276"><ele>-2.0</ele><time>2026-04-24T10:59:48.258Z</time></trkpt><trkpt lat="44.8736451" lon="12.1739376"><ele>-1.9999999999999998</ele><time>2026-04-24T10:59:50.257Z</time></trkpt><trkpt lat="44.8736378" lon="12.1740397"><ele>-2.0</ele><time>2026-04-24T10:59:52.257Z</time></trkpt><trkpt lat="44.8736151" lon="12.1741594"><ele>-2.0</ele><time>2026-04-24T10:59:55.257Z</time></trkpt><trkpt lat="44.873605" lon="12.1742797"><ele>-2.0</ele><time>2026-04-24T11:01:08.257Z</time></trkpt><trkpt lat="44.8735816" lon="12.1744145"><ele>-2.0</ele><time>2026-04-24T11:01:10.257Z</time></trkpt><trkpt lat="44.8735624" lon="12.1745441"><ele>-2.0</ele><time>2026-04-24T11:01:12.257Z</time></trkpt><trkpt lat="44.8735447" lon="12.1746863"><ele>-2.0</ele><time>2026-04-24T11:01:14.258Z</time></trkpt><trkpt lat="44.873525" lon="12.1748564"><ele>-2.2</ele><time>2026-04-24T11:01:16.258Z</time></trkpt><trkpt lat="44.8735067" lon="12.1750151"><ele>-2.4000000000000004</ele><time>2026-04-24T11:01:18.258Z</time></trkpt><trkpt lat="44.8734869" lon="12.1751345"><ele>-2.5999999999999996</ele><time>2026-04-24T11:01:20.257Z</time></trkpt><trkpt lat="44.8734526" lon="12.1752239"><ele>-2.8</ele><time>2026-04-24T11:01:23.257Z</time></trkpt><trkpt lat="44.8735022" lon="12.1751048"><ele>-3.0</ele><time>2026-04-24T11:01:33.257Z</time></trkpt><trkpt lat="44.8735279" lon="12.17495"><ele>-2.8</ele><time>2026-04-24T11:01:35.257Z</time></trkpt><trkpt lat="44.873553" lon="12.1747893"><ele>-2.5999999999999996</ele><time>2026-04-24T11:01:37.258Z</time></trkpt><trkpt lat="44.8735786" lon="12.1746249"><ele>-2.4000000000000004</ele><time>2026-04-24T11:01:39.257Z</time></trkpt><trkpt lat="44.8736006" lon="12.1744752"><ele>-2.2</ele><time>2026-04-24T11:01:41.258Z</time></trkpt><trkpt lat="44.8736174" lon="12.1743534"><ele>-2.0</ele><time>2026-04-24T11:01:43.258Z</time></trkpt><trkpt lat="44.8736162" lon="12.1742621"><ele>-2.0</ele><time>2026-04-24T11:01:58.257Z</time></trkpt><trkpt lat="44.8736386" lon="12.1741018"><ele>-2.0</ele><time>2026-04-24T11:02:00.258Z</time></trkpt><trkpt lat="44.8736513" lon="12.1740079"><ele>-2.0</ele><time>2026-04-24T11:02:01.257Z</time></trkpt><trkpt lat="44.8736737" lon="12.1738486"><ele>-2.0</ele><time>2026-04-24T11:02:03.258Z</time></trkpt><trkpt lat="44.8736951" lon="12.1736893"><ele>-2.0</ele><time>2026-04-24T11:02:05.256Z</time></trkpt><trkpt lat="44.8737093" lon="12.1735957"><ele>-2.0</ele><time>2026-04-24T11:02:06.257Z</time></trkpt><trkpt lat="44.8737229" lon="12.1734967"><ele>-1.9999999999999998</ele><time>2026-04-24T11:02:07.257Z</time></trkpt><trkpt lat="44.8737404" lon="12.1734022"><ele>-2.0</ele><time>2026-04-24T11:02:08.257Z</time></trkpt><trkpt lat="44.873759" lon="12.1733074"><ele>-2.0</ele><time>2026-04-24T11:02:09.258Z</time></trkpt><trkpt lat="44.8737775" lon="12.1732061"><ele>-1.9999999999999998</ele><time>2026-04-24T11:02:10.257Z</time></trkpt><trkpt lat="44.8737933" lon="12.1731112"><ele>-2.0</ele><time>2026-04-24T11:02:11.258Z</time></trkpt><trkpt lat="44.8738047" lon="12.1730237"><ele>-2.0</ele><time>2026-04-24T11:02:12.257Z</time></trkpt><trkpt lat="44.873821" lon="12.1729268"><ele>-1.9999999999999998</ele><time>2026-04-24T11:02:13.257Z</time></trkpt><trkpt lat="44.8738368" lon="12.1728176"><ele>-2.0</ele><time>2026-04-24T11:02:14.257Z</time></trkpt><trkpt lat="44.8738539" lon="12.1727058"><ele>-2.0</ele><time>2026-04-24T11:02:15.258Z</time></trkpt><trkpt lat="44.8738699" lon="12.1726041"><ele>-2.0</ele><time>2026-04-24T11:02:16.258Z</time></trkpt><trkpt lat="44.873875" lon="12.172496"><ele>-1.9999999999999998</ele><time>2026-04-24T11:02:17.258Z</time></trkpt><trkpt lat="44.8738899" lon="12.1723955"><ele>-2.0</ele><time>2026-04-24T11:02:18.258Z</time></trkpt><trkpt lat="44.8739039" lon="12.1722905"><ele>-1.6666666666666665</ele><time>2026-04-24T11:02:19.258Z</time></trkpt><trkpt lat="44.8739182" lon="12.1721877"><ele>-1.3333333333333333</ele><time>2026-04-24T11:02:20.258Z</time></trkpt><trkpt lat="44.873944" lon="12.1720823"><ele>-1.0</ele><time>2026-04-24T11:02:21.258Z</time></trkpt><trkpt lat="44.8739581" lon="12.1719806"><ele>-0.6666666666666666</ele><time>2026-04-24T11:02:22.257Z</time></trkpt><trkpt lat="44.8739857" lon="12.1718295"><ele>-0.3333333333333333</ele><time>2026-04-24T11:02:24.258Z</time></trkpt><trkpt lat="44.8740104" lon="12.1717311"><ele>0.0</ele><time>2026-04-24T11:02:26.257Z</time></trkpt><trkpt lat="44.8740643" lon="12.1716785"><ele>0.0</ele><time>2026-04-24T11:02:30.258Z</time></trkpt><trkpt lat="44.8741103" lon="12.1717727"><ele>0.0</ele><time>2026-04-24T11:02:35.258Z</time></trkpt><trkpt lat="44.8740778" lon="12.171917"><ele>0.0</ele><time>2026-04-24T11:02:37.257Z</time></trkpt><trkpt lat="44.8740599" lon="12.172038"><ele>0.0</ele><time>2026-04-24T11:02:38.257Z</time></trkpt><trkpt lat="44.8740412" lon="12.1721614"><ele>0.0</ele><time>2026-04-24T11:02:39.258Z</time></trkpt><trkpt lat="44.8740259" lon="12.1722713"><ele>0.0</ele><time>2026-04-24T11:02:40.257Z</time></trkpt><trkpt lat="44.8740119" lon="12.1723846"><ele>-0.3333333333333333</ele><time>2026-04-24T11:02:41.258Z</time></trkpt><trkpt lat="44.8739967" lon="12.172504"><ele>-0.6666666666666666</ele><time>2026-04-24T11:02:42.257Z</time></trkpt><trkpt lat="44.8739787" lon="12.1726304"><ele>-1.0</ele><time>2026-04-24T11:02:43.258Z</time></trkpt><trkpt lat="44.8739607" lon="12.1727525"><ele>-1.3333333333333333</ele><time>2026-04-24T11:02:44.257Z</time></trkpt><trkpt lat="44.8739421" lon="12.1728616"><ele>-1.6666666666666665</ele><time>2026-04-24T11:02:45.257Z</time></trkpt><trkpt lat="44.873923" lon="12.1729722"><ele>-2.0</ele><time>2026-04-24T11:02:46.258Z</time></trkpt><trkpt lat="44.8739073" lon="12.1730914"><ele>-1.9999999999999998</ele><time>2026-04-24T11:02:47.257Z</time></trkpt><trkpt lat="44.8738923" lon="12.1732077"><ele>-2.0</ele><time>2026-04-24T11:02:48.257Z</time></trkpt><trkpt lat="44.873878" lon="12.173327"><ele>-2.0</ele><time>2026-04-24T11:02:49.258Z</time></trkpt><trkpt lat="44.8738633" lon="12.1734499"><ele>-2.0</ele><time>2026-04-24T11:02:50.257Z</time></trkpt><trkpt lat="44.8738461" lon="12.1735578"><ele>-1.9999999999999998</ele><time>2026-04-24T11:02:51.258Z</time></trkpt><trkpt lat="44.8738324" lon="12.173657"><ele>-2.0</ele><time>2026-04-24T11:02:52.257Z</time></trkpt><trkpt lat="44.8738191" lon="12.17376"><ele>-1.9999999999999998</ele><time>2026-04-24T11:02:53.257Z</time></trkpt><trkpt lat="44.8738038" lon="12.173871"><ele>-2.0</ele><time>2026-04-24T11:02:54.258Z</time></trkpt><trkpt lat="44.8737934" lon="12.1739777"><ele>-2.0</ele><time>2026-04-24T11:02:55.257Z</time></trkpt><trkpt lat="44.8737794" lon="12.1740788"><ele>-2.0</ele><time>2026-04-24T11:02:56.258Z</time></trkpt><trkpt lat="44.8737588" lon="12.1741842"><ele>-1.9999999999999998</ele><time>2026-04-24T11:02:57.257Z</time></trkpt><trkpt lat="44.873739" lon="12.1742931"><ele>-2.0</ele><time>2026-04-24T11:02:58.258Z</time></trkpt><trkpt lat="44.8737215" lon="12.1744079"><ele>-1.9999999999999998</ele><time>2026-04-24T11:02:59.258Z</time></trkpt><trkpt lat="44.8737044" lon="12.174523"><ele>-2.0</ele><time>2026-04-24T11:03:00.258Z</time></trkpt><trkpt lat="44.8736889" lon="12.1746393"><ele>-2.0</ele><time>2026-04-24T11:03:01.257Z</time></trkpt><trkpt lat="44.8736731" lon="12.1747632"><ele>-2.0</ele><time>2026-04-24T11:03:02.257Z</time></trkpt><trkpt lat="44.8736568" lon="12.1748879"><ele>-1.9999999999999998</ele><time>2026-04-24T11:03:03.257Z</time></trkpt><trkpt lat="44.8736412" lon="12.1750063"><ele>-2.0</ele><time>2026-04-24T11:03:04.257Z</time></trkpt><trkpt lat="44.8736244" lon="12.1751212"><ele>-2.1666666666666665</ele><time>2026-04-24T11:03:05.258Z</time></trkpt><trkpt lat="44.8736082" lon="12.1752289"><ele>-2.333333333333333</ele><time>2026-04-24T11:03:06.257Z</time></trkpt><trkpt lat="44.87359" lon="12.1753438"><ele>-2.5</ele><time>2026-04-24T11:03:07.257Z</time></trkpt><trkpt lat="44.8735696" lon="12.175469"><ele>-2.6666666666666665</ele><time>2026-04-24T11:03:08.257Z</time></trkpt><trkpt lat="44.8735552" lon="12.1756007"><ele>-2.8333333333333335</ele><time>2026-04-24T11:03:09.258Z</time></trkpt><trkpt lat="44.8735448" lon="12.1757238"><ele>-3.0</ele><time>2026-04-24T11:03:10.258Z</time></trkpt><trkpt lat="44.8735332" lon="12.1758362"><ele>-3.0</ele><time>2026-04-24T11:03:11.257Z</time></trkpt><trkpt lat="44.8735187" lon="12.1759573"><ele>-3.0</ele><time>2026-04-24T11:03:12.257Z</time></trkpt><trkpt lat="44.8735013" lon="12.1760837"><ele>-3.0</ele><time>2026-04-24T11:03:13.258Z</time></trkpt><trkpt lat="44.873483" lon="12.1762098"><ele>-3.0</ele><time>2026-04-24T11:03:14.257Z</time></trkpt><trkpt lat="44.8734642" lon="12.1763298"><ele>-3.0</ele><time>2026-04-24T11:03:15.258Z</time></trkpt><trkpt lat="44.8734448" lon="12.1764443"><ele>-3.0</ele><time>2026-04-24T11:03:16.257Z</time></trkpt><trkpt lat="44.8734219" lon="12.1765673"><ele>-3.0</ele><time>2026-04-24T11:03:17.257Z</time></trkpt><trkpt lat="44.8734042" lon="12.1766953"><ele>-3.0</ele><time>2026-04-24T11:03:18.258Z</time></trkpt><trkpt lat="44.8733901" lon="12.1768232"><ele>-3.0</ele><time>2026-04-24T11:03:19.257Z</time></trkpt><trkpt lat="44.8733748" lon="12.1769551"><ele>-3.0</ele><time>2026-04-24T11:03:20.257Z</time></trkpt><trkpt lat="44.8733553" lon="12.1770862"><ele>-3.0</ele><time>2026-04-24T11:03:21.258Z</time></trkpt><trkpt lat="44.8733314" lon="12.1772251"><ele>-3.0</ele><time>2026-04-24T11:03:22.258Z</time></trkpt><trkpt lat="44.8733042" lon="12.1773512"><ele>-3.0</ele><time>2026-04-24T11:03:23.257Z</time></trkpt><trkpt lat="44.8732814" lon="12.1774587"><ele>-3.0</ele><time>2026-04-24T11:03:24.258Z</time></trkpt><trkpt lat="44.8732586" lon="12.1775742"><ele>-3.0</ele><time>2026-04-24T11:03:25.257Z</time></trkpt><trkpt lat="44.873234" lon="12.1776865"><ele>-3.0</ele><time>2026-04-24T11:03:26.257Z</time></trkpt><trkpt lat="44.8732139" lon="12.1777991"><ele>-3.0</ele><time>2026-04-24T11:03:27.257Z</time></trkpt><trkpt lat="44.8731968" lon="12.1779134"><ele>-2.8333333333333335</ele><time>2026-04-24T11:03:28.257Z</time></trkpt><trkpt lat="44.8731905" lon="12.1780224"><ele>-2.6666666666666665</ele><time>2026-04-24T11:03:29.257Z</time></trkpt><trkpt lat="44.8731923" lon="12.1781392"><ele>-2.5</ele><time>2026-04-24T11:03:30.258Z</time></trkpt><trkpt lat="44.8732051" lon="12.1782483"><ele>-2.333333333333333</ele><time>2026-04-24T11:03:31.257Z</time></trkpt><trkpt lat="44.8732203" lon="12.178351"><ele>-2.1666666666666665</ele><time>2026-04-24T11:03:32.257Z</time></trkpt><trkpt lat="44.8732333" lon="12.178455"><ele>-2.0</ele><time>2026-04-24T11:03:33.258Z</time></trkpt><trkpt lat="44.8732462" lon="12.1785512"><ele>-1.8333333333333333</ele><time>2026-04-24T11:03:34.257Z</time></trkpt><trkpt lat="44.8732543" lon="12.1787248"><ele>-1.6666666666666665</ele><time>2026-04-24T11:03:36.258Z</time></trkpt><trkpt lat="44.8732482" lon="12.1788262"><ele>-1.5</ele><time>2026-04-24T11:03:37.256Z</time></trkpt><trkpt lat="44.8732326" lon="12.1789344"><ele>-1.3333333333333333</ele><time>2026-04-24T11:03:38.257Z</time></trkpt><trkpt lat="44.8732083" lon="12.1790388"><ele>-1.1666666666666665</ele><time>2026-04-24T11:03:39.258Z</time></trkpt><trkpt lat="44.8731858" lon="12.1791448"><ele>-1.0</ele><time>2026-04-24T11:03:40.258Z</time></trkpt><trkpt lat="44.873161" lon="12.1792565"><ele>-1.3333333333333333</ele><time>2026-04-24T11:03:41.258Z</time></trkpt><trkpt lat="44.8731325" lon="12.1793661"><ele>-1.6666666666666665</ele><time>2026-04-24T11:03:42.257Z</time></trkpt><trkpt lat="44.8731068" lon="12.1794827"><ele>-2.0</ele><time>2026-04-24T11:03:43.258Z</time></trkpt><trkpt lat="44.8730826" lon="12.1795969"><ele>-2.3333333333333335</ele><time>2026-04-24T11:03:44.257Z</time></trkpt><trkpt lat="44.8730596" lon="12.1797102"><ele>-2.6666666666666665</ele><time>2026-04-24T11:03:45.257Z</time></trkpt><trkpt lat="44.8730339" lon="12.179823"><ele>-3.0</ele><time>2026-04-24T11:03:46.257Z</time></trkpt><trkpt lat="44.8730077" lon="12.1799429"><ele>-3.1666666666666665</ele><time>2026-04-24T11:03:47.258Z</time></trkpt><trkpt lat="44.8729799" lon="12.1800592"><ele>-3.333333333333333</ele><time>2026-04-24T11:03:48.257Z</time></trkpt><trkpt lat="44.8729549" lon="12.1801745"><ele>-3.5</ele><time>2026-04-24T11:03:49.257Z</time></trkpt><trkpt lat="44.8729281" lon="12.1802951"><ele>-3.6666666666666665</ele><time>2026-04-24T11:03:50.258Z</time></trkpt><trkpt lat="44.8728984" lon="12.1804142"><ele>-3.833333333333333</ele><time>2026-04-24T11:03:51.257Z</time></trkpt><trkpt lat="44.8728725" lon="12.1805323"><ele>-4.0</ele><time>2026-04-24T11:03:52.258Z</time></trkpt><trkpt lat="44.8728453" lon="12.1806521"><ele>-3.833333333333333</ele><time>2026-04-24T11:03:53.258Z</time></trkpt><trkpt lat="44.8728196" lon="12.1807744"><ele>-3.6666666666666665</ele><time>2026-04-24T11:03:54.257Z</time></trkpt><trkpt lat="44.8727908" lon="12.1808905"><ele>-3.5</ele><time>2026-04-24T11:03:55.257Z</time></trkpt><trkpt lat="44.872764" lon="12.1810105"><ele>-3.333333333333333</ele><time>2026-04-24T11:03:56.258Z</time></trkpt><trkpt lat="44.8727387" lon="12.1811274"><ele>-3.1666666666666665</ele><time>2026-04-24T11:03:57.257Z</time></trkpt><trkpt lat="44.8727109" lon="12.181249"><ele>-3.0</ele><time>2026-04-24T11:03:58.258Z</time></trkpt><trkpt lat="44.8726849" lon="12.1813642"><ele>-3.0</ele><time>2026-04-24T11:03:59.257Z</time></trkpt><trkpt lat="44.8726626" lon="12.1814811"><ele>-3.0</ele><time>2026-04-24T11:04:00.257Z</time></trkpt><trkpt lat="44.8726379" lon="12.1815913"><ele>-3.0</ele><time>2026-04-24T11:04:01.257Z</time></trkpt><trkpt lat="44.8726165" lon="12.1816974"><ele>-3.0</ele><time>2026-04-24T11:04:02.257Z</time></trkpt><trkpt lat="44.8726085" lon="12.1817902"><ele>-3.0</ele><time>2026-04-24T11:04:03.257Z</time></trkpt><trkpt lat="44.8726134" lon="12.1818916"><ele>-3.0</ele><time>2026-04-24T11:04:04.257Z</time></trkpt><trkpt lat="44.8726235" lon="12.1820009"><ele>-2.6666666666666665</ele><time>2026-04-24T11:04:05.258Z</time></trkpt><trkpt lat="44.8726299" lon="12.1821139"><ele>-2.3333333333333335</ele><time>2026-04-24T11:04:06.257Z</time></trkpt><trkpt lat="44.8726289" lon="12.1822248"><ele>-2.0</ele><time>2026-04-24T11:04:07.258Z</time></trkpt><trkpt lat="44.8726186" lon="12.1823373"><ele>-1.6666666666666665</ele><time>2026-04-24T11:04:08.257Z</time></trkpt><trkpt lat="44.8725999" lon="12.1824417"><ele>-1.3333333333333333</ele><time>2026-04-24T11:04:09.257Z</time></trkpt><trkpt lat="44.8725808" lon="12.1825455"><ele>-1.0</ele><time>2026-04-24T11:04:10.258Z</time></trkpt><trkpt lat="44.8725598" lon="12.1826505"><ele>-1.0</ele><time>2026-04-24T11:04:11.258Z</time></trkpt><trkpt lat="44.8725402" lon="12.1827427"><ele>-0.9999999999999999</ele><time>2026-04-24T11:04:12.257Z</time></trkpt><trkpt lat="44.8725172" lon="12.1828348"><ele>-1.0</ele><time>2026-04-24T11:04:13.257Z</time></trkpt><trkpt lat="44.8724937" lon="12.1829294"><ele>-1.0</ele><time>2026-04-24T11:04:14.257Z</time></trkpt><trkpt lat="44.8724678" lon="12.1830255"><ele>-0.9999999999999999</ele><time>2026-04-24T11:04:15.258Z</time></trkpt><trkpt lat="44.8724465" lon="12.183117"><ele>-1.0</ele><time>2026-04-24T11:04:16.257Z</time></trkpt><trkpt lat="44.8724245" lon="12.1832233"><ele>-1.0</ele><time>2026-04-24T11:04:17.258Z</time></trkpt><trkpt lat="44.8723993" lon="12.1833309"><ele>-0.9999999999999999</ele><time>2026-04-24T11:04:18.257Z</time></trkpt><trkpt lat="44.8723746" lon="12.1834433"><ele>-1.0</ele><time>2026-04-24T11:04:19.256Z</time></trkpt><trkpt lat="44.8723501" lon="12.18355"><ele>-1.0</ele><time>2026-04-24T11:04:20.257Z</time></trkpt><trkpt lat="44.8723205" lon="12.1836607"><ele>-1.0</ele><time>2026-04-24T11:04:21.257Z</time></trkpt><trkpt lat="44.8722971" lon="12.1837692"><ele>-0.9999999999999999</ele><time>2026-04-24T11:04:22.258Z</time></trkpt><trkpt lat="44.8722696" lon="12.1838755"><ele>-1.0</ele><time>2026-04-24T11:04:23.257Z</time></trkpt><trkpt lat="44.8722449" lon="12.1839897"><ele>-0.9999999999999999</ele><time>2026-04-24T11:04:24.257Z</time></trkpt><trkpt lat="44.8722213" lon="12.1840932"><ele>-1.0</ele><time>2026-04-24T11:04:25.258Z</time></trkpt><trkpt lat="44.8721978" lon="12.1842"><ele>-1.0</ele><time>2026-04-24T11:04:26.257Z</time></trkpt><trkpt lat="44.8721762" lon="12.1843066"><ele>-1.0</ele><time>2026-04-24T11:04:27.257Z</time></trkpt><trkpt lat="44.8721541" lon="12.1844098"><ele>-0.9999999999999999</ele><time>2026-04-24T11:04:28.258Z</time></trkpt><trkpt lat="44.8721289" lon="12.1845016"><ele>-1.0</ele><time>2026-04-24T11:04:29.257Z</time></trkpt><trkpt lat="44.8721033" lon="12.1845955"><ele>-0.9999999999999999</ele><time>2026-04-24T11:04:30.257Z</time></trkpt><trkpt lat="44.8720727" lon="12.1846898"><ele>-1.0</ele><time>2026-04-24T11:04:31.258Z</time></trkpt><trkpt lat="44.8720419" lon="12.1847915"><ele>-1.0</ele><time>2026-04-24T11:04:32.257Z</time></trkpt><trkpt lat="44.8720147" lon="12.184898"><ele>-1.0</ele><time>2026-04-24T11:04:33.257Z</time></trkpt><trkpt lat="44.8719946" lon="12.1849966"><ele>-0.9999999999999999</ele><time>2026-04-24T11:04:34.257Z</time></trkpt><trkpt lat="44.8719753" lon="12.1850991"><ele>-1.0</ele><time>2026-04-24T11:04:35.258Z</time></trkpt><trkpt lat="44.8719571" lon="12.1852092"><ele>-0.9999999999999999</ele><time>2026-04-24T11:04:36.257Z</time></trkpt><trkpt lat="44.871935" lon="12.1853259"><ele>-1.0</ele><time>2026-04-24T11:04:37.257Z</time></trkpt><trkpt lat="44.8719067" lon="12.1854388"><ele>-1.0</ele><time>2026-04-24T11:04:38.257Z</time></trkpt><trkpt lat="44.8718783" lon="12.1855501"><ele>-1.0</ele><time>2026-04-24T11:04:39.257Z</time></trkpt><trkpt lat="44.8718505" lon="12.1856657"><ele>-0.9999999999999999</ele><time>2026-04-24T11:04:40.258Z</time></trkpt><trkpt lat="44.8718197" lon="12.1857808"><ele>-1.0</ele><time>2026-04-24T11:04:41.257Z</time></trkpt><trkpt lat="44.8717912" lon="12.1858907"><ele>-1.3333333333333333</ele><time>2026-04-24T11:04:42.257Z</time></trkpt><trkpt lat="44.8717637" lon="12.1859962"><ele>-1.6666666666666665</ele><time>2026-04-24T11:04:43.258Z</time></trkpt><trkpt lat="44.8717385" lon="12.186103"><ele>-2.0</ele><time>2026-04-24T11:04:44.257Z</time></trkpt><trkpt lat="44.8717117" lon="12.1862176"><ele>-2.3333333333333335</ele><time>2026-04-24T11:04:45.257Z</time></trkpt><trkpt lat="44.8716822" lon="12.1863414"><ele>-2.6666666666666665</ele><time>2026-04-24T11:04:46.257Z</time></trkpt><trkpt lat="44.8716537" lon="12.1864651"><ele>-3.0</ele><time>2026-04-24T11:04:47.257Z</time></trkpt><trkpt lat="44.8716264" lon="12.186587"><ele>-3.4</ele><time>2026-04-24T11:04:48.257Z</time></trkpt><trkpt lat="44.8715978" lon="12.1867135"><ele>-3.8</ele><time>2026-04-24T11:04:49.258Z</time></trkpt><trkpt lat="44.8715696" lon="12.1868408"><ele>-4.2</ele><time>2026-04-24T11:04:50.258Z</time></trkpt><trkpt lat="44.8715414" lon="12.1869595"><ele>-4.6</ele><time>2026-04-24T11:04:51.258Z</time></trkpt><trkpt lat="44.8715151" lon="12.1870792"><ele>-5.0</ele><time>2026-04-24T11:04:52.257Z</time></trkpt><trkpt lat="44.8714886" lon="12.187206"><ele>-5.0</ele><time>2026-04-24T11:04:53.256Z</time></trkpt><trkpt lat="44.8714627" lon="12.1873268"><ele>-5.0</ele><time>2026-04-24T11:04:54.257Z</time></trkpt><trkpt lat="44.871438" lon="12.1874452"><ele>-5.0</ele><time>2026-04-24T11:04:55.256Z</time></trkpt><trkpt lat="44.8714107" lon="12.1875678"><ele>-5.0</ele><time>2026-04-24T11:04:56.256Z</time></trkpt><trkpt lat="44.8713807" lon="12.1876896"><ele>-5.0</ele><time>2026-04-24T11:04:57.257Z</time></trkpt><trkpt lat="44.8713479" lon="12.187811"><ele>-4.833333333333334</ele><time>2026-04-24T11:04:58.256Z</time></trkpt><trkpt lat="44.8713166" lon="12.1879316"><ele>-4.666666666666667</ele><time>2026-04-24T11:04:59.256Z</time></trkpt><trkpt lat="44.8712927" lon="12.1880445"><ele>-4.5</ele><time>2026-04-24T11:05:00.256Z</time></trkpt><trkpt lat="44.8712667" lon="12.1881551"><ele>-4.333333333333333</ele><time>2026-04-24T11:05:01.256Z</time></trkpt><trkpt lat="44.8712346" lon="12.1882703"><ele>-4.166666666666666</ele><time>2026-04-24T11:05:02.257Z</time></trkpt><trkpt lat="44.8712008" lon="12.1883901"><ele>-4.0</ele><time>2026-04-24T11:05:03.256Z</time></trkpt><trkpt lat="44.871168" lon="12.1885039"><ele>-3.833333333333333</ele><time>2026-04-24T11:05:04.256Z</time></trkpt><trkpt lat="44.8711425" lon="12.1886097"><ele>-3.6666666666666665</ele><time>2026-04-24T11:05:05.256Z</time></trkpt><trkpt lat="44.8711226" lon="12.1887086"><ele>-3.5</ele><time>2026-04-24T11:05:06.256Z</time></trkpt><trkpt lat="44.8711068" lon="12.1888132"><ele>-3.333333333333333</ele><time>2026-04-24T11:05:07.257Z</time></trkpt><trkpt lat="44.8710887" lon="12.1889328"><ele>-3.1666666666666665</ele><time>2026-04-24T11:05:08.256Z</time></trkpt><trkpt lat="44.8710587" lon="12.1890673"><ele>-3.0</ele><time>2026-04-24T11:05:09.256Z</time></trkpt><trkpt lat="44.8710303" lon="12.1891976"><ele>-3.0</ele><time>2026-04-24T11:05:10.257Z</time></trkpt><trkpt lat="44.8710035" lon="12.1893277"><ele>-3.0</ele><time>2026-04-24T11:05:11.257Z</time></trkpt><trkpt lat="44.8709728" lon="12.1894598"><ele>-3.0</ele><time>2026-04-24T11:05:12.256Z</time></trkpt><trkpt lat="44.8709445" lon="12.1895787"><ele>-3.0</ele><time>2026-04-24T11:05:13.257Z</time></trkpt><trkpt lat="44.8709159" lon="12.1896973"><ele>-3.0</ele><time>2026-04-24T11:05:14.257Z</time></trkpt><trkpt lat="44.8708873" lon="12.1898067"><ele>-2.8333333333333335</ele><time>2026-04-24T11:05:15.256Z</time></trkpt><trkpt lat="44.8708581" lon="12.1899171"><ele>-2.6666666666666665</ele><time>2026-04-24T11:05:16.257Z</time></trkpt><trkpt lat="44.8708306" lon="12.1900287"><ele>-2.5</ele><time>2026-04-24T11:05:17.256Z</time></trkpt><trkpt lat="44.8708004" lon="12.1901499"><ele>-2.333333333333333</ele><time>2026-04-24T11:05:18.256Z</time></trkpt><trkpt lat="44.8707738" lon="12.1902614"><ele>-2.1666666666666665</ele><time>2026-04-24T11:05:19.257Z</time></trkpt><trkpt lat="44.8707498" lon="12.1903601"><ele>-2.0</ele><time>2026-04-24T11:05:20.257Z</time></trkpt><trkpt lat="44.8707295" lon="12.1904548"><ele>-1.9999999999999998</ele><time>2026-04-24T11:05:21.256Z</time></trkpt><trkpt lat="44.8707059" lon="12.190605"><ele>-2.0</ele><time>2026-04-24T11:05:23.256Z</time></trkpt><trkpt lat="44.8706891" lon="12.1906933"><ele>-2.0</ele><time>2026-04-24T11:05:25.256Z</time></trkpt><trkpt lat="44.8706586" lon="12.190779"><ele>-2.0</ele><time>2026-04-24T11:05:32.256Z</time></trkpt><trkpt lat="44.8706224" lon="12.1909099"><ele>-1.9999999999999998</ele><time>2026-04-24T11:05:34.257Z</time></trkpt><trkpt lat="44.870576" lon="12.1910425"><ele>-2.0</ele><time>2026-04-24T11:05:35.257Z</time></trkpt><trkpt lat="44.8705347" lon="12.1911413"><ele>-2.0</ele><time>2026-04-24T11:05:36.256Z</time></trkpt><trkpt lat="44.8704916" lon="12.1912656"><ele>-2.0</ele><time>2026-04-24T11:05:37.257Z</time></trkpt><trkpt lat="44.8704556" lon="12.1913868"><ele>-2.0</ele><time>2026-04-24T11:05:38.256Z</time></trkpt><trkpt lat="44.8704129" lon="12.1915225"><ele>-2.0</ele><time>2026-04-24T11:05:39.256Z</time></trkpt><trkpt lat="44.8703602" lon="12.1916675"><ele>-2.0</ele><time>2026-04-24T11:05:40.257Z</time></trkpt><trkpt lat="44.870308" lon="12.1918221"><ele>-2.0</ele><time>2026-04-24T11:05:41.257Z</time></trkpt><trkpt lat="44.8702594" lon="12.1919737"><ele>-2.0</ele><time>2026-04-24T11:05:42.257Z</time></trkpt><trkpt lat="44.8702055" lon="12.192139"><ele>-2.0</ele><time>2026-04-24T11:05:43.256Z</time></trkpt><trkpt lat="44.8701451" lon="12.1923195"><ele>-2.0</ele><time>2026-04-24T11:05:44.256Z</time></trkpt><trkpt lat="44.870082" lon="12.1925086"><ele>-2.333333333333333</ele><time>2026-04-24T11:05:45.256Z</time></trkpt><trkpt lat="44.8700159" lon="12.1926938"><ele>-2.6666666666666665</ele><time>2026-04-24T11:05:46.256Z</time></trkpt><trkpt lat="44.8699543" lon="12.1928899"><ele>-3.0</ele><time>2026-04-24T11:05:47.257Z</time></trkpt><trkpt lat="44.869887" lon="12.1930919"><ele>-3.0</ele><time>2026-04-24T11:05:48.256Z</time></trkpt><trkpt lat="44.8698209" lon="12.1932991"><ele>-3.0</ele><time>2026-04-24T11:05:49.257Z</time></trkpt><trkpt lat="44.869753" lon="12.1935159"><ele>-3.0</ele><time>2026-04-24T11:05:50.256Z</time></trkpt><trkpt lat="44.8696819" lon="12.1937365"><ele>-3.0</ele><time>2026-04-24T11:05:51.257Z</time></trkpt><trkpt lat="44.8696037" lon="12.1939615"><ele>-3.0</ele><time>2026-04-24T11:05:52.256Z</time></trkpt><trkpt lat="44.8695331" lon="12.1941813"><ele>-3.0</ele><time>2026-04-24T11:05:53.257Z</time></trkpt><trkpt lat="44.8694589" lon="12.1944071"><ele>-3.0</ele><time>2026-04-24T11:05:54.256Z</time></trkpt><trkpt lat="44.8693837" lon="12.1946407"><ele>-3.0</ele><time>2026-04-24T11:05:55.256Z</time></trkpt><trkpt lat="44.8693082" lon="12.1948774"><ele>-3.0</ele><time>2026-04-24T11:05:56.256Z</time></trkpt><trkpt lat="44.8692308" lon="12.1951188"><ele>-3.333333333333333</ele><time>2026-04-24T11:05:57.256Z</time></trkpt><trkpt lat="44.8691515" lon="12.1953672"><ele>-3.6666666666666665</ele><time>2026-04-24T11:05:58.257Z</time></trkpt><trkpt lat="44.8690667" lon="12.19562"><ele>-4.0</ele><time>2026-04-24T11:05:59.256Z</time></trkpt><trkpt lat="44.8689839" lon="12.1958714"><ele>-4.0</ele><time>2026-04-24T11:06:00.256Z</time></trkpt><trkpt lat="44.8688954" lon="12.1961284"><ele>-4.0</ele><time>2026-04-24T11:06:01.256Z</time></trkpt><trkpt lat="44.8688057" lon="12.196387"><ele>-4.0</ele><time>2026-04-24T11:06:02.257Z</time></trkpt><trkpt lat="44.8687202" lon="12.1966453"><ele>-4.0</ele><time>2026-04-24T11:06:03.257Z</time></trkpt><trkpt lat="44.8686354" lon="12.1969068"><ele>-4.0</ele><time>2026-04-24T11:06:04.256Z</time></trkpt><trkpt lat="44.8685505" lon="12.1971664"><ele>-4.0</ele><time>2026-04-24T11:06:05.256Z</time></trkpt><trkpt lat="44.8684622" lon="12.1974273"><ele>-4.0</ele><time>2026-04-24T11:06:06.257Z</time></trkpt><trkpt lat="44.8683775" lon="12.1976882"><ele>-4.0</ele><time>2026-04-24T11:06:07.256Z</time></trkpt><trkpt lat="44.8682946" lon="12.1979503"><ele>-4.0</ele><time>2026-04-24T11:06:08.256Z</time></trkpt><trkpt lat="44.8682102" lon="12.1982062"><ele>-3.6666666666666665</ele><time>2026-04-24T11:06:09.256Z</time></trkpt><trkpt lat="44.8681211" lon="12.1984597"><ele>-3.333333333333333</ele><time>2026-04-24T11:06:10.257Z</time></trkpt><trkpt lat="44.868039" lon="12.198712"><ele>-3.0</ele><time>2026-04-24T11:06:11.256Z</time></trkpt><trkpt lat="44.8679583" lon="12.1989656"><ele>-2.6666666666666665</ele><time>2026-04-24T11:06:12.256Z</time></trkpt><trkpt lat="44.8678765" lon="12.1992087"><ele>-2.333333333333333</ele><time>2026-04-24T11:06:13.257Z</time></trkpt><trkpt lat="44.8677981" lon="12.1994541"><ele>-2.0</ele><time>2026-04-24T11:06:14.256Z</time></trkpt><trkpt lat="44.8677197" lon="12.199699"><ele>-2.333333333333333</ele><time>2026-04-24T11:06:15.257Z</time></trkpt><trkpt lat="44.8676459" lon="12.1999425"><ele>-2.6666666666666665</ele><time>2026-04-24T11:06:16.256Z</time></trkpt><trkpt lat="44.8675675" lon="12.2001772"><ele>-3.0</ele><time>2026-04-24T11:06:17.257Z</time></trkpt><trkpt lat="44.8674877" lon="12.2004132"><ele>-3.333333333333333</ele><time>2026-04-24T11:06:18.256Z</time></trkpt><trkpt lat="44.8674078" lon="12.2006455"><ele>-3.6666666666666665</ele><time>2026-04-24T11:06:19.256Z</time></trkpt><trkpt lat="44.8673327" lon="12.2008772"><ele>-4.0</ele><time>2026-04-24T11:06:20.257Z</time></trkpt><trkpt lat="44.8672575" lon="12.2011096"><ele>-4.333333333333333</ele><time>2026-04-24T11:06:21.256Z</time></trkpt><trkpt lat="44.8671826" lon="12.201337"><ele>-4.666666666666667</ele><time>2026-04-24T11:06:22.257Z</time></trkpt><trkpt lat="44.8671064" lon="12.2015636"><ele>-5.0</ele><time>2026-04-24T11:06:23.256Z</time></trkpt><trkpt lat="44.8670322" lon="12.2017884"><ele>-5.333333333333334</ele><time>2026-04-24T11:06:24.257Z</time></trkpt><trkpt lat="44.8669572" lon="12.2020126"><ele>-5.666666666666667</ele><time>2026-04-24T11:06:25.256Z</time></trkpt><trkpt lat="44.8668851" lon="12.2022322"><ele>-6.0</ele><time>2026-04-24T11:06:26.256Z</time></trkpt><trkpt lat="44.8668145" lon="12.2024497"><ele>-5.666666666666667</ele><time>2026-04-24T11:06:27.257Z</time></trkpt><trkpt lat="44.8667453" lon="12.2026696"><ele>-5.333333333333334</ele><time>2026-04-24T11:06:28.256Z</time></trkpt><trkpt lat="44.8666748" lon="12.2028917"><ele>-5.0</ele><time>2026-04-24T11:06:29.257Z</time></trkpt><trkpt lat="44.8665998" lon="12.2031191"><ele>-4.666666666666667</ele><time>2026-04-24T11:06:30.257Z</time></trkpt><trkpt lat="44.8665279" lon="12.2033477"><ele>-4.333333333333333</ele><time>2026-04-24T11:06:31.256Z</time></trkpt><trkpt lat="44.8664534" lon="12.2035819"><ele>-4.0</ele><time>2026-04-24T11:06:32.256Z</time></trkpt><trkpt lat="44.8663779" lon="12.2038141"><ele>-4.0</ele><time>2026-04-24T11:06:33.257Z</time></trkpt><trkpt lat="44.8663076" lon="12.2040362"><ele>-4.0</ele><time>2026-04-24T11:06:34.256Z</time></trkpt><trkpt lat="44.8662355" lon="12.2042397"><ele>-4.0</ele><time>2026-04-24T11:06:35.257Z</time></trkpt><trkpt lat="44.8661719" lon="12.204434"><ele>-4.0</ele><time>2026-04-24T11:06:36.256Z</time></trkpt><trkpt lat="44.866111" lon="12.2046109"><ele>-4.0</ele><time>2026-04-24T11:06:37.257Z</time></trkpt><trkpt lat="44.8660556" lon="12.2047776"><ele>-4.0</ele><time>2026-04-24T11:06:38.256Z</time></trkpt><trkpt lat="44.8660031" lon="12.2049305"><ele>-4.0</ele><time>2026-04-24T11:06:39.257Z</time></trkpt><trkpt lat="44.8659585" lon="12.2050596"><ele>-3.6</ele><time>2026-04-24T11:06:40.256Z</time></trkpt><trkpt lat="44.8659173" lon="12.2051805"><ele>-3.2</ele><time>2026-04-24T11:06:41.256Z</time></trkpt><trkpt lat="44.865879" lon="12.2052991"><ele>-2.8000000000000003</ele><time>2026-04-24T11:06:42.256Z</time></trkpt><trkpt lat="44.8658456" lon="12.2054261"><ele>-2.4000000000000004</ele><time>2026-04-24T11:06:43.256Z</time></trkpt><trkpt lat="44.8658072" lon="12.2055503"><ele>-2.0</ele><time>2026-04-24T11:06:44.257Z</time></trkpt><trkpt lat="44.8657678" lon="12.2056765"><ele>-2.0</ele><time>2026-04-24T11:06:45.256Z</time></trkpt><trkpt lat="44.8657299" lon="12.2058092"><ele>-2.0</ele><time>2026-04-24T11:06:46.256Z</time></trkpt><trkpt lat="44.8656884" lon="12.2059503"><ele>-2.0</ele><time>2026-04-24T11:06:47.256Z</time></trkpt><trkpt lat="44.8656459" lon="12.2060993"><ele>-2.0</ele><time>2026-04-24T11:06:48.257Z</time></trkpt><trkpt lat="44.8656014" lon="12.2062409"><ele>-2.0</ele><time>2026-04-24T11:06:49.256Z</time></trkpt><trkpt lat="44.8655596" lon="12.2063679"><ele>-1.9999999999999998</ele><time>2026-04-24T11:06:50.257Z</time></trkpt><trkpt lat="44.8655292" lon="12.206474"><ele>-2.0</ele><time>2026-04-24T11:06:51.256Z</time></trkpt><trkpt lat="44.8655033" lon="12.2065729"><ele>-2.0</ele><time>2026-04-24T11:06:52.256Z</time></trkpt><trkpt lat="44.8654756" lon="12.2066659"><ele>-2.0</ele><time>2026-04-24T11:06:53.257Z</time></trkpt><trkpt lat="44.8654272" lon="12.2068271"><ele>-1.9999999999999998</ele><time>2026-04-24T11:06:55.257Z</time></trkpt><trkpt lat="44.8653998" lon="12.206917"><ele>-2.0</ele><time>2026-04-24T11:06:56.256Z</time></trkpt><trkpt lat="44.8653717" lon="12.2070173"><ele>-2.2</ele><time>2026-04-24T11:06:57.256Z</time></trkpt><trkpt lat="44.8653365" lon="12.2071295"><ele>-2.4000000000000004</ele><time>2026-04-24T11:06:58.257Z</time></trkpt><trkpt lat="44.8652957" lon="12.2072496"><ele>-2.5999999999999996</ele><time>2026-04-24T11:06:59.256Z</time></trkpt><trkpt lat="44.865251" lon="12.2073856"><ele>-2.8</ele><time>2026-04-24T11:07:00.257Z</time></trkpt><trkpt lat="44.865203" lon="12.2075283"><ele>-3.0</ele><time>2026-04-24T11:07:01.256Z</time></trkpt><trkpt lat="44.8651584" lon="12.2076628"><ele>-3.0</ele><time>2026-04-24T11:07:02.257Z</time></trkpt><trkpt lat="44.8651158" lon="12.2077993"><ele>-3.0</ele><time>2026-04-24T11:07:03.255Z</time></trkpt><trkpt lat="44.8650727" lon="12.2079293"><ele>-3.0</ele><time>2026-04-24T11:07:04.256Z</time></trkpt><trkpt lat="44.8650312" lon="12.2080587"><ele>-3.0</ele><time>2026-04-24T11:07:05.257Z</time></trkpt><trkpt lat="44.8649905" lon="12.2081842"><ele>-3.0</ele><time>2026-04-24T11:07:06.256Z</time></trkpt><trkpt lat="44.864952" lon="12.2083087"><ele>-3.2</ele><time>2026-04-24T11:07:07.257Z</time></trkpt><trkpt lat="44.8649127" lon="12.2084327"><ele>-3.4</ele><time>2026-04-24T11:07:08.257Z</time></trkpt><trkpt lat="44.8648705" lon="12.2085591"><ele>-3.6000000000000005</ele><time>2026-04-24T11:07:09.255Z</time></trkpt><trkpt lat="44.8648301" lon="12.2086856"><ele>-3.8000000000000003</ele><time>2026-04-24T11:07:10.256Z</time></trkpt><trkpt lat="44.8647895" lon="12.2088162"><ele>-4.0</ele><time>2026-04-24T11:07:11.257Z</time></trkpt><trkpt lat="44.8647474" lon="12.2089417"><ele>-3.6</ele><time>2026-04-24T11:07:12.256Z</time></trkpt><trkpt lat="44.8647073" lon="12.2090623"><ele>-3.2</ele><time>2026-04-24T11:07:13.256Z</time></trkpt><trkpt lat="44.8646677" lon="12.209189"><ele>-2.8000000000000003</ele><time>2026-04-24T11:07:14.257Z</time></trkpt><trkpt lat="44.8646253" lon="12.2093239"><ele>-2.4000000000000004</ele><time>2026-04-24T11:07:15.256Z</time></trkpt><trkpt lat="44.8645806" lon="12.2094626"><ele>-2.0</ele><time>2026-04-24T11:07:16.256Z</time></trkpt><trkpt lat="44.8645366" lon="12.2096038"><ele>-2.0</ele><time>2026-04-24T11:07:17.256Z</time></trkpt><trkpt lat="44.8644914" lon="12.2097463"><ele>-2.0</ele><time>2026-04-24T11:07:18.257Z</time></trkpt><trkpt lat="44.8644456" lon="12.209891"><ele>-2.0</ele><time>2026-04-24T11:07:19.256Z</time></trkpt><trkpt lat="44.8644018" lon="12.2100303"><ele>-2.0</ele><time>2026-04-24T11:07:20.256Z</time></trkpt><trkpt lat="44.8643618" lon="12.2101543"><ele>-2.0</ele><time>2026-04-24T11:07:21.257Z</time></trkpt><trkpt lat="44.8643224" lon="12.2102735"><ele>-2.0</ele><time>2026-04-24T11:07:22.256Z</time></trkpt><trkpt lat="44.864283" lon="12.2103926"><ele>-2.0</ele><time>2026-04-24T11:07:23.256Z</time></trkpt><trkpt lat="44.8642483" lon="12.2105046"><ele>-2.0</ele><time>2026-04-24T11:07:24.257Z</time></trkpt><trkpt lat="44.86421" lon="12.2106176"><ele>-2.0</ele><time>2026-04-24T11:07:25.256Z</time></trkpt><trkpt lat="44.8641636" lon="12.2107387"><ele>-2.0</ele><time>2026-04-24T11:07:26.256Z</time></trkpt><trkpt lat="44.8641112" lon="12.2108653"><ele>-2.4000000000000004</ele><time>2026-04-24T11:07:27.257Z</time></trkpt><trkpt lat="44.8640606" lon="12.2109946"><ele>-2.8000000000000003</ele><time>2026-04-24T11:07:28.256Z</time></trkpt><trkpt lat="44.8640134" lon="12.2111178"><ele>-3.2</ele><time>2026-04-24T11:07:29.256Z</time></trkpt><trkpt lat="44.8639681" lon="12.2112355"><ele>-3.6</ele><time>2026-04-24T11:07:30.256Z</time></trkpt><trkpt lat="44.8639276" lon="12.2113424"><ele>-4.0</ele><time>2026-04-24T11:07:31.256Z</time></trkpt><trkpt lat="44.8638916" lon="12.2114443"><ele>-3.8000000000000003</ele><time>2026-04-24T11:07:32.257Z</time></trkpt><trkpt lat="44.8638546" lon="12.2115461"><ele>-3.6000000000000005</ele><time>2026-04-24T11:07:33.256Z</time></trkpt><trkpt lat="44.8638224" lon="12.2116391"><ele>-3.4</ele><time>2026-04-24T11:07:34.257Z</time></trkpt><trkpt lat="44.8637734" lon="12.2117875"><ele>-3.2</ele><time>2026-04-24T11:07:36.256Z</time></trkpt><trkpt lat="44.8637368" lon="12.2119169"><ele>-3.0</ele><time>2026-04-24T11:07:38.256Z</time></trkpt><trkpt lat="44.8636939" lon="12.2120623"><ele>-3.0</ele><time>2026-04-24T11:07:40.257Z</time></trkpt><trkpt lat="44.8636585" lon="12.2121875"><ele>-3.0</ele><time>2026-04-24T11:07:42.256Z</time></trkpt><trkpt lat="44.8636203" lon="12.2123234"><ele>-3.0</ele><time>2026-04-24T11:07:44.257Z</time></trkpt><trkpt lat="44.8635761" lon="12.212473"><ele>-3.0</ele><time>2026-04-24T11:07:46.257Z</time></trkpt><trkpt lat="44.8635327" lon="12.2126162"><ele>-3.0</ele><time>2026-04-24T11:07:48.256Z</time></trkpt><trkpt lat="44.8634858" lon="12.21276"><ele>-3.0</ele><time>2026-04-24T11:07:50.256Z</time></trkpt><trkpt lat="44.8634427" lon="12.2129041"><ele>-3.0</ele><time>2026-04-24T11:07:52.257Z</time></trkpt><trkpt lat="44.8633898" lon="12.2130652"><ele>-3.0</ele><time>2026-04-24T11:07:54.257Z</time></trkpt><trkpt lat="44.8633573" lon="12.2131536"><ele>-3.0</ele><time>2026-04-24T11:07:55.256Z</time></trkpt><trkpt lat="44.8633286" lon="12.2132437"><ele>-3.0</ele><time>2026-04-24T11:07:56.257Z</time></trkpt><trkpt lat="44.8632773" lon="12.2134099"><ele>-3.0</ele><time>2026-04-24T11:07:58.256Z</time></trkpt><trkpt lat="44.863228" lon="12.2135706"><ele>-3.0</ele><time>2026-04-24T11:08:00.257Z</time></trkpt><trkpt lat="44.8631998" lon="12.2136549"><ele>-3.0</ele><time>2026-04-24T11:08:01.257Z</time></trkpt><trkpt lat="44.8631707" lon="12.2137438"><ele>-3.0</ele><time>2026-04-24T11:08:02.256Z</time></trkpt><trkpt lat="44.8631432" lon="12.2138294"><ele>-3.0</ele><time>2026-04-24T11:08:03.257Z</time></trkpt><trkpt lat="44.8631153" lon="12.2139121"><ele>-3.0</ele><time>2026-04-24T11:08:04.256Z</time></trkpt><trkpt lat="44.8630863" lon="12.2140015"><ele>-3.1428571428571423</ele><time>2026-04-24T11:08:05.257Z</time></trkpt><trkpt lat="44.8630563" lon="12.214088"><ele>-3.2857142857142856</ele><time>2026-04-24T11:08:06.256Z</time></trkpt><trkpt lat="44.8630298" lon="12.21417"><ele>-3.4285714285714284</ele><time>2026-04-24T11:08:07.256Z</time></trkpt><trkpt lat="44.8629999" lon="12.2142601"><ele>-3.571428571428571</ele><time>2026-04-24T11:08:08.257Z</time></trkpt><trkpt lat="44.8629691" lon="12.2143465"><ele>-3.714285714285714</ele><time>2026-04-24T11:08:09.256Z</time></trkpt><trkpt lat="44.86294" lon="12.214427"><ele>-3.8571428571428568</ele><time>2026-04-24T11:08:10.257Z</time></trkpt><trkpt lat="44.8629069" lon="12.2145062"><ele>-4.0</ele><time>2026-04-24T11:08:11.257Z</time></trkpt><trkpt lat="44.8628756" lon="12.2145965"><ele>-4.0</ele><time>2026-04-24T11:08:12.256Z</time></trkpt><trkpt lat="44.8628463" lon="12.2146915"><ele>-3.9999999999999996</ele><time>2026-04-24T11:08:13.257Z</time></trkpt><trkpt lat="44.8628138" lon="12.2147789"><ele>-4.0</ele><time>2026-04-24T11:08:14.256Z</time></trkpt><trkpt lat="44.8627849" lon="12.2148762"><ele>-4.0</ele><time>2026-04-24T11:08:15.256Z</time></trkpt><trkpt lat="44.8627555" lon="12.2149671"><ele>-3.9999999999999996</ele><time>2026-04-24T11:08:16.256Z</time></trkpt><trkpt lat="44.8627296" lon="12.2150556"><ele>-4.0</ele><time>2026-04-24T11:08:17.256Z</time></trkpt><trkpt lat="44.8626966" lon="12.2151502"><ele>-4.0</ele><time>2026-04-24T11:08:18.257Z</time></trkpt><trkpt lat="44.8626682" lon="12.2152397"><ele>-4.0</ele><time>2026-04-24T11:08:19.256Z</time></trkpt><trkpt lat="44.8626406" lon="12.2153303"><ele>-3.9999999999999996</ele><time>2026-04-24T11:08:20.256Z</time></trkpt><trkpt lat="44.8626106" lon="12.2154172"><ele>-4.0</ele><time>2026-04-24T11:08:21.257Z</time></trkpt><trkpt lat="44.8625825" lon="12.2154995"><ele>-4.0</ele><time>2026-04-24T11:08:22.257Z</time></trkpt><trkpt lat="44.8625525" lon="12.2155779"><ele>-3.9999999999999996</ele><time>2026-04-24T11:08:23.257Z</time></trkpt><trkpt lat="44.8625262" lon="12.2156589"><ele>-4.0</ele><time>2026-04-24T11:08:24.256Z</time></trkpt><trkpt lat="44.8624959" lon="12.2157423"><ele>-4.0</ele><time>2026-04-24T11:08:25.256Z</time></trkpt><trkpt lat="44.8624679" lon="12.2158307"><ele>-3.8000000000000003</ele><time>2026-04-24T11:08:26.257Z</time></trkpt><trkpt lat="44.8624407" lon="12.2159197"><ele>-3.6000000000000005</ele><time>2026-04-24T11:08:27.256Z</time></trkpt><trkpt lat="44.862414" lon="12.2160083"><ele>-3.4</ele><time>2026-04-24T11:08:28.256Z</time></trkpt><trkpt lat="44.8623909" lon="12.2160968"><ele>-3.2</ele><time>2026-04-24T11:08:29.257Z</time></trkpt><trkpt lat="44.8623402" lon="12.2162529"><ele>-3.0</ele><time>2026-04-24T11:08:31.256Z</time></trkpt><trkpt lat="44.8622851" lon="12.2164208"><ele>-2.5</ele><time>2026-04-24T11:08:33.256Z</time></trkpt><trkpt lat="44.8622545" lon="12.2165124"><ele>-2.0</ele><time>2026-04-24T11:08:34.257Z</time></trkpt><trkpt lat="44.8622244" lon="12.2166018"><ele>-1.5</ele><time>2026-04-24T11:08:35.256Z</time></trkpt><trkpt lat="44.8621945" lon="12.2166936"><ele>-1.0</ele><time>2026-04-24T11:08:36.256Z</time></trkpt><trkpt lat="44.8621619" lon="12.2167946"><ele>-0.5</ele><time>2026-04-24T11:08:37.256Z</time></trkpt><trkpt lat="44.8621263" lon="12.2169043"><ele>0.0</ele><time>2026-04-24T11:08:38.257Z</time></trkpt><trkpt lat="44.8620936" lon="12.2169995"><ele>0.0</ele><time>2026-04-24T11:08:39.256Z</time></trkpt><trkpt lat="44.8620401" lon="12.2171646"><ele>0.0</ele><time>2026-04-24T11:08:41.256Z</time></trkpt><trkpt lat="44.8620065" lon="12.2172564"><ele>0.0</ele><time>2026-04-24T11:08:42.257Z</time></trkpt><trkpt lat="44.8619726" lon="12.2173578"><ele>0.0</ele><time>2026-04-24T11:08:43.257Z</time></trkpt><trkpt lat="44.8619369" lon="12.2174547"><ele>0.0</ele><time>2026-04-24T11:08:44.256Z</time></trkpt><trkpt lat="44.8619033" lon="12.2175451"><ele>0.0</ele><time>2026-04-24T11:08:45.257Z</time></trkpt><trkpt lat="44.8618691" lon="12.2176452"><ele>-0.16666666666666666</ele><time>2026-04-24T11:08:46.256Z</time></trkpt><trkpt lat="44.8618382" lon="12.2177469"><ele>-0.3333333333333333</ele><time>2026-04-24T11:08:47.256Z</time></trkpt><trkpt lat="44.861805" lon="12.217852"><ele>-0.5</ele><time>2026-04-24T11:08:48.256Z</time></trkpt><trkpt lat="44.8617669" lon="12.2179634"><ele>-0.6666666666666666</ele><time>2026-04-24T11:08:49.256Z</time></trkpt><trkpt lat="44.8617313" lon="12.2180657"><ele>-0.8333333333333333</ele><time>2026-04-24T11:08:50.256Z</time></trkpt><trkpt lat="44.8616984" lon="12.2181668"><ele>-1.0</ele><time>2026-04-24T11:08:51.256Z</time></trkpt><trkpt lat="44.8616638" lon="12.2182724"><ele>-1.3333333333333333</ele><time>2026-04-24T11:08:52.256Z</time></trkpt><trkpt lat="44.8616291" lon="12.2183834"><ele>-1.6666666666666665</ele><time>2026-04-24T11:08:53.256Z</time></trkpt><trkpt lat="44.8615933" lon="12.218497"><ele>-2.0</ele><time>2026-04-24T11:08:54.256Z</time></trkpt><trkpt lat="44.8615553" lon="12.2186112"><ele>-2.3333333333333335</ele><time>2026-04-24T11:08:55.257Z</time></trkpt><trkpt lat="44.8615182" lon="12.2187277"><ele>-2.6666666666666665</ele><time>2026-04-24T11:08:56.256Z</time></trkpt><trkpt lat="44.8614806" lon="12.2188398"><ele>-3.0</ele><time>2026-04-24T11:08:57.257Z</time></trkpt><trkpt lat="44.8614439" lon="12.2189493"><ele>-3.1666666666666665</ele><time>2026-04-24T11:08:58.255Z</time></trkpt><trkpt lat="44.8614077" lon="12.2190579"><ele>-3.333333333333333</ele><time>2026-04-24T11:08:59.256Z</time></trkpt><trkpt lat="44.8613692" lon="12.2191694"><ele>-3.5</ele><time>2026-04-24T11:09:00.257Z</time></trkpt><trkpt lat="44.8613299" lon="12.2192898"><ele>-3.6666666666666665</ele><time>2026-04-24T11:09:01.256Z</time></trkpt><trkpt lat="44.8612915" lon="12.219409"><ele>-3.833333333333333</ele><time>2026-04-24T11:09:02.256Z</time></trkpt><trkpt lat="44.8612553" lon="12.2195195"><ele>-4.0</ele><time>2026-04-24T11:09:03.257Z</time></trkpt><trkpt lat="44.8612173" lon="12.2196327"><ele>-3.9999999999999996</ele><time>2026-04-24T11:09:04.256Z</time></trkpt><trkpt lat="44.8611787" lon="12.219745"><ele>-4.0</ele><time>2026-04-24T11:09:05.256Z</time></trkpt><trkpt lat="44.8611449" lon="12.2198433"><ele>-4.0</ele><time>2026-04-24T11:09:06.257Z</time></trkpt><trkpt lat="44.8611018" lon="12.219972"><ele>-4.0</ele><time>2026-04-24T11:09:08.256Z</time></trkpt><trkpt lat="44.861061" lon="12.2200679"><ele>-3.9999999999999996</ele><time>2026-04-24T11:09:10.257Z</time></trkpt><trkpt lat="44.8610314" lon="12.2201742"><ele>-4.0</ele><time>2026-04-24T11:09:12.256Z</time></trkpt><trkpt lat="44.8610297" lon="12.2202697"><ele>-3.6666666666666665</ele><time>2026-04-24T11:09:14.255Z</time></trkpt><trkpt lat="44.8610628" lon="12.2203533"><ele>-3.333333333333333</ele><time>2026-04-24T11:09:16.257Z</time></trkpt><trkpt lat="44.8611407" lon="12.2203929"><ele>-3.0</ele><time>2026-04-24T11:09:18.17Z</time></trkpt><trkpt lat="44.8612672" lon="12.2204179"><ele>-2.6666666666666665</ele><time>2026-04-24T11:09:20.257Z</time></trkpt><trkpt lat="44.8613504" lon="12.2204129"><ele>-2.333333333333333</ele><time>2026-04-24T11:09:21.256Z</time></trkpt><trkpt lat="44.8614329" lon="12.2204019"><ele>-2.0</ele><time>2026-04-24T11:09:22.257Z</time></trkpt><trkpt lat="44.8615054" lon="12.2203939"><ele>-2.0</ele><time>2026-04-24T11:09:23.256Z</time></trkpt><trkpt lat="44.8615747" lon="12.2203888"><ele>-1.9999999999999998</ele><time>2026-04-24T11:09:24.256Z</time></trkpt><trkpt lat="44.8616441" lon="12.2203841"><ele>-2.0</ele><time>2026-04-24T11:09:25.256Z</time></trkpt><trkpt lat="44.8617164" lon="12.2203795"><ele>-2.0</ele><time>2026-04-24T11:09:26.256Z</time></trkpt><trkpt lat="44.8617927" lon="12.2203735"><ele>-1.9999999999999998</ele><time>2026-04-24T11:09:27.257Z</time></trkpt><trkpt lat="44.8618719" lon="12.2203693"><ele>-2.0</ele><time>2026-04-24T11:09:28.256Z</time></trkpt><trkpt lat="44.8619507" lon="12.2203649"><ele>-2.0</ele><time>2026-04-24T11:09:29.256Z</time></trkpt><trkpt lat="44.8620319" lon="12.2203575"><ele>-1.9999999999999998</ele><time>2026-04-24T11:09:30.257Z</time></trkpt><trkpt lat="44.862112" lon="12.220351"><ele>-2.0</ele><time>2026-04-24T11:09:31.257Z</time></trkpt><trkpt lat="44.862194" lon="12.2203423"><ele>-2.0</ele><time>2026-04-24T11:09:32.256Z</time></trkpt><trkpt lat="44.8622744" lon="12.2203355"><ele>-2.0</ele><time>2026-04-24T11:09:33.256Z</time></trkpt><trkpt lat="44.8623536" lon="12.2203296"><ele>-1.9999999999999998</ele><time>2026-04-24T11:09:34.257Z</time></trkpt><trkpt lat="44.8624332" lon="12.2203231"><ele>-2.0</ele><time>2026-04-24T11:09:35.256Z</time></trkpt><trkpt lat="44.8625176" lon="12.220316"><ele>-1.9999999999999998</ele><time>2026-04-24T11:09:36.257Z</time></trkpt><trkpt lat="44.8625994" lon="12.2203125"><ele>-2.0</ele><time>2026-04-24T11:09:37.256Z</time></trkpt><trkpt lat="44.8626796" lon="12.2203068"><ele>-2.0</ele><time>2026-04-24T11:09:38.255Z</time></trkpt><trkpt lat="44.8627565" lon="12.220299"><ele>-2.0</ele><time>2026-04-24T11:09:39.257Z</time></trkpt><trkpt lat="44.862835" lon="12.220293"><ele>-1.9999999999999998</ele><time>2026-04-24T11:09:40.256Z</time></trkpt><trkpt lat="44.862908" lon="12.2202893"><ele>-2.0</ele><time>2026-04-24T11:09:41.257Z</time></trkpt><trkpt lat="44.8629841" lon="12.2202849"><ele>-2.1666666666666665</ele><time>2026-04-24T11:09:42.256Z</time></trkpt><trkpt lat="44.8630644" lon="12.2202769"><ele>-2.333333333333333</ele><time>2026-04-24T11:09:43.256Z</time></trkpt><trkpt lat="44.8631414" lon="12.2202726"><ele>-2.5</ele><time>2026-04-24T11:09:44.257Z</time></trkpt><trkpt lat="44.863218" lon="12.2202677"><ele>-2.6666666666666665</ele><time>2026-04-24T11:09:45.256Z</time></trkpt><trkpt lat="44.8632943" lon="12.2202599"><ele>-2.8333333333333335</ele><time>2026-04-24T11:09:46.257Z</time></trkpt><trkpt lat="44.8633721" lon="12.2202492"><ele>-3.0</ele><time>2026-04-24T11:09:47.256Z</time></trkpt><trkpt lat="44.863451" lon="12.2202377"><ele>-3.0</ele><time>2026-04-24T11:09:48.257Z</time></trkpt><trkpt lat="44.8635235" lon="12.220225"><ele>-3.0</ele><time>2026-04-24T11:09:49.256Z</time></trkpt><trkpt lat="44.8635872" lon="12.2202117"><ele>-3.0</ele><time>2026-04-24T11:09:50.257Z</time></trkpt><trkpt lat="44.8636887" lon="12.2201876"><ele>-3.0</ele><time>2026-04-24T11:09:52.256Z</time></trkpt><trkpt lat="44.8637713" lon="12.2202057"><ele>-3.0</ele><time>2026-04-24T11:09:55.256Z</time></trkpt><trkpt lat="44.8638161" lon="12.220297"><ele>-3.0</ele><time>2026-04-24T11:09:58.256Z</time></trkpt><trkpt lat="44.8638544" lon="12.2203735"><ele>-3.0</ele><time>2026-04-24T11:10:01.257Z</time></trkpt><trkpt lat="44.8639398" lon="12.2203838"><ele>-3.0</ele><time>2026-04-24T11:10:03.257Z</time></trkpt><trkpt lat="44.8640779" lon="12.2203291"><ele>-3.0</ele><time>2026-04-24T11:10:05.257Z</time></trkpt><trkpt lat="44.864185" lon="12.2203185"><ele>-3.0</ele><time>2026-04-24T11:10:06.256Z</time></trkpt><trkpt lat="44.8643025" lon="12.2203116"><ele>-3.0</ele><time>2026-04-24T11:10:07.257Z</time></trkpt><trkpt lat="44.8644297" lon="12.2203051"><ele>-3.0</ele><time>2026-04-24T11:10:08.257Z</time></trkpt><trkpt lat="44.8645516" lon="12.2202975"><ele>-3.0</ele><time>2026-04-24T11:10:09.256Z</time></trkpt><trkpt lat="44.8646442" lon="12.220293"><ele>-3.0</ele><time>2026-04-24T11:10:10.257Z</time></trkpt><trkpt lat="44.8647163" lon="12.220288"><ele>-3.0</ele><time>2026-04-24T11:10:11.256Z</time></trkpt><trkpt lat="44.8648217" lon="12.2202847"><ele>-3.0</ele><time>2026-04-24T11:10:13.257Z</time></trkpt><trkpt lat="44.8648909" lon="12.2203327"><ele>-3.0</ele><time>2026-04-24T11:10:15.256Z</time></trkpt><trkpt lat="44.8649177" lon="12.2204301"><ele>-3.0</ele><time>2026-04-24T11:10:17.256Z</time></trkpt><trkpt lat="44.8648988" lon="12.2205816"><ele>-3.0</ele><time>2026-04-24T11:10:19.256Z</time></trkpt><trkpt lat="44.8648675" lon="12.2206911"><ele>-3.0</ele><time>2026-04-24T11:10:20.257Z</time></trkpt><trkpt lat="44.864823" lon="12.2208231"><ele>-3.0</ele><time>2026-04-24T11:10:21.256Z</time></trkpt><trkpt lat="44.8647718" lon="12.2209703"><ele>-2.5</ele><time>2026-04-24T11:10:22.256Z</time></trkpt><trkpt lat="44.8647184" lon="12.221137"><ele>-2.0</ele><time>2026-04-24T11:10:23.257Z</time></trkpt><trkpt lat="44.8646582" lon="12.221316"><ele>-1.5</ele><time>2026-04-24T11:10:24.256Z</time></trkpt><trkpt lat="44.8645972" lon="12.2214986"><ele>-1.0</ele><time>2026-04-24T11:10:25.256Z</time></trkpt><trkpt lat="44.8645342" lon="12.2216879"><ele>-0.75</ele><time>2026-04-24T11:10:26.256Z</time></trkpt><trkpt lat="44.8644729" lon="12.2218737"><ele>-0.5</ele><time>2026-04-24T11:10:27.257Z</time></trkpt><trkpt lat="44.8644133" lon="12.2220505"><ele>-0.25</ele><time>2026-04-24T11:10:28.256Z</time></trkpt><trkpt lat="44.8643583" lon="12.2222133"><ele>0.0</ele><time>2026-04-24T11:10:29.256Z</time></trkpt><trkpt lat="44.864307" lon="12.2223729"><ele>-0.5</ele><time>2026-04-24T11:10:30.257Z</time></trkpt><trkpt lat="44.8642562" lon="12.22254"><ele>-1.0</ele><time>2026-04-24T11:10:31.256Z</time></trkpt><trkpt lat="44.8642012" lon="12.2227111"><ele>-1.5</ele><time>2026-04-24T11:10:32.256Z</time></trkpt><trkpt lat="44.8641415" lon="12.2228805"><ele>-2.0</ele><time>2026-04-24T11:10:33.257Z</time></trkpt><trkpt lat="44.864086" lon="12.2230371"><ele>-2.2</ele><time>2026-04-24T11:10:34.256Z</time></trkpt><trkpt lat="44.8640358" lon="12.2231788"><ele>-2.4000000000000004</ele><time>2026-04-24T11:10:35.256Z</time></trkpt><trkpt lat="44.8639871" lon="12.2233105"><ele>-2.5999999999999996</ele><time>2026-04-24T11:10:36.257Z</time></trkpt><trkpt lat="44.8639443" lon="12.2234265"><ele>-2.8</ele><time>2026-04-24T11:10:37.257Z</time></trkpt><trkpt lat="44.8639091" lon="12.2235185"><ele>-3.0</ele><time>2026-04-24T11:10:38.257Z</time></trkpt><trkpt lat="44.8638773" lon="12.2236453"><ele>-3.0</ele><time>2026-04-24T11:10:40.256Z</time></trkpt><trkpt lat="44.8638935" lon="12.2237485"><ele>-3.0</ele><time>2026-04-24T11:10:42.256Z</time></trkpt><trkpt lat="44.863947" lon="12.2238314"><ele>-3.0</ele><time>2026-04-24T11:10:44.256Z</time></trkpt><trkpt lat="44.8640306" lon="12.2238833"><ele>-3.0</ele><time>2026-04-24T11:10:46.257Z</time></trkpt><trkpt lat="44.864165" lon="12.2238917"><ele>-3.0</ele><time>2026-04-24T11:10:48.255Z</time></trkpt><trkpt lat="44.8642568" lon="12.2238764"><ele>-2.6</ele><time>2026-04-24T11:10:49.257Z</time></trkpt><trkpt lat="44.8643486" lon="12.2238535"><ele>-2.1999999999999997</ele><time>2026-04-24T11:10:50.256Z</time></trkpt><trkpt lat="44.8644455" lon="12.2238286"><ele>-1.8</ele><time>2026-04-24T11:10:51.256Z</time></trkpt><trkpt lat="44.8645517" lon="12.2237973"><ele>-1.4</ele><time>2026-04-24T11:10:52.257Z</time></trkpt><trkpt lat="44.864665" lon="12.2237655"><ele>-1.0</ele><time>2026-04-24T11:10:53.256Z</time></trkpt><trkpt lat="44.8647681" lon="12.2237411"><ele>-1.0</ele><time>2026-04-24T11:10:54.256Z</time></trkpt><trkpt lat="44.8648688" lon="12.2237255"><ele>-1.0</ele><time>2026-04-24T11:10:55.257Z</time></trkpt><trkpt lat="44.864975" lon="12.2237064"><ele>-1.0</ele><time>2026-04-24T11:10:56.257Z</time></trkpt><trkpt lat="44.8650861" lon="12.2236819"><ele>-1.0</ele><time>2026-04-24T11:10:57.256Z</time></trkpt><trkpt lat="44.865197" lon="12.2236535"><ele>-1.0</ele><time>2026-04-24T11:10:58.257Z</time></trkpt><trkpt lat="44.8653106" lon="12.2236274"><ele>-1.0</ele><time>2026-04-24T11:10:59.256Z</time></trkpt><trkpt lat="44.865421" lon="12.2236"><ele>-1.0</ele><time>2026-04-24T11:11:00.256Z</time></trkpt><trkpt lat="44.8655164" lon="12.2235759"><ele>-1.0</ele><time>2026-04-24T11:11:01.257Z</time></trkpt><trkpt lat="44.8656001" lon="12.2235596"><ele>-1.0</ele><time>2026-04-24T11:11:02.256Z</time></trkpt><trkpt lat="44.865669" lon="12.2235489"><ele>-1.0</ele><time>2026-04-24T11:11:03.255Z</time></trkpt><trkpt lat="44.8657858" lon="12.2235463"><ele>-0.9999999999999999</ele><time>2026-04-24T11:11:05.256Z</time></trkpt><trkpt lat="44.8658746" lon="12.2235445"><ele>-1.0</ele><time>2026-04-24T11:11:07.256Z</time></trkpt><trkpt lat="44.8658065" lon="12.223506"><ele>-1.0</ele><time>2026-04-24T11:11:15.256Z</time></trkpt><trkpt lat="44.8657108" lon="12.2235163"><ele>-1.0</ele><time>2026-04-24T11:11:17.257Z</time></trkpt><trkpt lat="44.8656335" lon="12.2235286"><ele>-0.9999999999999999</ele><time>2026-04-24T11:11:19.256Z</time></trkpt><trkpt lat="44.8655766" lon="12.2235936"><ele>-1.0</ele><time>2026-04-24T11:11:22.256Z</time></trkpt><trkpt lat="44.8655734" lon="12.2237401"><ele>-1.0</ele><time>2026-04-24T11:11:54.256Z</time></trkpt><trkpt lat="44.865565" lon="12.2238881"><ele>-1.0</ele><time>2026-04-24T11:11:56.256Z</time></trkpt><trkpt lat="44.8655654" lon="12.2240157"><ele>-1.0</ele><time>2026-04-24T11:11:58.255Z</time></trkpt><trkpt lat="44.8655643" lon="12.224161"><ele>-1.0</ele><time>2026-04-24T11:12:00.255Z</time></trkpt><trkpt lat="44.8655713" lon="12.2242529"><ele>-1.0</ele><time>2026-04-24T11:12:01.256Z</time></trkpt><trkpt lat="44.8655765" lon="12.2244262"><ele>-1.1666666666666665</ele><time>2026-04-24T11:12:03.256Z</time></trkpt><trkpt lat="44.865579" lon="12.2245154"><ele>-1.3333333333333333</ele><time>2026-04-24T11:12:04.256Z</time></trkpt><trkpt lat="44.865584" lon="12.2246058"><ele>-1.5</ele><time>2026-04-24T11:12:05.255Z</time></trkpt><trkpt lat="44.8655898" lon="12.224695"><ele>-1.6666666666666665</ele><time>2026-04-24T11:12:06.256Z</time></trkpt><trkpt lat="44.8655971" lon="12.2248658"><ele>-1.8333333333333333</ele><time>2026-04-24T11:12:08.255Z</time></trkpt><trkpt lat="44.8656023" lon="12.2250316"><ele>-2.0</ele><time>2026-04-24T11:12:10.255Z</time></trkpt><trkpt lat="44.865606" lon="12.2252077"><ele>-2.2857142857142856</ele><time>2026-04-24T11:12:12.255Z</time></trkpt><trkpt lat="44.8656101" lon="12.2252978"><ele>-2.571428571428571</ele><time>2026-04-24T11:12:13.256Z</time></trkpt><trkpt lat="44.8656157" lon="12.2254574"><ele>-2.8571428571428568</ele><time>2026-04-24T11:12:15.256Z</time></trkpt><trkpt lat="44.8656184" lon="12.2255468"><ele>-3.142857142857143</ele><time>2026-04-24T11:12:16.255Z</time></trkpt><trkpt lat="44.8656208" lon="12.2256376"><ele>-3.428571428571428</ele><time>2026-04-24T11:12:17.256Z</time></trkpt><trkpt lat="44.8656238" lon="12.2257268"><ele>-3.714285714285714</ele><time>2026-04-24T11:12:18.255Z</time></trkpt><trkpt lat="44.8656288" lon="12.2258183"><ele>-4.0</ele><time>2026-04-24T11:12:19.256Z</time></trkpt><trkpt lat="44.8656335" lon="12.2259072"><ele>-3.9999999999999996</ele><time>2026-04-24T11:12:20.255Z</time></trkpt><trkpt lat="44.8656585" lon="12.2260688"><ele>-4.0</ele><time>2026-04-24T11:12:22.255Z</time></trkpt><trkpt lat="44.8656752" lon="12.2261577"><ele>-4.0</ele><time>2026-04-24T11:12:23.256Z</time></trkpt><trkpt lat="44.865696" lon="12.2262441"><ele>-4.0</ele><time>2026-04-24T11:12:24.255Z</time></trkpt><trkpt lat="44.865731" lon="12.2264219"><ele>-3.9999999999999996</ele><time>2026-04-24T11:12:26.255Z</time></trkpt><trkpt lat="44.8657505" lon="12.2265145"><ele>-4.0</ele><time>2026-04-24T11:12:27.256Z</time></trkpt><trkpt lat="44.8657726" lon="12.2266089"><ele>-3.8571428571428568</ele><time>2026-04-24T11:12:28.255Z</time></trkpt><trkpt lat="44.8657938" lon="12.2267001"><ele>-3.714285714285714</ele><time>2026-04-24T11:12:29.256Z</time></trkpt><trkpt lat="44.8658155" lon="12.2267999"><ele>-3.571428571428571</ele><time>2026-04-24T11:12:30.256Z</time></trkpt><trkpt lat="44.8658397" lon="12.2269065"><ele>-3.4285714285714284</ele><time>2026-04-24T11:12:31.255Z</time></trkpt><trkpt lat="44.8658611" lon="12.2269958"><ele>-3.2857142857142856</ele><time>2026-04-24T11:12:32.256Z</time></trkpt><trkpt lat="44.8658825" lon="12.2270868"><ele>-3.1428571428571423</ele><time>2026-04-24T11:12:33.255Z</time></trkpt><trkpt lat="44.8659007" lon="12.227176"><ele>-3.0</ele><time>2026-04-24T11:12:34.256Z</time></trkpt><trkpt lat="44.8659218" lon="12.2272673"><ele>-3.0</ele><time>2026-04-24T11:12:35.255Z</time></trkpt><trkpt lat="44.8659436" lon="12.2273549"><ele>-3.0</ele><time>2026-04-24T11:12:36.256Z</time></trkpt><trkpt lat="44.8659821" lon="12.2274967"><ele>-3.0</ele><time>2026-04-24T11:12:38.256Z</time></trkpt><trkpt lat="44.8660169" lon="12.2276273"><ele>-3.0</ele><time>2026-04-24T11:12:40.255Z</time></trkpt><trkpt lat="44.8660584" lon="12.22778"><ele>-3.0</ele><time>2026-04-24T11:12:42.256Z</time></trkpt><trkpt lat="44.8660792" lon="12.2278841"><ele>-3.0</ele><time>2026-04-24T11:12:43.255Z</time></trkpt><trkpt lat="44.8661034" lon="12.2279897"><ele>-3.0</ele><time>2026-04-24T11:12:44.256Z</time></trkpt><trkpt lat="44.8661239" lon="12.2280891"><ele>-3.0</ele><time>2026-04-24T11:12:45.256Z</time></trkpt><trkpt lat="44.8661473" lon="12.2282033"><ele>-3.0</ele><time>2026-04-24T11:12:46.255Z</time></trkpt><trkpt lat="44.866172" lon="12.228321"><ele>-3.0</ele><time>2026-04-24T11:12:47.256Z</time></trkpt><trkpt lat="44.8662004" lon="12.2284481"><ele>-3.0</ele><time>2026-04-24T11:12:48.256Z</time></trkpt><trkpt lat="44.8662312" lon="12.2285792"><ele>-3.0</ele><time>2026-04-24T11:12:49.255Z</time></trkpt><trkpt lat="44.8662617" lon="12.2287146"><ele>-3.0</ele><time>2026-04-24T11:12:50.255Z</time></trkpt><trkpt lat="44.8662873" lon="12.2288372"><ele>-3.0</ele><time>2026-04-24T11:12:51.256Z</time></trkpt><trkpt lat="44.8663157" lon="12.2289678"><ele>-3.0</ele><time>2026-04-24T11:12:52.255Z</time></trkpt><trkpt lat="44.8663432" lon="12.2291006"><ele>-3.0</ele><time>2026-04-24T11:12:53.255Z</time></trkpt><trkpt lat="44.8663664" lon="12.2292185"><ele>-2.8333333333333335</ele><time>2026-04-24T11:12:54.256Z</time></trkpt><trkpt lat="44.8663898" lon="12.2293289"><ele>-2.6666666666666665</ele><time>2026-04-24T11:12:55.256Z</time></trkpt><trkpt lat="44.8664157" lon="12.2294426"><ele>-2.5</ele><time>2026-04-24T11:12:56.256Z</time></trkpt><trkpt lat="44.8664381" lon="12.2295526"><ele>-2.333333333333333</ele><time>2026-04-24T11:12:57.255Z</time></trkpt><trkpt lat="44.8664667" lon="12.2296766"><ele>-2.1666666666666665</ele><time>2026-04-24T11:12:58.255Z</time></trkpt><trkpt lat="44.8664945" lon="12.2298027"><ele>-2.0</ele><time>2026-04-24T11:12:59.256Z</time></trkpt><trkpt lat="44.8665234" lon="12.2299346"><ele>-2.333333333333333</ele><time>2026-04-24T11:13:00.256Z</time></trkpt><trkpt lat="44.866551" lon="12.2300512"><ele>-2.6666666666666665</ele><time>2026-04-24T11:13:01.255Z</time></trkpt><trkpt lat="44.8665732" lon="12.230157"><ele>-3.0</ele><time>2026-04-24T11:13:02.255Z</time></trkpt><trkpt lat="44.8665977" lon="12.2302684"><ele>-3.333333333333333</ele><time>2026-04-24T11:13:03.256Z</time></trkpt><trkpt lat="44.8666282" lon="12.2304004"><ele>-3.6666666666666665</ele><time>2026-04-24T11:13:04.255Z</time></trkpt><trkpt lat="44.8666532" lon="12.2305228"><ele>-4.0</ele><time>2026-04-24T11:13:05.255Z</time></trkpt><trkpt lat="44.8666783" lon="12.2306396"><ele>-3.833333333333333</ele><time>2026-04-24T11:13:06.256Z</time></trkpt><trkpt lat="44.8667029" lon="12.2307573"><ele>-3.6666666666666665</ele><time>2026-04-24T11:13:07.256Z</time></trkpt><trkpt lat="44.8667284" lon="12.2308644"><ele>-3.5</ele><time>2026-04-24T11:13:08.255Z</time></trkpt><trkpt lat="44.8667518" lon="12.2309681"><ele>-3.333333333333333</ele><time>2026-04-24T11:13:09.256Z</time></trkpt><trkpt lat="44.8667755" lon="12.2310735"><ele>-3.1666666666666665</ele><time>2026-04-24T11:13:10.256Z</time></trkpt><trkpt lat="44.8667981" lon="12.2311771"><ele>-3.0</ele><time>2026-04-24T11:13:11.255Z</time></trkpt><trkpt lat="44.8668194" lon="12.2312867"><ele>-2.8333333333333335</ele><time>2026-04-24T11:13:12.255Z</time></trkpt><trkpt lat="44.866842" lon="12.2313996"><ele>-2.6666666666666665</ele><time>2026-04-24T11:13:13.256Z</time></trkpt><trkpt lat="44.8668616" lon="12.231497"><ele>-2.5</ele><time>2026-04-24T11:13:14.255Z</time></trkpt><trkpt lat="44.8668843" lon="12.2315889"><ele>-2.333333333333333</ele><time>2026-04-24T11:13:15.255Z</time></trkpt><trkpt lat="44.866918" lon="12.2317264"><ele>-2.1666666666666665</ele><time>2026-04-24T11:13:17.255Z</time></trkpt><trkpt lat="44.8669511" lon="12.2318376"><ele>-2.0</ele><time>2026-04-24T11:13:20.255Z</time></trkpt><trkpt lat="44.8669549" lon="12.2319361"><ele>-1.9999999999999998</ele><time>2026-04-24T11:13:28.256Z</time></trkpt><trkpt lat="44.8668796" lon="12.2319775"><ele>-2.0</ele><time>2026-04-24T11:13:30.256Z</time></trkpt><trkpt lat="44.8667582" lon="12.2319979"><ele>-2.0</ele><time>2026-04-24T11:13:32.256Z</time></trkpt><trkpt lat="44.8666949" lon="12.2320176"><ele>-2.0</ele><time>2026-04-24T11:13:33.255Z</time></trkpt><trkpt lat="44.8666174" lon="12.2320418"><ele>-1.9999999999999998</ele><time>2026-04-24T11:13:34.256Z</time></trkpt><trkpt lat="44.8665255" lon="12.2320642"><ele>-2.0</ele><time>2026-04-24T11:13:35.255Z</time></trkpt><trkpt lat="44.8664336" lon="12.2320861"><ele>-2.25</ele><time>2026-04-24T11:13:36.256Z</time></trkpt><trkpt lat="44.866331" lon="12.232109"><ele>-2.5</ele><time>2026-04-24T11:13:37.256Z</time></trkpt><trkpt lat="44.8662173" lon="12.2321316"><ele>-2.75</ele><time>2026-04-24T11:13:38.256Z</time></trkpt><trkpt lat="44.8660948" lon="12.2321581"><ele>-3.0</ele><time>2026-04-24T11:13:39.255Z</time></trkpt><trkpt lat="44.8659709" lon="12.2321912"><ele>-2.25</ele><time>2026-04-24T11:13:40.256Z</time></trkpt><trkpt lat="44.8658387" lon="12.2322277"><ele>-1.5</ele><time>2026-04-24T11:13:41.256Z</time></trkpt><trkpt lat="44.8657017" lon="12.2322626"><ele>-0.75</ele><time>2026-04-24T11:13:42.255Z</time></trkpt><trkpt lat="44.8655626" lon="12.232298"><ele>0.0</ele><time>2026-04-24T11:13:43.256Z</time></trkpt><trkpt lat="44.8654284" lon="12.2323306"><ele>0.0</ele><time>2026-04-24T11:13:44.256Z</time></trkpt><trkpt lat="44.8652918" lon="12.2323654"><ele>0.0</ele><time>2026-04-24T11:13:45.256Z</time></trkpt><trkpt lat="44.8651605" lon="12.2323935"><ele>0.0</ele><time>2026-04-24T11:13:46.255Z</time></trkpt><trkpt lat="44.8650334" lon="12.2324247"><ele>0.0</ele><time>2026-04-24T11:13:47.255Z</time></trkpt><trkpt lat="44.8649107" lon="12.2324494"><ele>0.0</ele><time>2026-04-24T11:13:48.256Z</time></trkpt><trkpt lat="44.8647846" lon="12.2324768"><ele>0.0</ele><time>2026-04-24T11:13:49.256Z</time></trkpt><trkpt lat="44.8646596" lon="12.2325022"><ele>0.0</ele><time>2026-04-24T11:13:50.255Z</time></trkpt><trkpt lat="44.8645368" lon="12.2325248"><ele>0.0</ele><time>2026-04-24T11:13:51.255Z</time></trkpt><trkpt lat="44.8644127" lon="12.2325546"><ele>0.0</ele><time>2026-04-24T11:13:52.255Z</time></trkpt><trkpt lat="44.8642971" lon="12.232584"><ele>0.0</ele><time>2026-04-24T11:13:53.256Z</time></trkpt><trkpt lat="44.8641913" lon="12.2326078"><ele>0.0</ele><time>2026-04-24T11:13:54.255Z</time></trkpt><trkpt lat="44.8641031" lon="12.2326331"><ele>0.0</ele><time>2026-04-24T11:13:55.255Z</time></trkpt><trkpt lat="44.8640313" lon="12.2326502"><ele>0.0</ele><time>2026-04-24T11:13:56.255Z</time></trkpt><trkpt lat="44.863938" lon="12.2326887"><ele>-0.3333333333333333</ele><time>2026-04-24T11:13:58.255Z</time></trkpt><trkpt lat="44.863901" lon="12.2328121"><ele>-0.6666666666666666</ele><time>2026-04-24T11:14:00.255Z</time></trkpt><trkpt lat="44.8639112" lon="12.2329065"><ele>-1.0</ele><time>2026-04-24T11:14:01.255Z</time></trkpt><trkpt lat="44.863927" lon="12.2330225"><ele>-1.3333333333333333</ele><time>2026-04-24T11:14:02.255Z</time></trkpt><trkpt lat="44.8639418" lon="12.2331492"><ele>-1.6666666666666665</ele><time>2026-04-24T11:14:03.256Z</time></trkpt><trkpt lat="44.8639478" lon="12.2332812"><ele>-2.0</ele><time>2026-04-24T11:14:04.256Z</time></trkpt><trkpt lat="44.8639489" lon="12.2334367"><ele>-2.25</ele><time>2026-04-24T11:14:05.254Z</time></trkpt><trkpt lat="44.8639365" lon="12.2336015"><ele>-2.5</ele><time>2026-04-24T11:14:06.256Z</time></trkpt><trkpt lat="44.8639111" lon="12.2337674"><ele>-2.75</ele><time>2026-04-24T11:14:07.255Z</time></trkpt><trkpt lat="44.8638734" lon="12.2339441"><ele>-3.0</ele><time>2026-04-24T11:14:08.255Z</time></trkpt><trkpt lat="44.8638278" lon="12.2341254"><ele>-3.25</ele><time>2026-04-24T11:14:09.255Z</time></trkpt><trkpt lat="44.8637883" lon="12.2343183"><ele>-3.5</ele><time>2026-04-24T11:14:10.255Z</time></trkpt><trkpt lat="44.8637528" lon="12.2345212"><ele>-3.75</ele><time>2026-04-24T11:14:11.256Z</time></trkpt><trkpt lat="44.8637237" lon="12.2347258"><ele>-4.0</ele><time>2026-04-24T11:14:12.255Z</time></trkpt><trkpt lat="44.8637118" lon="12.2349397"><ele>-4.0</ele><time>2026-04-24T11:14:13.256Z</time></trkpt><trkpt lat="44.8637132" lon="12.2351516"><ele>-4.0</ele><time>2026-04-24T11:14:14.255Z</time></trkpt><trkpt lat="44.8637197" lon="12.2353587"><ele>-4.0</ele><time>2026-04-24T11:14:15.256Z</time></trkpt><trkpt lat="44.8637382" lon="12.2355708"><ele>-4.0</ele><time>2026-04-24T11:14:16.255Z</time></trkpt><trkpt lat="44.8637649" lon="12.2357855"><ele>-3.6666666666666665</ele><time>2026-04-24T11:14:17.255Z</time></trkpt><trkpt lat="44.8637924" lon="12.2360025"><ele>-3.333333333333333</ele><time>2026-04-24T11:14:18.255Z</time></trkpt><trkpt lat="44.8638301" lon="12.2362211"><ele>-3.0</ele><time>2026-04-24T11:14:19.255Z</time></trkpt><trkpt lat="44.8638786" lon="12.2364405"><ele>-3.0</ele><time>2026-04-24T11:14:20.255Z</time></trkpt><trkpt lat="44.8639293" lon="12.2366682"><ele>-3.0</ele><time>2026-04-24T11:14:21.256Z</time></trkpt><trkpt lat="44.8639861" lon="12.2368918"><ele>-3.0</ele><time>2026-04-24T11:14:22.254Z</time></trkpt><trkpt lat="44.864039" lon="12.2371233"><ele>-3.0</ele><time>2026-04-24T11:14:23.256Z</time></trkpt><trkpt lat="44.8640941" lon="12.2373557"><ele>-3.0</ele><time>2026-04-24T11:14:24.255Z</time></trkpt><trkpt lat="44.8641522" lon="12.23759"><ele>-3.0</ele><time>2026-04-24T11:14:25.256Z</time></trkpt><trkpt lat="44.8642113" lon="12.2378248"><ele>-3.0</ele><time>2026-04-24T11:14:26.255Z</time></trkpt><trkpt lat="44.8642693" lon="12.2380651"><ele>-3.0</ele><time>2026-04-24T11:14:27.256Z</time></trkpt><trkpt lat="44.8643247" lon="12.238298"><ele>-3.0</ele><time>2026-04-24T11:14:28.255Z</time></trkpt><trkpt lat="44.8643731" lon="12.2385102"><ele>-3.0</ele><time>2026-04-24T11:14:29.255Z</time></trkpt><trkpt lat="44.8644182" lon="12.2387065"><ele>-3.0</ele><time>2026-04-24T11:14:30.256Z</time></trkpt><trkpt lat="44.8644588" lon="12.238876"><ele>-3.0</ele><time>2026-04-24T11:14:31.256Z</time></trkpt><trkpt lat="44.8644922" lon="12.2390096"><ele>-3.0</ele><time>2026-04-24T11:14:32.255Z</time></trkpt><trkpt lat="44.8645287" lon="12.2391243"><ele>-3.0</ele><time>2026-04-24T11:14:33.256Z</time></trkpt><trkpt lat="44.8645725" lon="12.2392143"><ele>-3.0</ele><time>2026-04-24T11:14:34.255Z</time></trkpt><trkpt lat="44.8646317" lon="12.2392882"><ele>-3.0</ele><time>2026-04-24T11:14:35.255Z</time></trkpt><trkpt lat="44.8647094" lon="12.2393376"><ele>-3.0</ele><time>2026-04-24T11:14:36.256Z</time></trkpt><trkpt lat="44.8648028" lon="12.2393608"><ele>-3.0</ele><time>2026-04-24T11:14:37.255Z</time></trkpt><trkpt lat="44.8648979" lon="12.2393593"><ele>-3.0</ele><time>2026-04-24T11:14:38.256Z</time></trkpt><trkpt lat="44.864974" lon="12.2393515"><ele>-3.0</ele><time>2026-04-24T11:14:39.255Z</time></trkpt><trkpt lat="44.8650713" lon="12.2394058"><ele>-3.0</ele><time>2026-04-24T11:14:41.256Z</time></trkpt><trkpt lat="44.865103" lon="12.2395599"><ele>-3.0</ele><time>2026-04-24T11:14:43.255Z</time></trkpt><trkpt lat="44.8651069" lon="12.239671"><ele>-3.0</ele><time>2026-04-24T11:14:44.255Z</time></trkpt><trkpt lat="44.8651131" lon="12.2398055"><ele>-3.0</ele><time>2026-04-24T11:14:45.256Z</time></trkpt><trkpt lat="44.8651276" lon="12.2399374"><ele>-3.25</ele><time>2026-04-24T11:14:46.255Z</time></trkpt><trkpt lat="44.8651455" lon="12.2400725"><ele>-3.5</ele><time>2026-04-24T11:14:47.256Z</time></trkpt><trkpt lat="44.8651645" lon="12.2402351"><ele>-3.75</ele><time>2026-04-24T11:14:48.255Z</time></trkpt><trkpt lat="44.8651791" lon="12.2404158"><ele>-4.0</ele><time>2026-04-24T11:14:49.255Z</time></trkpt><trkpt lat="44.8651929" lon="12.2406095"><ele>-3.75</ele><time>2026-04-24T11:14:50.256Z</time></trkpt><trkpt lat="44.865207" lon="12.2408068"><ele>-3.5</ele><time>2026-04-24T11:14:51.256Z</time></trkpt><trkpt lat="44.8652186" lon="12.240995"><ele>-3.25</ele><time>2026-04-24T11:14:52.256Z</time></trkpt><trkpt lat="44.8652307" lon="12.2411896"><ele>-3.0</ele><time>2026-04-24T11:14:53.256Z</time></trkpt><trkpt lat="44.8652469" lon="12.2414002"><ele>-3.0</ele><time>2026-04-24T11:14:54.255Z</time></trkpt><trkpt lat="44.8652648" lon="12.2416167"><ele>-3.0</ele><time>2026-04-24T11:14:55.255Z</time></trkpt><trkpt lat="44.8652809" lon="12.2418294"><ele>-3.0</ele><time>2026-04-24T11:14:56.256Z</time></trkpt><trkpt lat="44.8652956" lon="12.242045"><ele>-3.0</ele><time>2026-04-24T11:14:57.256Z</time></trkpt><trkpt lat="44.8653103" lon="12.2422715"><ele>-3.0</ele><time>2026-04-24T11:14:58.256Z</time></trkpt><trkpt lat="44.8653268" lon="12.2425057"><ele>-3.0</ele><time>2026-04-24T11:14:59.256Z</time></trkpt><trkpt lat="44.8653436" lon="12.2427452"><ele>-2.6666666666666665</ele><time>2026-04-24T11:15:00.255Z</time></trkpt><trkpt lat="44.86536" lon="12.2429901"><ele>-2.333333333333333</ele><time>2026-04-24T11:15:01.255Z</time></trkpt><trkpt lat="44.8653791" lon="12.2432381"><ele>-2.0</ele><time>2026-04-24T11:15:02.255Z</time></trkpt><trkpt lat="44.8654009" lon="12.2434872"><ele>-2.0</ele><time>2026-04-24T11:15:03.255Z</time></trkpt><trkpt lat="44.8654225" lon="12.2437378"><ele>-2.0</ele><time>2026-04-24T11:15:04.256Z</time></trkpt><trkpt lat="44.8654419" lon="12.2439907"><ele>-2.0</ele><time>2026-04-24T11:15:05.256Z</time></trkpt><trkpt lat="44.8654589" lon="12.2442328"><ele>-2.0</ele><time>2026-04-24T11:15:06.255Z</time></trkpt><trkpt lat="44.8654739" lon="12.2444588"><ele>-2.0</ele><time>2026-04-24T11:15:07.255Z</time></trkpt><trkpt lat="44.8654908" lon="12.2446766"><ele>-2.0</ele><time>2026-04-24T11:15:08.256Z</time></trkpt><trkpt lat="44.8655077" lon="12.244883"><ele>-2.0</ele><time>2026-04-24T11:15:09.256Z</time></trkpt><trkpt lat="44.8655221" lon="12.2450634"><ele>-2.0</ele><time>2026-04-24T11:15:10.256Z</time></trkpt><trkpt lat="44.8655332" lon="12.2452116"><ele>-2.0</ele><time>2026-04-24T11:15:11.255Z</time></trkpt><trkpt lat="44.8655408" lon="12.2453394"><ele>-2.0</ele><time>2026-04-24T11:15:12.255Z</time></trkpt><trkpt lat="44.8655471" lon="12.245446"><ele>-2.0</ele><time>2026-04-24T11:15:13.256Z</time></trkpt><trkpt lat="44.8655538" lon="12.2455981"><ele>-2.0</ele><time>2026-04-24T11:15:15.255Z</time></trkpt><trkpt lat="44.8655659" lon="12.2457805"><ele>-2.0</ele><time>2026-04-24T11:15:17.256Z</time></trkpt><trkpt lat="44.8655779" lon="12.2459028"><ele>-2.0</ele><time>2026-04-24T11:15:18.255Z</time></trkpt><trkpt lat="44.8655874" lon="12.2460344"><ele>-2.0</ele><time>2026-04-24T11:15:19.256Z</time></trkpt><trkpt lat="44.8655967" lon="12.2461775"><ele>-2.0</ele><time>2026-04-24T11:15:20.255Z</time></trkpt><trkpt lat="44.8656083" lon="12.246337"><ele>-2.0</ele><time>2026-04-24T11:15:21.255Z</time></trkpt><trkpt lat="44.8656189" lon="12.246502"><ele>-2.0</ele><time>2026-04-24T11:15:22.256Z</time></trkpt><trkpt lat="44.8656288" lon="12.246651"><ele>-2.0</ele><time>2026-04-24T11:15:23.255Z</time></trkpt><trkpt lat="44.8656372" lon="12.2467708"><ele>-2.0</ele><time>2026-04-24T11:15:24.256Z</time></trkpt><trkpt lat="44.8656468" lon="12.2468596"><ele>-2.0</ele><time>2026-04-24T11:15:25.256Z</time></trkpt><trkpt lat="44.8656984" lon="12.2469693"><ele>-2.0</ele><time>2026-04-24T11:15:27.255Z</time></trkpt><trkpt lat="44.8658194" lon="12.2470218"><ele>-2.0</ele><time>2026-04-24T11:15:29.255Z</time></trkpt><trkpt lat="44.865905" lon="12.2470346"><ele>-2.0</ele><time>2026-04-24T11:15:30.256Z</time></trkpt><trkpt lat="44.8660064" lon="12.2470498"><ele>-2.0</ele><time>2026-04-24T11:15:31.255Z</time></trkpt><trkpt lat="44.8661117" lon="12.2470684"><ele>-2.0</ele><time>2026-04-24T11:15:32.256Z</time></trkpt><trkpt lat="44.8662256" lon="12.24709"><ele>-2.0</ele><time>2026-04-24T11:15:33.256Z</time></trkpt><trkpt lat="44.8663532" lon="12.2471198"><ele>-2.0</ele><time>2026-04-24T11:15:34.256Z</time></trkpt><trkpt lat="44.8664904" lon="12.2471528"><ele>-2.0</ele><time>2026-04-24T11:15:35.255Z</time></trkpt><trkpt lat="44.8666388" lon="12.2471835"><ele>-2.0</ele><time>2026-04-24T11:15:36.255Z</time></trkpt><trkpt lat="44.8667964" lon="12.247213"><ele>-2.333333333333333</ele><time>2026-04-24T11:15:37.256Z</time></trkpt><trkpt lat="44.8669624" lon="12.247244"><ele>-2.6666666666666665</ele><time>2026-04-24T11:15:38.255Z</time></trkpt><trkpt lat="44.8671311" lon="12.2472776"><ele>-3.0</ele><time>2026-04-24T11:15:39.256Z</time></trkpt><trkpt lat="44.8673031" lon="12.2473125"><ele>-3.0</ele><time>2026-04-24T11:15:40.255Z</time></trkpt><trkpt lat="44.8674866" lon="12.2473496"><ele>-3.0</ele><time>2026-04-24T11:15:41.255Z</time></trkpt><trkpt lat="44.8676685" lon="12.247386"><ele>-3.0</ele><time>2026-04-24T11:15:42.256Z</time></trkpt><trkpt lat="44.8678509" lon="12.2474237"><ele>-3.0</ele><time>2026-04-24T11:15:43.255Z</time></trkpt><trkpt lat="44.8680181" lon="12.2474572"><ele>-3.0</ele><time>2026-04-24T11:15:44.254Z</time></trkpt><trkpt lat="44.8681788" lon="12.2474944"><ele>-3.0</ele><time>2026-04-24T11:15:45.256Z</time></trkpt><trkpt lat="44.8683293" lon="12.2475283"><ele>-3.0</ele><time>2026-04-24T11:15:46.256Z</time></trkpt><trkpt lat="44.8684744" lon="12.2475652"><ele>-3.0</ele><time>2026-04-24T11:15:47.255Z</time></trkpt><trkpt lat="44.8686137" lon="12.2476066"><ele>-3.0</ele><time>2026-04-24T11:15:48.256Z</time></trkpt><trkpt lat="44.8687538" lon="12.2476571"><ele>-3.0</ele><time>2026-04-24T11:15:49.256Z</time></trkpt><trkpt lat="44.8688875" lon="12.2477083"><ele>-3.0</ele><time>2026-04-24T11:15:50.256Z</time></trkpt><trkpt lat="44.8690122" lon="12.2477545"><ele>-3.0</ele><time>2026-04-24T11:15:51.256Z</time></trkpt><trkpt lat="44.8691237" lon="12.2477973"><ele>-3.0</ele><time>2026-04-24T11:15:52.255Z</time></trkpt><trkpt lat="44.8692223" lon="12.2478382"><ele>-3.0</ele><time>2026-04-24T11:15:53.256Z</time></trkpt><trkpt lat="44.8693037" lon="12.2478673"><ele>-3.0</ele><time>2026-04-24T11:15:54.256Z</time></trkpt><trkpt lat="44.8693689" lon="12.2478972"><ele>-3.0</ele><time>2026-04-24T11:15:55.255Z</time></trkpt><trkpt lat="44.869465" lon="12.2479454"><ele>-3.0</ele><time>2026-04-24T11:15:57.255Z</time></trkpt><trkpt lat="44.8695286" lon="12.2480125"><ele>-3.0</ele><time>2026-04-24T11:16:00.255Z</time></trkpt><trkpt lat="44.8695334" lon="12.2481562"><ele>-3.0</ele><time>2026-04-24T11:16:03.255Z</time></trkpt><trkpt lat="44.8694956" lon="12.2482336"><ele>-3.0</ele><time>2026-04-24T11:16:04.256Z</time></trkpt><trkpt lat="44.869446" lon="12.2483049"><ele>-3.0</ele><time>2026-04-24T11:16:05.255Z</time></trkpt><trkpt lat="44.8693848" lon="12.2483883"><ele>-3.0</ele><time>2026-04-24T11:16:06.256Z</time></trkpt><trkpt lat="44.8693199" lon="12.2484937"><ele>-3.0</ele><time>2026-04-24T11:16:07.255Z</time></trkpt><trkpt lat="44.8692481" lon="12.2486063"><ele>-3.0</ele><time>2026-04-24T11:16:08.255Z</time></trkpt><trkpt lat="44.8691806" lon="12.2487288"><ele>-3.0</ele><time>2026-04-24T11:16:09.255Z</time></trkpt><trkpt lat="44.8690989" lon="12.2488611"><ele>-3.0</ele><time>2026-04-24T11:16:10.256Z</time></trkpt><trkpt lat="44.8690179" lon="12.2489976"><ele>-3.5</ele><time>2026-04-24T11:16:11.256Z</time></trkpt><trkpt lat="44.8689341" lon="12.2491417"><ele>-4.0</ele><time>2026-04-24T11:16:12.255Z</time></trkpt><trkpt lat="44.8688443" lon="12.2492969"><ele>-4.5</ele><time>2026-04-24T11:16:13.255Z</time></trkpt><trkpt lat="44.868746" lon="12.249459"><ele>-5.0</ele><time>2026-04-24T11:16:14.255Z</time></trkpt><trkpt lat="44.8686471" lon="12.2496259"><ele>-5.0</ele><time>2026-04-24T11:16:15.255Z</time></trkpt><trkpt lat="44.8685489" lon="12.2497906"><ele>-5.0</ele><time>2026-04-24T11:16:16.255Z</time></trkpt><trkpt lat="44.8684502" lon="12.2499589"><ele>-5.0</ele><time>2026-04-24T11:16:17.255Z</time></trkpt><trkpt lat="44.8683479" lon="12.2501303"><ele>-4.666666666666667</ele><time>2026-04-24T11:16:18.256Z</time></trkpt><trkpt lat="44.8682421" lon="12.2503075"><ele>-4.333333333333333</ele><time>2026-04-24T11:16:19.256Z</time></trkpt><trkpt lat="44.8681326" lon="12.2504882"><ele>-4.0</ele><time>2026-04-24T11:16:20.256Z</time></trkpt><trkpt lat="44.8680218" lon="12.2506728"><ele>-3.333333333333333</ele><time>2026-04-24T11:16:21.255Z</time></trkpt><trkpt lat="44.8679155" lon="12.250851"><ele>-2.6666666666666665</ele><time>2026-04-24T11:16:22.255Z</time></trkpt><trkpt lat="44.8678043" lon="12.2510346"><ele>-2.0</ele><time>2026-04-24T11:16:23.255Z</time></trkpt><trkpt lat="44.8676904" lon="12.2512224"><ele>-2.333333333333333</ele><time>2026-04-24T11:16:24.255Z</time></trkpt><trkpt lat="44.8675785" lon="12.2514132"><ele>-2.6666666666666665</ele><time>2026-04-24T11:16:25.255Z</time></trkpt><trkpt lat="44.8674626" lon="12.2516123"><ele>-3.0</ele><time>2026-04-24T11:16:26.255Z</time></trkpt><trkpt lat="44.8673467" lon="12.2518083"><ele>-3.0</ele><time>2026-04-24T11:16:27.255Z</time></trkpt><trkpt lat="44.8672313" lon="12.25201"><ele>-3.0</ele><time>2026-04-24T11:16:28.256Z</time></trkpt><trkpt lat="44.8671241" lon="12.2522006"><ele>-3.0</ele><time>2026-04-24T11:16:29.256Z</time></trkpt><trkpt lat="44.8670271" lon="12.2523844"><ele>-1.6666666666666667</ele><time>2026-04-24T11:16:30.255Z</time></trkpt><trkpt lat="44.8669433" lon="12.2525723"><ele>-0.33333333333333337</ele><time>2026-04-24T11:16:31.255Z</time></trkpt><trkpt lat="44.866868" lon="12.2527661"><ele>1.0</ele><time>2026-04-24T11:16:32.256Z</time></trkpt><trkpt lat="44.8668042" lon="12.2529713"><ele>1.6666666666666665</ele><time>2026-04-24T11:16:33.255Z</time></trkpt><trkpt lat="44.866751" lon="12.2531835"><ele>2.3333333333333335</ele><time>2026-04-24T11:16:34.256Z</time></trkpt><trkpt lat="44.8667166" lon="12.2534038"><ele>3.0</ele><time>2026-04-24T11:16:35.256Z</time></trkpt><trkpt lat="44.8666959" lon="12.2536345"><ele>3.0</ele><time>2026-04-24T11:16:36.255Z</time></trkpt><trkpt lat="44.8666911" lon="12.2538642"><ele>3.0</ele><time>2026-04-24T11:16:37.256Z</time></trkpt><trkpt lat="44.8667005" lon="12.2541016"><ele>3.0</ele><time>2026-04-24T11:16:38.255Z</time></trkpt><trkpt lat="44.8667232" lon="12.2543433"><ele>3.333333333333333</ele><time>2026-04-24T11:16:39.256Z</time></trkpt><trkpt lat="44.8667549" lon="12.2545812"><ele>3.6666666666666665</ele><time>2026-04-24T11:16:40.255Z</time></trkpt><trkpt lat="44.8667938" lon="12.2548221"><ele>4.0</ele><time>2026-04-24T11:16:41.255Z</time></trkpt><trkpt lat="44.8668337" lon="12.255067"><ele>4.666666666666666</ele><time>2026-04-24T11:16:42.256Z</time></trkpt><trkpt lat="44.8668759" lon="12.2553169"><ele>5.333333333333333</ele><time>2026-04-24T11:16:43.254Z</time></trkpt><trkpt lat="44.8669219" lon="12.2555683"><ele>6.0</ele><time>2026-04-24T11:16:44.255Z</time></trkpt><trkpt lat="44.866969" lon="12.2558268"><ele>6.0</ele><time>2026-04-24T11:16:45.256Z</time></trkpt><trkpt lat="44.8670182" lon="12.2560906"><ele>6.0</ele><time>2026-04-24T11:16:46.256Z</time></trkpt><trkpt lat="44.8670686" lon="12.2563531"><ele>6.0</ele><time>2026-04-24T11:16:47.256Z</time></trkpt><trkpt lat="44.8671183" lon="12.2566103"><ele>6.0</ele><time>2026-04-24T11:16:48.256Z</time></trkpt><trkpt lat="44.8671663" lon="12.256871"><ele>6.0</ele><time>2026-04-24T11:16:49.255Z</time></trkpt><trkpt lat="44.8672134" lon="12.257133"><ele>6.0</ele><time>2026-04-24T11:16:50.256Z</time></trkpt><trkpt lat="44.8672622" lon="12.257397"><ele>5.666666666666667</ele><time>2026-04-24T11:16:51.256Z</time></trkpt><trkpt lat="44.8673105" lon="12.2576603"><ele>5.333333333333334</ele><time>2026-04-24T11:16:52.256Z</time></trkpt><trkpt lat="44.8673589" lon="12.2579243"><ele>5.0</ele><time>2026-04-24T11:16:53.256Z</time></trkpt><trkpt lat="44.8674071" lon="12.2581916"><ele>5.0</ele><time>2026-04-24T11:16:54.256Z</time></trkpt><trkpt lat="44.8674526" lon="12.2584588"><ele>5.0</ele><time>2026-04-24T11:16:55.256Z</time></trkpt><trkpt lat="44.8675001" lon="12.2587224"><ele>5.0</ele><time>2026-04-24T11:16:56.256Z</time></trkpt><trkpt lat="44.8675499" lon="12.2589931"><ele>5.0</ele><time>2026-04-24T11:16:57.255Z</time></trkpt><trkpt lat="44.8675994" lon="12.2592603"><ele>5.0</ele><time>2026-04-24T11:16:58.255Z</time></trkpt><trkpt lat="44.8676502" lon="12.259527"><ele>5.0</ele><time>2026-04-24T11:16:59.255Z</time></trkpt><trkpt lat="44.8677002" lon="12.2597959"><ele>5.0</ele><time>2026-04-24T11:17:00.256Z</time></trkpt><trkpt lat="44.8677505" lon="12.2600658"><ele>5.0</ele><time>2026-04-24T11:17:01.255Z</time></trkpt><trkpt lat="44.8677964" lon="12.2603365"><ele>5.0</ele><time>2026-04-24T11:17:02.256Z</time></trkpt><trkpt lat="44.867846" lon="12.260608"><ele>4.333333333333334</ele><time>2026-04-24T11:17:03.256Z</time></trkpt><trkpt lat="44.8678952" lon="12.260881"><ele>3.666666666666667</ele><time>2026-04-24T11:17:04.255Z</time></trkpt><trkpt lat="44.8679473" lon="12.261153"><ele>3.0</ele><time>2026-04-24T11:17:05.254Z</time></trkpt><trkpt lat="44.8679995" lon="12.2614286"><ele>4.0</ele><time>2026-04-24T11:17:06.256Z</time></trkpt><trkpt lat="44.8680478" lon="12.2617047"><ele>5.0</ele><time>2026-04-24T11:17:07.256Z</time></trkpt><trkpt lat="44.8680997" lon="12.2619812"><ele>6.0</ele><time>2026-04-24T11:17:08.256Z</time></trkpt><trkpt lat="44.8681509" lon="12.262253"><ele>6.0</ele><time>2026-04-24T11:17:09.255Z</time></trkpt><trkpt lat="44.8681997" lon="12.262529"><ele>6.0</ele><time>2026-04-24T11:17:10.256Z</time></trkpt><trkpt lat="44.8682478" lon="12.2628062"><ele>6.0</ele><time>2026-04-24T11:17:11.255Z</time></trkpt><trkpt lat="44.8682965" lon="12.2630821"><ele>6.333333333333334</ele><time>2026-04-24T11:17:12.256Z</time></trkpt><trkpt lat="44.8683441" lon="12.263361"><ele>6.666666666666667</ele><time>2026-04-24T11:17:13.256Z</time></trkpt><trkpt lat="44.8683943" lon="12.2636446"><ele>7.0</ele><time>2026-04-24T11:17:14.255Z</time></trkpt><trkpt lat="44.8684442" lon="12.2639253"><ele>7.0</ele><time>2026-04-24T11:17:15.255Z</time></trkpt><trkpt lat="44.8684939" lon="12.2642034"><ele>7.0</ele><time>2026-04-24T11:17:16.256Z</time></trkpt><trkpt lat="44.8685469" lon="12.2644849"><ele>7.0</ele><time>2026-04-24T11:17:17.256Z</time></trkpt><trkpt lat="44.8686003" lon="12.2647616"><ele>7.333333333333334</ele><time>2026-04-24T11:17:18.255Z</time></trkpt><trkpt lat="44.8686509" lon="12.2650361"><ele>7.666666666666666</ele><time>2026-04-24T11:17:19.255Z</time></trkpt><trkpt lat="44.8686982" lon="12.2653073"><ele>8.0</ele><time>2026-04-24T11:17:20.256Z</time></trkpt><trkpt lat="44.8687449" lon="12.2655755"><ele>7.333333333333333</ele><time>2026-04-24T11:17:21.254Z</time></trkpt><trkpt lat="44.8687945" lon="12.2658437"><ele>6.666666666666666</ele><time>2026-04-24T11:17:22.255Z</time></trkpt><trkpt lat="44.868845" lon="12.2661113"><ele>6.0</ele><time>2026-04-24T11:17:23.254Z</time></trkpt><trkpt lat="44.8688945" lon="12.2663782"><ele>3.6666666666666665</ele><time>2026-04-24T11:17:24.255Z</time></trkpt><trkpt lat="44.8689435" lon="12.2666466"><ele>1.3333333333333335</ele><time>2026-04-24T11:17:25.254Z</time></trkpt><trkpt lat="44.8689934" lon="12.2669149"><ele>-1.0</ele><time>2026-04-24T11:17:26.254Z</time></trkpt><trkpt lat="44.8690442" lon="12.2671852"><ele>-1.3333333333333333</ele><time>2026-04-24T11:17:27.255Z</time></trkpt><trkpt lat="44.8690962" lon="12.2674574"><ele>-1.6666666666666665</ele><time>2026-04-24T11:17:28.255Z</time></trkpt><trkpt lat="44.8691464" lon="12.2677299"><ele>-2.0</ele><time>2026-04-24T11:17:29.254Z</time></trkpt><trkpt lat="44.8691955" lon="12.2680016"><ele>-2.0</ele><time>2026-04-24T11:17:30.255Z</time></trkpt><trkpt lat="44.869243" lon="12.2682736"><ele>-2.0</ele><time>2026-04-24T11:17:31.254Z</time></trkpt><trkpt lat="44.8692876" lon="12.2685483"><ele>-2.0</ele><time>2026-04-24T11:17:32.255Z</time></trkpt><trkpt lat="44.8693353" lon="12.2688204"><ele>-2.333333333333333</ele><time>2026-04-24T11:17:33.254Z</time></trkpt><trkpt lat="44.8693862" lon="12.2690931"><ele>-2.6666666666666665</ele><time>2026-04-24T11:17:34.254Z</time></trkpt><trkpt lat="44.8694365" lon="12.2693652"><ele>-3.0</ele><time>2026-04-24T11:17:35.255Z</time></trkpt><trkpt lat="44.8694852" lon="12.2696348"><ele>-3.333333333333333</ele><time>2026-04-24T11:17:36.254Z</time></trkpt><trkpt lat="44.8695353" lon="12.2699015"><ele>-3.6666666666666665</ele><time>2026-04-24T11:17:37.254Z</time></trkpt><trkpt lat="44.869581" lon="12.2701694"><ele>-4.0</ele><time>2026-04-24T11:17:38.255Z</time></trkpt><trkpt lat="44.8696266" lon="12.2704364"><ele>-3.6666666666666665</ele><time>2026-04-24T11:17:39.255Z</time></trkpt><trkpt lat="44.869672" lon="12.2707001"><ele>-3.333333333333333</ele><time>2026-04-24T11:17:40.254Z</time></trkpt><trkpt lat="44.8697172" lon="12.2709637"><ele>-3.0</ele><time>2026-04-24T11:17:41.255Z</time></trkpt><trkpt lat="44.8697612" lon="12.2712245"><ele>-2.6666666666666665</ele><time>2026-04-24T11:17:42.255Z</time></trkpt><trkpt lat="44.8698035" lon="12.2714759"><ele>-2.333333333333333</ele><time>2026-04-24T11:17:43.255Z</time></trkpt><trkpt lat="44.8698464" lon="12.2717205"><ele>-2.0</ele><time>2026-04-24T11:17:44.254Z</time></trkpt><trkpt lat="44.8698883" lon="12.2719675"><ele>-2.0</ele><time>2026-04-24T11:17:45.255Z</time></trkpt><trkpt lat="44.8699281" lon="12.2722199"><ele>-2.0</ele><time>2026-04-24T11:17:46.253Z</time></trkpt><trkpt lat="44.8699692" lon="12.2724797"><ele>-2.0</ele><time>2026-04-24T11:17:47.253Z</time></trkpt><trkpt lat="44.8700123" lon="12.2727427"><ele>-2.333333333333333</ele><time>2026-04-24T11:17:48.255Z</time></trkpt><trkpt lat="44.8700583" lon="12.2730106"><ele>-2.6666666666666665</ele><time>2026-04-24T11:17:49.254Z</time></trkpt><trkpt lat="44.8701063" lon="12.2732822"><ele>-3.0</ele><time>2026-04-24T11:17:50.253Z</time></trkpt><trkpt lat="44.8701523" lon="12.2735557"><ele>-3.666666666666667</ele><time>2026-04-24T11:17:51.255Z</time></trkpt><trkpt lat="44.8702005" lon="12.2738312"><ele>-4.333333333333334</ele><time>2026-04-24T11:17:52.255Z</time></trkpt><trkpt lat="44.8702517" lon="12.2741074"><ele>-5.0</ele><time>2026-04-24T11:17:53.254Z</time></trkpt><trkpt lat="44.8703049" lon="12.2743857"><ele>-5.0</ele><time>2026-04-24T11:17:54.254Z</time></trkpt><trkpt lat="44.8703562" lon="12.2746647"><ele>-5.0</ele><time>2026-04-24T11:17:55.255Z</time></trkpt><trkpt lat="44.8704091" lon="12.2749439"><ele>-5.0</ele><time>2026-04-24T11:17:56.254Z</time></trkpt><trkpt lat="44.8704633" lon="12.2752251"><ele>-4.666666666666667</ele><time>2026-04-24T11:17:57.254Z</time></trkpt><trkpt lat="44.8705155" lon="12.2755052"><ele>-4.333333333333333</ele><time>2026-04-24T11:17:58.255Z</time></trkpt><trkpt lat="44.8705658" lon="12.275789"><ele>-4.0</ele><time>2026-04-24T11:17:59.255Z</time></trkpt><trkpt lat="44.8706189" lon="12.2760701"><ele>-4.0</ele><time>2026-04-24T11:18:00.254Z</time></trkpt><trkpt lat="44.8706697" lon="12.2763515"><ele>-4.0</ele><time>2026-04-24T11:18:01.255Z</time></trkpt><trkpt lat="44.8707202" lon="12.2766375"><ele>-4.0</ele><time>2026-04-24T11:18:02.254Z</time></trkpt><trkpt lat="44.8707734" lon="12.2769213"><ele>-4.0</ele><time>2026-04-24T11:18:03.255Z</time></trkpt><trkpt lat="44.8708277" lon="12.2772028"><ele>-4.0</ele><time>2026-04-24T11:18:04.254Z</time></trkpt><trkpt lat="44.8708798" lon="12.2774882"><ele>-4.0</ele><time>2026-04-24T11:18:05.255Z</time></trkpt><trkpt lat="44.8709325" lon="12.277775"><ele>-4.0</ele><time>2026-04-24T11:18:06.255Z</time></trkpt><trkpt lat="44.8709842" lon="12.2780529"><ele>-4.0</ele><time>2026-04-24T11:18:07.255Z</time></trkpt><trkpt lat="44.8710338" lon="12.2783145"><ele>-4.0</ele><time>2026-04-24T11:18:08.254Z</time></trkpt><trkpt lat="44.8710809" lon="12.2785585"><ele>-3.6666666666666665</ele><time>2026-04-24T11:18:09.255Z</time></trkpt><trkpt lat="44.8711264" lon="12.2787856"><ele>-3.333333333333333</ele><time>2026-04-24T11:18:10.255Z</time></trkpt><trkpt lat="44.8711649" lon="12.2789961"><ele>-3.0</ele><time>2026-04-24T11:18:11.254Z</time></trkpt><trkpt lat="44.871194" lon="12.279184"><ele>-2.8</ele><time>2026-04-24T11:18:12.255Z</time></trkpt><trkpt lat="44.8712206" lon="12.2793454"><ele>-2.5999999999999996</ele><time>2026-04-24T11:18:13.255Z</time></trkpt><trkpt lat="44.8712346" lon="12.2794918"><ele>-2.4000000000000004</ele><time>2026-04-24T11:18:14.254Z</time></trkpt><trkpt lat="44.8712376" lon="12.2796286"><ele>-2.2</ele><time>2026-04-24T11:18:15.255Z</time></trkpt><trkpt lat="44.8712289" lon="12.2797475"><ele>-2.0</ele><time>2026-04-24T11:18:16.254Z</time></trkpt><trkpt lat="44.8712078" lon="12.2798567"><ele>-2.333333333333333</ele><time>2026-04-24T11:18:17.254Z</time></trkpt><trkpt lat="44.8711933" lon="12.2799534"><ele>-2.6666666666666665</ele><time>2026-04-24T11:18:18.255Z</time></trkpt><trkpt lat="44.8712266" lon="12.2801063"><ele>-3.0</ele><time>2026-04-24T11:18:20.254Z</time></trkpt><trkpt lat="44.8713299" lon="12.2801919"><ele>-3.333333333333333</ele><time>2026-04-24T11:18:22.254Z</time></trkpt><trkpt lat="44.8713751" lon="12.2802586"><ele>-3.6666666666666665</ele><time>2026-04-24T11:18:23.255Z</time></trkpt><trkpt lat="44.8714154" lon="12.2803552"><ele>-4.0</ele><time>2026-04-24T11:18:24.255Z</time></trkpt><trkpt lat="44.8714489" lon="12.2804801"><ele>-4.0</ele><time>2026-04-24T11:18:25.254Z</time></trkpt><trkpt lat="44.8714771" lon="12.2806127"><ele>-4.0</ele><time>2026-04-24T11:18:26.254Z</time></trkpt><trkpt lat="44.8714998" lon="12.2807622"><ele>-4.0</ele><time>2026-04-24T11:18:27.254Z</time></trkpt><trkpt lat="44.8715279" lon="12.2809316"><ele>-4.0</ele><time>2026-04-24T11:18:28.255Z</time></trkpt><trkpt lat="44.8715562" lon="12.2811056"><ele>-4.0</ele><time>2026-04-24T11:18:29.255Z</time></trkpt><trkpt lat="44.87159" lon="12.2812872"><ele>-4.0</ele><time>2026-04-24T11:18:30.254Z</time></trkpt><trkpt lat="44.8716235" lon="12.2814838"><ele>-4.0</ele><time>2026-04-24T11:18:31.254Z</time></trkpt><trkpt lat="44.8716626" lon="12.2816897"><ele>-4.0</ele><time>2026-04-24T11:18:32.254Z</time></trkpt><trkpt lat="44.8716953" lon="12.2819028"><ele>-4.0</ele><time>2026-04-24T11:18:33.255Z</time></trkpt><trkpt lat="44.871735" lon="12.2821214"><ele>-4.0</ele><time>2026-04-24T11:18:34.255Z</time></trkpt><trkpt lat="44.8717758" lon="12.282341"><ele>-4.0</ele><time>2026-04-24T11:18:35.255Z</time></trkpt><trkpt lat="44.8718176" lon="12.2825555"><ele>-4.0</ele><time>2026-04-24T11:18:36.253Z</time></trkpt><trkpt lat="44.8718585" lon="12.2827697"><ele>-4.0</ele><time>2026-04-24T11:18:37.254Z</time></trkpt><trkpt lat="44.8718988" lon="12.2829799"><ele>-4.0</ele><time>2026-04-24T11:18:38.254Z</time></trkpt><trkpt lat="44.8719418" lon="12.2832037"><ele>-3.6666666666666665</ele><time>2026-04-24T11:18:39.255Z</time></trkpt><trkpt lat="44.871983" lon="12.2834296"><ele>-3.333333333333333</ele><time>2026-04-24T11:18:40.255Z</time></trkpt><trkpt lat="44.8720221" lon="12.2836555"><ele>-3.0</ele><time>2026-04-24T11:18:41.255Z</time></trkpt><trkpt lat="44.8720613" lon="12.2838773"><ele>-2.75</ele><time>2026-04-24T11:18:42.255Z</time></trkpt><trkpt lat="44.8720997" lon="12.2840832"><ele>-2.5</ele><time>2026-04-24T11:18:43.254Z</time></trkpt><trkpt lat="44.8721381" lon="12.2842735"><ele>-2.25</ele><time>2026-04-24T11:18:44.254Z</time></trkpt><trkpt lat="44.8721722" lon="12.2844498"><ele>-2.0</ele><time>2026-04-24T11:18:45.254Z</time></trkpt><trkpt lat="44.872201" lon="12.2846109"><ele>-2.0</ele><time>2026-04-24T11:18:46.253Z</time></trkpt><trkpt lat="44.8722251" lon="12.2847457"><ele>-2.0</ele><time>2026-04-24T11:18:47.254Z</time></trkpt><trkpt lat="44.8722446" lon="12.2848553"><ele>-2.0</ele><time>2026-04-24T11:18:48.255Z</time></trkpt><trkpt lat="44.8722385" lon="12.2850068"><ele>-2.0</ele><time>2026-04-24T11:18:50.254Z</time></trkpt><trkpt lat="44.8721473" lon="12.2850967"><ele>-2.0</ele><time>2026-04-24T11:18:52.255Z</time></trkpt><trkpt lat="44.8720738" lon="12.2851268"><ele>-2.0</ele><time>2026-04-24T11:18:53.255Z</time></trkpt><trkpt lat="44.8719792" lon="12.2851529"><ele>-2.0</ele><time>2026-04-24T11:18:54.254Z</time></trkpt><trkpt lat="44.8718853" lon="12.2851774"><ele>-2.0</ele><time>2026-04-24T11:18:55.254Z</time></trkpt><trkpt lat="44.8717748" lon="12.2852067"><ele>-2.0</ele><time>2026-04-24T11:18:56.254Z</time></trkpt><trkpt lat="44.8716506" lon="12.2852382"><ele>-2.0</ele><time>2026-04-24T11:18:57.255Z</time></trkpt><trkpt lat="44.8715183" lon="12.2852697"><ele>-2.0</ele><time>2026-04-24T11:18:58.255Z</time></trkpt><trkpt lat="44.8713874" lon="12.2853036"><ele>-2.0</ele><time>2026-04-24T11:18:59.254Z</time></trkpt><trkpt lat="44.8712469" lon="12.2853406"><ele>-2.0</ele><time>2026-04-24T11:19:00.254Z</time></trkpt><trkpt lat="44.8710929" lon="12.2853839"><ele>-2.0</ele><time>2026-04-24T11:19:01.254Z</time></trkpt><trkpt lat="44.8709371" lon="12.2854407"><ele>-2.0</ele><time>2026-04-24T11:19:02.253Z</time></trkpt><trkpt lat="44.8707865" lon="12.2855058"><ele>-2.0</ele><time>2026-04-24T11:19:03.255Z</time></trkpt><trkpt lat="44.8706325" lon="12.2855855"><ele>-2.0</ele><time>2026-04-24T11:19:04.255Z</time></trkpt><trkpt lat="44.8704732" lon="12.2856698"><ele>-1.6666666666666665</ele><time>2026-04-24T11:19:05.254Z</time></trkpt><trkpt lat="44.8703103" lon="12.2857598"><ele>-1.3333333333333333</ele><time>2026-04-24T11:19:06.255Z</time></trkpt><trkpt lat="44.8701443" lon="12.2858483"><ele>-1.0</ele><time>2026-04-24T11:19:07.254Z</time></trkpt><trkpt lat="44.8699765" lon="12.2859403"><ele>-1.0</ele><time>2026-04-24T11:19:08.253Z</time></trkpt><trkpt lat="44.8698094" lon="12.2860372"><ele>-1.0</ele><time>2026-04-24T11:19:09.254Z</time></trkpt><trkpt lat="44.8696484" lon="12.2861396"><ele>-1.0</ele><time>2026-04-24T11:19:10.255Z</time></trkpt><trkpt lat="44.8694885" lon="12.286258"><ele>-1.0</ele><time>2026-04-24T11:19:11.255Z</time></trkpt><trkpt lat="44.8693362" lon="12.2863912"><ele>-1.0</ele><time>2026-04-24T11:19:12.255Z</time></trkpt><trkpt lat="44.8691873" lon="12.2865381"><ele>-1.0</ele><time>2026-04-24T11:19:13.254Z</time></trkpt><trkpt lat="44.8690387" lon="12.2866824"><ele>0.0</ele><time>2026-04-24T11:19:14.254Z</time></trkpt><trkpt lat="44.8688834" lon="12.2868194"><ele>1.0</ele><time>2026-04-24T11:19:15.255Z</time></trkpt><trkpt lat="44.8687257" lon="12.2869471"><ele>2.0</ele><time>2026-04-24T11:19:16.255Z</time></trkpt><trkpt lat="44.8685715" lon="12.2870739"><ele>2.0</ele><time>2026-04-24T11:19:17.254Z</time></trkpt><trkpt lat="44.8684186" lon="12.2872155"><ele>2.0</ele><time>2026-04-24T11:19:18.254Z</time></trkpt><trkpt lat="44.8682676" lon="12.2873706"><ele>2.0</ele><time>2026-04-24T11:19:19.255Z</time></trkpt><trkpt lat="44.8681173" lon="12.287534"><ele>2.0</ele><time>2026-04-24T11:19:20.255Z</time></trkpt><trkpt lat="44.8679601" lon="12.2876934"><ele>2.0</ele><time>2026-04-24T11:19:21.254Z</time></trkpt><trkpt lat="44.8677985" lon="12.2878434"><ele>2.0</ele><time>2026-04-24T11:19:22.254Z</time></trkpt><trkpt lat="44.8676295" lon="12.2879861"><ele>1.6666666666666665</ele><time>2026-04-24T11:19:23.254Z</time></trkpt><trkpt lat="44.8674519" lon="12.2881169"><ele>1.3333333333333333</ele><time>2026-04-24T11:19:24.255Z</time></trkpt><trkpt lat="44.8672682" lon="12.2882325"><ele>1.0</ele><time>2026-04-24T11:19:25.254Z</time></trkpt><trkpt lat="44.8670798" lon="12.288333"><ele>1.0</ele><time>2026-04-24T11:19:26.255Z</time></trkpt><trkpt lat="44.8668881" lon="12.2884331"><ele>1.0</ele><time>2026-04-24T11:19:27.255Z</time></trkpt><trkpt lat="44.8666926" lon="12.2885258"><ele>1.0</ele><time>2026-04-24T11:19:28.255Z</time></trkpt><trkpt lat="44.8664971" lon="12.2886127"><ele>0.0</ele><time>2026-04-24T11:19:29.255Z</time></trkpt><trkpt lat="44.8662993" lon="12.2886958"><ele>-1.0</ele><time>2026-04-24T11:19:30.254Z</time></trkpt><trkpt lat="44.8660984" lon="12.2887748"><ele>-2.0</ele><time>2026-04-24T11:19:31.254Z</time></trkpt><trkpt lat="44.8658979" lon="12.2888526"><ele>-2.0</ele><time>2026-04-24T11:19:32.254Z</time></trkpt><trkpt lat="44.8657003" lon="12.2889248"><ele>-2.0</ele><time>2026-04-24T11:19:33.254Z</time></trkpt><trkpt lat="44.8655022" lon="12.2889963"><ele>-2.0</ele><time>2026-04-24T11:19:34.253Z</time></trkpt><trkpt lat="44.8653046" lon="12.2890773"><ele>-1.6666666666666665</ele><time>2026-04-24T11:19:35.254Z</time></trkpt><trkpt lat="44.8651084" lon="12.2891663"><ele>-1.3333333333333333</ele><time>2026-04-24T11:19:36.254Z</time></trkpt><trkpt lat="44.8649137" lon="12.2892634"><ele>-1.0</ele><time>2026-04-24T11:19:37.254Z</time></trkpt><trkpt lat="44.8647201" lon="12.2893627"><ele>-1.0</ele><time>2026-04-24T11:19:38.254Z</time></trkpt><trkpt lat="44.8645345" lon="12.2894614"><ele>-1.0</ele><time>2026-04-24T11:19:39.255Z</time></trkpt><trkpt lat="44.8643627" lon="12.2895547"><ele>-1.0</ele><time>2026-04-24T11:19:40.255Z</time></trkpt><trkpt lat="44.8642032" lon="12.2896413"><ele>-1.0</ele><time>2026-04-24T11:19:41.254Z</time></trkpt><trkpt lat="44.8640486" lon="12.2897241"><ele>-1.0</ele><time>2026-04-24T11:19:42.254Z</time></trkpt><trkpt lat="44.8638906" lon="12.2898096"><ele>-1.0</ele><time>2026-04-24T11:19:43.254Z</time></trkpt><trkpt lat="44.8637252" lon="12.2899005"><ele>-1.0</ele><time>2026-04-24T11:19:44.255Z</time></trkpt><trkpt lat="44.8635578" lon="12.289997"><ele>-1.0</ele><time>2026-04-24T11:19:45.255Z</time></trkpt><trkpt lat="44.8633881" lon="12.2900968"><ele>-1.0</ele><time>2026-04-24T11:19:46.254Z</time></trkpt><trkpt lat="44.863213" lon="12.2902034"><ele>-1.0</ele><time>2026-04-24T11:19:47.254Z</time></trkpt><trkpt lat="44.8630347" lon="12.2903155"><ele>-1.0</ele><time>2026-04-24T11:19:48.255Z</time></trkpt><trkpt lat="44.8628553" lon="12.2904361"><ele>-1.0</ele><time>2026-04-24T11:19:49.255Z</time></trkpt><trkpt lat="44.8626782" lon="12.2905653"><ele>-0.6666666666666666</ele><time>2026-04-24T11:19:50.253Z</time></trkpt><trkpt lat="44.8625019" lon="12.2906996"><ele>-0.3333333333333333</ele><time>2026-04-24T11:19:51.255Z</time></trkpt><trkpt lat="44.8623221" lon="12.2908383"><ele>0.0</ele><time>2026-04-24T11:19:52.254Z</time></trkpt><trkpt lat="44.8621409" lon="12.2909769"><ele>0.0</ele><time>2026-04-24T11:19:53.255Z</time></trkpt><trkpt lat="44.8619581" lon="12.291119"><ele>0.0</ele><time>2026-04-24T11:19:54.255Z</time></trkpt><trkpt lat="44.8617746" lon="12.2912661"><ele>0.0</ele><time>2026-04-24T11:19:55.254Z</time></trkpt><trkpt lat="44.8615899" lon="12.2914167"><ele>1.0</ele><time>2026-04-24T11:19:56.254Z</time></trkpt><trkpt lat="44.8614041" lon="12.2915746"><ele>2.0</ele><time>2026-04-24T11:19:57.254Z</time></trkpt><trkpt lat="44.8612186" lon="12.2917335"><ele>3.0</ele><time>2026-04-24T11:19:58.254Z</time></trkpt><trkpt lat="44.8610316" lon="12.2918927"><ele>2.3333333333333335</ele><time>2026-04-24T11:19:59.255Z</time></trkpt><trkpt lat="44.8608454" lon="12.2920526"><ele>1.6666666666666665</ele><time>2026-04-24T11:20:00.255Z</time></trkpt><trkpt lat="44.860661" lon="12.2922147"><ele>1.0</ele><time>2026-04-24T11:20:01.254Z</time></trkpt><trkpt lat="44.86048" lon="12.2923807"><ele>1.0</ele><time>2026-04-24T11:20:02.255Z</time></trkpt><trkpt lat="44.8603019" lon="12.292549"><ele>1.0</ele><time>2026-04-24T11:20:03.255Z</time></trkpt><trkpt lat="44.8601236" lon="12.2927182"><ele>1.0</ele><time>2026-04-24T11:20:04.254Z</time></trkpt><trkpt lat="44.8599438" lon="12.2928891"><ele>0.6666666666666666</ele><time>2026-04-24T11:20:05.254Z</time></trkpt><trkpt lat="44.8597642" lon="12.293054"><ele>0.3333333333333333</ele><time>2026-04-24T11:20:06.254Z</time></trkpt><trkpt lat="44.8595889" lon="12.2932151"><ele>0.0</ele><time>2026-04-24T11:20:07.254Z</time></trkpt><trkpt lat="44.8594256" lon="12.2933686"><ele>-1.0</ele><time>2026-04-24T11:20:08.255Z</time></trkpt><trkpt lat="44.8592689" lon="12.2935152"><ele>-2.0</ele><time>2026-04-24T11:20:09.255Z</time></trkpt><trkpt lat="44.8591088" lon="12.2936562"><ele>-3.0</ele><time>2026-04-24T11:20:10.255Z</time></trkpt><trkpt lat="44.8589443" lon="12.2937891"><ele>-3.0</ele><time>2026-04-24T11:20:11.254Z</time></trkpt><trkpt lat="44.8587795" lon="12.2939121"><ele>-3.0</ele><time>2026-04-24T11:20:12.254Z</time></trkpt><trkpt lat="44.8586227" lon="12.2940306"><ele>-3.0</ele><time>2026-04-24T11:20:13.254Z</time></trkpt><trkpt lat="44.8584803" lon="12.294138"><ele>-2.6</ele><time>2026-04-24T11:20:14.254Z</time></trkpt><trkpt lat="44.8583578" lon="12.2942292"><ele>-2.1999999999999997</ele><time>2026-04-24T11:20:15.255Z</time></trkpt><trkpt lat="44.8582602" lon="12.2943043"><ele>-1.8</ele><time>2026-04-24T11:20:16.255Z</time></trkpt><trkpt lat="44.8581843" lon="12.2943683"><ele>-1.4</ele><time>2026-04-24T11:20:17.254Z</time></trkpt><trkpt lat="44.8581272" lon="12.2944317"><ele>-1.0</ele><time>2026-04-24T11:20:18.254Z</time></trkpt><trkpt lat="44.8580409" lon="12.2945215"><ele>-0.9999999999999999</ele><time>2026-04-24T11:20:20.255Z</time></trkpt><trkpt lat="44.8579822" lon="12.2945556"><ele>-1.0</ele><time>2026-04-24T11:20:22.255Z</time></trkpt><trkpt lat="44.8579215" lon="12.294591"><ele>-1.0</ele><time>2026-04-24T11:20:25.255Z</time></trkpt><trkpt lat="44.8579418" lon="12.2944718"><ele>-1.0</ele><time>2026-04-24T11:20:34.255Z</time></trkpt><trkpt lat="44.8579938" lon="12.2943914"><ele>-0.9999999999999999</ele><time>2026-04-24T11:20:36.254Z</time></trkpt><trkpt lat="44.8580524" lon="12.2942954"><ele>-1.0</ele><time>2026-04-24T11:20:38.255Z</time></trkpt><trkpt lat="44.8581155" lon="12.2941885"><ele>-0.9999999999999999</ele><time>2026-04-24T11:20:40.255Z</time></trkpt><trkpt lat="44.8581251" lon="12.2940744"><ele>-1.0</ele><time>2026-04-24T11:20:42.254Z</time></trkpt><trkpt lat="44.8580832" lon="12.293967"><ele>-1.0</ele><time>2026-04-24T11:20:44.254Z</time></trkpt><trkpt lat="44.8580211" lon="12.2938204"><ele>-1.0</ele><time>2026-04-24T11:20:46.255Z</time></trkpt><trkpt lat="44.857988" lon="12.2937423"><ele>-0.9999999999999999</ele><time>2026-04-24T11:20:47.254Z</time></trkpt><trkpt lat="44.8579547" lon="12.2936623"><ele>-1.0</ele><time>2026-04-24T11:20:48.254Z</time></trkpt><trkpt lat="44.8579202" lon="12.2935808"><ele>-1.1428571428571428</ele><time>2026-04-24T11:20:49.255Z</time></trkpt><trkpt lat="44.8578851" lon="12.2934955"><ele>-1.2857142857142856</ele><time>2026-04-24T11:20:50.254Z</time></trkpt><trkpt lat="44.8578476" lon="12.293409"><ele>-1.4285714285714284</ele><time>2026-04-24T11:20:51.255Z</time></trkpt><trkpt lat="44.8578104" lon="12.293321"><ele>-1.5714285714285714</ele><time>2026-04-24T11:20:52.255Z</time></trkpt><trkpt lat="44.8577749" lon="12.2932314"><ele>-1.714285714285714</ele><time>2026-04-24T11:20:53.254Z</time></trkpt><trkpt lat="44.8577392" lon="12.2931445"><ele>-1.857142857142857</ele><time>2026-04-24T11:20:54.254Z</time></trkpt><trkpt lat="44.8577028" lon="12.2930627"><ele>-2.0</ele><time>2026-04-24T11:20:55.254Z</time></trkpt><trkpt lat="44.857664" lon="12.2929819"><ele>-2.333333333333333</ele><time>2026-04-24T11:20:56.255Z</time></trkpt><trkpt lat="44.8576077" lon="12.2928484"><ele>-2.6666666666666665</ele><time>2026-04-24T11:20:58.254Z</time></trkpt><trkpt lat="44.8575549" lon="12.2927979"><ele>-3.0</ele><time>2026-04-24T11:21:00.254Z</time></trkpt><trkpt lat="44.8574329" lon="12.2928414"><ele>-3.333333333333333</ele><time>2026-04-24T11:21:03.255Z</time></trkpt><trkpt lat="44.8573713" lon="12.2928839"><ele>-3.6666666666666665</ele><time>2026-04-24T11:21:04.255Z</time></trkpt><trkpt lat="44.8573069" lon="12.2929378"><ele>-4.0</ele><time>2026-04-24T11:21:05.254Z</time></trkpt><trkpt lat="44.8572382" lon="12.292999"><ele>-4.0</ele><time>2026-04-24T11:21:06.254Z</time></trkpt><trkpt lat="44.8571662" lon="12.2930594"><ele>-4.0</ele><time>2026-04-24T11:21:07.255Z</time></trkpt><trkpt lat="44.8570867" lon="12.2931229"><ele>-4.0</ele><time>2026-04-24T11:21:08.254Z</time></trkpt><trkpt lat="44.8570012" lon="12.2931889"><ele>-4.0</ele><time>2026-04-24T11:21:09.255Z</time></trkpt><trkpt lat="44.8569083" lon="12.2932606"><ele>-4.0</ele><time>2026-04-24T11:21:10.255Z</time></trkpt><trkpt lat="44.8568178" lon="12.2933346"><ele>-4.0</ele><time>2026-04-24T11:21:11.255Z</time></trkpt><trkpt lat="44.8567245" lon="12.2934061"><ele>-4.0</ele><time>2026-04-24T11:21:12.255Z</time></trkpt><trkpt lat="44.8566274" lon="12.2934815"><ele>-4.0</ele><time>2026-04-24T11:21:13.254Z</time></trkpt><trkpt lat="44.8565225" lon="12.2935617"><ele>-4.0</ele><time>2026-04-24T11:21:14.254Z</time></trkpt><trkpt lat="44.8564189" lon="12.2936424"><ele>-4.0</ele><time>2026-04-24T11:21:15.255Z</time></trkpt><trkpt lat="44.8563227" lon="12.2937146"><ele>-4.0</ele><time>2026-04-24T11:21:16.255Z</time></trkpt><trkpt lat="44.8562329" lon="12.2937805"><ele>-4.0</ele><time>2026-04-24T11:21:17.254Z</time></trkpt><trkpt lat="44.8561492" lon="12.2938424"><ele>-4.0</ele><time>2026-04-24T11:21:18.254Z</time></trkpt><trkpt lat="44.8560703" lon="12.2939031"><ele>-4.0</ele><time>2026-04-24T11:21:19.254Z</time></trkpt><trkpt lat="44.8559938" lon="12.2939606"><ele>-3.6</ele><time>2026-04-24T11:21:20.254Z</time></trkpt><trkpt lat="44.8559137" lon="12.2940131"><ele>-3.2</ele><time>2026-04-24T11:21:21.255Z</time></trkpt><trkpt lat="44.8558287" lon="12.2940687"><ele>-2.8000000000000003</ele><time>2026-04-24T11:21:22.255Z</time></trkpt><trkpt lat="44.8557373" lon="12.2941386"><ele>-2.4000000000000004</ele><time>2026-04-24T11:21:23.254Z</time></trkpt><trkpt lat="44.8556432" lon="12.2942169"><ele>-2.0</ele><time>2026-04-24T11:21:24.255Z</time></trkpt><trkpt lat="44.8555452" lon="12.2942948"><ele>-2.0</ele><time>2026-04-24T11:21:25.254Z</time></trkpt><trkpt lat="44.8554418" lon="12.2943738"><ele>-2.0</ele><time>2026-04-24T11:21:26.254Z</time></trkpt><trkpt lat="44.8553339" lon="12.2944563"><ele>-2.0</ele><time>2026-04-24T11:21:27.255Z</time></trkpt><trkpt lat="44.8552251" lon="12.2945401"><ele>-2.0</ele><time>2026-04-24T11:21:28.254Z</time></trkpt><trkpt lat="44.855119" lon="12.2946216"><ele>-1.8</ele><time>2026-04-24T11:21:29.254Z</time></trkpt><trkpt lat="44.8550222" lon="12.2946961"><ele>-1.6</ele><time>2026-04-24T11:21:30.255Z</time></trkpt><trkpt lat="44.8549477" lon="12.2947539"><ele>-1.4000000000000001</ele><time>2026-04-24T11:21:31.255Z</time></trkpt><trkpt lat="44.8548517" lon="12.2948079"><ele>-1.2000000000000002</ele><time>2026-04-24T11:21:33.255Z</time></trkpt><trkpt lat="44.8547856" lon="12.2948487"><ele>-1.0</ele><time>2026-04-24T11:21:37.255Z</time></trkpt><trkpt lat="44.8547208" lon="12.2949186"><ele>-0.9999999999999999</ele><time>2026-04-24T11:21:39.255Z</time></trkpt><trkpt lat="44.8546238" lon="12.2950191"><ele>-1.0</ele><time>2026-04-24T11:21:41.254Z</time></trkpt><trkpt lat="44.8545674" lon="12.2950633"><ele>-1.0</ele><time>2026-04-24T11:21:42.254Z</time></trkpt><trkpt lat="44.8545009" lon="12.2951076"><ele>-1.0</ele><time>2026-04-24T11:21:43.254Z</time></trkpt><trkpt lat="44.8544255" lon="12.2951534"><ele>-0.9999999999999999</ele><time>2026-04-24T11:21:44.254Z</time></trkpt><trkpt lat="44.8543592" lon="12.2951987"><ele>-1.0</ele><time>2026-04-24T11:21:45.254Z</time></trkpt><trkpt lat="44.8542895" lon="12.2952481"><ele>-1.2000000000000002</ele><time>2026-04-24T11:21:46.255Z</time></trkpt><trkpt lat="44.8542092" lon="12.2952989"><ele>-1.4000000000000001</ele><time>2026-04-24T11:21:47.255Z</time></trkpt><trkpt lat="44.8541246" lon="12.2953563"><ele>-1.6</ele><time>2026-04-24T11:21:48.254Z</time></trkpt><trkpt lat="44.8540318" lon="12.2954222"><ele>-1.8</ele><time>2026-04-24T11:21:49.254Z</time></trkpt><trkpt lat="44.8539457" lon="12.2954907"><ele>-2.0</ele><time>2026-04-24T11:21:50.255Z</time></trkpt><trkpt lat="44.8538666" lon="12.295564"><ele>-1.9999999999999998</ele><time>2026-04-24T11:21:51.254Z</time></trkpt><trkpt lat="44.8537924" lon="12.295643"><ele>-2.0</ele><time>2026-04-24T11:21:52.254Z</time></trkpt><trkpt lat="44.853706" lon="12.2957139"><ele>-2.0</ele><time>2026-04-24T11:21:53.255Z</time></trkpt><trkpt lat="44.8536295" lon="12.295773"><ele>-2.0</ele><time>2026-04-24T11:21:54.254Z</time></trkpt><trkpt lat="44.8535606" lon="12.2958257"><ele>-1.9999999999999998</ele><time>2026-04-24T11:21:55.254Z</time></trkpt><trkpt lat="44.8535031" lon="12.2958675"><ele>-2.0</ele><time>2026-04-24T11:21:56.255Z</time></trkpt><trkpt lat="44.8534312" lon="12.2959136"><ele>-2.0</ele><time>2026-04-24T11:21:58.254Z</time></trkpt><trkpt lat="44.8533634" lon="12.2959475"><ele>-2.0</ele><time>2026-04-24T11:22:01.255Z</time></trkpt><trkpt lat="44.8532887" lon="12.2960233"><ele>-2.0</ele><time>2026-04-24T11:22:13.254Z</time></trkpt><trkpt lat="44.8532763" lon="12.2961835"><ele>-2.0</ele><time>2026-04-24T11:22:15.254Z</time></trkpt><trkpt lat="44.853282" lon="12.2963199"><ele>-2.0</ele><time>2026-04-24T11:22:17.255Z</time></trkpt><trkpt lat="44.8532798" lon="12.296458"><ele>-2.0</ele><time>2026-04-24T11:22:19.254Z</time></trkpt><trkpt lat="44.8532821" lon="12.2965888"><ele>-2.0</ele><time>2026-04-24T11:22:21.255Z</time></trkpt><trkpt lat="44.8532906" lon="12.2967654"><ele>-2.0</ele><time>2026-04-24T11:22:23.255Z</time></trkpt><trkpt lat="44.8532934" lon="12.2968663"><ele>-2.0</ele><time>2026-04-24T11:22:24.254Z</time></trkpt><trkpt lat="44.8532944" lon="12.2969595"><ele>-2.0</ele><time>2026-04-24T11:22:25.254Z</time></trkpt><trkpt lat="44.8532864" lon="12.2971377"><ele>-1.9999999999999998</ele><time>2026-04-24T11:22:27.255Z</time></trkpt><trkpt lat="44.8532763" lon="12.2972388"><ele>-2.0</ele><time>2026-04-24T11:22:28.255Z</time></trkpt><trkpt lat="44.853262" lon="12.2973495"><ele>-2.0</ele><time>2026-04-24T11:22:29.254Z</time></trkpt><trkpt lat="44.8532474" lon="12.2974705"><ele>-2.0</ele><time>2026-04-24T11:22:30.254Z</time></trkpt><trkpt lat="44.8532309" lon="12.2975982"><ele>-1.9999999999999998</ele><time>2026-04-24T11:22:31.255Z</time></trkpt><trkpt lat="44.8532126" lon="12.2977369"><ele>-2.0</ele><time>2026-04-24T11:22:32.254Z</time></trkpt><trkpt lat="44.8531921" lon="12.297878"><ele>-2.0</ele><time>2026-04-24T11:22:33.254Z</time></trkpt><trkpt lat="44.8531717" lon="12.2980281"><ele>-2.0</ele><time>2026-04-24T11:22:34.254Z</time></trkpt><trkpt lat="44.8531516" lon="12.298177"><ele>-2.0</ele><time>2026-04-24T11:22:35.255Z</time></trkpt><trkpt lat="44.8531333" lon="12.2983312"><ele>-2.0</ele><time>2026-04-24T11:22:36.254Z</time></trkpt><trkpt lat="44.8531138" lon="12.2984836"><ele>-2.0</ele><time>2026-04-24T11:22:37.255Z</time></trkpt><trkpt lat="44.8530941" lon="12.2986334"><ele>-2.0</ele><time>2026-04-24T11:22:38.254Z</time></trkpt><trkpt lat="44.8530754" lon="12.2987818"><ele>-2.0</ele><time>2026-04-24T11:22:39.254Z</time></trkpt><trkpt lat="44.853062" lon="12.2989234"><ele>-2.0</ele><time>2026-04-24T11:22:40.254Z</time></trkpt><trkpt lat="44.8530456" lon="12.299055"><ele>-2.0</ele><time>2026-04-24T11:22:41.255Z</time></trkpt><trkpt lat="44.8530328" lon="12.2991747"><ele>-2.0</ele><time>2026-04-24T11:22:42.254Z</time></trkpt><trkpt lat="44.8530188" lon="12.2992838"><ele>-1.9999999999999998</ele><time>2026-04-24T11:22:43.254Z</time></trkpt><trkpt lat="44.8529947" lon="12.2994377"><ele>-2.0</ele><time>2026-04-24T11:22:45.254Z</time></trkpt><trkpt lat="44.85296" lon="12.2995143"><ele>-2.0</ele><time>2026-04-24T11:22:47.255Z</time></trkpt><trkpt lat="44.8529336" lon="12.2996239"><ele>-2.0</ele><time>2026-04-24T11:22:51.255Z</time></trkpt><trkpt lat="44.8529823" lon="12.2997128"><ele>-1.9999999999999998</ele><time>2026-04-24T11:22:53.254Z</time></trkpt><trkpt lat="44.8530499" lon="12.2998297"><ele>-2.0</ele><time>2026-04-24T11:22:55.254Z</time></trkpt><trkpt lat="44.8530678" lon="12.2999597"><ele>-1.8</ele><time>2026-04-24T11:22:57.255Z</time></trkpt><trkpt lat="44.8530365" lon="12.3001338"><ele>-1.6</ele><time>2026-04-24T11:22:59.255Z</time></trkpt><trkpt lat="44.853017" lon="12.3002529"><ele>-1.4000000000000001</ele><time>2026-04-24T11:23:00.254Z</time></trkpt><trkpt lat="44.8529966" lon="12.3003796"><ele>-1.2000000000000002</ele><time>2026-04-24T11:23:01.255Z</time></trkpt><trkpt lat="44.8529786" lon="12.300515"><ele>-1.0</ele><time>2026-04-24T11:23:02.254Z</time></trkpt><trkpt lat="44.8529593" lon="12.3006675"><ele>-1.0</ele><time>2026-04-24T11:23:03.254Z</time></trkpt><trkpt lat="44.8529386" lon="12.3008363"><ele>-1.0</ele><time>2026-04-24T11:23:04.255Z</time></trkpt><trkpt lat="44.8529148" lon="12.3010212"><ele>-1.0</ele><time>2026-04-24T11:23:05.254Z</time></trkpt><trkpt lat="44.8528948" lon="12.3012037"><ele>-1.0</ele><time>2026-04-24T11:23:06.255Z</time></trkpt><trkpt lat="44.8528727" lon="12.3013955"><ele>-1.0</ele><time>2026-04-24T11:23:07.255Z</time></trkpt><trkpt lat="44.8528556" lon="12.3015991"><ele>-1.0</ele><time>2026-04-24T11:23:08.254Z</time></trkpt><trkpt lat="44.8528349" lon="12.3018083"><ele>-1.0</ele><time>2026-04-24T11:23:09.255Z</time></trkpt><trkpt lat="44.8528163" lon="12.3020114"><ele>-1.0</ele><time>2026-04-24T11:23:10.255Z</time></trkpt><trkpt lat="44.8527933" lon="12.3022076"><ele>-1.25</ele><time>2026-04-24T11:23:11.254Z</time></trkpt><trkpt lat="44.8527723" lon="12.3024088"><ele>-1.5</ele><time>2026-04-24T11:23:12.254Z</time></trkpt><trkpt lat="44.8527529" lon="12.3026112"><ele>-1.75</ele><time>2026-04-24T11:23:13.255Z</time></trkpt><trkpt lat="44.8527359" lon="12.3028187"><ele>-2.0</ele><time>2026-04-24T11:23:14.254Z</time></trkpt><trkpt lat="44.8527153" lon="12.3030339"><ele>-1.6666666666666665</ele><time>2026-04-24T11:23:15.255Z</time></trkpt><trkpt lat="44.852694" lon="12.3032504"><ele>-1.3333333333333333</ele><time>2026-04-24T11:23:16.255Z</time></trkpt><trkpt lat="44.8526718" lon="12.3034649"><ele>-1.0</ele><time>2026-04-24T11:23:17.255Z</time></trkpt><trkpt lat="44.8526484" lon="12.3036852"><ele>-1.0</ele><time>2026-04-24T11:23:18.254Z</time></trkpt><trkpt lat="44.8526293" lon="12.3039071"><ele>-1.0</ele><time>2026-04-24T11:23:19.254Z</time></trkpt><trkpt lat="44.8526092" lon="12.3041281"><ele>-1.0</ele><time>2026-04-24T11:23:20.255Z</time></trkpt><trkpt lat="44.8525903" lon="12.304353"><ele>-1.3333333333333333</ele><time>2026-04-24T11:23:21.254Z</time></trkpt><trkpt lat="44.852569" lon="12.3045765"><ele>-1.6666666666666665</ele><time>2026-04-24T11:23:22.254Z</time></trkpt><trkpt lat="44.8525524" lon="12.3047998"><ele>-2.0</ele><time>2026-04-24T11:23:23.255Z</time></trkpt><trkpt lat="44.8525325" lon="12.3050199"><ele>-2.0</ele><time>2026-04-24T11:23:24.255Z</time></trkpt><trkpt lat="44.8525171" lon="12.3052394"><ele>-2.0</ele><time>2026-04-24T11:23:25.254Z</time></trkpt><trkpt lat="44.8524993" lon="12.3054639"><ele>-2.0</ele><time>2026-04-24T11:23:26.254Z</time></trkpt><trkpt lat="44.8524789" lon="12.3056881"><ele>-2.0</ele><time>2026-04-24T11:23:27.255Z</time></trkpt><trkpt lat="44.8524596" lon="12.3059168"><ele>-2.0</ele><time>2026-04-24T11:23:28.254Z</time></trkpt><trkpt lat="44.8524403" lon="12.3061473"><ele>-2.0</ele><time>2026-04-24T11:23:29.254Z</time></trkpt><trkpt lat="44.8524205" lon="12.3063818"><ele>-2.0</ele><time>2026-04-24T11:23:30.255Z</time></trkpt><trkpt lat="44.8523987" lon="12.3066059"><ele>-2.0</ele><time>2026-04-24T11:23:31.255Z</time></trkpt><trkpt lat="44.8523784" lon="12.3068266"><ele>-2.0</ele><time>2026-04-24T11:23:32.253Z</time></trkpt><trkpt lat="44.8523572" lon="12.307037"><ele>-2.0</ele><time>2026-04-24T11:23:33.255Z</time></trkpt><trkpt lat="44.85234" lon="12.3072387"><ele>-2.0</ele><time>2026-04-24T11:23:34.255Z</time></trkpt><trkpt lat="44.8523238" lon="12.3074285"><ele>-2.0</ele><time>2026-04-24T11:23:35.254Z</time></trkpt><trkpt lat="44.8523098" lon="12.307608"><ele>-2.0</ele><time>2026-04-24T11:23:36.255Z</time></trkpt><trkpt lat="44.8523005" lon="12.3077769"><ele>-2.0</ele><time>2026-04-24T11:23:37.254Z</time></trkpt><trkpt lat="44.8522965" lon="12.3079373"><ele>-2.0</ele><time>2026-04-24T11:23:38.254Z</time></trkpt><trkpt lat="44.8522985" lon="12.308098"><ele>-2.0</ele><time>2026-04-24T11:23:39.255Z</time></trkpt><trkpt lat="44.8523023" lon="12.3082707"><ele>-2.0</ele><time>2026-04-24T11:23:40.254Z</time></trkpt><trkpt lat="44.8523025" lon="12.3084542"><ele>-2.25</ele><time>2026-04-24T11:23:41.254Z</time></trkpt><trkpt lat="44.8523051" lon="12.3086467"><ele>-2.5</ele><time>2026-04-24T11:23:42.255Z</time></trkpt><trkpt lat="44.8523087" lon="12.3088502"><ele>-2.75</ele><time>2026-04-24T11:23:43.254Z</time></trkpt><trkpt lat="44.8523097" lon="12.3090637"><ele>-3.0</ele><time>2026-04-24T11:23:44.254Z</time></trkpt><trkpt lat="44.8523083" lon="12.3092815"><ele>-3.0</ele><time>2026-04-24T11:23:45.255Z</time></trkpt><trkpt lat="44.8523051" lon="12.3095062"><ele>-3.0</ele><time>2026-04-24T11:23:46.255Z</time></trkpt><trkpt lat="44.8523027" lon="12.3097322"><ele>-3.0</ele><time>2026-04-24T11:23:47.254Z</time></trkpt><trkpt lat="44.8522992" lon="12.309953"><ele>-3.0</ele><time>2026-04-24T11:23:48.255Z</time></trkpt><trkpt lat="44.8522946" lon="12.3101613"><ele>-3.0</ele><time>2026-04-24T11:23:49.255Z</time></trkpt><trkpt lat="44.85229" lon="12.3103517"><ele>-3.0</ele><time>2026-04-24T11:23:50.254Z</time></trkpt><trkpt lat="44.8522868" lon="12.3105271"><ele>-3.0</ele><time>2026-04-24T11:23:51.255Z</time></trkpt><trkpt lat="44.8522816" lon="12.3106753"><ele>-2.8</ele><time>2026-04-24T11:23:52.255Z</time></trkpt><trkpt lat="44.8522758" lon="12.3107968"><ele>-2.5999999999999996</ele><time>2026-04-24T11:23:53.253Z</time></trkpt><trkpt lat="44.8522707" lon="12.3108927"><ele>-2.4000000000000004</ele><time>2026-04-24T11:23:54.255Z</time></trkpt><trkpt lat="44.8522437" lon="12.3110209"><ele>-2.2</ele><time>2026-04-24T11:23:56.254Z</time></trkpt><trkpt lat="44.8521724" lon="12.3111348"><ele>-2.0</ele><time>2026-04-24T11:23:58.253Z</time></trkpt><trkpt lat="44.8520954" lon="12.3112788"><ele>-1.9999999999999998</ele><time>2026-04-24T11:24:00.254Z</time></trkpt><trkpt lat="44.8520671" lon="12.3113686"><ele>-2.0</ele><time>2026-04-24T11:24:01.253Z</time></trkpt><trkpt lat="44.8520438" lon="12.3114699"><ele>-2.0</ele><time>2026-04-24T11:24:02.254Z</time></trkpt><trkpt lat="44.8520295" lon="12.3115651"><ele>-2.0</ele><time>2026-04-24T11:24:03.253Z</time></trkpt><trkpt lat="44.8520296" lon="12.3116632"><ele>-1.9999999999999998</ele><time>2026-04-24T11:24:04.253Z</time></trkpt><trkpt lat="44.8520309" lon="12.3117522"><ele>-2.0</ele><time>2026-04-24T11:24:05.254Z</time></trkpt><trkpt lat="44.8520213" lon="12.3119034"><ele>-2.1666666666666665</ele><time>2026-04-24T11:24:07.254Z</time></trkpt><trkpt lat="44.8520021" lon="12.3120011"><ele>-2.333333333333333</ele><time>2026-04-24T11:24:09.254Z</time></trkpt><trkpt lat="44.8519712" lon="12.3120831"><ele>-2.5</ele><time>2026-04-24T11:24:13.254Z</time></trkpt><trkpt lat="44.8520497" lon="12.3121046"><ele>-2.6666666666666665</ele><time>2026-04-24T11:24:16.253Z</time></trkpt><trkpt lat="44.85211" lon="12.3120269"><ele>-2.8333333333333335</ele><time>2026-04-24T11:24:19.253Z</time></trkpt><trkpt lat="44.8520742" lon="12.3118861"><ele>-3.0</ele><time>2026-04-24T11:24:21.253Z</time></trkpt><trkpt lat="44.8520383" lon="12.3117041"><ele>-3.0</ele><time>2026-04-24T11:24:23.253Z</time></trkpt><trkpt lat="44.8520369" lon="12.3115909"><ele>-3.0</ele><time>2026-04-24T11:24:24.254Z</time></trkpt><trkpt lat="44.852045" lon="12.3114754"><ele>-3.0</ele><time>2026-04-24T11:24:25.253Z</time></trkpt><trkpt lat="44.8520691" lon="12.3113704"><ele>-3.0</ele><time>2026-04-24T11:24:26.254Z</time></trkpt><trkpt lat="44.852103" lon="12.3112767"><ele>-3.0</ele><time>2026-04-24T11:24:27.254Z</time></trkpt><trkpt lat="44.8521672" lon="12.3111483"><ele>-3.0</ele><time>2026-04-24T11:24:29.253Z</time></trkpt><trkpt lat="44.8522537" lon="12.3110802"><ele>-2.8</ele><time>2026-04-24T11:24:31.253Z</time></trkpt><trkpt lat="44.8523248" lon="12.3110778"><ele>-2.5999999999999996</ele><time>2026-04-24T11:24:32.254Z</time></trkpt><trkpt lat="44.8524149" lon="12.3110945"><ele>-2.4000000000000004</ele><time>2026-04-24T11:24:33.254Z</time></trkpt><trkpt lat="44.8525064" lon="12.3111063"><ele>-2.2</ele><time>2026-04-24T11:24:34.254Z</time></trkpt><trkpt lat="44.852618" lon="12.3111164"><ele>-2.0</ele><time>2026-04-24T11:24:35.253Z</time></trkpt><trkpt lat="44.8527433" lon="12.3111235"><ele>-2.0</ele><time>2026-04-24T11:24:36.252Z</time></trkpt><trkpt lat="44.8528695" lon="12.3111245"><ele>-2.0</ele><time>2026-04-24T11:24:37.253Z</time></trkpt><trkpt lat="44.8530036" lon="12.3111346"><ele>-2.0</ele><time>2026-04-24T11:24:38.254Z</time></trkpt><trkpt lat="44.8531469" lon="12.3111485"><ele>-2.0</ele><time>2026-04-24T11:24:39.253Z</time></trkpt><trkpt lat="44.8532838" lon="12.31116"><ele>-2.0</ele><time>2026-04-24T11:24:40.253Z</time></trkpt><trkpt lat="44.8534059" lon="12.31117"><ele>-2.0</ele><time>2026-04-24T11:24:41.253Z</time></trkpt><trkpt lat="44.8535126" lon="12.311181"><ele>-2.0</ele><time>2026-04-24T11:24:42.253Z</time></trkpt><trkpt lat="44.8536028" lon="12.3111924"><ele>-2.0</ele><time>2026-04-24T11:24:43.254Z</time></trkpt><trkpt lat="44.8536793" lon="12.3112034"><ele>-2.0</ele><time>2026-04-24T11:24:44.254Z</time></trkpt><trkpt lat="44.8537764" lon="12.3112796"><ele>-2.2</ele><time>2026-04-24T11:24:46.253Z</time></trkpt><trkpt lat="44.8537987" lon="12.3114427"><ele>-2.4000000000000004</ele><time>2026-04-24T11:24:48.254Z</time></trkpt><trkpt lat="44.8537881" lon="12.3115815"><ele>-2.5999999999999996</ele><time>2026-04-24T11:24:50.253Z</time></trkpt><trkpt lat="44.8538011" lon="12.3116693"><ele>-2.8</ele><time>2026-04-24T11:24:58.253Z</time></trkpt><trkpt lat="44.8538716" lon="12.3116332"><ele>-3.0</ele><time>2026-04-24T11:25:02.254Z</time></trkpt><trkpt lat="44.8539011" lon="12.3114628"><ele>-2.8</ele><time>2026-04-24T11:25:04.254Z</time></trkpt><trkpt lat="44.8539162" lon="12.3113677"><ele>-2.5999999999999996</ele><time>2026-04-24T11:25:05.254Z</time></trkpt><trkpt lat="44.8539306" lon="12.3112382"><ele>-2.4000000000000004</ele><time>2026-04-24T11:25:06.254Z</time></trkpt><trkpt lat="44.8539492" lon="12.311106"><ele>-2.2</ele><time>2026-04-24T11:25:07.253Z</time></trkpt><trkpt lat="44.8539694" lon="12.3109535"><ele>-2.0</ele><time>2026-04-24T11:25:08.253Z</time></trkpt><trkpt lat="44.8539968" lon="12.3107806"><ele>-2.0</ele><time>2026-04-24T11:25:09.253Z</time></trkpt><trkpt lat="44.854023" lon="12.3106119"><ele>-2.0</ele><time>2026-04-24T11:25:10.254Z</time></trkpt><trkpt lat="44.8540509" lon="12.3104252"><ele>-2.0</ele><time>2026-04-24T11:25:11.253Z</time></trkpt><trkpt lat="44.8540784" lon="12.3102341"><ele>-2.0</ele><time>2026-04-24T11:25:12.254Z</time></trkpt><trkpt lat="44.8541083" lon="12.3100332"><ele>-2.0</ele><time>2026-04-24T11:25:13.254Z</time></trkpt><trkpt lat="44.8541378" lon="12.309837"><ele>-2.0</ele><time>2026-04-24T11:25:14.254Z</time></trkpt><trkpt lat="44.8541677" lon="12.3096541"><ele>-2.0</ele><time>2026-04-24T11:25:15.254Z</time></trkpt><trkpt lat="44.8541974" lon="12.3094849"><ele>-2.0</ele><time>2026-04-24T11:25:16.253Z</time></trkpt><trkpt lat="44.8542276" lon="12.3093263"><ele>-2.2</ele><time>2026-04-24T11:25:17.253Z</time></trkpt><trkpt lat="44.8542568" lon="12.3091813"><ele>-2.4000000000000004</ele><time>2026-04-24T11:25:18.253Z</time></trkpt><trkpt lat="44.8542813" lon="12.3090411"><ele>-2.5999999999999996</ele><time>2026-04-24T11:25:19.254Z</time></trkpt><trkpt lat="44.8543088" lon="12.3088942"><ele>-2.8</ele><time>2026-04-24T11:25:20.254Z</time></trkpt><trkpt lat="44.8543406" lon="12.3087462"><ele>-3.0</ele><time>2026-04-24T11:25:21.253Z</time></trkpt><trkpt lat="44.8543766" lon="12.3085932"><ele>-2.5</ele><time>2026-04-24T11:25:22.254Z</time></trkpt><trkpt lat="44.854413" lon="12.3084348"><ele>-2.0</ele><time>2026-04-24T11:25:23.254Z</time></trkpt><trkpt lat="44.8544495" lon="12.3082742"><ele>-1.5</ele><time>2026-04-24T11:25:24.253Z</time></trkpt><trkpt lat="44.8544817" lon="12.3081203"><ele>-1.0</ele><time>2026-04-24T11:25:25.253Z</time></trkpt><trkpt lat="44.8545106" lon="12.3079753"><ele>-0.8333333333333333</ele><time>2026-04-24T11:25:26.254Z</time></trkpt><trkpt lat="44.8545364" lon="12.307842"><ele>-0.6666666666666666</ele><time>2026-04-24T11:25:27.254Z</time></trkpt><trkpt lat="44.8545619" lon="12.3077206"><ele>-0.5</ele><time>2026-04-24T11:25:28.253Z</time></trkpt><trkpt lat="44.8545807" lon="12.3076254"><ele>-0.3333333333333333</ele><time>2026-04-24T11:25:29.254Z</time></trkpt><trkpt lat="44.8545998" lon="12.3075117"><ele>-0.16666666666666666</ele><time>2026-04-24T11:25:31.254Z</time></trkpt><trkpt lat="44.8546101" lon="12.3074226"><ele>0.0</ele><time>2026-04-24T11:25:35.254Z</time></trkpt><trkpt lat="44.8545687" lon="12.3075002"><ele>0.0</ele><time>2026-04-24T11:25:40.254Z</time></trkpt><trkpt lat="44.8545583" lon="12.3076558"><ele>0.0</ele><time>2026-04-24T11:25:42.253Z</time></trkpt><trkpt lat="44.8545276" lon="12.3078141"><ele>0.0</ele><time>2026-04-24T11:25:44.253Z</time></trkpt><trkpt lat="44.8545068" lon="12.3079013"><ele>0.0</ele><time>2026-04-24T11:25:45.253Z</time></trkpt><trkpt lat="44.8544834" lon="12.3079926"><ele>0.0</ele><time>2026-04-24T11:25:46.253Z</time></trkpt><trkpt lat="44.8544563" lon="12.3081002"><ele>0.0</ele><time>2026-04-24T11:25:47.252Z</time></trkpt><trkpt lat="44.8544329" lon="12.3082032"><ele>-0.2</ele><time>2026-04-24T11:25:48.254Z</time></trkpt><trkpt lat="44.8544059" lon="12.3083246"><ele>-0.4</ele><time>2026-04-24T11:25:49.254Z</time></trkpt><trkpt lat="44.8543795" lon="12.3084622"><ele>-0.6000000000000001</ele><time>2026-04-24T11:25:50.254Z</time></trkpt><trkpt lat="44.8543478" lon="12.3086104"><ele>-0.8</ele><time>2026-04-24T11:25:51.253Z</time></trkpt><trkpt lat="44.8543152" lon="12.3087665"><ele>-1.0</ele><time>2026-04-24T11:25:52.252Z</time></trkpt><trkpt lat="44.8542791" lon="12.3089252"><ele>-1.5</ele><time>2026-04-24T11:25:53.254Z</time></trkpt><trkpt lat="44.8542436" lon="12.3091008"><ele>-2.0</ele><time>2026-04-24T11:25:54.253Z</time></trkpt><trkpt lat="44.8542091" lon="12.3092835"><ele>-2.5</ele><time>2026-04-24T11:25:55.253Z</time></trkpt><trkpt lat="44.8541732" lon="12.3094758"><ele>-3.0</ele><time>2026-04-24T11:25:56.254Z</time></trkpt><trkpt lat="44.8541371" lon="12.3096675"><ele>-2.75</ele><time>2026-04-24T11:25:57.254Z</time></trkpt><trkpt lat="44.8541039" lon="12.3098625"><ele>-2.5</ele><time>2026-04-24T11:25:58.253Z</time></trkpt><trkpt lat="44.8540739" lon="12.310049"><ele>-2.25</ele><time>2026-04-24T11:25:59.253Z</time></trkpt><trkpt lat="44.8540493" lon="12.3102249"><ele>-2.0</ele><time>2026-04-24T11:26:00.254Z</time></trkpt><trkpt lat="44.8540246" lon="12.3104054"><ele>-2.0</ele><time>2026-04-24T11:26:01.254Z</time></trkpt><trkpt lat="44.8540008" lon="12.310574"><ele>-2.0</ele><time>2026-04-24T11:26:02.253Z</time></trkpt><trkpt lat="44.8539764" lon="12.3107335"><ele>-2.0</ele><time>2026-04-24T11:26:03.254Z</time></trkpt><trkpt lat="44.8539555" lon="12.3108759"><ele>-2.0</ele><time>2026-04-24T11:26:04.254Z</time></trkpt><trkpt lat="44.8539364" lon="12.3110111"><ele>-2.0</ele><time>2026-04-24T11:26:05.253Z</time></trkpt><trkpt lat="44.8539204" lon="12.3111275"><ele>-2.0</ele><time>2026-04-24T11:26:06.254Z</time></trkpt><trkpt lat="44.8539097" lon="12.3112358"><ele>-2.0</ele><time>2026-04-24T11:26:07.254Z</time></trkpt><trkpt lat="44.8539042" lon="12.3113327"><ele>-2.0</ele><time>2026-04-24T11:26:08.253Z</time></trkpt><trkpt lat="44.8538973" lon="12.3114865"><ele>-3.0</ele><time>2026-04-24T11:26:10.254Z</time></trkpt><trkpt lat="44.8538835" lon="12.3115969"><ele>-3.0</ele><time>2026-04-24T11:26:13.254Z</time></trkpt></trkseg></trk></gpx>